<?xml version="1.0" encoding="UTF-8" standalone="no" ?>
<gpx xmlns="http://www.topografix.com/GPX/1/1" xmlns:xsi="http://www.w3.org/2001/XMLSchema-instance" xsi:schemaLocation="http://www.topografix.com/GPX/1/1 http://www.topografix.com/GPX/1/1/gpx.xsd" version="1.1" creator="VisuGPX - https://www.visugpx.com">
  <metadata>
    <name>MB. Sortie du 13/06/2019</name>
    <desc><![CDATA[Sortie VTT du jeudi 13 juin 2019]]></desc>
  </metadata>
  <trk>
    <name><![CDATA[Pornichet Cyclisme]]></name>
    <trkseg>
      <trkpt lat="47.25783" lon="-2.31653">
        <ele>3.2000000476837</ele>
        <time>2019-06-13T07:01:40.000Z</time>
      </trkpt>
      <trkpt lat="47.2577" lon="-2.31665">
        <ele>3.2000000476837</ele>
        <time>2019-06-13T07:01:43.000Z</time>
      </trkpt>
      <trkpt lat="47.25766" lon="-2.31669">
        <ele>3</ele>
        <time>2019-06-13T07:01:44.000Z</time>
      </trkpt>
      <trkpt lat="47.25751" lon="-2.31681">
        <ele>3</ele>
        <time>2019-06-13T07:01:47.000Z</time>
      </trkpt>
      <trkpt lat="47.25732" lon="-2.31699">
        <ele>3</ele>
        <time>2019-06-13T07:01:52.000Z</time>
      </trkpt>
      <trkpt lat="47.25726" lon="-2.31704">
        <ele>2.5999999046326</ele>
        <time>2019-06-13T07:01:54.000Z</time>
      </trkpt>
      <trkpt lat="47.25722" lon="-2.31702">
        <ele>2</ele>
        <time>2019-06-13T07:01:55.000Z</time>
      </trkpt>
      <trkpt lat="47.25718" lon="-2.31698">
        <ele>1.6000000238419</ele>
        <time>2019-06-13T07:01:56.000Z</time>
      </trkpt>
      <trkpt lat="47.25714" lon="-2.31695">
        <ele>1.2000000476837</ele>
        <time>2019-06-13T07:01:57.000Z</time>
      </trkpt>
      <trkpt lat="47.25709" lon="-2.31693">
        <ele>0.80000001192093</ele>
        <time>2019-06-13T07:01:58.000Z</time>
      </trkpt>
      <trkpt lat="47.25695" lon="-2.31685">
        <ele>0.80000001192093</ele>
        <time>2019-06-13T07:02:01.000Z</time>
      </trkpt>
      <trkpt lat="47.25685" lon="-2.31681">
        <ele>0.80000001192093</ele>
        <time>2019-06-13T07:02:03.000Z</time>
      </trkpt>
      <trkpt lat="47.25677" lon="-2.31677">
        <ele>0.80000001192093</ele>
        <time>2019-06-13T07:02:05.000Z</time>
      </trkpt>
      <trkpt lat="47.25672" lon="-2.31676">
        <ele>0.80000001192093</ele>
        <time>2019-06-13T07:02:06.000Z</time>
      </trkpt>
      <trkpt lat="47.25667" lon="-2.31678">
        <ele>0.80000001192093</ele>
        <time>2019-06-13T07:02:07.000Z</time>
      </trkpt>
      <trkpt lat="47.2566" lon="-2.31683">
        <ele>1.2000000476837</ele>
        <time>2019-06-13T07:02:09.000Z</time>
      </trkpt>
      <trkpt lat="47.25656" lon="-2.31684">
        <ele>1.6000000238419</ele>
        <time>2019-06-13T07:02:10.000Z</time>
      </trkpt>
      <trkpt lat="47.25652" lon="-2.31686">
        <ele>2</ele>
        <time>2019-06-13T07:02:11.000Z</time>
      </trkpt>
      <trkpt lat="47.25649" lon="-2.3169">
        <ele>2.4000000953674</ele>
        <time>2019-06-13T07:02:12.000Z</time>
      </trkpt>
      <trkpt lat="47.25645" lon="-2.31695">
        <ele>2.7999999523163</ele>
        <time>2019-06-13T07:02:13.000Z</time>
      </trkpt>
      <trkpt lat="47.25633" lon="-2.31709">
        <ele>2.7999999523163</ele>
        <time>2019-06-13T07:02:17.000Z</time>
      </trkpt>
      <trkpt lat="47.25624" lon="-2.31724">
        <ele>3.2000000476837</ele>
        <time>2019-06-13T07:02:21.000Z</time>
      </trkpt>
      <trkpt lat="47.25623" lon="-2.31729">
        <ele>3.5999999046326</ele>
        <time>2019-06-13T07:02:22.000Z</time>
      </trkpt>
      <trkpt lat="47.25621" lon="-2.31735">
        <ele>4.1999998092651</ele>
        <time>2019-06-13T07:02:23.000Z</time>
      </trkpt>
      <trkpt lat="47.2562" lon="-2.31741">
        <ele>4.5999999046326</ele>
        <time>2019-06-13T07:02:24.000Z</time>
      </trkpt>
      <trkpt lat="47.25618" lon="-2.31748">
        <ele>5</ele>
        <time>2019-06-13T07:02:25.000Z</time>
      </trkpt>
      <trkpt lat="47.25615" lon="-2.31754">
        <ele>5</ele>
        <time>2019-06-13T07:02:26.000Z</time>
      </trkpt>
      <trkpt lat="47.25601" lon="-2.31765">
        <ele>5</ele>
        <time>2019-06-13T07:02:29.000Z</time>
      </trkpt>
      <trkpt lat="47.2559" lon="-2.31765">
        <ele>5</ele>
        <time>2019-06-13T07:02:31.000Z</time>
      </trkpt>
      <trkpt lat="47.25584" lon="-2.31766">
        <ele>5</ele>
        <time>2019-06-13T07:02:32.000Z</time>
      </trkpt>
      <trkpt lat="47.25578" lon="-2.31769">
        <ele>5</ele>
        <time>2019-06-13T07:02:33.000Z</time>
      </trkpt>
      <trkpt lat="47.25565" lon="-2.3178">
        <ele>5.4000000953674</ele>
        <time>2019-06-13T07:02:36.000Z</time>
      </trkpt>
      <trkpt lat="47.25562" lon="-2.31786">
        <ele>5.8000001907349</ele>
        <time>2019-06-13T07:02:37.000Z</time>
      </trkpt>
      <trkpt lat="47.2556" lon="-2.31791">
        <ele>6.1999998092651</ele>
        <time>2019-06-13T07:02:38.000Z</time>
      </trkpt>
      <trkpt lat="47.25557" lon="-2.31795">
        <ele>6.5999999046326</ele>
        <time>2019-06-13T07:02:39.000Z</time>
      </trkpt>
      <trkpt lat="47.25554" lon="-2.31799">
        <ele>7</ele>
        <time>2019-06-13T07:02:40.000Z</time>
      </trkpt>
      <trkpt lat="47.2555" lon="-2.31801">
        <ele>7</ele>
        <time>2019-06-13T07:02:41.000Z</time>
      </trkpt>
      <trkpt lat="47.25543" lon="-2.31804">
        <ele>7</ele>
        <time>2019-06-13T07:02:43.000Z</time>
      </trkpt>
      <trkpt lat="47.25532" lon="-2.31809">
        <ele>7</ele>
        <time>2019-06-13T07:02:46.000Z</time>
      </trkpt>
      <trkpt lat="47.25529" lon="-2.31811">
        <ele>7.4000000953674</ele>
        <time>2019-06-13T07:02:47.000Z</time>
      </trkpt>
      <trkpt lat="47.25526" lon="-2.31811">
        <ele>7.8000001907349</ele>
        <time>2019-06-13T07:02:48.000Z</time>
      </trkpt>
      <trkpt lat="47.25523" lon="-2.31812">
        <ele>8.1999998092651</ele>
        <time>2019-06-13T07:02:49.000Z</time>
      </trkpt>
      <trkpt lat="47.25521" lon="-2.31814">
        <ele>8.6000003814697</ele>
        <time>2019-06-13T07:02:50.000Z</time>
      </trkpt>
      <trkpt lat="47.2552" lon="-2.31816">
        <ele>9.1999998092651</ele>
        <time>2019-06-13T07:02:51.000Z</time>
      </trkpt>
      <trkpt lat="47.25512" lon="-2.31826">
        <ele>9.1999998092651</ele>
        <time>2019-06-13T07:02:55.000Z</time>
      </trkpt>
      <trkpt lat="47.25501" lon="-2.31829">
        <ele>9.1999998092651</ele>
        <time>2019-06-13T07:03:00.000Z</time>
      </trkpt>
      <trkpt lat="47.255" lon="-2.31826">
        <ele>9.1999998092651</ele>
        <time>2019-06-13T07:03:01.000Z</time>
      </trkpt>
      <trkpt lat="47.25498" lon="-2.31823">
        <ele>9.1999998092651</ele>
        <time>2019-06-13T07:03:05.000Z</time>
      </trkpt>
      <trkpt lat="47.25498" lon="-2.31819">
        <ele>9.1999998092651</ele>
        <time>2019-06-13T07:03:07.000Z</time>
      </trkpt>
      <trkpt lat="47.25499" lon="-2.31811">
        <ele>9.1999998092651</ele>
        <time>2019-06-13T07:03:09.000Z</time>
      </trkpt>
      <trkpt lat="47.255" lon="-2.31807">
        <ele>9.1999998092651</ele>
        <time>2019-06-13T07:03:10.000Z</time>
      </trkpt>
      <trkpt lat="47.25506" lon="-2.31804">
        <ele>9.1999998092651</ele>
        <time>2019-06-13T07:03:12.000Z</time>
      </trkpt>
      <trkpt lat="47.25511" lon="-2.31802">
        <ele>9.1999998092651</ele>
        <time>2019-06-13T07:03:14.000Z</time>
      </trkpt>
      <trkpt lat="47.25524" lon="-2.31801">
        <ele>9.1999998092651</ele>
        <time>2019-06-13T07:03:18.000Z</time>
      </trkpt>
      <trkpt lat="47.2554" lon="-2.31795">
        <ele>9.1999998092651</ele>
        <time>2019-06-13T07:03:22.000Z</time>
      </trkpt>
      <trkpt lat="47.25544" lon="-2.31794">
        <ele>9.1999998092651</ele>
        <time>2019-06-13T07:03:23.000Z</time>
      </trkpt>
      <trkpt lat="47.25552" lon="-2.31791">
        <ele>9.1999998092651</ele>
        <time>2019-06-13T07:03:25.000Z</time>
      </trkpt>
      <trkpt lat="47.25558" lon="-2.31781">
        <ele>9.1999998092651</ele>
        <time>2019-06-13T07:03:27.000Z</time>
      </trkpt>
      <trkpt lat="47.25575" lon="-2.31754">
        <ele>8.8000001907349</ele>
        <time>2019-06-13T07:03:32.000Z</time>
      </trkpt>
      <trkpt lat="47.25579" lon="-2.31746">
        <ele>8.1999998092651</ele>
        <time>2019-06-13T07:03:33.000Z</time>
      </trkpt>
      <trkpt lat="47.25581" lon="-2.31738">
        <ele>7.8000001907349</ele>
        <time>2019-06-13T07:03:34.000Z</time>
      </trkpt>
      <trkpt lat="47.25584" lon="-2.3173">
        <ele>7.4000000953674</ele>
        <time>2019-06-13T07:03:35.000Z</time>
      </trkpt>
      <trkpt lat="47.25586" lon="-2.31722">
        <ele>7</ele>
        <time>2019-06-13T07:03:36.000Z</time>
      </trkpt>
      <trkpt lat="47.25599" lon="-2.31707">
        <ele>7</ele>
        <time>2019-06-13T07:03:39.000Z</time>
      </trkpt>
      <trkpt lat="47.25625" lon="-2.31699">
        <ele>7</ele>
        <time>2019-06-13T07:03:43.000Z</time>
      </trkpt>
      <trkpt lat="47.25632" lon="-2.31696">
        <ele>7</ele>
        <time>2019-06-13T07:03:44.000Z</time>
      </trkpt>
      <trkpt lat="47.25645" lon="-2.31682">
        <ele>7</ele>
        <time>2019-06-13T07:03:46.000Z</time>
      </trkpt>
      <trkpt lat="47.25649" lon="-2.31673">
        <ele>6.5999999046326</ele>
        <time>2019-06-13T07:03:47.000Z</time>
      </trkpt>
      <trkpt lat="47.25652" lon="-2.31665">
        <ele>6</ele>
        <time>2019-06-13T07:03:48.000Z</time>
      </trkpt>
      <trkpt lat="47.25656" lon="-2.31659">
        <ele>5.4000000953674</ele>
        <time>2019-06-13T07:03:49.000Z</time>
      </trkpt>
      <trkpt lat="47.25659" lon="-2.31656">
        <ele>5</ele>
        <time>2019-06-13T07:03:50.000Z</time>
      </trkpt>
      <trkpt lat="47.25664" lon="-2.31657">
        <ele>4.4000000953674</ele>
        <time>2019-06-13T07:03:51.000Z</time>
      </trkpt>
      <trkpt lat="47.25668" lon="-2.31662">
        <ele>4.4000000953674</ele>
        <time>2019-06-13T07:03:52.000Z</time>
      </trkpt>
      <trkpt lat="47.25691" lon="-2.31672">
        <ele>4</ele>
        <time>2019-06-13T07:03:56.000Z</time>
      </trkpt>
      <trkpt lat="47.25697" lon="-2.31676">
        <ele>3.5999999046326</ele>
        <time>2019-06-13T07:03:57.000Z</time>
      </trkpt>
      <trkpt lat="47.25702" lon="-2.31682">
        <ele>3.2000000476837</ele>
        <time>2019-06-13T07:03:58.000Z</time>
      </trkpt>
      <trkpt lat="47.25708" lon="-2.31687">
        <ele>2.7999999523163</ele>
        <time>2019-06-13T07:03:59.000Z</time>
      </trkpt>
      <trkpt lat="47.25716" lon="-2.31687">
        <ele>2.4000000953674</ele>
        <time>2019-06-13T07:04:00.000Z</time>
      </trkpt>
      <trkpt lat="47.25736" lon="-2.31674">
        <ele>2.4000000953674</ele>
        <time>2019-06-13T07:04:03.000Z</time>
      </trkpt>
      <trkpt lat="47.25766" lon="-2.31653">
        <ele>2.4000000953674</ele>
        <time>2019-06-13T07:04:08.000Z</time>
      </trkpt>
      <trkpt lat="47.25802" lon="-2.31627">
        <ele>2.4000000953674</ele>
        <time>2019-06-13T07:04:14.000Z</time>
      </trkpt>
      <trkpt lat="47.25822" lon="-2.31613">
        <ele>2.4000000953674</ele>
        <time>2019-06-13T07:04:18.000Z</time>
      </trkpt>
      <trkpt lat="47.25827" lon="-2.31608">
        <ele>2.4000000953674</ele>
        <time>2019-06-13T07:04:19.000Z</time>
      </trkpt>
      <trkpt lat="47.25863" lon="-2.31575">
        <ele>2.4000000953674</ele>
        <time>2019-06-13T07:04:25.000Z</time>
      </trkpt>
      <trkpt lat="47.25881" lon="-2.31551">
        <ele>2.4000000953674</ele>
        <time>2019-06-13T07:04:28.000Z</time>
      </trkpt>
      <trkpt lat="47.25885" lon="-2.31541">
        <ele>2.4000000953674</ele>
        <time>2019-06-13T07:04:29.000Z</time>
      </trkpt>
      <trkpt lat="47.25897" lon="-2.31517">
        <ele>1.7999999523163</ele>
        <time>2019-06-13T07:04:32.000Z</time>
      </trkpt>
      <trkpt lat="47.25902" lon="-2.31513">
        <ele>1.3999999761581</ele>
        <time>2019-06-13T07:04:33.000Z</time>
      </trkpt>
      <trkpt lat="47.25906" lon="-2.31513">
        <ele>1</ele>
        <time>2019-06-13T07:04:34.000Z</time>
      </trkpt>
      <trkpt lat="47.2591" lon="-2.31516">
        <ele>0.60000002384186</ele>
        <time>2019-06-13T07:04:35.000Z</time>
      </trkpt>
      <trkpt lat="47.25915" lon="-2.31521">
        <ele>8.7</ele>
        <time>2019-06-13T07:04:36.000Z</time>
      </trkpt>
      <trkpt lat="47.25927" lon="-2.31541">
        <ele>9</ele>
        <time>2019-06-13T07:04:39.000Z</time>
      </trkpt>
      <trkpt lat="47.25934" lon="-2.31558">
        <ele>9</ele>
        <time>2019-06-13T07:04:41.000Z</time>
      </trkpt>
      <trkpt lat="47.25948" lon="-2.31591">
        <ele>8.9</ele>
        <time>2019-06-13T07:04:45.000Z</time>
      </trkpt>
      <trkpt lat="47.25957" lon="-2.31607">
        <ele>8.5</ele>
        <time>2019-06-13T07:04:47.000Z</time>
      </trkpt>
      <trkpt lat="47.25969" lon="-2.31621">
        <ele>8.1</ele>
        <time>2019-06-13T07:04:49.000Z</time>
      </trkpt>
      <trkpt lat="47.25993" lon="-2.31655">
        <ele>6.8</ele>
        <time>2019-06-13T07:04:54.000Z</time>
      </trkpt>
      <trkpt lat="47.26002" lon="-2.31659">
        <ele>6.3</ele>
        <time>2019-06-13T07:04:56.000Z</time>
      </trkpt>
      <trkpt lat="47.26008" lon="-2.31655">
        <ele>-1</ele>
        <time>2019-06-13T07:04:57.000Z</time>
      </trkpt>
      <trkpt lat="47.26013" lon="-2.3165">
        <ele>-1.3999999761581</ele>
        <time>2019-06-13T07:04:58.000Z</time>
      </trkpt>
      <trkpt lat="47.26019" lon="-2.31644">
        <ele>-1.7999999523163</ele>
        <time>2019-06-13T07:04:59.000Z</time>
      </trkpt>
      <trkpt lat="47.26024" lon="-2.31638">
        <ele>-2.4000000953674</ele>
        <time>2019-06-13T07:05:00.000Z</time>
      </trkpt>
      <trkpt lat="47.2603" lon="-2.31633">
        <ele>-2.4000000953674</ele>
        <time>2019-06-13T07:05:01.000Z</time>
      </trkpt>
      <trkpt lat="47.26059" lon="-2.316">
        <ele>-2.4000000953674</ele>
        <time>2019-06-13T07:05:06.000Z</time>
      </trkpt>
      <trkpt lat="47.26077" lon="-2.31576">
        <ele>-2.4000000953674</ele>
        <time>2019-06-13T07:05:10.000Z</time>
      </trkpt>
      <trkpt lat="47.26081" lon="-2.31574">
        <ele>-2.4000000953674</ele>
        <time>2019-06-13T07:05:11.000Z</time>
      </trkpt>
      <trkpt lat="47.26088" lon="-2.31585">
        <ele>-2.4000000953674</ele>
        <time>2019-06-13T07:05:13.000Z</time>
      </trkpt>
      <trkpt lat="47.26091" lon="-2.31591">
        <ele>-2.4000000953674</ele>
        <time>2019-06-13T07:05:14.000Z</time>
      </trkpt>
      <trkpt lat="47.261" lon="-2.31609">
        <ele>-2.4000000953674</ele>
        <time>2019-06-13T07:05:17.000Z</time>
      </trkpt>
      <trkpt lat="47.26104" lon="-2.31612">
        <ele>-2.4000000953674</ele>
        <time>2019-06-13T07:05:18.000Z</time>
      </trkpt>
      <trkpt lat="47.26111" lon="-2.31612">
        <ele>-2.7999999523163</ele>
        <time>2019-06-13T07:05:19.000Z</time>
      </trkpt>
      <trkpt lat="47.26117" lon="-2.3161">
        <ele>-3.2000000476837</ele>
        <time>2019-06-13T07:05:20.000Z</time>
      </trkpt>
      <trkpt lat="47.26123" lon="-2.31609">
        <ele>-3.5999999046326</ele>
        <time>2019-06-13T07:05:21.000Z</time>
      </trkpt>
      <trkpt lat="47.26129" lon="-2.31608">
        <ele>-4.5999999046326</ele>
        <time>2019-06-13T07:05:22.000Z</time>
      </trkpt>
      <trkpt lat="47.26149" lon="-2.31602">
        <ele>-4.5999999046326</ele>
        <time>2019-06-13T07:05:25.000Z</time>
      </trkpt>
      <trkpt lat="47.26161" lon="-2.31598">
        <ele>-4.5999999046326</ele>
        <time>2019-06-13T07:05:27.000Z</time>
      </trkpt>
      <trkpt lat="47.26204" lon="-2.31587">
        <ele>-4.5999999046326</ele>
        <time>2019-06-13T07:05:34.000Z</time>
      </trkpt>
      <trkpt lat="47.2621" lon="-2.31589">
        <ele>-4.5999999046326</ele>
        <time>2019-06-13T07:05:35.000Z</time>
      </trkpt>
      <trkpt lat="47.26223" lon="-2.31597">
        <ele>-4.5999999046326</ele>
        <time>2019-06-13T07:05:37.000Z</time>
      </trkpt>
      <trkpt lat="47.26234" lon="-2.31604">
        <ele>-4.5999999046326</ele>
        <time>2019-06-13T07:05:39.000Z</time>
      </trkpt>
      <trkpt lat="47.26244" lon="-2.31614">
        <ele>-4.5999999046326</ele>
        <time>2019-06-13T07:05:41.000Z</time>
      </trkpt>
      <trkpt lat="47.26248" lon="-2.3162">
        <ele>-4.5999999046326</ele>
        <time>2019-06-13T07:05:42.000Z</time>
      </trkpt>
      <trkpt lat="47.26272" lon="-2.3166">
        <ele>-4.5999999046326</ele>
        <time>2019-06-13T07:05:48.000Z</time>
      </trkpt>
      <trkpt lat="47.26276" lon="-2.31667">
        <ele>-4.5999999046326</ele>
        <time>2019-06-13T07:05:49.000Z</time>
      </trkpt>
      <trkpt lat="47.26293" lon="-2.31696">
        <ele>-4.5999999046326</ele>
        <time>2019-06-13T07:05:53.000Z</time>
      </trkpt>
      <trkpt lat="47.26302" lon="-2.31707">
        <ele>-4.5999999046326</ele>
        <time>2019-06-13T07:05:55.000Z</time>
      </trkpt>
      <trkpt lat="47.26311" lon="-2.3171">
        <ele>-4.5999999046326</ele>
        <time>2019-06-13T07:05:57.000Z</time>
      </trkpt>
      <trkpt lat="47.2632" lon="-2.31706">
        <ele>-4.5999999046326</ele>
        <time>2019-06-13T07:05:59.000Z</time>
      </trkpt>
      <trkpt lat="47.26329" lon="-2.31702">
        <ele>-4.5999999046326</ele>
        <time>2019-06-13T07:06:01.000Z</time>
      </trkpt>
      <trkpt lat="47.26333" lon="-2.31699">
        <ele>-4.5999999046326</ele>
        <time>2019-06-13T07:06:02.000Z</time>
      </trkpt>
      <trkpt lat="47.26341" lon="-2.31695">
        <ele>-4.5999999046326</ele>
        <time>2019-06-13T07:06:04.000Z</time>
      </trkpt>
      <trkpt lat="47.26344" lon="-2.31692">
        <ele>-4.5999999046326</ele>
        <time>2019-06-13T07:06:05.000Z</time>
      </trkpt>
      <trkpt lat="47.26358" lon="-2.31679">
        <ele>-4.5999999046326</ele>
        <time>2019-06-13T07:06:09.000Z</time>
      </trkpt>
      <trkpt lat="47.26362" lon="-2.31676">
        <ele>-3.5999999046326</ele>
        <time>2019-06-13T07:06:10.000Z</time>
      </trkpt>
      <trkpt lat="47.26366" lon="-2.31673">
        <ele>-3.2000000476837</ele>
        <time>2019-06-13T07:06:11.000Z</time>
      </trkpt>
      <trkpt lat="47.26371" lon="-2.31671">
        <ele>-2.7999999523163</ele>
        <time>2019-06-13T07:06:12.000Z</time>
      </trkpt>
      <trkpt lat="47.26375" lon="-2.31669">
        <ele>-2.4000000953674</ele>
        <time>2019-06-13T07:06:13.000Z</time>
      </trkpt>
      <trkpt lat="47.2638" lon="-2.31666">
        <ele>-2.4000000953674</ele>
        <time>2019-06-13T07:06:14.000Z</time>
      </trkpt>
      <trkpt lat="47.26398" lon="-2.31657">
        <ele>-2.4000000953674</ele>
        <time>2019-06-13T07:06:18.000Z</time>
      </trkpt>
      <trkpt lat="47.264" lon="-2.31651">
        <ele>-2.4000000953674</ele>
        <time>2019-06-13T07:06:19.000Z</time>
      </trkpt>
      <trkpt lat="47.26403" lon="-2.3164">
        <ele>-2</ele>
        <time>2019-06-13T07:06:21.000Z</time>
      </trkpt>
      <trkpt lat="47.26404" lon="-2.31633">
        <ele>-1.6000000238419</ele>
        <time>2019-06-13T07:06:22.000Z</time>
      </trkpt>
      <trkpt lat="47.26404" lon="-2.31627">
        <ele>-1.2000000476837</ele>
        <time>2019-06-13T07:06:23.000Z</time>
      </trkpt>
      <trkpt lat="47.26404" lon="-2.31621">
        <ele>-0.80000001192093</ele>
        <time>2019-06-13T07:06:24.000Z</time>
      </trkpt>
      <trkpt lat="47.26403" lon="-2.31614">
        <ele>-0.40000000596046</ele>
        <time>2019-06-13T07:06:25.000Z</time>
      </trkpt>
      <trkpt lat="47.26402" lon="-2.3158">
        <ele>-0.40000000596046</ele>
        <time>2019-06-13T07:06:30.000Z</time>
      </trkpt>
      <trkpt lat="47.26402" lon="-2.3156">
        <ele>-0.40000000596046</ele>
        <time>2019-06-13T07:06:33.000Z</time>
      </trkpt>
      <trkpt lat="47.26408" lon="-2.31544">
        <ele>-0.40000000596046</ele>
        <time>2019-06-13T07:06:36.000Z</time>
      </trkpt>
      <trkpt lat="47.26413" lon="-2.31546">
        <ele>-0.40000000596046</ele>
        <time>2019-06-13T07:06:38.000Z</time>
      </trkpt>
      <trkpt lat="47.26416" lon="-2.31547">
        <ele>-0.40000000596046</ele>
        <time>2019-06-13T07:06:40.000Z</time>
      </trkpt>
      <trkpt lat="47.26416" lon="-2.31548">
        <ele>-0.40000000596046</ele>
        <time>2019-06-13T07:06:42.000Z</time>
      </trkpt>
      <trkpt lat="47.26417" lon="-2.31544">
        <ele>-0.40000000596046</ele>
        <time>2019-06-13T07:06:47.000Z</time>
      </trkpt>
      <trkpt lat="47.2642" lon="-2.3154">
        <ele>-0.40000000596046</ele>
        <time>2019-06-13T07:06:50.000Z</time>
      </trkpt>
      <trkpt lat="47.26421" lon="-2.31546">
        <ele>-0.40000000596046</ele>
        <time>2019-06-13T07:06:52.000Z</time>
      </trkpt>
      <trkpt lat="47.26421" lon="-2.31547">
        <ele>-0.40000000596046</ele>
        <time>2019-06-13T07:06:54.000Z</time>
      </trkpt>
      <trkpt lat="47.26428" lon="-2.31556">
        <ele>3.5999999046326</ele>
        <time>2019-06-13T07:24:43.000Z</time>
      </trkpt>
      <trkpt lat="47.26428" lon="-2.31553">
        <ele>3.5999999046326</ele>
        <time>2019-06-13T07:24:45.000Z</time>
      </trkpt>
      <trkpt lat="47.26428" lon="-2.31552">
        <ele>3.5999999046326</ele>
        <time>2019-06-13T07:24:46.000Z</time>
      </trkpt>
      <trkpt lat="47.26425" lon="-2.31551">
        <ele>3.5999999046326</ele>
        <time>2019-06-13T07:24:48.000Z</time>
      </trkpt>
      <trkpt lat="47.26421" lon="-2.3155">
        <ele>3.5999999046326</ele>
        <time>2019-06-13T07:24:51.000Z</time>
      </trkpt>
      <trkpt lat="47.26419" lon="-2.31551">
        <ele>3.5999999046326</ele>
        <time>2019-06-13T07:24:54.000Z</time>
      </trkpt>
      <trkpt lat="47.26417" lon="-2.31551">
        <ele>3.5999999046326</ele>
        <time>2019-06-13T07:25:02.000Z</time>
      </trkpt>
      <trkpt lat="47.26414" lon="-2.31552">
        <ele>3.5999999046326</ele>
        <time>2019-06-13T07:25:03.000Z</time>
      </trkpt>
      <trkpt lat="47.2641" lon="-2.31556">
        <ele>3.5999999046326</ele>
        <time>2019-06-13T07:25:05.000Z</time>
      </trkpt>
      <trkpt lat="47.26409" lon="-2.31564">
        <ele>3.5999999046326</ele>
        <time>2019-06-13T07:25:07.000Z</time>
      </trkpt>
      <trkpt lat="47.26409" lon="-2.31575">
        <ele>3.5999999046326</ele>
        <time>2019-06-13T07:25:09.000Z</time>
      </trkpt>
      <trkpt lat="47.26408" lon="-2.31592">
        <ele>3.5999999046326</ele>
        <time>2019-06-13T07:25:12.000Z</time>
      </trkpt>
      <trkpt lat="47.26408" lon="-2.31642">
        <ele>3.5999999046326</ele>
        <time>2019-06-13T07:25:20.000Z</time>
      </trkpt>
      <trkpt lat="47.26407" lon="-2.31648">
        <ele>3.5999999046326</ele>
        <time>2019-06-13T07:25:21.000Z</time>
      </trkpt>
      <trkpt lat="47.26405" lon="-2.31663">
        <ele>3.5999999046326</ele>
        <time>2019-06-13T07:25:24.000Z</time>
      </trkpt>
      <trkpt lat="47.26388" lon="-2.31672">
        <ele>3.5999999046326</ele>
        <time>2019-06-13T07:25:28.000Z</time>
      </trkpt>
      <trkpt lat="47.26379" lon="-2.31677">
        <ele>3.5999999046326</ele>
        <time>2019-06-13T07:25:30.000Z</time>
      </trkpt>
      <trkpt lat="47.26368" lon="-2.31683">
        <ele>3.5999999046326</ele>
        <time>2019-06-13T07:25:32.000Z</time>
      </trkpt>
      <trkpt lat="47.26352" lon="-2.31692">
        <ele>3.5999999046326</ele>
        <time>2019-06-13T07:25:35.000Z</time>
      </trkpt>
      <trkpt lat="47.2634" lon="-2.31698">
        <ele>3.5999999046326</ele>
        <time>2019-06-13T07:25:37.000Z</time>
      </trkpt>
      <trkpt lat="47.26335" lon="-2.317">
        <ele>3.2000000476837</ele>
        <time>2019-06-13T07:25:38.000Z</time>
      </trkpt>
      <trkpt lat="47.26331" lon="-2.31702">
        <ele>2.7999999523163</ele>
        <time>2019-06-13T07:25:39.000Z</time>
      </trkpt>
      <trkpt lat="47.26326" lon="-2.31705">
        <ele>2.4000000953674</ele>
        <time>2019-06-13T07:25:40.000Z</time>
      </trkpt>
      <trkpt lat="47.26321" lon="-2.31707">
        <ele>2</ele>
        <time>2019-06-13T07:25:41.000Z</time>
      </trkpt>
      <trkpt lat="47.26316" lon="-2.31709">
        <ele>1.6000000238419</ele>
        <time>2019-06-13T07:25:42.000Z</time>
      </trkpt>
      <trkpt lat="47.26302" lon="-2.31713">
        <ele>1.6000000238419</ele>
        <time>2019-06-13T07:25:45.000Z</time>
      </trkpt>
      <trkpt lat="47.26298" lon="-2.31712">
        <ele>1.2000000476837</ele>
        <time>2019-06-13T07:25:46.000Z</time>
      </trkpt>
      <trkpt lat="47.26295" lon="-2.31709">
        <ele>0.80000001192093</ele>
        <time>2019-06-13T07:25:47.000Z</time>
      </trkpt>
      <trkpt lat="47.26292" lon="-2.31706">
        <ele>0.40000000596046</ele>
        <time>2019-06-13T07:25:48.000Z</time>
      </trkpt>
      <trkpt lat="47.26289" lon="-2.31702">
        <ele>4</ele>
        <time>2019-06-13T07:25:49.000Z</time>
      </trkpt>
      <trkpt lat="47.26286" lon="-2.31697">
        <ele>-0.40000000596046</ele>
        <time>2019-06-13T07:25:50.000Z</time>
      </trkpt>
      <trkpt lat="47.26273" lon="-2.31675">
        <ele>-0.40000000596046</ele>
        <time>2019-06-13T07:25:54.000Z</time>
      </trkpt>
      <trkpt lat="47.26269" lon="-2.31669">
        <ele>-0.40000000596046</ele>
        <time>2019-06-13T07:25:55.000Z</time>
      </trkpt>
      <trkpt lat="47.26266" lon="-2.31663">
        <ele>-0.40000000596046</ele>
        <time>2019-06-13T07:25:56.000Z</time>
      </trkpt>
      <trkpt lat="47.26261" lon="-2.31652">
        <ele>-0.40000000596046</ele>
        <time>2019-06-13T07:25:58.000Z</time>
      </trkpt>
      <trkpt lat="47.26255" lon="-2.3164">
        <ele>-0.40000000596046</ele>
        <time>2019-06-13T07:26:00.000Z</time>
      </trkpt>
      <trkpt lat="47.26239" lon="-2.31611">
        <ele>-0.40000000596046</ele>
        <time>2019-06-13T07:26:05.000Z</time>
      </trkpt>
      <trkpt lat="47.26232" lon="-2.31602">
        <ele>-0.40000000596046</ele>
        <time>2019-06-13T07:26:07.000Z</time>
      </trkpt>
      <trkpt lat="47.2622" lon="-2.31594">
        <ele>-0.40000000596046</ele>
        <time>2019-06-13T07:26:10.000Z</time>
      </trkpt>
      <trkpt lat="47.26195" lon="-2.31593">
        <ele>-0.40000000596046</ele>
        <time>2019-06-13T07:26:15.000Z</time>
      </trkpt>
      <trkpt lat="47.26186" lon="-2.31597">
        <ele>-0.40000000596046</ele>
        <time>2019-06-13T07:26:17.000Z</time>
      </trkpt>
      <trkpt lat="47.26167" lon="-2.31602">
        <ele>-0.40000000596046</ele>
        <time>2019-06-13T07:26:21.000Z</time>
      </trkpt>
      <trkpt lat="47.26131" lon="-2.31613">
        <ele>-0.40000000596046</ele>
        <time>2019-06-13T07:26:29.000Z</time>
      </trkpt>
      <trkpt lat="47.26122" lon="-2.31614">
        <ele>-0.40000000596046</ele>
        <time>2019-06-13T07:26:31.000Z</time>
      </trkpt>
      <trkpt lat="47.26108" lon="-2.31612">
        <ele>-0.40000000596046</ele>
        <time>2019-06-13T07:26:34.000Z</time>
      </trkpt>
      <trkpt lat="47.26103" lon="-2.3161">
        <ele>-0.40000000596046</ele>
        <time>2019-06-13T07:26:35.000Z</time>
      </trkpt>
      <trkpt lat="47.26093" lon="-2.31598">
        <ele>-0.40000000596046</ele>
        <time>2019-06-13T07:26:38.000Z</time>
      </trkpt>
      <trkpt lat="47.26079" lon="-2.31583">
        <ele>-0.40000000596046</ele>
        <time>2019-06-13T07:26:43.000Z</time>
      </trkpt>
      <trkpt lat="47.2607" lon="-2.31571">
        <ele>-0.40000000596046</ele>
        <time>2019-06-13T07:26:47.000Z</time>
      </trkpt>
      <trkpt lat="47.26061" lon="-2.31553">
        <ele>-0.40000000596046</ele>
        <time>2019-06-13T07:26:51.000Z</time>
      </trkpt>
      <trkpt lat="47.26057" lon="-2.31542">
        <ele>-0.40000000596046</ele>
        <time>2019-06-13T07:26:53.000Z</time>
      </trkpt>
      <trkpt lat="47.26042" lon="-2.31518">
        <ele>-0.40000000596046</ele>
        <time>2019-06-13T07:26:58.000Z</time>
      </trkpt>
      <trkpt lat="47.26039" lon="-2.31513">
        <ele>-0.40000000596046</ele>
        <time>2019-06-13T07:27:00.000Z</time>
      </trkpt>
      <trkpt lat="47.26038" lon="-2.31514">
        <ele>-0.40000000596046</ele>
        <time>2019-06-13T07:27:01.000Z</time>
      </trkpt>
      <trkpt lat="47.26036" lon="-2.31517">
        <ele>-0.40000000596046</ele>
        <time>2019-06-13T07:27:03.000Z</time>
      </trkpt>
      <trkpt lat="47.26033" lon="-2.31527">
        <ele>-0.40000000596046</ele>
        <time>2019-06-13T07:27:05.000Z</time>
      </trkpt>
      <trkpt lat="47.26028" lon="-2.31539">
        <ele>-0.40000000596046</ele>
        <time>2019-06-13T07:27:07.000Z</time>
      </trkpt>
      <trkpt lat="47.26026" lon="-2.31544">
        <ele>-0.40000000596046</ele>
        <time>2019-06-13T07:27:08.000Z</time>
      </trkpt>
      <trkpt lat="47.2602" lon="-2.31555">
        <ele>-0.40000000596046</ele>
        <time>2019-06-13T07:27:10.000Z</time>
      </trkpt>
      <trkpt lat="47.26017" lon="-2.3156">
        <ele>6.4</ele>
        <time>2019-06-13T07:27:11.000Z</time>
      </trkpt>
      <trkpt lat="47.26013" lon="-2.31563">
        <ele>0.40000000596046</ele>
        <time>2019-06-13T07:27:12.000Z</time>
      </trkpt>
      <trkpt lat="47.26009" lon="-2.31563">
        <ele>0.80000001192093</ele>
        <time>2019-06-13T07:27:13.000Z</time>
      </trkpt>
      <trkpt lat="47.26003" lon="-2.31562">
        <ele>1.2000000476837</ele>
        <time>2019-06-13T07:27:14.000Z</time>
      </trkpt>
      <trkpt lat="47.25998" lon="-2.31559">
        <ele>1.6000000238419</ele>
        <time>2019-06-13T07:27:15.000Z</time>
      </trkpt>
      <trkpt lat="47.25991" lon="-2.3155">
        <ele>1.6000000238419</ele>
        <time>2019-06-13T07:27:17.000Z</time>
      </trkpt>
      <trkpt lat="47.25988" lon="-2.31546">
        <ele>1.6000000238419</ele>
        <time>2019-06-13T07:27:18.000Z</time>
      </trkpt>
      <trkpt lat="47.25974" lon="-2.31518">
        <ele>1.6000000238419</ele>
        <time>2019-06-13T07:27:23.000Z</time>
      </trkpt>
      <trkpt lat="47.25963" lon="-2.31489">
        <ele>1.6000000238419</ele>
        <time>2019-06-13T07:27:28.000Z</time>
      </trkpt>
      <trkpt lat="47.2596" lon="-2.31484">
        <ele>1.6000000238419</ele>
        <time>2019-06-13T07:27:29.000Z</time>
      </trkpt>
      <trkpt lat="47.2595" lon="-2.31471">
        <ele>1.6000000238419</ele>
        <time>2019-06-13T07:27:32.000Z</time>
      </trkpt>
      <trkpt lat="47.25944" lon="-2.31464">
        <ele>1.6000000238419</ele>
        <time>2019-06-13T07:27:34.000Z</time>
      </trkpt>
      <trkpt lat="47.25928" lon="-2.3146">
        <ele>1.6000000238419</ele>
        <time>2019-06-13T07:27:38.000Z</time>
      </trkpt>
      <trkpt lat="47.2592" lon="-2.3147">
        <ele>1.6000000238419</ele>
        <time>2019-06-13T07:27:41.000Z</time>
      </trkpt>
      <trkpt lat="47.25909" lon="-2.31497">
        <ele>1.6000000238419</ele>
        <time>2019-06-13T07:27:47.000Z</time>
      </trkpt>
      <trkpt lat="47.25906" lon="-2.31505">
        <ele>1.6000000238419</ele>
        <time>2019-06-13T07:27:51.000Z</time>
      </trkpt>
      <trkpt lat="47.25905" lon="-2.31513">
        <ele>1.6000000238419</ele>
        <time>2019-06-13T07:27:56.000Z</time>
      </trkpt>
      <trkpt lat="47.25902" lon="-2.31516">
        <ele>1.6000000238419</ele>
        <time>2019-06-13T07:27:57.000Z</time>
      </trkpt>
      <trkpt lat="47.25895" lon="-2.31529">
        <ele>1.6000000238419</ele>
        <time>2019-06-13T07:28:00.000Z</time>
      </trkpt>
      <trkpt lat="47.25887" lon="-2.31551">
        <ele>2</ele>
        <time>2019-06-13T07:28:04.000Z</time>
      </trkpt>
      <trkpt lat="47.25885" lon="-2.31557">
        <ele>2.4000000953674</ele>
        <time>2019-06-13T07:28:05.000Z</time>
      </trkpt>
      <trkpt lat="47.25883" lon="-2.31562">
        <ele>2.7999999523163</ele>
        <time>2019-06-13T07:28:06.000Z</time>
      </trkpt>
      <trkpt lat="47.2588" lon="-2.31567">
        <ele>3.2000000476837</ele>
        <time>2019-06-13T07:28:07.000Z</time>
      </trkpt>
      <trkpt lat="47.25877" lon="-2.31572">
        <ele>3.5999999046326</ele>
        <time>2019-06-13T07:28:08.000Z</time>
      </trkpt>
      <trkpt lat="47.2586" lon="-2.31591">
        <ele>3.5999999046326</ele>
        <time>2019-06-13T07:28:13.000Z</time>
      </trkpt>
      <trkpt lat="47.25857" lon="-2.31595">
        <ele>3.5999999046326</ele>
        <time>2019-06-13T07:28:14.000Z</time>
      </trkpt>
      <trkpt lat="47.25848" lon="-2.31605">
        <ele>4</ele>
        <time>2019-06-13T07:28:17.000Z</time>
      </trkpt>
      <trkpt lat="47.25844" lon="-2.31608">
        <ele>4.4000000953674</ele>
        <time>2019-06-13T07:28:18.000Z</time>
      </trkpt>
      <trkpt lat="47.25841" lon="-2.3161">
        <ele>4.8000001907349</ele>
        <time>2019-06-13T07:28:19.000Z</time>
      </trkpt>
      <trkpt lat="47.25837" lon="-2.31613">
        <ele>5.1999998092651</ele>
        <time>2019-06-13T07:28:20.000Z</time>
      </trkpt>
      <trkpt lat="47.25834" lon="-2.31616">
        <ele>5.5999999046326</ele>
        <time>2019-06-13T07:28:21.000Z</time>
      </trkpt>
      <trkpt lat="47.25821" lon="-2.31628">
        <ele>5.5999999046326</ele>
        <time>2019-06-13T07:28:25.000Z</time>
      </trkpt>
      <trkpt lat="47.25798" lon="-2.31644">
        <ele>5.5999999046326</ele>
        <time>2019-06-13T07:28:31.000Z</time>
      </trkpt>
      <trkpt lat="47.25794" lon="-2.31646">
        <ele>5.5999999046326</ele>
        <time>2019-06-13T07:28:32.000Z</time>
      </trkpt>
      <trkpt lat="47.25774" lon="-2.31661">
        <ele>5.5999999046326</ele>
        <time>2019-06-13T07:28:38.000Z</time>
      </trkpt>
      <trkpt lat="47.25762" lon="-2.31672">
        <ele>5.5999999046326</ele>
        <time>2019-06-13T07:28:42.000Z</time>
      </trkpt>
      <trkpt lat="47.25758" lon="-2.31676">
        <ele>5.5999999046326</ele>
        <time>2019-06-13T07:28:43.000Z</time>
      </trkpt>
      <trkpt lat="47.25736" lon="-2.31692">
        <ele>5.5999999046326</ele>
        <time>2019-06-13T07:28:48.000Z</time>
      </trkpt>
      <trkpt lat="47.25732" lon="-2.31694">
        <ele>5.5999999046326</ele>
        <time>2019-06-13T07:28:49.000Z</time>
      </trkpt>
      <trkpt lat="47.25722" lon="-2.31695">
        <ele>5.5999999046326</ele>
        <time>2019-06-13T07:28:51.000Z</time>
      </trkpt>
      <trkpt lat="47.25717" lon="-2.31694">
        <ele>5.1999998092651</ele>
        <time>2019-06-13T07:28:52.000Z</time>
      </trkpt>
      <trkpt lat="47.25713" lon="-2.31692">
        <ele>4.8000001907349</ele>
        <time>2019-06-13T07:28:53.000Z</time>
      </trkpt>
      <trkpt lat="47.25708" lon="-2.31689">
        <ele>4.4000000953674</ele>
        <time>2019-06-13T07:28:54.000Z</time>
      </trkpt>
      <trkpt lat="47.25703" lon="-2.31687">
        <ele>4</ele>
        <time>2019-06-13T07:28:55.000Z</time>
      </trkpt>
      <trkpt lat="47.25699" lon="-2.31684">
        <ele>3.5999999046326</ele>
        <time>2019-06-13T07:28:56.000Z</time>
      </trkpt>
      <trkpt lat="47.25682" lon="-2.31679">
        <ele>3.5999999046326</ele>
        <time>2019-06-13T07:29:00.000Z</time>
      </trkpt>
      <trkpt lat="47.25669" lon="-2.31682">
        <ele>3.5999999046326</ele>
        <time>2019-06-13T07:29:03.000Z</time>
      </trkpt>
      <trkpt lat="47.25665" lon="-2.31684">
        <ele>3.5999999046326</ele>
        <time>2019-06-13T07:29:04.000Z</time>
      </trkpt>
      <trkpt lat="47.25661" lon="-2.31686">
        <ele>4</ele>
        <time>2019-06-13T07:29:05.000Z</time>
      </trkpt>
      <trkpt lat="47.25657" lon="-2.31687">
        <ele>4.4000000953674</ele>
        <time>2019-06-13T07:29:06.000Z</time>
      </trkpt>
      <trkpt lat="47.25654" lon="-2.3169">
        <ele>4.8000001907349</ele>
        <time>2019-06-13T07:29:07.000Z</time>
      </trkpt>
      <trkpt lat="47.2565" lon="-2.31693">
        <ele>5.1999998092651</ele>
        <time>2019-06-13T07:29:08.000Z</time>
      </trkpt>
      <trkpt lat="47.25648" lon="-2.31697">
        <ele>5.8000001907349</ele>
        <time>2019-06-13T07:29:09.000Z</time>
      </trkpt>
      <trkpt lat="47.25642" lon="-2.31706">
        <ele>5.8000001907349</ele>
        <time>2019-06-13T07:29:11.000Z</time>
      </trkpt>
      <trkpt lat="47.25636" lon="-2.31713">
        <ele>6.5999999046326</ele>
        <time>2019-06-13T07:29:13.000Z</time>
      </trkpt>
      <trkpt lat="47.25633" lon="-2.31716">
        <ele>7</ele>
        <time>2019-06-13T07:29:14.000Z</time>
      </trkpt>
      <trkpt lat="47.25631" lon="-2.31719">
        <ele>7.4000000953674</ele>
        <time>2019-06-13T07:29:15.000Z</time>
      </trkpt>
      <trkpt lat="47.25628" lon="-2.31723">
        <ele>7.8000001907349</ele>
        <time>2019-06-13T07:29:16.000Z</time>
      </trkpt>
      <trkpt lat="47.25627" lon="-2.31735">
        <ele>7.8000001907349</ele>
        <time>2019-06-13T07:29:18.000Z</time>
      </trkpt>
      <trkpt lat="47.25626" lon="-2.31741">
        <ele>7.8000001907349</ele>
        <time>2019-06-13T07:29:19.000Z</time>
      </trkpt>
      <trkpt lat="47.25617" lon="-2.31761">
        <ele>7.8000001907349</ele>
        <time>2019-06-13T07:29:23.000Z</time>
      </trkpt>
      <trkpt lat="47.256" lon="-2.31765">
        <ele>7.8000001907349</ele>
        <time>2019-06-13T07:29:27.000Z</time>
      </trkpt>
      <trkpt lat="47.25591" lon="-2.31766">
        <ele>7.8000001907349</ele>
        <time>2019-06-13T07:29:29.000Z</time>
      </trkpt>
      <trkpt lat="47.25587" lon="-2.31768">
        <ele>7.8000001907349</ele>
        <time>2019-06-13T07:29:30.000Z</time>
      </trkpt>
      <trkpt lat="47.25578" lon="-2.31774">
        <ele>7.8000001907349</ele>
        <time>2019-06-13T07:29:32.000Z</time>
      </trkpt>
      <trkpt lat="47.25571" lon="-2.3178">
        <ele>8.1999998092651</ele>
        <time>2019-06-13T07:29:34.000Z</time>
      </trkpt>
      <trkpt lat="47.25569" lon="-2.31785">
        <ele>8.6000003814697</ele>
        <time>2019-06-13T07:29:35.000Z</time>
      </trkpt>
      <trkpt lat="47.25566" lon="-2.3179">
        <ele>9.1999998092651</ele>
        <time>2019-06-13T07:29:36.000Z</time>
      </trkpt>
      <trkpt lat="47.25564" lon="-2.31795">
        <ele>10</ele>
        <time>2019-06-13T07:29:37.000Z</time>
      </trkpt>
      <trkpt lat="47.25561" lon="-2.31799">
        <ele>10</ele>
        <time>2019-06-13T07:29:38.000Z</time>
      </trkpt>
      <trkpt lat="47.25553" lon="-2.31804">
        <ele>10</ele>
        <time>2019-06-13T07:29:40.000Z</time>
      </trkpt>
      <trkpt lat="47.25545" lon="-2.31806">
        <ele>10.39999961853</ele>
        <time>2019-06-13T07:29:42.000Z</time>
      </trkpt>
      <trkpt lat="47.25541" lon="-2.31807">
        <ele>10.800000190735</ele>
        <time>2019-06-13T07:29:43.000Z</time>
      </trkpt>
      <trkpt lat="47.25537" lon="-2.31809">
        <ele>11.199999809265</ele>
        <time>2019-06-13T07:29:44.000Z</time>
      </trkpt>
      <trkpt lat="47.25534" lon="-2.3181">
        <ele>11.60000038147</ele>
        <time>2019-06-13T07:29:45.000Z</time>
      </trkpt>
      <trkpt lat="47.2553" lon="-2.31811">
        <ele>12</ele>
        <time>2019-06-13T07:29:46.000Z</time>
      </trkpt>
      <trkpt lat="47.25521" lon="-2.31818">
        <ele>12</ele>
        <time>2019-06-13T07:29:50.000Z</time>
      </trkpt>
      <trkpt lat="47.25518" lon="-2.31824">
        <ele>12</ele>
        <time>2019-06-13T07:29:53.000Z</time>
      </trkpt>
      <trkpt lat="47.25515" lon="-2.31825">
        <ele>12</ele>
        <time>2019-06-13T07:29:55.000Z</time>
      </trkpt>
      <trkpt lat="47.25515" lon="-2.31825">
        <ele>12</ele>
        <time>2019-06-13T07:29:56.000Z</time>
      </trkpt>
      <trkpt lat="47.25517" lon="-2.31826">
        <ele>12</ele>
        <time>2019-06-13T07:30:08.000Z</time>
      </trkpt>
      <trkpt lat="47.25519" lon="-2.31828">
        <ele>12</ele>
        <time>2019-06-13T07:30:10.000Z</time>
      </trkpt>
      <trkpt lat="47.25518" lon="-2.31829">
        <ele>12</ele>
        <time>2019-06-13T07:30:12.000Z</time>
      </trkpt>
      <trkpt lat="47.25514" lon="-2.3183">
        <ele>12</ele>
        <time>2019-06-13T07:40:00.000Z</time>
      </trkpt>
      <trkpt lat="47.25501" lon="-2.31825">
        <ele>12</ele>
        <time>2019-06-13T07:40:05.000Z</time>
      </trkpt>
      <trkpt lat="47.25496" lon="-2.31827">
        <ele>12</ele>
        <time>2019-06-13T07:40:07.000Z</time>
      </trkpt>
      <trkpt lat="47.25492" lon="-2.31828">
        <ele>12</ele>
        <time>2019-06-13T07:40:08.000Z</time>
      </trkpt>
      <trkpt lat="47.25489" lon="-2.31829">
        <ele>12.39999961853</ele>
        <time>2019-06-13T07:40:09.000Z</time>
      </trkpt>
      <trkpt lat="47.25486" lon="-2.3183">
        <ele>12.800000190735</ele>
        <time>2019-06-13T07:40:10.000Z</time>
      </trkpt>
      <trkpt lat="47.25482" lon="-2.31833">
        <ele>13.199999809265</ele>
        <time>2019-06-13T07:40:11.000Z</time>
      </trkpt>
      <trkpt lat="47.25479" lon="-2.31836">
        <ele>13.60000038147</ele>
        <time>2019-06-13T07:40:12.000Z</time>
      </trkpt>
      <trkpt lat="47.25475" lon="-2.31839">
        <ele>14</ele>
        <time>2019-06-13T07:40:13.000Z</time>
      </trkpt>
      <trkpt lat="47.25462" lon="-2.31844">
        <ele>14</ele>
        <time>2019-06-13T07:40:16.000Z</time>
      </trkpt>
      <trkpt lat="47.25458" lon="-2.31841">
        <ele>14</ele>
        <time>2019-06-13T07:40:17.000Z</time>
      </trkpt>
      <trkpt lat="47.25451" lon="-2.31825">
        <ele>14</ele>
        <time>2019-06-13T07:40:20.000Z</time>
      </trkpt>
      <trkpt lat="47.25447" lon="-2.31806">
        <ele>14</ele>
        <time>2019-06-13T07:40:23.000Z</time>
      </trkpt>
      <trkpt lat="47.25445" lon="-2.31794">
        <ele>14</ele>
        <time>2019-06-13T07:40:25.000Z</time>
      </trkpt>
      <trkpt lat="47.25436" lon="-2.31756">
        <ele>14</ele>
        <time>2019-06-13T07:40:32.000Z</time>
      </trkpt>
      <trkpt lat="47.25427" lon="-2.31725">
        <ele>14</ele>
        <time>2019-06-13T07:40:39.000Z</time>
      </trkpt>
      <trkpt lat="47.2542" lon="-2.31702">
        <ele>14</ele>
        <time>2019-06-13T07:40:45.000Z</time>
      </trkpt>
      <trkpt lat="47.25407" lon="-2.31673">
        <ele>14</ele>
        <time>2019-06-13T07:40:53.000Z</time>
      </trkpt>
      <trkpt lat="47.25397" lon="-2.31645">
        <ele>14</ele>
        <time>2019-06-13T07:41:00.000Z</time>
      </trkpt>
      <trkpt lat="47.25387" lon="-2.3163">
        <ele>14</ele>
        <time>2019-06-13T07:41:05.000Z</time>
      </trkpt>
      <trkpt lat="47.25375" lon="-2.31612">
        <ele>14</ele>
        <time>2019-06-13T07:41:10.000Z</time>
      </trkpt>
      <trkpt lat="47.2536" lon="-2.31587">
        <ele>14</ele>
        <time>2019-06-13T07:41:17.000Z</time>
      </trkpt>
      <trkpt lat="47.25345" lon="-2.3156">
        <ele>14</ele>
        <time>2019-06-13T07:41:24.000Z</time>
      </trkpt>
      <trkpt lat="47.25338" lon="-2.31536">
        <ele>14.39999961853</ele>
        <time>2019-06-13T07:41:29.000Z</time>
      </trkpt>
      <trkpt lat="47.25338" lon="-2.31532">
        <ele>15</ele>
        <time>2019-06-13T07:41:30.000Z</time>
      </trkpt>
      <trkpt lat="47.25337" lon="-2.31528">
        <ele>15.39999961853</ele>
        <time>2019-06-13T07:41:31.000Z</time>
      </trkpt>
      <trkpt lat="47.25335" lon="-2.31524">
        <ele>15.800000190735</ele>
        <time>2019-06-13T07:41:32.000Z</time>
      </trkpt>
      <trkpt lat="47.25334" lon="-2.31519">
        <ele>16.200000762939</ele>
        <time>2019-06-13T07:41:33.000Z</time>
      </trkpt>
      <trkpt lat="47.25329" lon="-2.31502">
        <ele>16.200000762939</ele>
        <time>2019-06-13T07:41:37.000Z</time>
      </trkpt>
      <trkpt lat="47.25324" lon="-2.31463">
        <ele>16.200000762939</ele>
        <time>2019-06-13T07:41:45.000Z</time>
      </trkpt>
      <trkpt lat="47.25319" lon="-2.31427">
        <ele>16.200000762939</ele>
        <time>2019-06-13T07:41:52.000Z</time>
      </trkpt>
      <trkpt lat="47.25324" lon="-2.31402">
        <ele>16.200000762939</ele>
        <time>2019-06-13T07:41:57.000Z</time>
      </trkpt>
      <trkpt lat="47.25326" lon="-2.31397">
        <ele>16.200000762939</ele>
        <time>2019-06-13T07:41:58.000Z</time>
      </trkpt>
      <trkpt lat="47.25332" lon="-2.31372">
        <ele>16.200000762939</ele>
        <time>2019-06-13T07:42:02.000Z</time>
      </trkpt>
      <trkpt lat="47.25333" lon="-2.31365">
        <ele>16.200000762939</ele>
        <time>2019-06-13T07:42:03.000Z</time>
      </trkpt>
      <trkpt lat="47.2534" lon="-2.31314">
        <ele>16.200000762939</ele>
        <time>2019-06-13T07:42:10.000Z</time>
      </trkpt>
      <trkpt lat="47.25346" lon="-2.31261">
        <ele>15.800000190735</ele>
        <time>2019-06-13T07:42:16.000Z</time>
      </trkpt>
      <trkpt lat="47.25346" lon="-2.31251">
        <ele>15.39999961853</ele>
        <time>2019-06-13T07:42:17.000Z</time>
      </trkpt>
      <trkpt lat="47.25347" lon="-2.31241">
        <ele>15</ele>
        <time>2019-06-13T07:42:18.000Z</time>
      </trkpt>
      <trkpt lat="47.25346" lon="-2.31231">
        <ele>14.39999961853</ele>
        <time>2019-06-13T07:42:19.000Z</time>
      </trkpt>
      <trkpt lat="47.25346" lon="-2.31221">
        <ele>14</ele>
        <time>2019-06-13T07:42:20.000Z</time>
      </trkpt>
      <trkpt lat="47.25345" lon="-2.31191">
        <ele>14</ele>
        <time>2019-06-13T07:42:23.000Z</time>
      </trkpt>
      <trkpt lat="47.25345" lon="-2.31181">
        <ele>13.60000038147</ele>
        <time>2019-06-13T07:42:24.000Z</time>
      </trkpt>
      <trkpt lat="47.25343" lon="-2.31171">
        <ele>13.199999809265</ele>
        <time>2019-06-13T07:42:25.000Z</time>
      </trkpt>
      <trkpt lat="47.25341" lon="-2.31162">
        <ele>12.800000190735</ele>
        <time>2019-06-13T07:42:26.000Z</time>
      </trkpt>
      <trkpt lat="47.25338" lon="-2.31154">
        <ele>12.39999961853</ele>
        <time>2019-06-13T07:42:27.000Z</time>
      </trkpt>
      <trkpt lat="47.25335" lon="-2.31146">
        <ele>12</ele>
        <time>2019-06-13T07:42:28.000Z</time>
      </trkpt>
      <trkpt lat="47.25327" lon="-2.31131">
        <ele>12</ele>
        <time>2019-06-13T07:42:30.000Z</time>
      </trkpt>
      <trkpt lat="47.25326" lon="-2.31122">
        <ele>12</ele>
        <time>2019-06-13T07:42:31.000Z</time>
      </trkpt>
      <trkpt lat="47.25325" lon="-2.31114">
        <ele>12</ele>
        <time>2019-06-13T07:42:32.000Z</time>
      </trkpt>
      <trkpt lat="47.25324" lon="-2.31084">
        <ele>12</ele>
        <time>2019-06-13T07:42:36.000Z</time>
      </trkpt>
      <trkpt lat="47.25323" lon="-2.31077">
        <ele>12</ele>
        <time>2019-06-13T07:42:37.000Z</time>
      </trkpt>
      <trkpt lat="47.25322" lon="-2.31071">
        <ele>12</ele>
        <time>2019-06-13T07:42:38.000Z</time>
      </trkpt>
      <trkpt lat="47.25316" lon="-2.31045">
        <ele>12</ele>
        <time>2019-06-13T07:42:42.000Z</time>
      </trkpt>
      <trkpt lat="47.25313" lon="-2.31033">
        <ele>12.39999961853</ele>
        <time>2019-06-13T07:42:44.000Z</time>
      </trkpt>
      <trkpt lat="47.25312" lon="-2.31027">
        <ele>12.800000190735</ele>
        <time>2019-06-13T07:42:45.000Z</time>
      </trkpt>
      <trkpt lat="47.25311" lon="-2.3102">
        <ele>13.199999809265</ele>
        <time>2019-06-13T07:42:46.000Z</time>
      </trkpt>
      <trkpt lat="47.2531" lon="-2.31014">
        <ele>13.60000038147</ele>
        <time>2019-06-13T07:42:47.000Z</time>
      </trkpt>
      <trkpt lat="47.25308" lon="-2.31008">
        <ele>14</ele>
        <time>2019-06-13T07:42:48.000Z</time>
      </trkpt>
      <trkpt lat="47.253" lon="-2.30974">
        <ele>14</ele>
        <time>2019-06-13T07:42:54.000Z</time>
      </trkpt>
      <trkpt lat="47.25283" lon="-2.30915">
        <ele>14</ele>
        <time>2019-06-13T07:43:04.000Z</time>
      </trkpt>
      <trkpt lat="47.25278" lon="-2.30899">
        <ele>14.39999961853</ele>
        <time>2019-06-13T07:43:07.000Z</time>
      </trkpt>
      <trkpt lat="47.25276" lon="-2.30893">
        <ele>14.800000190735</ele>
        <time>2019-06-13T07:43:08.000Z</time>
      </trkpt>
      <trkpt lat="47.25274" lon="-2.30888">
        <ele>15.199999809265</ele>
        <time>2019-06-13T07:43:09.000Z</time>
      </trkpt>
      <trkpt lat="47.25273" lon="-2.30883">
        <ele>15.800000190735</ele>
        <time>2019-06-13T07:43:10.000Z</time>
      </trkpt>
      <trkpt lat="47.25272" lon="-2.30877">
        <ele>16.200000762939</ele>
        <time>2019-06-13T07:43:11.000Z</time>
      </trkpt>
      <trkpt lat="47.2526" lon="-2.30843">
        <ele>16.200000762939</ele>
        <time>2019-06-13T07:43:18.000Z</time>
      </trkpt>
      <trkpt lat="47.25258" lon="-2.30832">
        <ele>16.200000762939</ele>
        <time>2019-06-13T07:43:20.000Z</time>
      </trkpt>
      <trkpt lat="47.25257" lon="-2.30826">
        <ele>16.60000038147</ele>
        <time>2019-06-13T07:43:21.000Z</time>
      </trkpt>
      <trkpt lat="47.25255" lon="-2.3082">
        <ele>17</ele>
        <time>2019-06-13T07:43:22.000Z</time>
      </trkpt>
      <trkpt lat="47.25254" lon="-2.30815">
        <ele>17.60000038147</ele>
        <time>2019-06-13T07:43:23.000Z</time>
      </trkpt>
      <trkpt lat="47.25253" lon="-2.30809">
        <ele>18</ele>
        <time>2019-06-13T07:43:24.000Z</time>
      </trkpt>
      <trkpt lat="47.25252" lon="-2.30804">
        <ele>18.60000038147</ele>
        <time>2019-06-13T07:43:25.000Z</time>
      </trkpt>
      <trkpt lat="47.25249" lon="-2.30777">
        <ele>18.60000038147</ele>
        <time>2019-06-13T07:43:30.000Z</time>
      </trkpt>
      <trkpt lat="47.25245" lon="-2.30733">
        <ele>18.60000038147</ele>
        <time>2019-06-13T07:43:38.000Z</time>
      </trkpt>
      <trkpt lat="47.25244" lon="-2.30728">
        <ele>19</ele>
        <time>2019-06-13T07:43:39.000Z</time>
      </trkpt>
      <trkpt lat="47.25244" lon="-2.30723">
        <ele>19.39999961853</ele>
        <time>2019-06-13T07:43:40.000Z</time>
      </trkpt>
      <trkpt lat="47.25244" lon="-2.30717">
        <ele>19.799999237061</ele>
        <time>2019-06-13T07:43:41.000Z</time>
      </trkpt>
      <trkpt lat="47.25242" lon="-2.30711">
        <ele>20.200000762939</ele>
        <time>2019-06-13T07:43:42.000Z</time>
      </trkpt>
      <trkpt lat="47.25241" lon="-2.30706">
        <ele>20.60000038147</ele>
        <time>2019-06-13T07:43:43.000Z</time>
      </trkpt>
      <trkpt lat="47.25237" lon="-2.30696">
        <ele>20.60000038147</ele>
        <time>2019-06-13T07:43:45.000Z</time>
      </trkpt>
      <trkpt lat="47.25229" lon="-2.30685">
        <ele>20.60000038147</ele>
        <time>2019-06-13T07:43:49.000Z</time>
      </trkpt>
      <trkpt lat="47.25216" lon="-2.30667">
        <ele>20.60000038147</ele>
        <time>2019-06-13T07:43:54.000Z</time>
      </trkpt>
      <trkpt lat="47.25213" lon="-2.30657">
        <ele>21</ele>
        <time>2019-06-13T07:43:56.000Z</time>
      </trkpt>
      <trkpt lat="47.25211" lon="-2.30651">
        <ele>21.39999961853</ele>
        <time>2019-06-13T07:43:57.000Z</time>
      </trkpt>
      <trkpt lat="47.25208" lon="-2.30646">
        <ele>21.799999237061</ele>
        <time>2019-06-13T07:43:58.000Z</time>
      </trkpt>
      <trkpt lat="47.25207" lon="-2.30641">
        <ele>22.200000762939</ele>
        <time>2019-06-13T07:43:59.000Z</time>
      </trkpt>
      <trkpt lat="47.25205" lon="-2.30636">
        <ele>22.60000038147</ele>
        <time>2019-06-13T07:44:00.000Z</time>
      </trkpt>
      <trkpt lat="47.25192" lon="-2.30608">
        <ele>22.60000038147</ele>
        <time>2019-06-13T07:44:06.000Z</time>
      </trkpt>
      <trkpt lat="47.25184" lon="-2.30584">
        <ele>23</ele>
        <time>2019-06-13T07:44:11.000Z</time>
      </trkpt>
      <trkpt lat="47.25182" lon="-2.30579">
        <ele>23.39999961853</ele>
        <time>2019-06-13T07:44:12.000Z</time>
      </trkpt>
      <trkpt lat="47.2518" lon="-2.30574">
        <ele>23.799999237061</ele>
        <time>2019-06-13T07:44:13.000Z</time>
      </trkpt>
      <trkpt lat="47.25178" lon="-2.3057">
        <ele>24.200000762939</ele>
        <time>2019-06-13T07:44:14.000Z</time>
      </trkpt>
      <trkpt lat="47.25176" lon="-2.30565">
        <ele>24.60000038147</ele>
        <time>2019-06-13T07:44:15.000Z</time>
      </trkpt>
      <trkpt lat="47.25169" lon="-2.30539">
        <ele>24.60000038147</ele>
        <time>2019-06-13T07:44:20.000Z</time>
      </trkpt>
      <trkpt lat="47.25156" lon="-2.30495">
        <ele>24.60000038147</ele>
        <time>2019-06-13T07:44:28.000Z</time>
      </trkpt>
      <trkpt lat="47.25143" lon="-2.30465">
        <ele>24.60000038147</ele>
        <time>2019-06-13T07:44:34.000Z</time>
      </trkpt>
      <trkpt lat="47.25141" lon="-2.30459">
        <ele>25</ele>
        <time>2019-06-13T07:44:35.000Z</time>
      </trkpt>
      <trkpt lat="47.25139" lon="-2.30455">
        <ele>25.39999961853</ele>
        <time>2019-06-13T07:44:36.000Z</time>
      </trkpt>
      <trkpt lat="47.25136" lon="-2.3045">
        <ele>25.799999237061</ele>
        <time>2019-06-13T07:44:37.000Z</time>
      </trkpt>
      <trkpt lat="47.25134" lon="-2.30445">
        <ele>26.200000762939</ele>
        <time>2019-06-13T07:44:38.000Z</time>
      </trkpt>
      <trkpt lat="47.25132" lon="-2.3044">
        <ele>26.60000038147</ele>
        <time>2019-06-13T07:44:39.000Z</time>
      </trkpt>
      <trkpt lat="47.25127" lon="-2.30425">
        <ele>26.60000038147</ele>
        <time>2019-06-13T07:44:42.000Z</time>
      </trkpt>
      <trkpt lat="47.25112" lon="-2.30388">
        <ele>26.60000038147</ele>
        <time>2019-06-13T07:44:49.000Z</time>
      </trkpt>
      <trkpt lat="47.25104" lon="-2.30354">
        <ele>26.60000038147</ele>
        <time>2019-06-13T07:44:55.000Z</time>
      </trkpt>
      <trkpt lat="47.25102" lon="-2.30342">
        <ele>27</ele>
        <time>2019-06-13T07:44:57.000Z</time>
      </trkpt>
      <trkpt lat="47.25101" lon="-2.30336">
        <ele>27.39999961853</ele>
        <time>2019-06-13T07:44:58.000Z</time>
      </trkpt>
      <trkpt lat="47.25099" lon="-2.3033">
        <ele>28</ele>
        <time>2019-06-13T07:44:59.000Z</time>
      </trkpt>
      <trkpt lat="47.25098" lon="-2.30325">
        <ele>28.39999961853</ele>
        <time>2019-06-13T07:45:00.000Z</time>
      </trkpt>
      <trkpt lat="47.25095" lon="-2.30319">
        <ele>28.799999237061</ele>
        <time>2019-06-13T07:45:01.000Z</time>
      </trkpt>
      <trkpt lat="47.25084" lon="-2.30294">
        <ele>28.799999237061</ele>
        <time>2019-06-13T07:45:06.000Z</time>
      </trkpt>
      <trkpt lat="47.25081" lon="-2.30289">
        <ele>28.799999237061</ele>
        <time>2019-06-13T07:45:07.000Z</time>
      </trkpt>
      <trkpt lat="47.25066" lon="-2.30258">
        <ele>28.799999237061</ele>
        <time>2019-06-13T07:45:12.000Z</time>
      </trkpt>
      <trkpt lat="47.25061" lon="-2.30238">
        <ele>28.799999237061</ele>
        <time>2019-06-13T07:45:15.000Z</time>
      </trkpt>
      <trkpt lat="47.25059" lon="-2.30223">
        <ele>28.799999237061</ele>
        <time>2019-06-13T07:45:17.000Z</time>
      </trkpt>
      <trkpt lat="47.25059" lon="-2.30176">
        <ele>28.799999237061</ele>
        <time>2019-06-13T07:45:23.000Z</time>
      </trkpt>
      <trkpt lat="47.25064" lon="-2.30143">
        <ele>28.799999237061</ele>
        <time>2019-06-13T07:45:27.000Z</time>
      </trkpt>
      <trkpt lat="47.25066" lon="-2.30139">
        <ele>28.799999237061</ele>
        <time>2019-06-13T07:45:28.000Z</time>
      </trkpt>
      <trkpt lat="47.25082" lon="-2.30137">
        <ele>28.799999237061</ele>
        <time>2019-06-13T07:45:31.000Z</time>
      </trkpt>
      <trkpt lat="47.25093" lon="-2.30136">
        <ele>28.799999237061</ele>
        <time>2019-06-13T07:45:33.000Z</time>
      </trkpt>
      <trkpt lat="47.25098" lon="-2.30135">
        <ele>28.799999237061</ele>
        <time>2019-06-13T07:45:34.000Z</time>
      </trkpt>
      <trkpt lat="47.2511" lon="-2.30132">
        <ele>28.799999237061</ele>
        <time>2019-06-13T07:45:36.000Z</time>
      </trkpt>
      <trkpt lat="47.25126" lon="-2.3013">
        <ele>28.799999237061</ele>
        <time>2019-06-13T07:45:39.000Z</time>
      </trkpt>
      <trkpt lat="47.25146" lon="-2.30127">
        <ele>28.799999237061</ele>
        <time>2019-06-13T07:45:42.000Z</time>
      </trkpt>
      <trkpt lat="47.25178" lon="-2.30121">
        <ele>28.799999237061</ele>
        <time>2019-06-13T07:45:47.000Z</time>
      </trkpt>
      <trkpt lat="47.25184" lon="-2.30125">
        <ele>28.799999237061</ele>
        <time>2019-06-13T07:45:48.000Z</time>
      </trkpt>
      <trkpt lat="47.25195" lon="-2.30148">
        <ele>28.799999237061</ele>
        <time>2019-06-13T07:45:51.000Z</time>
      </trkpt>
      <trkpt lat="47.25211" lon="-2.30166">
        <ele>28.799999237061</ele>
        <time>2019-06-13T07:45:54.000Z</time>
      </trkpt>
      <trkpt lat="47.25217" lon="-2.30172">
        <ele>28.799999237061</ele>
        <time>2019-06-13T07:45:55.000Z</time>
      </trkpt>
      <trkpt lat="47.25229" lon="-2.30178">
        <ele>28.39999961853</ele>
        <time>2019-06-13T07:45:57.000Z</time>
      </trkpt>
      <trkpt lat="47.25236" lon="-2.30179">
        <ele>27.799999237061</ele>
        <time>2019-06-13T07:45:58.000Z</time>
      </trkpt>
      <trkpt lat="47.25242" lon="-2.30183">
        <ele>27.39999961853</ele>
        <time>2019-06-13T07:45:59.000Z</time>
      </trkpt>
      <trkpt lat="47.25248" lon="-2.30185">
        <ele>27</ele>
        <time>2019-06-13T07:46:00.000Z</time>
      </trkpt>
      <trkpt lat="47.25254" lon="-2.30189">
        <ele>26.60000038147</ele>
        <time>2019-06-13T07:46:01.000Z</time>
      </trkpt>
      <trkpt lat="47.25261" lon="-2.30191">
        <ele>26.60000038147</ele>
        <time>2019-06-13T07:46:02.000Z</time>
      </trkpt>
      <trkpt lat="47.2528" lon="-2.30201">
        <ele>26.60000038147</ele>
        <time>2019-06-13T07:46:05.000Z</time>
      </trkpt>
      <trkpt lat="47.25286" lon="-2.30202">
        <ele>25.799999237061</ele>
        <time>2019-06-13T07:46:06.000Z</time>
      </trkpt>
      <trkpt lat="47.25292" lon="-2.30205">
        <ele>25.200000762939</ele>
        <time>2019-06-13T07:46:07.000Z</time>
      </trkpt>
      <trkpt lat="47.25296" lon="-2.30207">
        <ele>24.799999237061</ele>
        <time>2019-06-13T07:46:08.000Z</time>
      </trkpt>
      <trkpt lat="47.25299" lon="-2.30209">
        <ele>24.39999961853</ele>
        <time>2019-06-13T07:46:09.000Z</time>
      </trkpt>
      <trkpt lat="47.25302" lon="-2.30211">
        <ele>24.39999961853</ele>
        <time>2019-06-13T07:46:10.000Z</time>
      </trkpt>
      <trkpt lat="47.25304" lon="-2.30209">
        <ele>24.39999961853</ele>
        <time>2019-06-13T07:46:11.000Z</time>
      </trkpt>
      <trkpt lat="47.25306" lon="-2.30205">
        <ele>24.39999961853</ele>
        <time>2019-06-13T07:46:13.000Z</time>
      </trkpt>
      <trkpt lat="47.25317" lon="-2.30208">
        <ele>24.39999961853</ele>
        <time>2019-06-13T07:46:16.000Z</time>
      </trkpt>
      <trkpt lat="47.25333" lon="-2.30209">
        <ele>24.39999961853</ele>
        <time>2019-06-13T07:46:19.000Z</time>
      </trkpt>
      <trkpt lat="47.25346" lon="-2.3021">
        <ele>24.39999961853</ele>
        <time>2019-06-13T07:46:21.000Z</time>
      </trkpt>
      <trkpt lat="47.25364" lon="-2.30211">
        <ele>24</ele>
        <time>2019-06-13T07:46:24.000Z</time>
      </trkpt>
      <trkpt lat="47.2537" lon="-2.30211">
        <ele>23.60000038147</ele>
        <time>2019-06-13T07:46:25.000Z</time>
      </trkpt>
      <trkpt lat="47.25374" lon="-2.30212">
        <ele>23</ele>
        <time>2019-06-13T07:46:26.000Z</time>
      </trkpt>
      <trkpt lat="47.25379" lon="-2.30213">
        <ele>22.60000038147</ele>
        <time>2019-06-13T07:46:27.000Z</time>
      </trkpt>
      <trkpt lat="47.25384" lon="-2.30216">
        <ele>22.200000762939</ele>
        <time>2019-06-13T07:46:28.000Z</time>
      </trkpt>
      <trkpt lat="47.25394" lon="-2.30219">
        <ele>22.200000762939</ele>
        <time>2019-06-13T07:46:30.000Z</time>
      </trkpt>
      <trkpt lat="47.254" lon="-2.30222">
        <ele>22.200000762939</ele>
        <time>2019-06-13T07:46:31.000Z</time>
      </trkpt>
      <trkpt lat="47.25417" lon="-2.30227">
        <ele>22.200000762939</ele>
        <time>2019-06-13T07:46:34.000Z</time>
      </trkpt>
      <trkpt lat="47.25422" lon="-2.30229">
        <ele>22.200000762939</ele>
        <time>2019-06-13T07:46:35.000Z</time>
      </trkpt>
      <trkpt lat="47.25441" lon="-2.30235">
        <ele>22.200000762939</ele>
        <time>2019-06-13T07:46:38.000Z</time>
      </trkpt>
      <trkpt lat="47.25465" lon="-2.30246">
        <ele>21.799999237061</ele>
        <time>2019-06-13T07:46:42.000Z</time>
      </trkpt>
      <trkpt lat="47.25468" lon="-2.30248">
        <ele>21.39999961853</ele>
        <time>2019-06-13T07:46:43.000Z</time>
      </trkpt>
      <trkpt lat="47.25472" lon="-2.30247">
        <ele>21</ele>
        <time>2019-06-13T07:46:44.000Z</time>
      </trkpt>
      <trkpt lat="47.25474" lon="-2.30243">
        <ele>20.60000038147</ele>
        <time>2019-06-13T07:46:45.000Z</time>
      </trkpt>
      <trkpt lat="47.25475" lon="-2.30237">
        <ele>20.200000762939</ele>
        <time>2019-06-13T07:46:46.000Z</time>
      </trkpt>
      <trkpt lat="47.25479" lon="-2.30214">
        <ele>20.200000762939</ele>
        <time>2019-06-13T07:46:50.000Z</time>
      </trkpt>
      <trkpt lat="47.25481" lon="-2.30208">
        <ele>20.200000762939</ele>
        <time>2019-06-13T07:46:51.000Z</time>
      </trkpt>
      <trkpt lat="47.25487" lon="-2.30197">
        <ele>20.200000762939</ele>
        <time>2019-06-13T07:46:53.000Z</time>
      </trkpt>
      <trkpt lat="47.25492" lon="-2.30197">
        <ele>20.200000762939</ele>
        <time>2019-06-13T07:46:54.000Z</time>
      </trkpt>
      <trkpt lat="47.25502" lon="-2.30199">
        <ele>19.799999237061</ele>
        <time>2019-06-13T07:46:56.000Z</time>
      </trkpt>
      <trkpt lat="47.25506" lon="-2.30201">
        <ele>19.39999961853</ele>
        <time>2019-06-13T07:46:57.000Z</time>
      </trkpt>
      <trkpt lat="47.25511" lon="-2.30202">
        <ele>19</ele>
        <time>2019-06-13T07:46:58.000Z</time>
      </trkpt>
      <trkpt lat="47.25515" lon="-2.30202">
        <ele>18.60000038147</ele>
        <time>2019-06-13T07:46:59.000Z</time>
      </trkpt>
      <trkpt lat="47.2552" lon="-2.30201">
        <ele>18.200000762939</ele>
        <time>2019-06-13T07:47:00.000Z</time>
      </trkpt>
      <trkpt lat="47.25532" lon="-2.30197">
        <ele>18.200000762939</ele>
        <time>2019-06-13T07:47:02.000Z</time>
      </trkpt>
      <trkpt lat="47.25538" lon="-2.30194">
        <ele>18.200000762939</ele>
        <time>2019-06-13T07:47:03.000Z</time>
      </trkpt>
      <trkpt lat="47.25548" lon="-2.30192">
        <ele>18.200000762939</ele>
        <time>2019-06-13T07:47:05.000Z</time>
      </trkpt>
      <trkpt lat="47.25555" lon="-2.30191">
        <ele>18.200000762939</ele>
        <time>2019-06-13T07:47:06.000Z</time>
      </trkpt>
      <trkpt lat="47.25573" lon="-2.302">
        <ele>18.200000762939</ele>
        <time>2019-06-13T07:47:09.000Z</time>
      </trkpt>
      <trkpt lat="47.2558" lon="-2.30206">
        <ele>18.200000762939</ele>
        <time>2019-06-13T07:47:10.000Z</time>
      </trkpt>
      <trkpt lat="47.25592" lon="-2.3022">
        <ele>18.200000762939</ele>
        <time>2019-06-13T07:47:12.000Z</time>
      </trkpt>
      <trkpt lat="47.25597" lon="-2.30226">
        <ele>18.200000762939</ele>
        <time>2019-06-13T07:47:13.000Z</time>
      </trkpt>
      <trkpt lat="47.25602" lon="-2.30234">
        <ele>18.200000762939</ele>
        <time>2019-06-13T07:47:14.000Z</time>
      </trkpt>
      <trkpt lat="47.25609" lon="-2.30249">
        <ele>18.200000762939</ele>
        <time>2019-06-13T07:47:16.000Z</time>
      </trkpt>
      <trkpt lat="47.25612" lon="-2.30257">
        <ele>18.200000762939</ele>
        <time>2019-06-13T07:47:17.000Z</time>
      </trkpt>
      <trkpt lat="47.25617" lon="-2.30279">
        <ele>17.799999237061</ele>
        <time>2019-06-13T07:47:21.000Z</time>
      </trkpt>
      <trkpt lat="47.25618" lon="-2.30284">
        <ele>17.200000762939</ele>
        <time>2019-06-13T07:47:22.000Z</time>
      </trkpt>
      <trkpt lat="47.25619" lon="-2.30288">
        <ele>16.799999237061</ele>
        <time>2019-06-13T07:47:23.000Z</time>
      </trkpt>
      <trkpt lat="47.25619" lon="-2.30294">
        <ele>16.39999961853</ele>
        <time>2019-06-13T07:47:24.000Z</time>
      </trkpt>
      <trkpt lat="47.2562" lon="-2.30298">
        <ele>16</ele>
        <time>2019-06-13T07:47:25.000Z</time>
      </trkpt>
      <trkpt lat="47.2562" lon="-2.30309">
        <ele>16</ele>
        <time>2019-06-13T07:47:27.000Z</time>
      </trkpt>
      <trkpt lat="47.25623" lon="-2.30321">
        <ele>16</ele>
        <time>2019-06-13T07:47:29.000Z</time>
      </trkpt>
      <trkpt lat="47.25623" lon="-2.30332">
        <ele>16</ele>
        <time>2019-06-13T07:47:31.000Z</time>
      </trkpt>
      <trkpt lat="47.25625" lon="-2.30343">
        <ele>16</ele>
        <time>2019-06-13T07:47:33.000Z</time>
      </trkpt>
      <trkpt lat="47.25631" lon="-2.30347">
        <ele>16</ele>
        <time>2019-06-13T07:47:35.000Z</time>
      </trkpt>
      <trkpt lat="47.25639" lon="-2.30341">
        <ele>16</ele>
        <time>2019-06-13T07:47:38.000Z</time>
      </trkpt>
      <trkpt lat="47.25642" lon="-2.30337">
        <ele>16</ele>
        <time>2019-06-13T07:47:39.000Z</time>
      </trkpt>
      <trkpt lat="47.25652" lon="-2.30319">
        <ele>16</ele>
        <time>2019-06-13T07:47:43.000Z</time>
      </trkpt>
      <trkpt lat="47.25654" lon="-2.30313">
        <ele>16</ele>
        <time>2019-06-13T07:47:44.000Z</time>
      </trkpt>
      <trkpt lat="47.25657" lon="-2.30294">
        <ele>16</ele>
        <time>2019-06-13T07:47:47.000Z</time>
      </trkpt>
      <trkpt lat="47.25657" lon="-2.30287">
        <ele>16</ele>
        <time>2019-06-13T07:47:48.000Z</time>
      </trkpt>
      <trkpt lat="47.25659" lon="-2.30281">
        <ele>16</ele>
        <time>2019-06-13T07:47:49.000Z</time>
      </trkpt>
      <trkpt lat="47.25665" lon="-2.30272">
        <ele>16</ele>
        <time>2019-06-13T07:47:51.000Z</time>
      </trkpt>
      <trkpt lat="47.25672" lon="-2.30266">
        <ele>16</ele>
        <time>2019-06-13T07:47:53.000Z</time>
      </trkpt>
      <trkpt lat="47.25675" lon="-2.30262">
        <ele>16</ele>
        <time>2019-06-13T07:47:54.000Z</time>
      </trkpt>
      <trkpt lat="47.2568" lon="-2.30251">
        <ele>16</ele>
        <time>2019-06-13T07:47:56.000Z</time>
      </trkpt>
      <trkpt lat="47.25694" lon="-2.30221">
        <ele>16</ele>
        <time>2019-06-13T07:48:01.000Z</time>
      </trkpt>
      <trkpt lat="47.25704" lon="-2.30213">
        <ele>16</ele>
        <time>2019-06-13T07:48:03.000Z</time>
      </trkpt>
      <trkpt lat="47.25727" lon="-2.30211">
        <ele>16</ele>
        <time>2019-06-13T07:48:07.000Z</time>
      </trkpt>
      <trkpt lat="47.25746" lon="-2.3022">
        <ele>16</ele>
        <time>2019-06-13T07:48:10.000Z</time>
      </trkpt>
      <trkpt lat="47.25752" lon="-2.30222">
        <ele>15.60000038147</ele>
        <time>2019-06-13T07:48:11.000Z</time>
      </trkpt>
      <trkpt lat="47.25759" lon="-2.30225">
        <ele>15</ele>
        <time>2019-06-13T07:48:12.000Z</time>
      </trkpt>
      <trkpt lat="47.25765" lon="-2.30228">
        <ele>14.60000038147</ele>
        <time>2019-06-13T07:48:13.000Z</time>
      </trkpt>
      <trkpt lat="47.25772" lon="-2.30232">
        <ele>14.199999809265</ele>
        <time>2019-06-13T07:48:14.000Z</time>
      </trkpt>
      <trkpt lat="47.25778" lon="-2.30236">
        <ele>13.60000038147</ele>
        <time>2019-06-13T07:48:15.000Z</time>
      </trkpt>
      <trkpt lat="47.25798" lon="-2.30242">
        <ele>13.60000038147</ele>
        <time>2019-06-13T07:48:18.000Z</time>
      </trkpt>
      <trkpt lat="47.25811" lon="-2.30246">
        <ele>13.60000038147</ele>
        <time>2019-06-13T07:48:20.000Z</time>
      </trkpt>
      <trkpt lat="47.2583" lon="-2.30253">
        <ele>13.60000038147</ele>
        <time>2019-06-13T07:48:23.000Z</time>
      </trkpt>
      <trkpt lat="47.25859" lon="-2.3027">
        <ele>13.60000038147</ele>
        <time>2019-06-13T07:48:29.000Z</time>
      </trkpt>
      <trkpt lat="47.25868" lon="-2.30275">
        <ele>13.60000038147</ele>
        <time>2019-06-13T07:48:31.000Z</time>
      </trkpt>
      <trkpt lat="47.25877" lon="-2.3027">
        <ele>13.60000038147</ele>
        <time>2019-06-13T07:48:33.000Z</time>
      </trkpt>
      <trkpt lat="47.25889" lon="-2.30247">
        <ele>13.60000038147</ele>
        <time>2019-06-13T07:48:37.000Z</time>
      </trkpt>
      <trkpt lat="47.2589" lon="-2.3022">
        <ele>13.60000038147</ele>
        <time>2019-06-13T07:48:41.000Z</time>
      </trkpt>
      <trkpt lat="47.25889" lon="-2.30208">
        <ele>13.60000038147</ele>
        <time>2019-06-13T07:48:43.000Z</time>
      </trkpt>
      <trkpt lat="47.25887" lon="-2.30186">
        <ele>13.60000038147</ele>
        <time>2019-06-13T07:48:47.000Z</time>
      </trkpt>
      <trkpt lat="47.25893" lon="-2.30176">
        <ele>13.60000038147</ele>
        <time>2019-06-13T07:48:49.000Z</time>
      </trkpt>
      <trkpt lat="47.25897" lon="-2.30173">
        <ele>13.60000038147</ele>
        <time>2019-06-13T07:48:50.000Z</time>
      </trkpt>
      <trkpt lat="47.25913" lon="-2.30169">
        <ele>13.60000038147</ele>
        <time>2019-06-13T07:48:53.000Z</time>
      </trkpt>
      <trkpt lat="47.25948" lon="-2.3016">
        <ele>13.60000038147</ele>
        <time>2019-06-13T07:48:59.000Z</time>
      </trkpt>
      <trkpt lat="47.25952" lon="-2.30156">
        <ele>13.199999809265</ele>
        <time>2019-06-13T07:49:00.000Z</time>
      </trkpt>
      <trkpt lat="47.25956" lon="-2.30151">
        <ele>12.60000038147</ele>
        <time>2019-06-13T07:49:01.000Z</time>
      </trkpt>
      <trkpt lat="47.25958" lon="-2.30147">
        <ele>12.199999809265</ele>
        <time>2019-06-13T07:49:02.000Z</time>
      </trkpt>
      <trkpt lat="47.25959" lon="-2.30142">
        <ele>11.800000190735</ele>
        <time>2019-06-13T07:49:03.000Z</time>
      </trkpt>
      <trkpt lat="47.2596" lon="-2.30139">
        <ele>11.199999809265</ele>
        <time>2019-06-13T07:49:04.000Z</time>
      </trkpt>
      <trkpt lat="47.25969" lon="-2.30132">
        <ele>11.199999809265</ele>
        <time>2019-06-13T07:49:08.000Z</time>
      </trkpt>
      <trkpt lat="47.2598" lon="-2.30132">
        <ele>11.199999809265</ele>
        <time>2019-06-13T07:49:12.000Z</time>
      </trkpt>
      <trkpt lat="47.25982" lon="-2.30132">
        <ele>11.199999809265</ele>
        <time>2019-06-13T07:49:13.000Z</time>
      </trkpt>
      <trkpt lat="47.25995" lon="-2.3013">
        <ele>11.199999809265</ele>
        <time>2019-06-13T07:49:17.000Z</time>
      </trkpt>
      <trkpt lat="47.25999" lon="-2.30129">
        <ele>11.199999809265</ele>
        <time>2019-06-13T07:49:18.000Z</time>
      </trkpt>
      <trkpt lat="47.26004" lon="-2.30127">
        <ele>11.199999809265</ele>
        <time>2019-06-13T07:49:20.000Z</time>
      </trkpt>
      <trkpt lat="47.26008" lon="-2.30129">
        <ele>11.199999809265</ele>
        <time>2019-06-13T07:49:21.000Z</time>
      </trkpt>
      <trkpt lat="47.2601" lon="-2.30131">
        <ele>11.60000038147</ele>
        <time>2019-06-13T07:49:22.000Z</time>
      </trkpt>
      <trkpt lat="47.26013" lon="-2.30133">
        <ele>12.199999809265</ele>
        <time>2019-06-13T07:49:23.000Z</time>
      </trkpt>
      <trkpt lat="47.26017" lon="-2.30133">
        <ele>12.60000038147</ele>
        <time>2019-06-13T07:49:24.000Z</time>
      </trkpt>
      <trkpt lat="47.2602" lon="-2.30133">
        <ele>13.39999961853</ele>
        <time>2019-06-13T07:49:25.000Z</time>
      </trkpt>
      <trkpt lat="47.26032" lon="-2.30129">
        <ele>13.39999961853</ele>
        <time>2019-06-13T07:49:28.000Z</time>
      </trkpt>
      <trkpt lat="47.26043" lon="-2.3013">
        <ele>13.39999961853</ele>
        <time>2019-06-13T07:49:31.000Z</time>
      </trkpt>
      <trkpt lat="47.26049" lon="-2.30135">
        <ele>13.800000190735</ele>
        <time>2019-06-13T07:49:32.000Z</time>
      </trkpt>
      <trkpt lat="47.26053" lon="-2.30138">
        <ele>14.199999809265</ele>
        <time>2019-06-13T07:49:33.000Z</time>
      </trkpt>
      <trkpt lat="47.26058" lon="-2.30142">
        <ele>14.60000038147</ele>
        <time>2019-06-13T07:49:34.000Z</time>
      </trkpt>
      <trkpt lat="47.26061" lon="-2.30145">
        <ele>15</ele>
        <time>2019-06-13T07:49:35.000Z</time>
      </trkpt>
      <trkpt lat="47.26066" lon="-2.30144">
        <ele>15.39999961853</ele>
        <time>2019-06-13T07:49:36.000Z</time>
      </trkpt>
      <trkpt lat="47.2607" lon="-2.30144">
        <ele>15.39999961853</ele>
        <time>2019-06-13T07:49:37.000Z</time>
      </trkpt>
      <trkpt lat="47.26079" lon="-2.30142">
        <ele>15.39999961853</ele>
        <time>2019-06-13T07:49:39.000Z</time>
      </trkpt>
      <trkpt lat="47.26085" lon="-2.30141">
        <ele>15.39999961853</ele>
        <time>2019-06-13T07:49:41.000Z</time>
      </trkpt>
      <trkpt lat="47.2609" lon="-2.30146">
        <ele>15.39999961853</ele>
        <time>2019-06-13T07:49:43.000Z</time>
      </trkpt>
      <trkpt lat="47.26092" lon="-2.30152">
        <ele>15.39999961853</ele>
        <time>2019-06-13T07:49:44.000Z</time>
      </trkpt>
      <trkpt lat="47.261" lon="-2.30157">
        <ele>15.800000190735</ele>
        <time>2019-06-13T07:49:47.000Z</time>
      </trkpt>
      <trkpt lat="47.26102" lon="-2.30157">
        <ele>16.39999961853</ele>
        <time>2019-06-13T07:49:48.000Z</time>
      </trkpt>
      <trkpt lat="47.26105" lon="-2.30157">
        <ele>16.799999237061</ele>
        <time>2019-06-13T07:49:49.000Z</time>
      </trkpt>
      <trkpt lat="47.26109" lon="-2.30156">
        <ele>17.60000038147</ele>
        <time>2019-06-13T07:49:50.000Z</time>
      </trkpt>
      <trkpt lat="47.26116" lon="-2.30155">
        <ele>17.60000038147</ele>
        <time>2019-06-13T07:49:52.000Z</time>
      </trkpt>
      <trkpt lat="47.26124" lon="-2.30153">
        <ele>17.60000038147</ele>
        <time>2019-06-13T07:49:54.000Z</time>
      </trkpt>
      <trkpt lat="47.26136" lon="-2.3015">
        <ele>18</ele>
        <time>2019-06-13T07:49:57.000Z</time>
      </trkpt>
      <trkpt lat="47.26139" lon="-2.30148">
        <ele>18.39999961853</ele>
        <time>2019-06-13T07:49:58.000Z</time>
      </trkpt>
      <trkpt lat="47.26142" lon="-2.30147">
        <ele>18.799999237061</ele>
        <time>2019-06-13T07:49:59.000Z</time>
      </trkpt>
      <trkpt lat="47.26146" lon="-2.30146">
        <ele>19.200000762939</ele>
        <time>2019-06-13T07:50:00.000Z</time>
      </trkpt>
      <trkpt lat="47.26149" lon="-2.30146">
        <ele>19.60000038147</ele>
        <time>2019-06-13T07:50:01.000Z</time>
      </trkpt>
      <trkpt lat="47.26161" lon="-2.30143">
        <ele>19.60000038147</ele>
        <time>2019-06-13T07:50:04.000Z</time>
      </trkpt>
      <trkpt lat="47.26168" lon="-2.30148">
        <ele>19.60000038147</ele>
        <time>2019-06-13T07:50:07.000Z</time>
      </trkpt>
      <trkpt lat="47.2617" lon="-2.30152">
        <ele>20</ele>
        <time>2019-06-13T07:50:08.000Z</time>
      </trkpt>
      <trkpt lat="47.26173" lon="-2.30156">
        <ele>20.39999961853</ele>
        <time>2019-06-13T07:50:09.000Z</time>
      </trkpt>
      <trkpt lat="47.26176" lon="-2.30153">
        <ele>20.799999237061</ele>
        <time>2019-06-13T07:50:10.000Z</time>
      </trkpt>
      <trkpt lat="47.26179" lon="-2.30152">
        <ele>21.39999961853</ele>
        <time>2019-06-13T07:50:11.000Z</time>
      </trkpt>
      <trkpt lat="47.26183" lon="-2.3015">
        <ele>21.799999237061</ele>
        <time>2019-06-13T07:50:12.000Z</time>
      </trkpt>
      <trkpt lat="47.262" lon="-2.30143">
        <ele>21.799999237061</ele>
        <time>2019-06-13T07:50:16.000Z</time>
      </trkpt>
      <trkpt lat="47.2623" lon="-2.30132">
        <ele>22.200000762939</ele>
        <time>2019-06-13T07:50:23.000Z</time>
      </trkpt>
      <trkpt lat="47.26235" lon="-2.3013">
        <ele>22.60000038147</ele>
        <time>2019-06-13T07:50:24.000Z</time>
      </trkpt>
      <trkpt lat="47.26238" lon="-2.30128">
        <ele>23</ele>
        <time>2019-06-13T07:50:25.000Z</time>
      </trkpt>
      <trkpt lat="47.26242" lon="-2.30127">
        <ele>23.39999961853</ele>
        <time>2019-06-13T07:50:26.000Z</time>
      </trkpt>
      <trkpt lat="47.26245" lon="-2.30128">
        <ele>23.799999237061</ele>
        <time>2019-06-13T07:50:27.000Z</time>
      </trkpt>
      <trkpt lat="47.26247" lon="-2.30133">
        <ele>23.799999237061</ele>
        <time>2019-06-13T07:50:28.000Z</time>
      </trkpt>
      <trkpt lat="47.26257" lon="-2.30155">
        <ele>23.799999237061</ele>
        <time>2019-06-13T07:50:32.000Z</time>
      </trkpt>
      <trkpt lat="47.26263" lon="-2.30168">
        <ele>23.799999237061</ele>
        <time>2019-06-13T07:50:34.000Z</time>
      </trkpt>
      <trkpt lat="47.26268" lon="-2.30191">
        <ele>23.799999237061</ele>
        <time>2019-06-13T07:50:37.000Z</time>
      </trkpt>
      <trkpt lat="47.26269" lon="-2.302">
        <ele>23.799999237061</ele>
        <time>2019-06-13T07:50:38.000Z</time>
      </trkpt>
      <trkpt lat="47.26277" lon="-2.30239">
        <ele>23.799999237061</ele>
        <time>2019-06-13T07:50:43.000Z</time>
      </trkpt>
      <trkpt lat="47.26285" lon="-2.30289">
        <ele>23.799999237061</ele>
        <time>2019-06-13T07:50:49.000Z</time>
      </trkpt>
      <trkpt lat="47.26293" lon="-2.30311">
        <ele>23.799999237061</ele>
        <time>2019-06-13T07:50:52.000Z</time>
      </trkpt>
      <trkpt lat="47.26301" lon="-2.30331">
        <ele>23.799999237061</ele>
        <time>2019-06-13T07:50:55.000Z</time>
      </trkpt>
      <trkpt lat="47.26303" lon="-2.30339">
        <ele>23.799999237061</ele>
        <time>2019-06-13T07:50:56.000Z</time>
      </trkpt>
      <trkpt lat="47.26307" lon="-2.30365">
        <ele>23.799999237061</ele>
        <time>2019-06-13T07:50:59.000Z</time>
      </trkpt>
      <trkpt lat="47.26311" lon="-2.30395">
        <ele>23.799999237061</ele>
        <time>2019-06-13T07:51:03.000Z</time>
      </trkpt>
      <trkpt lat="47.26317" lon="-2.30418">
        <ele>23.799999237061</ele>
        <time>2019-06-13T07:51:06.000Z</time>
      </trkpt>
      <trkpt lat="47.2633" lon="-2.30478">
        <ele>23.799999237061</ele>
        <time>2019-06-13T07:51:14.000Z</time>
      </trkpt>
      <trkpt lat="47.26339" lon="-2.30522">
        <ele>23.799999237061</ele>
        <time>2019-06-13T07:51:20.000Z</time>
      </trkpt>
      <trkpt lat="47.26347" lon="-2.30558">
        <ele>23.799999237061</ele>
        <time>2019-06-13T07:51:26.000Z</time>
      </trkpt>
      <trkpt lat="47.26347" lon="-2.30564">
        <ele>23</ele>
        <time>2019-06-13T07:51:28.000Z</time>
      </trkpt>
      <trkpt lat="47.26347" lon="-2.30567">
        <ele>22.39999961853</ele>
        <time>2019-06-13T07:51:29.000Z</time>
      </trkpt>
      <trkpt lat="47.26346" lon="-2.30573">
        <ele>22</ele>
        <time>2019-06-13T07:51:30.000Z</time>
      </trkpt>
      <trkpt lat="47.26347" lon="-2.30579">
        <ele>21.60000038147</ele>
        <time>2019-06-13T07:51:31.000Z</time>
      </trkpt>
      <trkpt lat="47.26351" lon="-2.30595">
        <ele>21.60000038147</ele>
        <time>2019-06-13T07:51:34.000Z</time>
      </trkpt>
      <trkpt lat="47.26354" lon="-2.306">
        <ele>21.60000038147</ele>
        <time>2019-06-13T07:51:35.000Z</time>
      </trkpt>
      <trkpt lat="47.26359" lon="-2.30612">
        <ele>21.60000038147</ele>
        <time>2019-06-13T07:51:37.000Z</time>
      </trkpt>
      <trkpt lat="47.26363" lon="-2.30623">
        <ele>21.60000038147</ele>
        <time>2019-06-13T07:51:39.000Z</time>
      </trkpt>
      <trkpt lat="47.26376" lon="-2.30646">
        <ele>21.60000038147</ele>
        <time>2019-06-13T07:51:43.000Z</time>
      </trkpt>
      <trkpt lat="47.2638" lon="-2.30651">
        <ele>21.60000038147</ele>
        <time>2019-06-13T07:51:44.000Z</time>
      </trkpt>
      <trkpt lat="47.26385" lon="-2.30656">
        <ele>21.60000038147</ele>
        <time>2019-06-13T07:51:45.000Z</time>
      </trkpt>
      <trkpt lat="47.264" lon="-2.30666">
        <ele>21.60000038147</ele>
        <time>2019-06-13T07:51:48.000Z</time>
      </trkpt>
      <trkpt lat="47.26405" lon="-2.30669">
        <ele>21.60000038147</ele>
        <time>2019-06-13T07:51:49.000Z</time>
      </trkpt>
      <trkpt lat="47.26414" lon="-2.30677">
        <ele>21.60000038147</ele>
        <time>2019-06-13T07:51:51.000Z</time>
      </trkpt>
      <trkpt lat="47.2642" lon="-2.30685">
        <ele>21.60000038147</ele>
        <time>2019-06-13T07:51:53.000Z</time>
      </trkpt>
      <trkpt lat="47.26422" lon="-2.30691">
        <ele>21.60000038147</ele>
        <time>2019-06-13T07:51:54.000Z</time>
      </trkpt>
      <trkpt lat="47.26431" lon="-2.30708">
        <ele>21.60000038147</ele>
        <time>2019-06-13T07:51:57.000Z</time>
      </trkpt>
      <trkpt lat="47.26449" lon="-2.30751">
        <ele>21.60000038147</ele>
        <time>2019-06-13T07:52:03.000Z</time>
      </trkpt>
      <trkpt lat="47.26464" lon="-2.30786">
        <ele>21.200000762939</ele>
        <time>2019-06-13T07:52:07.000Z</time>
      </trkpt>
      <trkpt lat="47.26468" lon="-2.30795">
        <ele>20.799999237061</ele>
        <time>2019-06-13T07:52:08.000Z</time>
      </trkpt>
      <trkpt lat="47.26471" lon="-2.30803">
        <ele>20.39999961853</ele>
        <time>2019-06-13T07:52:09.000Z</time>
      </trkpt>
      <trkpt lat="47.26475" lon="-2.30811">
        <ele>20</ele>
        <time>2019-06-13T07:52:10.000Z</time>
      </trkpt>
      <trkpt lat="47.26478" lon="-2.30819">
        <ele>19.60000038147</ele>
        <time>2019-06-13T07:52:11.000Z</time>
      </trkpt>
      <trkpt lat="47.26485" lon="-2.3084">
        <ele>19</ele>
        <time>2019-06-13T07:52:14.000Z</time>
      </trkpt>
      <trkpt lat="47.26488" lon="-2.30847">
        <ele>18.60000038147</ele>
        <time>2019-06-13T07:52:15.000Z</time>
      </trkpt>
      <trkpt lat="47.2649" lon="-2.30853">
        <ele>18</ele>
        <time>2019-06-13T07:52:16.000Z</time>
      </trkpt>
      <trkpt lat="47.26493" lon="-2.30859">
        <ele>17.60000038147</ele>
        <time>2019-06-13T07:52:17.000Z</time>
      </trkpt>
      <trkpt lat="47.26495" lon="-2.30865">
        <ele>16.60000038147</ele>
        <time>2019-06-13T07:52:18.000Z</time>
      </trkpt>
      <trkpt lat="47.26497" lon="-2.30871">
        <ele>16</ele>
        <time>2019-06-13T07:52:19.000Z</time>
      </trkpt>
      <trkpt lat="47.26499" lon="-2.30877">
        <ele>15.39999961853</ele>
        <time>2019-06-13T07:52:20.000Z</time>
      </trkpt>
      <trkpt lat="47.26502" lon="-2.3088">
        <ele>14.800000190735</ele>
        <time>2019-06-13T07:52:21.000Z</time>
      </trkpt>
      <trkpt lat="47.26505" lon="-2.3088">
        <ele>14</ele>
        <time>2019-06-13T07:52:22.000Z</time>
      </trkpt>
      <trkpt lat="47.26508" lon="-2.30879">
        <ele>13.199999809265</ele>
        <time>2019-06-13T07:52:23.000Z</time>
      </trkpt>
      <trkpt lat="47.2651" lon="-2.30878">
        <ele>12.39999961853</ele>
        <time>2019-06-13T07:52:24.000Z</time>
      </trkpt>
      <trkpt lat="47.26513" lon="-2.30876">
        <ele>11.800000190735</ele>
        <time>2019-06-13T07:52:25.000Z</time>
      </trkpt>
      <trkpt lat="47.26516" lon="-2.30874">
        <ele>11.800000190735</ele>
        <time>2019-06-13T07:52:26.000Z</time>
      </trkpt>
      <trkpt lat="47.26527" lon="-2.30862">
        <ele>11.800000190735</ele>
        <time>2019-06-13T07:52:32.000Z</time>
      </trkpt>
      <trkpt lat="47.26539" lon="-2.30847">
        <ele>11.800000190735</ele>
        <time>2019-06-13T07:52:37.000Z</time>
      </trkpt>
      <trkpt lat="47.26543" lon="-2.30842">
        <ele>11.800000190735</ele>
        <time>2019-06-13T07:52:40.000Z</time>
      </trkpt>
      <trkpt lat="47.26545" lon="-2.30842">
        <ele>11.800000190735</ele>
        <time>2019-06-13T07:52:41.000Z</time>
      </trkpt>
      <trkpt lat="47.2655" lon="-2.30834">
        <ele>11.800000190735</ele>
        <time>2019-06-13T07:52:46.000Z</time>
      </trkpt>
      <trkpt lat="47.26552" lon="-2.30829">
        <ele>12.199999809265</ele>
        <time>2019-06-13T07:52:48.000Z</time>
      </trkpt>
      <trkpt lat="47.26554" lon="-2.30825">
        <ele>12.60000038147</ele>
        <time>2019-06-13T07:52:49.000Z</time>
      </trkpt>
      <trkpt lat="47.26557" lon="-2.30822">
        <ele>13</ele>
        <time>2019-06-13T07:52:50.000Z</time>
      </trkpt>
      <trkpt lat="47.26561" lon="-2.30818">
        <ele>13.39999961853</ele>
        <time>2019-06-13T07:52:51.000Z</time>
      </trkpt>
      <trkpt lat="47.26564" lon="-2.30814">
        <ele>13.800000190735</ele>
        <time>2019-06-13T07:52:52.000Z</time>
      </trkpt>
      <trkpt lat="47.26578" lon="-2.30798">
        <ele>13.800000190735</ele>
        <time>2019-06-13T07:52:56.000Z</time>
      </trkpt>
      <trkpt lat="47.26586" lon="-2.30789">
        <ele>14.199999809265</ele>
        <time>2019-06-13T07:52:58.000Z</time>
      </trkpt>
      <trkpt lat="47.2659" lon="-2.30785">
        <ele>14.60000038147</ele>
        <time>2019-06-13T07:52:59.000Z</time>
      </trkpt>
      <trkpt lat="47.26593" lon="-2.30782">
        <ele>15</ele>
        <time>2019-06-13T07:53:00.000Z</time>
      </trkpt>
      <trkpt lat="47.26595" lon="-2.30778">
        <ele>15.39999961853</ele>
        <time>2019-06-13T07:53:01.000Z</time>
      </trkpt>
      <trkpt lat="47.26597" lon="-2.30774">
        <ele>15.800000190735</ele>
        <time>2019-06-13T07:53:02.000Z</time>
      </trkpt>
      <trkpt lat="47.26599" lon="-2.30768">
        <ele>15.800000190735</ele>
        <time>2019-06-13T07:53:04.000Z</time>
      </trkpt>
      <trkpt lat="47.26599" lon="-2.30764">
        <ele>15.800000190735</ele>
        <time>2019-06-13T07:53:05.000Z</time>
      </trkpt>
      <trkpt lat="47.26611" lon="-2.30747">
        <ele>15.800000190735</ele>
        <time>2019-06-13T07:53:09.000Z</time>
      </trkpt>
      <trkpt lat="47.26627" lon="-2.30728">
        <ele>15.800000190735</ele>
        <time>2019-06-13T07:53:14.000Z</time>
      </trkpt>
      <trkpt lat="47.26633" lon="-2.30715">
        <ele>16.39999961853</ele>
        <time>2019-06-13T07:53:17.000Z</time>
      </trkpt>
      <trkpt lat="47.26634" lon="-2.30711">
        <ele>16.799999237061</ele>
        <time>2019-06-13T07:53:18.000Z</time>
      </trkpt>
      <trkpt lat="47.26637" lon="-2.30707">
        <ele>17.200000762939</ele>
        <time>2019-06-13T07:53:19.000Z</time>
      </trkpt>
      <trkpt lat="47.2664" lon="-2.30705">
        <ele>17.60000038147</ele>
        <time>2019-06-13T07:53:20.000Z</time>
      </trkpt>
      <trkpt lat="47.26643" lon="-2.30707">
        <ele>18</ele>
        <time>2019-06-13T07:53:21.000Z</time>
      </trkpt>
      <trkpt lat="47.26646" lon="-2.3071">
        <ele>18</ele>
        <time>2019-06-13T07:53:22.000Z</time>
      </trkpt>
      <trkpt lat="47.26649" lon="-2.30713">
        <ele>18</ele>
        <time>2019-06-13T07:53:23.000Z</time>
      </trkpt>
      <trkpt lat="47.2666" lon="-2.30726">
        <ele>18</ele>
        <time>2019-06-13T07:53:26.000Z</time>
      </trkpt>
      <trkpt lat="47.26681" lon="-2.30756">
        <ele>18.60000038147</ele>
        <time>2019-06-13T07:53:32.000Z</time>
      </trkpt>
      <trkpt lat="47.26684" lon="-2.30761">
        <ele>19</ele>
        <time>2019-06-13T07:53:33.000Z</time>
      </trkpt>
      <trkpt lat="47.26687" lon="-2.30766">
        <ele>19.39999961853</ele>
        <time>2019-06-13T07:53:34.000Z</time>
      </trkpt>
      <trkpt lat="47.26689" lon="-2.30771">
        <ele>19.799999237061</ele>
        <time>2019-06-13T07:53:35.000Z</time>
      </trkpt>
      <trkpt lat="47.26692" lon="-2.30776">
        <ele>20.39999961853</ele>
        <time>2019-06-13T07:53:36.000Z</time>
      </trkpt>
      <trkpt lat="47.26696" lon="-2.30786">
        <ele>20.39999961853</ele>
        <time>2019-06-13T07:53:38.000Z</time>
      </trkpt>
      <trkpt lat="47.26706" lon="-2.30809">
        <ele>20.799999237061</ele>
        <time>2019-06-13T07:53:42.000Z</time>
      </trkpt>
      <trkpt lat="47.26708" lon="-2.30815">
        <ele>21.200000762939</ele>
        <time>2019-06-13T07:53:43.000Z</time>
      </trkpt>
      <trkpt lat="47.26711" lon="-2.30821">
        <ele>21.60000038147</ele>
        <time>2019-06-13T07:53:44.000Z</time>
      </trkpt>
      <trkpt lat="47.26713" lon="-2.30827">
        <ele>22</ele>
        <time>2019-06-13T07:53:45.000Z</time>
      </trkpt>
      <trkpt lat="47.26716" lon="-2.30832">
        <ele>22.39999961853</ele>
        <time>2019-06-13T07:53:46.000Z</time>
      </trkpt>
      <trkpt lat="47.26719" lon="-2.30838">
        <ele>22.39999961853</ele>
        <time>2019-06-13T07:53:47.000Z</time>
      </trkpt>
      <trkpt lat="47.26725" lon="-2.30849">
        <ele>22.39999961853</ele>
        <time>2019-06-13T07:53:49.000Z</time>
      </trkpt>
      <trkpt lat="47.26735" lon="-2.30864">
        <ele>22.39999961853</ele>
        <time>2019-06-13T07:53:52.000Z</time>
      </trkpt>
      <trkpt lat="47.26743" lon="-2.30867">
        <ele>22.39999961853</ele>
        <time>2019-06-13T07:53:54.000Z</time>
      </trkpt>
      <trkpt lat="47.2676" lon="-2.30851">
        <ele>22.39999961853</ele>
        <time>2019-06-13T07:53:58.000Z</time>
      </trkpt>
      <trkpt lat="47.26783" lon="-2.30823">
        <ele>22.39999961853</ele>
        <time>2019-06-13T07:54:04.000Z</time>
      </trkpt>
      <trkpt lat="47.26808" lon="-2.30796">
        <ele>22.39999961853</ele>
        <time>2019-06-13T07:54:10.000Z</time>
      </trkpt>
      <trkpt lat="47.26822" lon="-2.30786">
        <ele>22.39999961853</ele>
        <time>2019-06-13T07:54:15.000Z</time>
      </trkpt>
      <trkpt lat="47.26825" lon="-2.30785">
        <ele>22.39999961853</ele>
        <time>2019-06-13T07:54:17.000Z</time>
      </trkpt>
      <trkpt lat="47.26829" lon="-2.30781">
        <ele>22.39999961853</ele>
        <time>2019-06-13T07:56:10.000Z</time>
      </trkpt>
      <trkpt lat="47.2683" lon="-2.30778">
        <ele>22.39999961853</ele>
        <time>2019-06-13T07:56:11.000Z</time>
      </trkpt>
      <trkpt lat="47.26837" lon="-2.30762">
        <ele>22.39999961853</ele>
        <time>2019-06-13T07:56:15.000Z</time>
      </trkpt>
      <trkpt lat="47.26842" lon="-2.30745">
        <ele>22.39999961853</ele>
        <time>2019-06-13T07:56:18.000Z</time>
      </trkpt>
      <trkpt lat="47.26851" lon="-2.30722">
        <ele>22.39999961853</ele>
        <time>2019-06-13T07:56:22.000Z</time>
      </trkpt>
      <trkpt lat="47.26873" lon="-2.30682">
        <ele>22.39999961853</ele>
        <time>2019-06-13T07:56:29.000Z</time>
      </trkpt>
      <trkpt lat="47.26884" lon="-2.30667">
        <ele>22.39999961853</ele>
        <time>2019-06-13T07:56:32.000Z</time>
      </trkpt>
      <trkpt lat="47.26897" lon="-2.30655">
        <ele>22.39999961853</ele>
        <time>2019-06-13T07:56:35.000Z</time>
      </trkpt>
      <trkpt lat="47.2691" lon="-2.3064">
        <ele>22.39999961853</ele>
        <time>2019-06-13T07:56:39.000Z</time>
      </trkpt>
      <trkpt lat="47.26915" lon="-2.30634">
        <ele>22.39999961853</ele>
        <time>2019-06-13T07:56:41.000Z</time>
      </trkpt>
      <trkpt lat="47.26919" lon="-2.30633">
        <ele>22.39999961853</ele>
        <time>2019-06-13T07:56:42.000Z</time>
      </trkpt>
      <trkpt lat="47.26933" lon="-2.30633">
        <ele>22.39999961853</ele>
        <time>2019-06-13T07:56:45.000Z</time>
      </trkpt>
      <trkpt lat="47.26939" lon="-2.30632">
        <ele>22.39999961853</ele>
        <time>2019-06-13T07:56:46.000Z</time>
      </trkpt>
      <trkpt lat="47.26944" lon="-2.3063">
        <ele>22.39999961853</ele>
        <time>2019-06-13T07:56:47.000Z</time>
      </trkpt>
      <trkpt lat="47.26968" lon="-2.3062">
        <ele>22.39999961853</ele>
        <time>2019-06-13T07:56:51.000Z</time>
      </trkpt>
      <trkpt lat="47.26991" lon="-2.30607">
        <ele>22.39999961853</ele>
        <time>2019-06-13T07:56:55.000Z</time>
      </trkpt>
      <trkpt lat="47.27002" lon="-2.30598">
        <ele>22.39999961853</ele>
        <time>2019-06-13T07:56:57.000Z</time>
      </trkpt>
      <trkpt lat="47.27012" lon="-2.30575">
        <ele>22.39999961853</ele>
        <time>2019-06-13T07:57:00.000Z</time>
      </trkpt>
      <trkpt lat="47.27015" lon="-2.30566">
        <ele>22.39999961853</ele>
        <time>2019-06-13T07:57:01.000Z</time>
      </trkpt>
      <trkpt lat="47.27028" lon="-2.30518">
        <ele>22.39999961853</ele>
        <time>2019-06-13T07:57:07.000Z</time>
      </trkpt>
      <trkpt lat="47.27031" lon="-2.30504">
        <ele>22.39999961853</ele>
        <time>2019-06-13T07:57:09.000Z</time>
      </trkpt>
      <trkpt lat="47.27034" lon="-2.30485">
        <ele>22.39999961853</ele>
        <time>2019-06-13T07:57:12.000Z</time>
      </trkpt>
      <trkpt lat="47.27036" lon="-2.30477">
        <ele>22.39999961853</ele>
        <time>2019-06-13T07:57:14.000Z</time>
      </trkpt>
      <trkpt lat="47.2704" lon="-2.30473">
        <ele>22.39999961853</ele>
        <time>2019-06-13T07:57:16.000Z</time>
      </trkpt>
      <trkpt lat="47.27043" lon="-2.30473">
        <ele>22</ele>
        <time>2019-06-13T07:57:18.000Z</time>
      </trkpt>
      <trkpt lat="47.27045" lon="-2.30474">
        <ele>21.60000038147</ele>
        <time>2019-06-13T07:57:19.000Z</time>
      </trkpt>
      <trkpt lat="47.27047" lon="-2.30476">
        <ele>21.200000762939</ele>
        <time>2019-06-13T07:57:20.000Z</time>
      </trkpt>
      <trkpt lat="47.2705" lon="-2.30477">
        <ele>20.799999237061</ele>
        <time>2019-06-13T07:57:21.000Z</time>
      </trkpt>
      <trkpt lat="47.27053" lon="-2.30478">
        <ele>20.39999961853</ele>
        <time>2019-06-13T07:57:22.000Z</time>
      </trkpt>
      <trkpt lat="47.27061" lon="-2.30478">
        <ele>20.39999961853</ele>
        <time>2019-06-13T07:57:24.000Z</time>
      </trkpt>
      <trkpt lat="47.27066" lon="-2.3048">
        <ele>20.39999961853</ele>
        <time>2019-06-13T07:57:25.000Z</time>
      </trkpt>
      <trkpt lat="47.27087" lon="-2.30488">
        <ele>20.39999961853</ele>
        <time>2019-06-13T07:57:30.000Z</time>
      </trkpt>
      <trkpt lat="47.27103" lon="-2.30493">
        <ele>20.39999961853</ele>
        <time>2019-06-13T07:57:34.000Z</time>
      </trkpt>
      <trkpt lat="47.27113" lon="-2.30496">
        <ele>20</ele>
        <time>2019-06-13T07:57:36.000Z</time>
      </trkpt>
      <trkpt lat="47.27117" lon="-2.30497">
        <ele>19.60000038147</ele>
        <time>2019-06-13T07:57:37.000Z</time>
      </trkpt>
      <trkpt lat="47.27122" lon="-2.30499">
        <ele>19.200000762939</ele>
        <time>2019-06-13T07:57:38.000Z</time>
      </trkpt>
      <trkpt lat="47.27126" lon="-2.30501">
        <ele>18.200000762939</ele>
        <time>2019-06-13T07:57:39.000Z</time>
      </trkpt>
      <trkpt lat="47.2713" lon="-2.30502">
        <ele>18.200000762939</ele>
        <time>2019-06-13T07:57:40.000Z</time>
      </trkpt>
      <trkpt lat="47.27133" lon="-2.30506">
        <ele>18.200000762939</ele>
        <time>2019-06-13T07:57:41.000Z</time>
      </trkpt>
      <trkpt lat="47.27137" lon="-2.30509">
        <ele>18.200000762939</ele>
        <time>2019-06-13T07:57:42.000Z</time>
      </trkpt>
      <trkpt lat="47.27147" lon="-2.30519">
        <ele>18.200000762939</ele>
        <time>2019-06-13T07:57:44.000Z</time>
      </trkpt>
      <trkpt lat="47.27156" lon="-2.30525">
        <ele>18.200000762939</ele>
        <time>2019-06-13T07:57:46.000Z</time>
      </trkpt>
      <trkpt lat="47.2716" lon="-2.30528">
        <ele>17.799999237061</ele>
        <time>2019-06-13T07:57:47.000Z</time>
      </trkpt>
      <trkpt lat="47.27165" lon="-2.30529">
        <ele>17.39999961853</ele>
        <time>2019-06-13T07:57:48.000Z</time>
      </trkpt>
      <trkpt lat="47.2717" lon="-2.3053">
        <ele>17</ele>
        <time>2019-06-13T07:57:49.000Z</time>
      </trkpt>
      <trkpt lat="47.27173" lon="-2.30532">
        <ele>16.60000038147</ele>
        <time>2019-06-13T07:57:50.000Z</time>
      </trkpt>
      <trkpt lat="47.27178" lon="-2.30534">
        <ele>16.200000762939</ele>
        <time>2019-06-13T07:57:51.000Z</time>
      </trkpt>
      <trkpt lat="47.27198" lon="-2.30539">
        <ele>16.200000762939</ele>
        <time>2019-06-13T07:57:57.000Z</time>
      </trkpt>
      <trkpt lat="47.27206" lon="-2.3054">
        <ele>16.200000762939</ele>
        <time>2019-06-13T07:58:00.000Z</time>
      </trkpt>
      <trkpt lat="47.27208" lon="-2.30539">
        <ele>16.200000762939</ele>
        <time>2019-06-13T07:58:01.000Z</time>
      </trkpt>
      <trkpt lat="47.27215" lon="-2.30538">
        <ele>15.800000190735</ele>
        <time>2019-06-13T07:58:04.000Z</time>
      </trkpt>
      <trkpt lat="47.27218" lon="-2.30538">
        <ele>15.39999961853</ele>
        <time>2019-06-13T07:58:05.000Z</time>
      </trkpt>
      <trkpt lat="47.27221" lon="-2.30538">
        <ele>15</ele>
        <time>2019-06-13T07:58:06.000Z</time>
      </trkpt>
      <trkpt lat="47.27223" lon="-2.30538">
        <ele>14.60000038147</ele>
        <time>2019-06-13T07:58:07.000Z</time>
      </trkpt>
      <trkpt lat="47.27226" lon="-2.30538">
        <ele>14.199999809265</ele>
        <time>2019-06-13T07:58:08.000Z</time>
      </trkpt>
      <trkpt lat="47.27236" lon="-2.30541">
        <ele>14.199999809265</ele>
        <time>2019-06-13T07:58:11.000Z</time>
      </trkpt>
      <trkpt lat="47.27254" lon="-2.30542">
        <ele>14.199999809265</ele>
        <time>2019-06-13T07:58:16.000Z</time>
      </trkpt>
      <trkpt lat="47.27262" lon="-2.30543">
        <ele>14.199999809265</ele>
        <time>2019-06-13T07:58:18.000Z</time>
      </trkpt>
      <trkpt lat="47.27268" lon="-2.3054">
        <ele>14.199999809265</ele>
        <time>2019-06-13T07:58:20.000Z</time>
      </trkpt>
      <trkpt lat="47.27283" lon="-2.30533">
        <ele>14.199999809265</ele>
        <time>2019-06-13T07:58:24.000Z</time>
      </trkpt>
      <trkpt lat="47.273" lon="-2.30523">
        <ele>14.199999809265</ele>
        <time>2019-06-13T07:58:29.000Z</time>
      </trkpt>
      <trkpt lat="47.2731" lon="-2.30518">
        <ele>14.199999809265</ele>
        <time>2019-06-13T07:58:33.000Z</time>
      </trkpt>
      <trkpt lat="47.27324" lon="-2.30516">
        <ele>14.199999809265</ele>
        <time>2019-06-13T07:58:38.000Z</time>
      </trkpt>
      <trkpt lat="47.27335" lon="-2.30514">
        <ele>14.199999809265</ele>
        <time>2019-06-13T07:58:42.000Z</time>
      </trkpt>
      <trkpt lat="47.27343" lon="-2.30509">
        <ele>14.199999809265</ele>
        <time>2019-06-13T07:58:47.000Z</time>
      </trkpt>
      <trkpt lat="47.27356" lon="-2.30499">
        <ele>14.199999809265</ele>
        <time>2019-06-13T07:58:52.000Z</time>
      </trkpt>
      <trkpt lat="47.27373" lon="-2.30488">
        <ele>14.199999809265</ele>
        <time>2019-06-13T07:58:56.000Z</time>
      </trkpt>
      <trkpt lat="47.27377" lon="-2.30486">
        <ele>14.199999809265</ele>
        <time>2019-06-13T07:58:57.000Z</time>
      </trkpt>
      <trkpt lat="47.27392" lon="-2.30473">
        <ele>14.199999809265</ele>
        <time>2019-06-13T07:59:02.000Z</time>
      </trkpt>
      <trkpt lat="47.27403" lon="-2.30467">
        <ele>14.199999809265</ele>
        <time>2019-06-13T07:59:06.000Z</time>
      </trkpt>
      <trkpt lat="47.27407" lon="-2.30466">
        <ele>14.199999809265</ele>
        <time>2019-06-13T07:59:08.000Z</time>
      </trkpt>
      <trkpt lat="47.27415" lon="-2.30458">
        <ele>14.199999809265</ele>
        <time>2019-06-13T07:59:13.000Z</time>
      </trkpt>
      <trkpt lat="47.27416" lon="-2.30456">
        <ele>14.199999809265</ele>
        <time>2019-06-13T07:59:14.000Z</time>
      </trkpt>
      <trkpt lat="47.27419" lon="-2.30454">
        <ele>14.199999809265</ele>
        <time>2019-06-13T07:59:15.000Z</time>
      </trkpt>
      <trkpt lat="47.27424" lon="-2.30454">
        <ele>14.199999809265</ele>
        <time>2019-06-13T07:59:17.000Z</time>
      </trkpt>
      <trkpt lat="47.27432" lon="-2.30451">
        <ele>14.199999809265</ele>
        <time>2019-06-13T07:59:21.000Z</time>
      </trkpt>
      <trkpt lat="47.27434" lon="-2.3045">
        <ele>14.199999809265</ele>
        <time>2019-06-13T07:59:53.000Z</time>
      </trkpt>
      <trkpt lat="47.27449" lon="-2.30448">
        <ele>14.199999809265</ele>
        <time>2019-06-13T07:59:58.000Z</time>
      </trkpt>
      <trkpt lat="47.27471" lon="-2.30444">
        <ele>14.199999809265</ele>
        <time>2019-06-13T08:00:03.000Z</time>
      </trkpt>
      <trkpt lat="47.27497" lon="-2.30434">
        <ele>14.199999809265</ele>
        <time>2019-06-13T08:00:09.000Z</time>
      </trkpt>
      <trkpt lat="47.27502" lon="-2.3042">
        <ele>14.199999809265</ele>
        <time>2019-06-13T08:00:13.000Z</time>
      </trkpt>
      <trkpt lat="47.275" lon="-2.30395">
        <ele>14.199999809265</ele>
        <time>2019-06-13T08:00:17.000Z</time>
      </trkpt>
      <trkpt lat="47.27499" lon="-2.30388">
        <ele>14.199999809265</ele>
        <time>2019-06-13T08:00:18.000Z</time>
      </trkpt>
      <trkpt lat="47.27496" lon="-2.30372">
        <ele>14.199999809265</ele>
        <time>2019-06-13T08:00:20.000Z</time>
      </trkpt>
      <trkpt lat="47.27493" lon="-2.30357">
        <ele>14.199999809265</ele>
        <time>2019-06-13T08:00:22.000Z</time>
      </trkpt>
      <trkpt lat="47.27487" lon="-2.30329">
        <ele>14.60000038147</ele>
        <time>2019-06-13T08:00:26.000Z</time>
      </trkpt>
      <trkpt lat="47.27485" lon="-2.30322">
        <ele>15</ele>
        <time>2019-06-13T08:00:27.000Z</time>
      </trkpt>
      <trkpt lat="47.27484" lon="-2.30315">
        <ele>15.39999961853</ele>
        <time>2019-06-13T08:00:28.000Z</time>
      </trkpt>
      <trkpt lat="47.27483" lon="-2.30309">
        <ele>15.800000190735</ele>
        <time>2019-06-13T08:00:29.000Z</time>
      </trkpt>
      <trkpt lat="47.27481" lon="-2.30302">
        <ele>16.200000762939</ele>
        <time>2019-06-13T08:00:30.000Z</time>
      </trkpt>
      <trkpt lat="47.27477" lon="-2.3028">
        <ele>16.60000038147</ele>
        <time>2019-06-13T08:00:33.000Z</time>
      </trkpt>
      <trkpt lat="47.27476" lon="-2.30273">
        <ele>17</ele>
        <time>2019-06-13T08:00:34.000Z</time>
      </trkpt>
      <trkpt lat="47.27474" lon="-2.30266">
        <ele>17.39999961853</ele>
        <time>2019-06-13T08:00:35.000Z</time>
      </trkpt>
      <trkpt lat="47.27473" lon="-2.30259">
        <ele>17.799999237061</ele>
        <time>2019-06-13T08:00:36.000Z</time>
      </trkpt>
      <trkpt lat="47.27472" lon="-2.30253">
        <ele>18.200000762939</ele>
        <time>2019-06-13T08:00:37.000Z</time>
      </trkpt>
      <trkpt lat="47.27471" lon="-2.30247">
        <ele>18.200000762939</ele>
        <time>2019-06-13T08:00:38.000Z</time>
      </trkpt>
      <trkpt lat="47.27463" lon="-2.30221">
        <ele>18.200000762939</ele>
        <time>2019-06-13T08:00:42.000Z</time>
      </trkpt>
      <trkpt lat="47.27461" lon="-2.30217">
        <ele>18.200000762939</ele>
        <time>2019-06-13T08:00:43.000Z</time>
      </trkpt>
      <trkpt lat="47.27451" lon="-2.30219">
        <ele>18.799999237061</ele>
        <time>2019-06-13T08:00:46.000Z</time>
      </trkpt>
      <trkpt lat="47.27448" lon="-2.30221">
        <ele>19.200000762939</ele>
        <time>2019-06-13T08:00:47.000Z</time>
      </trkpt>
      <trkpt lat="47.27444" lon="-2.30224">
        <ele>19.60000038147</ele>
        <time>2019-06-13T08:00:48.000Z</time>
      </trkpt>
      <trkpt lat="47.27439" lon="-2.30225">
        <ele>20</ele>
        <time>2019-06-13T08:00:49.000Z</time>
      </trkpt>
      <trkpt lat="47.27434" lon="-2.30227">
        <ele>20.39999961853</ele>
        <time>2019-06-13T08:00:50.000Z</time>
      </trkpt>
      <trkpt lat="47.27404" lon="-2.30242">
        <ele>20.39999961853</ele>
        <time>2019-06-13T08:00:56.000Z</time>
      </trkpt>
      <trkpt lat="47.27373" lon="-2.30253">
        <ele>20.39999961853</ele>
        <time>2019-06-13T08:01:02.000Z</time>
      </trkpt>
      <trkpt lat="47.27368" lon="-2.30255">
        <ele>20.39999961853</ele>
        <time>2019-06-13T08:01:03.000Z</time>
      </trkpt>
      <trkpt lat="47.27352" lon="-2.30256">
        <ele>20.39999961853</ele>
        <time>2019-06-13T08:01:06.000Z</time>
      </trkpt>
      <trkpt lat="47.27323" lon="-2.30261">
        <ele>20.39999961853</ele>
        <time>2019-06-13T08:01:11.000Z</time>
      </trkpt>
      <trkpt lat="47.27292" lon="-2.30262">
        <ele>20.39999961853</ele>
        <time>2019-06-13T08:01:16.000Z</time>
      </trkpt>
      <trkpt lat="47.27267" lon="-2.30266">
        <ele>20.39999961853</ele>
        <time>2019-06-13T08:01:20.000Z</time>
      </trkpt>
      <trkpt lat="47.2726" lon="-2.30265">
        <ele>20.39999961853</ele>
        <time>2019-06-13T08:01:21.000Z</time>
      </trkpt>
      <trkpt lat="47.27244" lon="-2.30262">
        <ele>20</ele>
        <time>2019-06-13T08:01:24.000Z</time>
      </trkpt>
      <trkpt lat="47.27241" lon="-2.3026">
        <ele>19.60000038147</ele>
        <time>2019-06-13T08:01:25.000Z</time>
      </trkpt>
      <trkpt lat="47.27238" lon="-2.30258">
        <ele>19.200000762939</ele>
        <time>2019-06-13T08:01:26.000Z</time>
      </trkpt>
      <trkpt lat="47.27235" lon="-2.30257">
        <ele>18.60000038147</ele>
        <time>2019-06-13T08:01:27.000Z</time>
      </trkpt>
      <trkpt lat="47.27231" lon="-2.30258">
        <ele>18.200000762939</ele>
        <time>2019-06-13T08:01:28.000Z</time>
      </trkpt>
      <trkpt lat="47.27225" lon="-2.30257">
        <ele>18.200000762939</ele>
        <time>2019-06-13T08:01:30.000Z</time>
      </trkpt>
      <trkpt lat="47.27219" lon="-2.30253">
        <ele>18.200000762939</ele>
        <time>2019-06-13T08:01:32.000Z</time>
      </trkpt>
      <trkpt lat="47.27205" lon="-2.30255">
        <ele>18.200000762939</ele>
        <time>2019-06-13T08:01:36.000Z</time>
      </trkpt>
      <trkpt lat="47.27186" lon="-2.30257">
        <ele>18.200000762939</ele>
        <time>2019-06-13T08:01:41.000Z</time>
      </trkpt>
      <trkpt lat="47.27176" lon="-2.30248">
        <ele>18.200000762939</ele>
        <time>2019-06-13T08:01:45.000Z</time>
      </trkpt>
      <trkpt lat="47.27166" lon="-2.30242">
        <ele>18.200000762939</ele>
        <time>2019-06-13T08:01:48.000Z</time>
      </trkpt>
      <trkpt lat="47.27164" lon="-2.30241">
        <ele>18.200000762939</ele>
        <time>2019-06-13T08:01:49.000Z</time>
      </trkpt>
      <trkpt lat="47.27152" lon="-2.30244">
        <ele>18.200000762939</ele>
        <time>2019-06-13T08:01:53.000Z</time>
      </trkpt>
      <trkpt lat="47.2714" lon="-2.30249">
        <ele>18.200000762939</ele>
        <time>2019-06-13T08:01:58.000Z</time>
      </trkpt>
      <trkpt lat="47.27139" lon="-2.30249">
        <ele>18.200000762939</ele>
        <time>2019-06-13T08:01:59.000Z</time>
      </trkpt>
      <trkpt lat="47.27142" lon="-2.30245">
        <ele>18.200000762939</ele>
        <time>2019-06-13T08:02:13.000Z</time>
      </trkpt>
      <trkpt lat="47.27147" lon="-2.30242">
        <ele>18.200000762939</ele>
        <time>2019-06-13T08:02:15.000Z</time>
      </trkpt>
      <trkpt lat="47.27156" lon="-2.3023">
        <ele>18.200000762939</ele>
        <time>2019-06-13T08:02:20.000Z</time>
      </trkpt>
      <trkpt lat="47.27159" lon="-2.30217">
        <ele>18.200000762939</ele>
        <time>2019-06-13T08:02:25.000Z</time>
      </trkpt>
      <trkpt lat="47.27158" lon="-2.3019">
        <ele>18.200000762939</ele>
        <time>2019-06-13T08:02:31.000Z</time>
      </trkpt>
      <trkpt lat="47.27157" lon="-2.30177">
        <ele>18.60000038147</ele>
        <time>2019-06-13T08:02:33.000Z</time>
      </trkpt>
      <trkpt lat="47.27157" lon="-2.30171">
        <ele>19</ele>
        <time>2019-06-13T08:02:34.000Z</time>
      </trkpt>
      <trkpt lat="47.27157" lon="-2.30165">
        <ele>19.39999961853</ele>
        <time>2019-06-13T08:02:35.000Z</time>
      </trkpt>
      <trkpt lat="47.27156" lon="-2.30159">
        <ele>20.200000762939</ele>
        <time>2019-06-13T08:02:36.000Z</time>
      </trkpt>
      <trkpt lat="47.27156" lon="-2.30135">
        <ele>20.60000038147</ele>
        <time>2019-06-13T08:02:40.000Z</time>
      </trkpt>
      <trkpt lat="47.27156" lon="-2.3013">
        <ele>21</ele>
        <time>2019-06-13T08:02:41.000Z</time>
      </trkpt>
      <trkpt lat="47.27156" lon="-2.30125">
        <ele>21.60000038147</ele>
        <time>2019-06-13T08:02:42.000Z</time>
      </trkpt>
      <trkpt lat="47.27155" lon="-2.30121">
        <ele>22</ele>
        <time>2019-06-13T08:02:43.000Z</time>
      </trkpt>
      <trkpt lat="47.27153" lon="-2.30119">
        <ele>22.39999961853</ele>
        <time>2019-06-13T08:02:44.000Z</time>
      </trkpt>
      <trkpt lat="47.2715" lon="-2.30117">
        <ele>22.39999961853</ele>
        <time>2019-06-13T08:02:45.000Z</time>
      </trkpt>
      <trkpt lat="47.27133" lon="-2.30113">
        <ele>22.39999961853</ele>
        <time>2019-06-13T08:02:50.000Z</time>
      </trkpt>
      <trkpt lat="47.27129" lon="-2.30112">
        <ele>22.39999961853</ele>
        <time>2019-06-13T08:02:51.000Z</time>
      </trkpt>
      <trkpt lat="47.27112" lon="-2.30105">
        <ele>22.39999961853</ele>
        <time>2019-06-13T08:02:55.000Z</time>
      </trkpt>
      <trkpt lat="47.27093" lon="-2.30091">
        <ele>22.799999237061</ele>
        <time>2019-06-13T08:03:00.000Z</time>
      </trkpt>
      <trkpt lat="47.2709" lon="-2.30088">
        <ele>23.60000038147</ele>
        <time>2019-06-13T08:03:01.000Z</time>
      </trkpt>
      <trkpt lat="47.27087" lon="-2.30085">
        <ele>24</ele>
        <time>2019-06-13T08:03:02.000Z</time>
      </trkpt>
      <trkpt lat="47.27083" lon="-2.3008">
        <ele>24.39999961853</ele>
        <time>2019-06-13T08:03:03.000Z</time>
      </trkpt>
      <trkpt lat="47.27067" lon="-2.3007">
        <ele>24.39999961853</ele>
        <time>2019-06-13T08:03:07.000Z</time>
      </trkpt>
      <trkpt lat="47.27062" lon="-2.30067">
        <ele>24.39999961853</ele>
        <time>2019-06-13T08:03:08.000Z</time>
      </trkpt>
      <trkpt lat="47.27045" lon="-2.30063">
        <ele>24.39999961853</ele>
        <time>2019-06-13T08:03:12.000Z</time>
      </trkpt>
      <trkpt lat="47.27036" lon="-2.30063">
        <ele>24.39999961853</ele>
        <time>2019-06-13T08:03:14.000Z</time>
      </trkpt>
      <trkpt lat="47.27025" lon="-2.30063">
        <ele>24.39999961853</ele>
        <time>2019-06-13T08:03:17.000Z</time>
      </trkpt>
      <trkpt lat="47.2701" lon="-2.30058">
        <ele>24.39999961853</ele>
        <time>2019-06-13T08:03:22.000Z</time>
      </trkpt>
      <trkpt lat="47.27008" lon="-2.30055">
        <ele>24.39999961853</ele>
        <time>2019-06-13T08:03:23.000Z</time>
      </trkpt>
      <trkpt lat="47.27008" lon="-2.30046">
        <ele>24.799999237061</ele>
        <time>2019-06-13T08:03:25.000Z</time>
      </trkpt>
      <trkpt lat="47.27009" lon="-2.30041">
        <ele>25.799999237061</ele>
        <time>2019-06-13T08:03:26.000Z</time>
      </trkpt>
      <trkpt lat="47.27011" lon="-2.30035">
        <ele>26.200000762939</ele>
        <time>2019-06-13T08:03:27.000Z</time>
      </trkpt>
      <trkpt lat="47.27012" lon="-2.3003">
        <ele>26.60000038147</ele>
        <time>2019-06-13T08:03:28.000Z</time>
      </trkpt>
      <trkpt lat="47.27013" lon="-2.30024">
        <ele>26.60000038147</ele>
        <time>2019-06-13T08:03:29.000Z</time>
      </trkpt>
      <trkpt lat="47.27022" lon="-2.29995">
        <ele>26.60000038147</ele>
        <time>2019-06-13T08:03:34.000Z</time>
      </trkpt>
      <trkpt lat="47.27026" lon="-2.29989">
        <ele>26.60000038147</ele>
        <time>2019-06-13T08:03:35.000Z</time>
      </trkpt>
      <trkpt lat="47.27032" lon="-2.29975">
        <ele>26.60000038147</ele>
        <time>2019-06-13T08:03:37.000Z</time>
      </trkpt>
      <trkpt lat="47.2704" lon="-2.29956">
        <ele>26.60000038147</ele>
        <time>2019-06-13T08:03:40.000Z</time>
      </trkpt>
      <trkpt lat="47.27047" lon="-2.29939">
        <ele>26.60000038147</ele>
        <time>2019-06-13T08:03:43.000Z</time>
      </trkpt>
      <trkpt lat="47.27056" lon="-2.29927">
        <ele>26.60000038147</ele>
        <time>2019-06-13T08:03:45.000Z</time>
      </trkpt>
      <trkpt lat="47.27076" lon="-2.29906">
        <ele>26.60000038147</ele>
        <time>2019-06-13T08:03:49.000Z</time>
      </trkpt>
      <trkpt lat="47.2708" lon="-2.29899">
        <ele>26.60000038147</ele>
        <time>2019-06-13T08:03:50.000Z</time>
      </trkpt>
      <trkpt lat="47.27094" lon="-2.2986">
        <ele>26.60000038147</ele>
        <time>2019-06-13T08:03:55.000Z</time>
      </trkpt>
      <trkpt lat="47.27101" lon="-2.2983">
        <ele>26.60000038147</ele>
        <time>2019-06-13T08:03:59.000Z</time>
      </trkpt>
      <trkpt lat="47.27102" lon="-2.29823">
        <ele>26.60000038147</ele>
        <time>2019-06-13T08:04:00.000Z</time>
      </trkpt>
      <trkpt lat="47.27103" lon="-2.29815">
        <ele>26.60000038147</ele>
        <time>2019-06-13T08:04:01.000Z</time>
      </trkpt>
      <trkpt lat="47.27105" lon="-2.29783">
        <ele>26.60000038147</ele>
        <time>2019-06-13T08:04:05.000Z</time>
      </trkpt>
      <trkpt lat="47.27107" lon="-2.29766">
        <ele>27</ele>
        <time>2019-06-13T08:04:07.000Z</time>
      </trkpt>
      <trkpt lat="47.27108" lon="-2.29756">
        <ele>27.39999961853</ele>
        <time>2019-06-13T08:04:08.000Z</time>
      </trkpt>
      <trkpt lat="47.27109" lon="-2.29748">
        <ele>27.799999237061</ele>
        <time>2019-06-13T08:04:09.000Z</time>
      </trkpt>
      <trkpt lat="47.2711" lon="-2.2974">
        <ele>28.39999961853</ele>
        <time>2019-06-13T08:04:10.000Z</time>
      </trkpt>
      <trkpt lat="47.2711" lon="-2.29731">
        <ele>28.799999237061</ele>
        <time>2019-06-13T08:04:11.000Z</time>
      </trkpt>
      <trkpt lat="47.27111" lon="-2.29722">
        <ele>28.799999237061</ele>
        <time>2019-06-13T08:04:12.000Z</time>
      </trkpt>
      <trkpt lat="47.27113" lon="-2.29674">
        <ele>28.799999237061</ele>
        <time>2019-06-13T08:04:18.000Z</time>
      </trkpt>
      <trkpt lat="47.27117" lon="-2.29662">
        <ele>28.799999237061</ele>
        <time>2019-06-13T08:04:21.000Z</time>
      </trkpt>
      <trkpt lat="47.27125" lon="-2.29644">
        <ele>28.799999237061</ele>
        <time>2019-06-13T08:04:25.000Z</time>
      </trkpt>
      <trkpt lat="47.27135" lon="-2.29641">
        <ele>28.799999237061</ele>
        <time>2019-06-13T08:04:28.000Z</time>
      </trkpt>
      <trkpt lat="47.27141" lon="-2.2964">
        <ele>28.799999237061</ele>
        <time>2019-06-13T08:04:32.000Z</time>
      </trkpt>
      <trkpt lat="47.27143" lon="-2.29641">
        <ele>28.799999237061</ele>
        <time>2019-06-13T08:04:36.000Z</time>
      </trkpt>
      <trkpt lat="47.2715" lon="-2.29641">
        <ele>28.799999237061</ele>
        <time>2019-06-13T08:04:39.000Z</time>
      </trkpt>
      <trkpt lat="47.27166" lon="-2.2963">
        <ele>28.799999237061</ele>
        <time>2019-06-13T08:04:43.000Z</time>
      </trkpt>
      <trkpt lat="47.27195" lon="-2.29607">
        <ele>28.39999961853</ele>
        <time>2019-06-13T08:04:49.000Z</time>
      </trkpt>
      <trkpt lat="47.27199" lon="-2.29603">
        <ele>28</ele>
        <time>2019-06-13T08:04:50.000Z</time>
      </trkpt>
      <trkpt lat="47.27204" lon="-2.29599">
        <ele>27.60000038147</ele>
        <time>2019-06-13T08:04:51.000Z</time>
      </trkpt>
      <trkpt lat="47.27209" lon="-2.29595">
        <ele>27.200000762939</ele>
        <time>2019-06-13T08:04:52.000Z</time>
      </trkpt>
      <trkpt lat="47.27214" lon="-2.29591">
        <ele>26.799999237061</ele>
        <time>2019-06-13T08:04:53.000Z</time>
      </trkpt>
      <trkpt lat="47.27224" lon="-2.29586">
        <ele>26.799999237061</ele>
        <time>2019-06-13T08:04:55.000Z</time>
      </trkpt>
      <trkpt lat="47.27233" lon="-2.29578">
        <ele>26.799999237061</ele>
        <time>2019-06-13T08:04:57.000Z</time>
      </trkpt>
      <trkpt lat="47.27235" lon="-2.29571">
        <ele>26.799999237061</ele>
        <time>2019-06-13T08:04:58.000Z</time>
      </trkpt>
      <trkpt lat="47.27238" lon="-2.29541">
        <ele>26.799999237061</ele>
        <time>2019-06-13T08:05:02.000Z</time>
      </trkpt>
      <trkpt lat="47.27229" lon="-2.29504">
        <ele>26.799999237061</ele>
        <time>2019-06-13T08:05:07.000Z</time>
      </trkpt>
      <trkpt lat="47.27213" lon="-2.29451">
        <ele>26.799999237061</ele>
        <time>2019-06-13T08:05:13.000Z</time>
      </trkpt>
      <trkpt lat="47.27192" lon="-2.29384">
        <ele>26.799999237061</ele>
        <time>2019-06-13T08:05:21.000Z</time>
      </trkpt>
      <trkpt lat="47.27185" lon="-2.29367">
        <ele>26.799999237061</ele>
        <time>2019-06-13T08:05:23.000Z</time>
      </trkpt>
      <trkpt lat="47.27177" lon="-2.29354">
        <ele>26.799999237061</ele>
        <time>2019-06-13T08:05:25.000Z</time>
      </trkpt>
      <trkpt lat="47.27172" lon="-2.29348">
        <ele>26.799999237061</ele>
        <time>2019-06-13T08:05:26.000Z</time>
      </trkpt>
      <trkpt lat="47.27157" lon="-2.29327">
        <ele>26.799999237061</ele>
        <time>2019-06-13T08:05:30.000Z</time>
      </trkpt>
      <trkpt lat="47.27154" lon="-2.29321">
        <ele>26.799999237061</ele>
        <time>2019-06-13T08:05:31.000Z</time>
      </trkpt>
      <trkpt lat="47.27153" lon="-2.29302">
        <ele>26.799999237061</ele>
        <time>2019-06-13T08:05:34.000Z</time>
      </trkpt>
      <trkpt lat="47.27158" lon="-2.29286">
        <ele>26.799999237061</ele>
        <time>2019-06-13T08:05:36.000Z</time>
      </trkpt>
      <trkpt lat="47.27167" lon="-2.29262">
        <ele>26.799999237061</ele>
        <time>2019-06-13T08:05:39.000Z</time>
      </trkpt>
      <trkpt lat="47.27172" lon="-2.29245">
        <ele>26.799999237061</ele>
        <time>2019-06-13T08:05:41.000Z</time>
      </trkpt>
      <trkpt lat="47.27171" lon="-2.29231">
        <ele>26.799999237061</ele>
        <time>2019-06-13T08:05:43.000Z</time>
      </trkpt>
      <trkpt lat="47.27165" lon="-2.29217">
        <ele>26.799999237061</ele>
        <time>2019-06-13T08:05:45.000Z</time>
      </trkpt>
      <trkpt lat="47.27158" lon="-2.29201">
        <ele>26.799999237061</ele>
        <time>2019-06-13T08:05:47.000Z</time>
      </trkpt>
      <trkpt lat="47.27153" lon="-2.29185">
        <ele>26.799999237061</ele>
        <time>2019-06-13T08:05:49.000Z</time>
      </trkpt>
      <trkpt lat="47.27153" lon="-2.29177">
        <ele>26.200000762939</ele>
        <time>2019-06-13T08:05:50.000Z</time>
      </trkpt>
      <trkpt lat="47.27153" lon="-2.29171">
        <ele>25.799999237061</ele>
        <time>2019-06-13T08:05:51.000Z</time>
      </trkpt>
      <trkpt lat="47.27154" lon="-2.29164">
        <ele>25.39999961853</ele>
        <time>2019-06-13T08:05:52.000Z</time>
      </trkpt>
      <trkpt lat="47.27156" lon="-2.29158">
        <ele>25</ele>
        <time>2019-06-13T08:05:53.000Z</time>
      </trkpt>
      <trkpt lat="47.27158" lon="-2.29152">
        <ele>24.39999961853</ele>
        <time>2019-06-13T08:05:54.000Z</time>
      </trkpt>
      <trkpt lat="47.27161" lon="-2.29147">
        <ele>24.39999961853</ele>
        <time>2019-06-13T08:05:55.000Z</time>
      </trkpt>
      <trkpt lat="47.27165" lon="-2.29142">
        <ele>24.39999961853</ele>
        <time>2019-06-13T08:05:56.000Z</time>
      </trkpt>
      <trkpt lat="47.27174" lon="-2.29132">
        <ele>24.39999961853</ele>
        <time>2019-06-13T08:05:58.000Z</time>
      </trkpt>
      <trkpt lat="47.27185" lon="-2.29121">
        <ele>24.39999961853</ele>
        <time>2019-06-13T08:06:00.000Z</time>
      </trkpt>
      <trkpt lat="47.27217" lon="-2.29086">
        <ele>24.39999961853</ele>
        <time>2019-06-13T08:06:06.000Z</time>
      </trkpt>
      <trkpt lat="47.27227" lon="-2.29075">
        <ele>24.39999961853</ele>
        <time>2019-06-13T08:06:08.000Z</time>
      </trkpt>
      <trkpt lat="47.27235" lon="-2.29067">
        <ele>24.39999961853</ele>
        <time>2019-06-13T08:06:10.000Z</time>
      </trkpt>
      <trkpt lat="47.27239" lon="-2.29065">
        <ele>24.39999961853</ele>
        <time>2019-06-13T08:06:11.000Z</time>
      </trkpt>
      <trkpt lat="47.27249" lon="-2.29056">
        <ele>24.39999961853</ele>
        <time>2019-06-13T08:06:13.000Z</time>
      </trkpt>
      <trkpt lat="47.27255" lon="-2.29044">
        <ele>24.39999961853</ele>
        <time>2019-06-13T08:06:15.000Z</time>
      </trkpt>
      <trkpt lat="47.27258" lon="-2.29039">
        <ele>24.39999961853</ele>
        <time>2019-06-13T08:06:16.000Z</time>
      </trkpt>
      <trkpt lat="47.2727" lon="-2.2901">
        <ele>24.39999961853</ele>
        <time>2019-06-13T08:06:21.000Z</time>
      </trkpt>
      <trkpt lat="47.2729" lon="-2.28982">
        <ele>24.39999961853</ele>
        <time>2019-06-13T08:06:27.000Z</time>
      </trkpt>
      <trkpt lat="47.27296" lon="-2.28974">
        <ele>24.39999961853</ele>
        <time>2019-06-13T08:06:29.000Z</time>
      </trkpt>
      <trkpt lat="47.27301" lon="-2.28965">
        <ele>24.39999961853</ele>
        <time>2019-06-13T08:06:31.000Z</time>
      </trkpt>
      <trkpt lat="47.27315" lon="-2.28953">
        <ele>24.39999961853</ele>
        <time>2019-06-13T08:06:35.000Z</time>
      </trkpt>
      <trkpt lat="47.2733" lon="-2.28956">
        <ele>24.39999961853</ele>
        <time>2019-06-13T08:06:38.000Z</time>
      </trkpt>
      <trkpt lat="47.27334" lon="-2.28954">
        <ele>24</ele>
        <time>2019-06-13T08:06:39.000Z</time>
      </trkpt>
      <trkpt lat="47.27338" lon="-2.28949">
        <ele>23.60000038147</ele>
        <time>2019-06-13T08:06:40.000Z</time>
      </trkpt>
      <trkpt lat="47.2734" lon="-2.28943">
        <ele>23.200000762939</ele>
        <time>2019-06-13T08:06:41.000Z</time>
      </trkpt>
      <trkpt lat="47.27341" lon="-2.28936">
        <ele>22.799999237061</ele>
        <time>2019-06-13T08:06:42.000Z</time>
      </trkpt>
      <trkpt lat="47.27341" lon="-2.28928">
        <ele>22.39999961853</ele>
        <time>2019-06-13T08:06:43.000Z</time>
      </trkpt>
      <trkpt lat="47.27344" lon="-2.28912">
        <ele>22.39999961853</ele>
        <time>2019-06-13T08:06:45.000Z</time>
      </trkpt>
      <trkpt lat="47.27343" lon="-2.28903">
        <ele>22.39999961853</ele>
        <time>2019-06-13T08:06:46.000Z</time>
      </trkpt>
      <trkpt lat="47.27345" lon="-2.28879">
        <ele>22.39999961853</ele>
        <time>2019-06-13T08:06:49.000Z</time>
      </trkpt>
      <trkpt lat="47.27353" lon="-2.28842">
        <ele>22.39999961853</ele>
        <time>2019-06-13T08:06:53.000Z</time>
      </trkpt>
      <trkpt lat="47.27362" lon="-2.28815">
        <ele>22.39999961853</ele>
        <time>2019-06-13T08:06:56.000Z</time>
      </trkpt>
      <trkpt lat="47.2737" lon="-2.28798">
        <ele>22.39999961853</ele>
        <time>2019-06-13T08:06:58.000Z</time>
      </trkpt>
      <trkpt lat="47.27378" lon="-2.28781">
        <ele>22.39999961853</ele>
        <time>2019-06-13T08:07:00.000Z</time>
      </trkpt>
      <trkpt lat="47.27391" lon="-2.28749">
        <ele>22.39999961853</ele>
        <time>2019-06-13T08:07:04.000Z</time>
      </trkpt>
      <trkpt lat="47.27411" lon="-2.28704">
        <ele>22.39999961853</ele>
        <time>2019-06-13T08:07:10.000Z</time>
      </trkpt>
      <trkpt lat="47.27414" lon="-2.28698">
        <ele>22.39999961853</ele>
        <time>2019-06-13T08:07:11.000Z</time>
      </trkpt>
      <trkpt lat="47.27421" lon="-2.28685">
        <ele>22.39999961853</ele>
        <time>2019-06-13T08:07:13.000Z</time>
      </trkpt>
      <trkpt lat="47.2743" lon="-2.28671">
        <ele>22.39999961853</ele>
        <time>2019-06-13T08:07:15.000Z</time>
      </trkpt>
      <trkpt lat="47.27451" lon="-2.28635">
        <ele>22.39999961853</ele>
        <time>2019-06-13T08:07:20.000Z</time>
      </trkpt>
      <trkpt lat="47.27462" lon="-2.28615">
        <ele>22.39999961853</ele>
        <time>2019-06-13T08:07:23.000Z</time>
      </trkpt>
      <trkpt lat="47.2747" lon="-2.28611">
        <ele>22.39999961853</ele>
        <time>2019-06-13T08:07:25.000Z</time>
      </trkpt>
      <trkpt lat="47.27477" lon="-2.28621">
        <ele>22.39999961853</ele>
        <time>2019-06-13T08:07:27.000Z</time>
      </trkpt>
      <trkpt lat="47.27483" lon="-2.28635">
        <ele>22.39999961853</ele>
        <time>2019-06-13T08:07:29.000Z</time>
      </trkpt>
      <trkpt lat="47.27493" lon="-2.28662">
        <ele>22.39999961853</ele>
        <time>2019-06-13T08:07:33.000Z</time>
      </trkpt>
      <trkpt lat="47.27497" lon="-2.28668">
        <ele>22.39999961853</ele>
        <time>2019-06-13T08:07:34.000Z</time>
      </trkpt>
      <trkpt lat="47.27513" lon="-2.2869">
        <ele>22.39999961853</ele>
        <time>2019-06-13T08:07:38.000Z</time>
      </trkpt>
      <trkpt lat="47.27517" lon="-2.28694">
        <ele>22.39999961853</ele>
        <time>2019-06-13T08:07:39.000Z</time>
      </trkpt>
      <trkpt lat="47.27533" lon="-2.28709">
        <ele>22.39999961853</ele>
        <time>2019-06-13T08:07:43.000Z</time>
      </trkpt>
      <trkpt lat="47.27543" lon="-2.28714">
        <ele>22.39999961853</ele>
        <time>2019-06-13T08:07:45.000Z</time>
      </trkpt>
      <trkpt lat="47.27554" lon="-2.28719">
        <ele>22.39999961853</ele>
        <time>2019-06-13T08:07:47.000Z</time>
      </trkpt>
      <trkpt lat="47.27595" lon="-2.28742">
        <ele>22.39999961853</ele>
        <time>2019-06-13T08:07:53.000Z</time>
      </trkpt>
      <trkpt lat="47.27601" lon="-2.28744">
        <ele>22.39999961853</ele>
        <time>2019-06-13T08:07:54.000Z</time>
      </trkpt>
      <trkpt lat="47.27619" lon="-2.28751">
        <ele>22.39999961853</ele>
        <time>2019-06-13T08:07:57.000Z</time>
      </trkpt>
      <trkpt lat="47.27647" lon="-2.28761">
        <ele>22</ele>
        <time>2019-06-13T08:08:02.000Z</time>
      </trkpt>
      <trkpt lat="47.27652" lon="-2.28763">
        <ele>21.60000038147</ele>
        <time>2019-06-13T08:08:03.000Z</time>
      </trkpt>
      <trkpt lat="47.27657" lon="-2.28765">
        <ele>21.200000762939</ele>
        <time>2019-06-13T08:08:04.000Z</time>
      </trkpt>
      <trkpt lat="47.27663" lon="-2.28769">
        <ele>20.60000038147</ele>
        <time>2019-06-13T08:08:05.000Z</time>
      </trkpt>
      <trkpt lat="47.27669" lon="-2.28773">
        <ele>20.200000762939</ele>
        <time>2019-06-13T08:08:06.000Z</time>
      </trkpt>
      <trkpt lat="47.27674" lon="-2.28779">
        <ele>20.200000762939</ele>
        <time>2019-06-13T08:08:07.000Z</time>
      </trkpt>
      <trkpt lat="47.27683" lon="-2.28793">
        <ele>20.200000762939</ele>
        <time>2019-06-13T08:08:09.000Z</time>
      </trkpt>
      <trkpt lat="47.27687" lon="-2.288">
        <ele>20.200000762939</ele>
        <time>2019-06-13T08:08:10.000Z</time>
      </trkpt>
      <trkpt lat="47.2769" lon="-2.28807">
        <ele>20.200000762939</ele>
        <time>2019-06-13T08:08:11.000Z</time>
      </trkpt>
      <trkpt lat="47.27704" lon="-2.28816">
        <ele>20.200000762939</ele>
        <time>2019-06-13T08:08:14.000Z</time>
      </trkpt>
      <trkpt lat="47.27715" lon="-2.28812">
        <ele>20.200000762939</ele>
        <time>2019-06-13T08:08:16.000Z</time>
      </trkpt>
      <trkpt lat="47.27724" lon="-2.28808">
        <ele>20.200000762939</ele>
        <time>2019-06-13T08:08:18.000Z</time>
      </trkpt>
      <trkpt lat="47.27749" lon="-2.288">
        <ele>20.200000762939</ele>
        <time>2019-06-13T08:08:22.000Z</time>
      </trkpt>
      <trkpt lat="47.27761" lon="-2.28797">
        <ele>20.200000762939</ele>
        <time>2019-06-13T08:08:24.000Z</time>
      </trkpt>
      <trkpt lat="47.27774" lon="-2.28795">
        <ele>20.200000762939</ele>
        <time>2019-06-13T08:08:26.000Z</time>
      </trkpt>
      <trkpt lat="47.27781" lon="-2.28795">
        <ele>20.200000762939</ele>
        <time>2019-06-13T08:08:27.000Z</time>
      </trkpt>
      <trkpt lat="47.27809" lon="-2.28795">
        <ele>20.200000762939</ele>
        <time>2019-06-13T08:08:31.000Z</time>
      </trkpt>
      <trkpt lat="47.27841" lon="-2.28807">
        <ele>20.200000762939</ele>
        <time>2019-06-13T08:08:36.000Z</time>
      </trkpt>
      <trkpt lat="47.27846" lon="-2.28811">
        <ele>20.200000762939</ele>
        <time>2019-06-13T08:08:37.000Z</time>
      </trkpt>
      <trkpt lat="47.2786" lon="-2.28818">
        <ele>20.200000762939</ele>
        <time>2019-06-13T08:08:40.000Z</time>
      </trkpt>
      <trkpt lat="47.27868" lon="-2.28809">
        <ele>20.200000762939</ele>
        <time>2019-06-13T08:08:43.000Z</time>
      </trkpt>
      <trkpt lat="47.27874" lon="-2.28791">
        <ele>20.200000762939</ele>
        <time>2019-06-13T08:08:46.000Z</time>
      </trkpt>
      <trkpt lat="47.27877" lon="-2.28784">
        <ele>20.200000762939</ele>
        <time>2019-06-13T08:08:47.000Z</time>
      </trkpt>
      <trkpt lat="47.27881" lon="-2.28777">
        <ele>20.200000762939</ele>
        <time>2019-06-13T08:08:48.000Z</time>
      </trkpt>
      <trkpt lat="47.27892" lon="-2.28768">
        <ele>20.200000762939</ele>
        <time>2019-06-13T08:08:50.000Z</time>
      </trkpt>
      <trkpt lat="47.27912" lon="-2.28762">
        <ele>20.200000762939</ele>
        <time>2019-06-13T08:08:53.000Z</time>
      </trkpt>
      <trkpt lat="47.27918" lon="-2.2876">
        <ele>20.200000762939</ele>
        <time>2019-06-13T08:08:54.000Z</time>
      </trkpt>
      <trkpt lat="47.27964" lon="-2.28747">
        <ele>20.200000762939</ele>
        <time>2019-06-13T08:09:01.000Z</time>
      </trkpt>
      <trkpt lat="47.27997" lon="-2.2875">
        <ele>20.200000762939</ele>
        <time>2019-06-13T08:09:06.000Z</time>
      </trkpt>
      <trkpt lat="47.28035" lon="-2.28758">
        <ele>20.200000762939</ele>
        <time>2019-06-13T08:09:12.000Z</time>
      </trkpt>
      <trkpt lat="47.28066" lon="-2.28768">
        <ele>20.200000762939</ele>
        <time>2019-06-13T08:09:17.000Z</time>
      </trkpt>
      <trkpt lat="47.28105" lon="-2.28789">
        <ele>20.200000762939</ele>
        <time>2019-06-13T08:09:24.000Z</time>
      </trkpt>
      <trkpt lat="47.28125" lon="-2.28803">
        <ele>20.200000762939</ele>
        <time>2019-06-13T08:09:28.000Z</time>
      </trkpt>
      <trkpt lat="47.28151" lon="-2.28822">
        <ele>20.799999237061</ele>
        <time>2019-06-13T08:09:33.000Z</time>
      </trkpt>
      <trkpt lat="47.28156" lon="-2.28826">
        <ele>21.200000762939</ele>
        <time>2019-06-13T08:09:34.000Z</time>
      </trkpt>
      <trkpt lat="47.28161" lon="-2.2883">
        <ele>21.60000038147</ele>
        <time>2019-06-13T08:09:35.000Z</time>
      </trkpt>
      <trkpt lat="47.28166" lon="-2.28834">
        <ele>22.39999961853</ele>
        <time>2019-06-13T08:09:36.000Z</time>
      </trkpt>
      <trkpt lat="47.28186" lon="-2.28852">
        <ele>23</ele>
        <time>2019-06-13T08:09:40.000Z</time>
      </trkpt>
      <trkpt lat="47.28191" lon="-2.28856">
        <ele>23.39999961853</ele>
        <time>2019-06-13T08:09:41.000Z</time>
      </trkpt>
      <trkpt lat="47.28195" lon="-2.2886">
        <ele>23.799999237061</ele>
        <time>2019-06-13T08:09:42.000Z</time>
      </trkpt>
      <trkpt lat="47.28201" lon="-2.28864">
        <ele>24.200000762939</ele>
        <time>2019-06-13T08:09:43.000Z</time>
      </trkpt>
      <trkpt lat="47.28206" lon="-2.28868">
        <ele>24.60000038147</ele>
        <time>2019-06-13T08:09:44.000Z</time>
      </trkpt>
      <trkpt lat="47.28211" lon="-2.2887">
        <ele>24.60000038147</ele>
        <time>2019-06-13T08:09:45.000Z</time>
      </trkpt>
      <trkpt lat="47.28222" lon="-2.28866">
        <ele>24.60000038147</ele>
        <time>2019-06-13T08:09:47.000Z</time>
      </trkpt>
      <trkpt lat="47.28231" lon="-2.28845">
        <ele>24.60000038147</ele>
        <time>2019-06-13T08:09:50.000Z</time>
      </trkpt>
      <trkpt lat="47.28235" lon="-2.28826">
        <ele>24.60000038147</ele>
        <time>2019-06-13T08:09:52.000Z</time>
      </trkpt>
      <trkpt lat="47.2824" lon="-2.28789">
        <ele>25</ele>
        <time>2019-06-13T08:09:56.000Z</time>
      </trkpt>
      <trkpt lat="47.28242" lon="-2.28779">
        <ele>25.60000038147</ele>
        <time>2019-06-13T08:09:57.000Z</time>
      </trkpt>
      <trkpt lat="47.28244" lon="-2.2877">
        <ele>26</ele>
        <time>2019-06-13T08:09:58.000Z</time>
      </trkpt>
      <trkpt lat="47.28245" lon="-2.2876">
        <ele>26.39999961853</ele>
        <time>2019-06-13T08:09:59.000Z</time>
      </trkpt>
      <trkpt lat="47.28247" lon="-2.28751">
        <ele>26.799999237061</ele>
        <time>2019-06-13T08:10:00.000Z</time>
      </trkpt>
      <trkpt lat="47.2825" lon="-2.28733">
        <ele>26.799999237061</ele>
        <time>2019-06-13T08:10:02.000Z</time>
      </trkpt>
      <trkpt lat="47.28264" lon="-2.28658">
        <ele>26.799999237061</ele>
        <time>2019-06-13T08:10:10.000Z</time>
      </trkpt>
      <trkpt lat="47.28281" lon="-2.28575">
        <ele>26.799999237061</ele>
        <time>2019-06-13T08:10:19.000Z</time>
      </trkpt>
      <trkpt lat="47.28283" lon="-2.28566">
        <ele>26.799999237061</ele>
        <time>2019-06-13T08:10:20.000Z</time>
      </trkpt>
      <trkpt lat="47.28296" lon="-2.28491">
        <ele>26.799999237061</ele>
        <time>2019-06-13T08:10:28.000Z</time>
      </trkpt>
      <trkpt lat="47.28308" lon="-2.2843">
        <ele>26.799999237061</ele>
        <time>2019-06-13T08:10:35.000Z</time>
      </trkpt>
      <trkpt lat="47.2832" lon="-2.28379">
        <ele>26.799999237061</ele>
        <time>2019-06-13T08:10:41.000Z</time>
      </trkpt>
      <trkpt lat="47.28321" lon="-2.2837">
        <ele>26.799999237061</ele>
        <time>2019-06-13T08:10:42.000Z</time>
      </trkpt>
      <trkpt lat="47.28325" lon="-2.28317">
        <ele>26.799999237061</ele>
        <time>2019-06-13T08:10:48.000Z</time>
      </trkpt>
      <trkpt lat="47.28325" lon="-2.28253">
        <ele>26.799999237061</ele>
        <time>2019-06-13T08:10:55.000Z</time>
      </trkpt>
      <trkpt lat="47.28324" lon="-2.28204">
        <ele>26.39999961853</ele>
        <time>2019-06-13T08:11:00.000Z</time>
      </trkpt>
      <trkpt lat="47.28324" lon="-2.28194">
        <ele>26</ele>
        <time>2019-06-13T08:11:01.000Z</time>
      </trkpt>
      <trkpt lat="47.28324" lon="-2.28182">
        <ele>25.60000038147</ele>
        <time>2019-06-13T08:11:02.000Z</time>
      </trkpt>
      <trkpt lat="47.28324" lon="-2.28171">
        <ele>25</ele>
        <time>2019-06-13T08:11:03.000Z</time>
      </trkpt>
      <trkpt lat="47.28324" lon="-2.2816">
        <ele>24.60000038147</ele>
        <time>2019-06-13T08:11:04.000Z</time>
      </trkpt>
      <trkpt lat="47.28324" lon="-2.28138">
        <ele>24.200000762939</ele>
        <time>2019-06-13T08:11:06.000Z</time>
      </trkpt>
      <trkpt lat="47.28324" lon="-2.28128">
        <ele>23.60000038147</ele>
        <time>2019-06-13T08:11:07.000Z</time>
      </trkpt>
      <trkpt lat="47.28324" lon="-2.28118">
        <ele>23.200000762939</ele>
        <time>2019-06-13T08:11:08.000Z</time>
      </trkpt>
      <trkpt lat="47.28325" lon="-2.28111">
        <ele>22.799999237061</ele>
        <time>2019-06-13T08:11:09.000Z</time>
      </trkpt>
      <trkpt lat="47.28325" lon="-2.28104">
        <ele>22.200000762939</ele>
        <time>2019-06-13T08:11:10.000Z</time>
      </trkpt>
      <trkpt lat="47.28325" lon="-2.28099">
        <ele>21.60000038147</ele>
        <time>2019-06-13T08:11:11.000Z</time>
      </trkpt>
      <trkpt lat="47.28326" lon="-2.28095">
        <ele>21</ele>
        <time>2019-06-13T08:11:12.000Z</time>
      </trkpt>
      <trkpt lat="47.28327" lon="-2.28091">
        <ele>20.39999961853</ele>
        <time>2019-06-13T08:11:13.000Z</time>
      </trkpt>
      <trkpt lat="47.28328" lon="-2.2809">
        <ele>19.799999237061</ele>
        <time>2019-06-13T08:11:14.000Z</time>
      </trkpt>
      <trkpt lat="47.28335" lon="-2.28085">
        <ele>19.799999237061</ele>
        <time>2019-06-13T08:11:17.000Z</time>
      </trkpt>
      <trkpt lat="47.28352" lon="-2.28082">
        <ele>18.200000762939</ele>
        <time>2019-06-13T08:11:24.000Z</time>
      </trkpt>
      <trkpt lat="47.28355" lon="-2.2808">
        <ele>17.799999237061</ele>
        <time>2019-06-13T08:11:25.000Z</time>
      </trkpt>
      <trkpt lat="47.28357" lon="-2.28079">
        <ele>17.799999237061</ele>
        <time>2019-06-13T08:11:26.000Z</time>
      </trkpt>
      <trkpt lat="47.28363" lon="-2.28074">
        <ele>17.799999237061</ele>
        <time>2019-06-13T08:11:31.000Z</time>
      </trkpt>
      <trkpt lat="47.28366" lon="-2.28065">
        <ele>17.799999237061</ele>
        <time>2019-06-13T08:11:36.000Z</time>
      </trkpt>
      <trkpt lat="47.28367" lon="-2.28061">
        <ele>18.200000762939</ele>
        <time>2019-06-13T08:11:39.000Z</time>
      </trkpt>
      <trkpt lat="47.28368" lon="-2.2806">
        <ele>18.60000038147</ele>
        <time>2019-06-13T08:11:40.000Z</time>
      </trkpt>
      <trkpt lat="47.28369" lon="-2.28059">
        <ele>19</ele>
        <time>2019-06-13T08:11:41.000Z</time>
      </trkpt>
      <trkpt lat="47.28369" lon="-2.28059">
        <ele>19.39999961853</ele>
        <time>2019-06-13T08:11:42.000Z</time>
      </trkpt>
      <trkpt lat="47.2837" lon="-2.2806">
        <ele>19.799999237061</ele>
        <time>2019-06-13T08:11:43.000Z</time>
      </trkpt>
      <trkpt lat="47.28371" lon="-2.28063">
        <ele>19.799999237061</ele>
        <time>2019-06-13T08:11:45.000Z</time>
      </trkpt>
      <trkpt lat="47.28371" lon="-2.28067">
        <ele>19.799999237061</ele>
        <time>2019-06-13T08:11:47.000Z</time>
      </trkpt>
      <trkpt lat="47.2837" lon="-2.28071">
        <ele>19.799999237061</ele>
        <time>2019-06-13T08:11:49.000Z</time>
      </trkpt>
      <trkpt lat="47.28374" lon="-2.28072">
        <ele>19.799999237061</ele>
        <time>2019-06-13T08:11:52.000Z</time>
      </trkpt>
      <trkpt lat="47.28384" lon="-2.28073">
        <ele>19.799999237061</ele>
        <time>2019-06-13T08:11:58.000Z</time>
      </trkpt>
      <trkpt lat="47.28391" lon="-2.28074">
        <ele>19.799999237061</ele>
        <time>2019-06-13T08:12:01.000Z</time>
      </trkpt>
      <trkpt lat="47.28397" lon="-2.28076">
        <ele>19.799999237061</ele>
        <time>2019-06-13T08:12:03.000Z</time>
      </trkpt>
      <trkpt lat="47.28411" lon="-2.2808">
        <ele>19.799999237061</ele>
        <time>2019-06-13T08:12:09.000Z</time>
      </trkpt>
      <trkpt lat="47.28421" lon="-2.28083">
        <ele>19.799999237061</ele>
        <time>2019-06-13T08:12:13.000Z</time>
      </trkpt>
      <trkpt lat="47.28426" lon="-2.28081">
        <ele>19.799999237061</ele>
        <time>2019-06-13T08:12:15.000Z</time>
      </trkpt>
      <trkpt lat="47.28434" lon="-2.28084">
        <ele>19.799999237061</ele>
        <time>2019-06-13T08:12:18.000Z</time>
      </trkpt>
      <trkpt lat="47.28443" lon="-2.28088">
        <ele>19.799999237061</ele>
        <time>2019-06-13T08:12:22.000Z</time>
      </trkpt>
      <trkpt lat="47.28446" lon="-2.28091">
        <ele>19.799999237061</ele>
        <time>2019-06-13T08:12:23.000Z</time>
      </trkpt>
      <trkpt lat="47.28456" lon="-2.28095">
        <ele>19.799999237061</ele>
        <time>2019-06-13T08:12:27.000Z</time>
      </trkpt>
      <trkpt lat="47.28474" lon="-2.28082">
        <ele>19.799999237061</ele>
        <time>2019-06-13T08:12:32.000Z</time>
      </trkpt>
      <trkpt lat="47.28476" lon="-2.28078">
        <ele>19.799999237061</ele>
        <time>2019-06-13T08:12:33.000Z</time>
      </trkpt>
      <trkpt lat="47.2848" lon="-2.28066">
        <ele>19.799999237061</ele>
        <time>2019-06-13T08:12:37.000Z</time>
      </trkpt>
      <trkpt lat="47.2848" lon="-2.28063">
        <ele>19.799999237061</ele>
        <time>2019-06-13T08:12:38.000Z</time>
      </trkpt>
      <trkpt lat="47.28479" lon="-2.28059">
        <ele>20.200000762939</ele>
        <time>2019-06-13T08:12:39.000Z</time>
      </trkpt>
      <trkpt lat="47.28479" lon="-2.28055">
        <ele>20.60000038147</ele>
        <time>2019-06-13T08:12:40.000Z</time>
      </trkpt>
      <trkpt lat="47.28478" lon="-2.28051">
        <ele>21</ele>
        <time>2019-06-13T08:12:41.000Z</time>
      </trkpt>
      <trkpt lat="47.28479" lon="-2.28048">
        <ele>21.60000038147</ele>
        <time>2019-06-13T08:12:42.000Z</time>
      </trkpt>
      <trkpt lat="47.28481" lon="-2.28046">
        <ele>22</ele>
        <time>2019-06-13T08:12:43.000Z</time>
      </trkpt>
      <trkpt lat="47.2849" lon="-2.28039">
        <ele>22</ele>
        <time>2019-06-13T08:12:46.000Z</time>
      </trkpt>
      <trkpt lat="47.28499" lon="-2.2804">
        <ele>22</ele>
        <time>2019-06-13T08:12:49.000Z</time>
      </trkpt>
      <trkpt lat="47.28511" lon="-2.28048">
        <ele>22</ele>
        <time>2019-06-13T08:12:53.000Z</time>
      </trkpt>
      <trkpt lat="47.28527" lon="-2.28048">
        <ele>21.60000038147</ele>
        <time>2019-06-13T08:12:57.000Z</time>
      </trkpt>
      <trkpt lat="47.2853" lon="-2.2805">
        <ele>21</ele>
        <time>2019-06-13T08:12:58.000Z</time>
      </trkpt>
      <trkpt lat="47.28533" lon="-2.28051">
        <ele>20.60000038147</ele>
        <time>2019-06-13T08:12:59.000Z</time>
      </trkpt>
      <trkpt lat="47.28536" lon="-2.28051">
        <ele>20</ele>
        <time>2019-06-13T08:13:00.000Z</time>
      </trkpt>
      <trkpt lat="47.28539" lon="-2.2805">
        <ele>19.60000038147</ele>
        <time>2019-06-13T08:13:01.000Z</time>
      </trkpt>
      <trkpt lat="47.28541" lon="-2.2805">
        <ele>19.200000762939</ele>
        <time>2019-06-13T08:13:02.000Z</time>
      </trkpt>
      <trkpt lat="47.28543" lon="-2.28051">
        <ele>18.60000038147</ele>
        <time>2019-06-13T08:13:03.000Z</time>
      </trkpt>
      <trkpt lat="47.28546" lon="-2.28052">
        <ele>18.200000762939</ele>
        <time>2019-06-13T08:13:04.000Z</time>
      </trkpt>
      <trkpt lat="47.28548" lon="-2.28053">
        <ele>17.60000038147</ele>
        <time>2019-06-13T08:13:05.000Z</time>
      </trkpt>
      <trkpt lat="47.28561" lon="-2.28052">
        <ele>17.200000762939</ele>
        <time>2019-06-13T08:13:09.000Z</time>
      </trkpt>
      <trkpt lat="47.28566" lon="-2.28051">
        <ele>16.799999237061</ele>
        <time>2019-06-13T08:13:10.000Z</time>
      </trkpt>
      <trkpt lat="47.28567" lon="-2.28049">
        <ele>16.39999961853</ele>
        <time>2019-06-13T08:13:11.000Z</time>
      </trkpt>
      <trkpt lat="47.28569" lon="-2.28046">
        <ele>16</ele>
        <time>2019-06-13T08:13:12.000Z</time>
      </trkpt>
      <trkpt lat="47.28571" lon="-2.28043">
        <ele>15.60000038147</ele>
        <time>2019-06-13T08:13:13.000Z</time>
      </trkpt>
      <trkpt lat="47.28589" lon="-2.28025">
        <ele>15.60000038147</ele>
        <time>2019-06-13T08:13:18.000Z</time>
      </trkpt>
      <trkpt lat="47.28593" lon="-2.28021">
        <ele>15.60000038147</ele>
        <time>2019-06-13T08:13:19.000Z</time>
      </trkpt>
      <trkpt lat="47.28602" lon="-2.27998">
        <ele>15.60000038147</ele>
        <time>2019-06-13T08:13:22.000Z</time>
      </trkpt>
      <trkpt lat="47.2861" lon="-2.27965">
        <ele>15.60000038147</ele>
        <time>2019-06-13T08:13:26.000Z</time>
      </trkpt>
      <trkpt lat="47.28613" lon="-2.27958">
        <ele>15.60000038147</ele>
        <time>2019-06-13T08:13:27.000Z</time>
      </trkpt>
      <trkpt lat="47.2862" lon="-2.27948">
        <ele>15.60000038147</ele>
        <time>2019-06-13T08:13:30.000Z</time>
      </trkpt>
      <trkpt lat="47.2862" lon="-2.27947">
        <ele>15.60000038147</ele>
        <time>2019-06-13T08:13:32.000Z</time>
      </trkpt>
      <trkpt lat="47.28621" lon="-2.27945">
        <ele>15.60000038147</ele>
        <time>2019-06-13T08:13:40.000Z</time>
      </trkpt>
      <trkpt lat="47.28622" lon="-2.27942">
        <ele>15.60000038147</ele>
        <time>2019-06-13T08:13:41.000Z</time>
      </trkpt>
      <trkpt lat="47.28623" lon="-2.27938">
        <ele>15.60000038147</ele>
        <time>2019-06-13T08:13:42.000Z</time>
      </trkpt>
      <trkpt lat="47.28627" lon="-2.27912">
        <ele>15.60000038147</ele>
        <time>2019-06-13T08:13:47.000Z</time>
      </trkpt>
      <trkpt lat="47.28631" lon="-2.27874">
        <ele>15.60000038147</ele>
        <time>2019-06-13T08:13:52.000Z</time>
      </trkpt>
      <trkpt lat="47.28633" lon="-2.27865">
        <ele>15.60000038147</ele>
        <time>2019-06-13T08:13:53.000Z</time>
      </trkpt>
      <trkpt lat="47.2864" lon="-2.27831">
        <ele>15.60000038147</ele>
        <time>2019-06-13T08:13:57.000Z</time>
      </trkpt>
      <trkpt lat="47.28646" lon="-2.27803">
        <ele>15.199999809265</ele>
        <time>2019-06-13T08:14:00.000Z</time>
      </trkpt>
      <trkpt lat="47.28648" lon="-2.27794">
        <ele>14.60000038147</ele>
        <time>2019-06-13T08:14:01.000Z</time>
      </trkpt>
      <trkpt lat="47.2865" lon="-2.27785">
        <ele>14.199999809265</ele>
        <time>2019-06-13T08:14:02.000Z</time>
      </trkpt>
      <trkpt lat="47.28653" lon="-2.27775">
        <ele>13.800000190735</ele>
        <time>2019-06-13T08:14:03.000Z</time>
      </trkpt>
      <trkpt lat="47.28656" lon="-2.27766">
        <ele>13.39999961853</ele>
        <time>2019-06-13T08:14:04.000Z</time>
      </trkpt>
      <trkpt lat="47.28663" lon="-2.27749">
        <ele>13.39999961853</ele>
        <time>2019-06-13T08:14:06.000Z</time>
      </trkpt>
      <trkpt lat="47.28668" lon="-2.27741">
        <ele>13.39999961853</ele>
        <time>2019-06-13T08:14:07.000Z</time>
      </trkpt>
      <trkpt lat="47.28677" lon="-2.27725">
        <ele>13.39999961853</ele>
        <time>2019-06-13T08:14:09.000Z</time>
      </trkpt>
      <trkpt lat="47.28689" lon="-2.27702">
        <ele>13.39999961853</ele>
        <time>2019-06-13T08:14:12.000Z</time>
      </trkpt>
      <trkpt lat="47.28719" lon="-2.27651">
        <ele>13.39999961853</ele>
        <time>2019-06-13T08:14:19.000Z</time>
      </trkpt>
      <trkpt lat="47.28745" lon="-2.2761">
        <ele>13.39999961853</ele>
        <time>2019-06-13T08:14:25.000Z</time>
      </trkpt>
      <trkpt lat="47.2877" lon="-2.27582">
        <ele>13.39999961853</ele>
        <time>2019-06-13T08:14:30.000Z</time>
      </trkpt>
      <trkpt lat="47.28789" lon="-2.27558">
        <ele>13.39999961853</ele>
        <time>2019-06-13T08:14:34.000Z</time>
      </trkpt>
      <trkpt lat="47.28799" lon="-2.27545">
        <ele>13.39999961853</ele>
        <time>2019-06-13T08:14:36.000Z</time>
      </trkpt>
      <trkpt lat="47.28823" lon="-2.27536">
        <ele>13.39999961853</ele>
        <time>2019-06-13T08:14:40.000Z</time>
      </trkpt>
      <trkpt lat="47.28837" lon="-2.27534">
        <ele>13.39999961853</ele>
        <time>2019-06-13T08:14:42.000Z</time>
      </trkpt>
      <trkpt lat="47.28844" lon="-2.27533">
        <ele>13</ele>
        <time>2019-06-13T08:14:43.000Z</time>
      </trkpt>
      <trkpt lat="47.28851" lon="-2.27531">
        <ele>12.60000038147</ele>
        <time>2019-06-13T08:14:44.000Z</time>
      </trkpt>
      <trkpt lat="47.28857" lon="-2.27531">
        <ele>12.199999809265</ele>
        <time>2019-06-13T08:14:45.000Z</time>
      </trkpt>
      <trkpt lat="47.28863" lon="-2.27531">
        <ele>11.800000190735</ele>
        <time>2019-06-13T08:14:46.000Z</time>
      </trkpt>
      <trkpt lat="47.2887" lon="-2.27529">
        <ele>11.39999961853</ele>
        <time>2019-06-13T08:14:47.000Z</time>
      </trkpt>
      <trkpt lat="47.28895" lon="-2.27524">
        <ele>11.39999961853</ele>
        <time>2019-06-13T08:14:51.000Z</time>
      </trkpt>
      <trkpt lat="47.28935" lon="-2.2752">
        <ele>11.39999961853</ele>
        <time>2019-06-13T08:14:57.000Z</time>
      </trkpt>
      <trkpt lat="47.28985" lon="-2.2752">
        <ele>11.39999961853</ele>
        <time>2019-06-13T08:15:05.000Z</time>
      </trkpt>
      <trkpt lat="47.29029" lon="-2.27521">
        <ele>11.39999961853</ele>
        <time>2019-06-13T08:15:12.000Z</time>
      </trkpt>
      <trkpt lat="47.29061" lon="-2.27523">
        <ele>11.39999961853</ele>
        <time>2019-06-13T08:15:17.000Z</time>
      </trkpt>
      <trkpt lat="47.29068" lon="-2.27524">
        <ele>11.39999961853</ele>
        <time>2019-06-13T08:15:18.000Z</time>
      </trkpt>
      <trkpt lat="47.2909" lon="-2.2753">
        <ele>11.39999961853</ele>
        <time>2019-06-13T08:15:22.000Z</time>
      </trkpt>
      <trkpt lat="47.291" lon="-2.27525">
        <ele>11.39999961853</ele>
        <time>2019-06-13T08:15:25.000Z</time>
      </trkpt>
      <trkpt lat="47.291" lon="-2.27522">
        <ele>11.39999961853</ele>
        <time>2019-06-13T08:15:26.000Z</time>
      </trkpt>
      <trkpt lat="47.29103" lon="-2.27507">
        <ele>11.39999961853</ele>
        <time>2019-06-13T08:15:29.000Z</time>
      </trkpt>
      <trkpt lat="47.29103" lon="-2.275">
        <ele>11.39999961853</ele>
        <time>2019-06-13T08:15:30.000Z</time>
      </trkpt>
      <trkpt lat="47.29105" lon="-2.27454">
        <ele>11.39999961853</ele>
        <time>2019-06-13T08:15:36.000Z</time>
      </trkpt>
      <trkpt lat="47.29106" lon="-2.27446">
        <ele>11.39999961853</ele>
        <time>2019-06-13T08:15:37.000Z</time>
      </trkpt>
      <trkpt lat="47.29107" lon="-2.27418">
        <ele>11.39999961853</ele>
        <time>2019-06-13T08:15:40.000Z</time>
      </trkpt>
      <trkpt lat="47.29105" lon="-2.274">
        <ele>11.39999961853</ele>
        <time>2019-06-13T08:15:42.000Z</time>
      </trkpt>
      <trkpt lat="47.29097" lon="-2.27365">
        <ele>11.39999961853</ele>
        <time>2019-06-13T08:15:47.000Z</time>
      </trkpt>
      <trkpt lat="47.29095" lon="-2.27363">
        <ele>11.39999961853</ele>
        <time>2019-06-13T08:15:48.000Z</time>
      </trkpt>
      <trkpt lat="47.29092" lon="-2.27358">
        <ele>11.39999961853</ele>
        <time>2019-06-13T08:15:50.000Z</time>
      </trkpt>
      <trkpt lat="47.29089" lon="-2.27353">
        <ele>11</ele>
        <time>2019-06-13T08:15:52.000Z</time>
      </trkpt>
      <trkpt lat="47.29088" lon="-2.27349">
        <ele>10.60000038147</ele>
        <time>2019-06-13T08:15:53.000Z</time>
      </trkpt>
      <trkpt lat="47.29087" lon="-2.27345">
        <ele>10.199999809265</ele>
        <time>2019-06-13T08:15:54.000Z</time>
      </trkpt>
      <trkpt lat="47.29089" lon="-2.2734">
        <ele>9.8000001907349</ele>
        <time>2019-06-13T08:15:55.000Z</time>
      </trkpt>
      <trkpt lat="47.29091" lon="-2.27336">
        <ele>9.3999996185303</ele>
        <time>2019-06-13T08:15:56.000Z</time>
      </trkpt>
      <trkpt lat="47.29095" lon="-2.27323">
        <ele>9.3999996185303</ele>
        <time>2019-06-13T08:16:00.000Z</time>
      </trkpt>
      <trkpt lat="47.29099" lon="-2.27306">
        <ele>9.3999996185303</ele>
        <time>2019-06-13T08:16:04.000Z</time>
      </trkpt>
      <trkpt lat="47.29102" lon="-2.2728">
        <ele>9.3999996185303</ele>
        <time>2019-06-13T08:16:09.000Z</time>
      </trkpt>
      <trkpt lat="47.29106" lon="-2.27256">
        <ele>9.3999996185303</ele>
        <time>2019-06-13T08:16:13.000Z</time>
      </trkpt>
      <trkpt lat="47.29109" lon="-2.2724">
        <ele>9.3999996185303</ele>
        <time>2019-06-13T08:16:16.000Z</time>
      </trkpt>
      <trkpt lat="47.29112" lon="-2.27234">
        <ele>9.3999996185303</ele>
        <time>2019-06-13T08:16:18.000Z</time>
      </trkpt>
      <trkpt lat="47.29112" lon="-2.27225">
        <ele>9.3999996185303</ele>
        <time>2019-06-13T08:16:22.000Z</time>
      </trkpt>
      <trkpt lat="47.29112" lon="-2.27223">
        <ele>9.3999996185303</ele>
        <time>2019-06-13T08:16:23.000Z</time>
      </trkpt>
      <trkpt lat="47.29114" lon="-2.27216">
        <ele>9.3999996185303</ele>
        <time>2019-06-13T08:16:26.000Z</time>
      </trkpt>
      <trkpt lat="47.29114" lon="-2.27213">
        <ele>9.3999996185303</ele>
        <time>2019-06-13T08:16:28.000Z</time>
      </trkpt>
      <trkpt lat="47.29113" lon="-2.27212">
        <ele>9.3999996185303</ele>
        <time>2019-06-13T08:16:29.000Z</time>
      </trkpt>
      <trkpt lat="47.29108" lon="-2.2721">
        <ele>9.3999996185303</ele>
        <time>2019-06-13T08:16:32.000Z</time>
      </trkpt>
      <trkpt lat="47.29105" lon="-2.27208">
        <ele>9.3999996185303</ele>
        <time>2019-06-13T08:16:34.000Z</time>
      </trkpt>
      <trkpt lat="47.29093" lon="-2.27207">
        <ele>9.3999996185303</ele>
        <time>2019-06-13T08:16:38.000Z</time>
      </trkpt>
      <trkpt lat="47.2909" lon="-2.27205">
        <ele>9.3999996185303</ele>
        <time>2019-06-13T08:16:39.000Z</time>
      </trkpt>
      <trkpt lat="47.29078" lon="-2.27195">
        <ele>9.3999996185303</ele>
        <time>2019-06-13T08:16:42.000Z</time>
      </trkpt>
      <trkpt lat="47.29069" lon="-2.2718">
        <ele>9.8000001907349</ele>
        <time>2019-06-13T08:16:46.000Z</time>
      </trkpt>
      <trkpt lat="47.29064" lon="-2.27172">
        <ele>10.39999961853</ele>
        <time>2019-06-13T08:16:47.000Z</time>
      </trkpt>
      <trkpt lat="47.2906" lon="-2.27164">
        <ele>10.800000190735</ele>
        <time>2019-06-13T08:16:48.000Z</time>
      </trkpt>
      <trkpt lat="47.29056" lon="-2.27157">
        <ele>11.199999809265</ele>
        <time>2019-06-13T08:16:49.000Z</time>
      </trkpt>
      <trkpt lat="47.29051" lon="-2.27153">
        <ele>11.800000190735</ele>
        <time>2019-06-13T08:16:50.000Z</time>
      </trkpt>
      <trkpt lat="47.29042" lon="-2.27142">
        <ele>11.800000190735</ele>
        <time>2019-06-13T08:16:52.000Z</time>
      </trkpt>
      <trkpt lat="47.29032" lon="-2.27133">
        <ele>11.800000190735</ele>
        <time>2019-06-13T08:16:55.000Z</time>
      </trkpt>
      <trkpt lat="47.29026" lon="-2.27116">
        <ele>11.800000190735</ele>
        <time>2019-06-13T08:16:59.000Z</time>
      </trkpt>
      <trkpt lat="47.29031" lon="-2.27108">
        <ele>11.800000190735</ele>
        <time>2019-06-13T08:17:03.000Z</time>
      </trkpt>
      <trkpt lat="47.29042" lon="-2.27099">
        <ele>11.800000190735</ele>
        <time>2019-06-13T08:17:07.000Z</time>
      </trkpt>
      <trkpt lat="47.29049" lon="-2.27072">
        <ele>11.800000190735</ele>
        <time>2019-06-13T08:17:10.000Z</time>
      </trkpt>
      <trkpt lat="47.2905" lon="-2.27063">
        <ele>11.800000190735</ele>
        <time>2019-06-13T08:17:11.000Z</time>
      </trkpt>
      <trkpt lat="47.29059" lon="-2.27043">
        <ele>11.800000190735</ele>
        <time>2019-06-13T08:17:14.000Z</time>
      </trkpt>
      <trkpt lat="47.29069" lon="-2.27029">
        <ele>11.800000190735</ele>
        <time>2019-06-13T08:17:18.000Z</time>
      </trkpt>
      <trkpt lat="47.29071" lon="-2.27004">
        <ele>11.800000190735</ele>
        <time>2019-06-13T08:17:23.000Z</time>
      </trkpt>
      <trkpt lat="47.29072" lon="-2.26998">
        <ele>11.800000190735</ele>
        <time>2019-06-13T08:17:24.000Z</time>
      </trkpt>
      <trkpt lat="47.29075" lon="-2.26961">
        <ele>11.800000190735</ele>
        <time>2019-06-13T08:17:30.000Z</time>
      </trkpt>
      <trkpt lat="47.29077" lon="-2.26942">
        <ele>11.800000190735</ele>
        <time>2019-06-13T08:17:34.000Z</time>
      </trkpt>
      <trkpt lat="47.29077" lon="-2.26934">
        <ele>11.800000190735</ele>
        <time>2019-06-13T08:17:36.000Z</time>
      </trkpt>
      <trkpt lat="47.29079" lon="-2.26928">
        <ele>11.39999961853</ele>
        <time>2019-06-13T08:17:38.000Z</time>
      </trkpt>
      <trkpt lat="47.29079" lon="-2.26925">
        <ele>11</ele>
        <time>2019-06-13T08:17:39.000Z</time>
      </trkpt>
      <trkpt lat="47.29078" lon="-2.26923">
        <ele>10.60000038147</ele>
        <time>2019-06-13T08:17:40.000Z</time>
      </trkpt>
      <trkpt lat="47.29076" lon="-2.2692">
        <ele>10.199999809265</ele>
        <time>2019-06-13T08:17:41.000Z</time>
      </trkpt>
      <trkpt lat="47.29075" lon="-2.26917">
        <ele>9.8000001907349</ele>
        <time>2019-06-13T08:17:42.000Z</time>
      </trkpt>
      <trkpt lat="47.29074" lon="-2.26913">
        <ele>9.8000001907349</ele>
        <time>2019-06-13T08:17:43.000Z</time>
      </trkpt>
      <trkpt lat="47.29067" lon="-2.26899">
        <ele>9.8000001907349</ele>
        <time>2019-06-13T08:17:46.000Z</time>
      </trkpt>
      <trkpt lat="47.29063" lon="-2.26888">
        <ele>9.8000001907349</ele>
        <time>2019-06-13T08:17:48.000Z</time>
      </trkpt>
      <trkpt lat="47.29062" lon="-2.26873">
        <ele>9.8000001907349</ele>
        <time>2019-06-13T08:17:50.000Z</time>
      </trkpt>
      <trkpt lat="47.29062" lon="-2.26826">
        <ele>9.8000001907349</ele>
        <time>2019-06-13T08:17:55.000Z</time>
      </trkpt>
      <trkpt lat="47.29064" lon="-2.26787">
        <ele>9.8000001907349</ele>
        <time>2019-06-13T08:17:59.000Z</time>
      </trkpt>
      <trkpt lat="47.29064" lon="-2.26777">
        <ele>9.8000001907349</ele>
        <time>2019-06-13T08:18:00.000Z</time>
      </trkpt>
      <trkpt lat="47.29062" lon="-2.26758">
        <ele>10.199999809265</ele>
        <time>2019-06-13T08:18:02.000Z</time>
      </trkpt>
      <trkpt lat="47.29061" lon="-2.26749">
        <ele>10.60000038147</ele>
        <time>2019-06-13T08:18:03.000Z</time>
      </trkpt>
      <trkpt lat="47.2906" lon="-2.2674">
        <ele>11</ele>
        <time>2019-06-13T08:18:04.000Z</time>
      </trkpt>
      <trkpt lat="47.29058" lon="-2.26732">
        <ele>11.39999961853</ele>
        <time>2019-06-13T08:18:05.000Z</time>
      </trkpt>
      <trkpt lat="47.29057" lon="-2.26723">
        <ele>11.800000190735</ele>
        <time>2019-06-13T08:18:06.000Z</time>
      </trkpt>
      <trkpt lat="47.29056" lon="-2.26715">
        <ele>12.199999809265</ele>
        <time>2019-06-13T08:18:07.000Z</time>
      </trkpt>
      <trkpt lat="47.29055" lon="-2.26707">
        <ele>12.60000038147</ele>
        <time>2019-06-13T08:18:08.000Z</time>
      </trkpt>
      <trkpt lat="47.29053" lon="-2.267">
        <ele>13</ele>
        <time>2019-06-13T08:18:09.000Z</time>
      </trkpt>
      <trkpt lat="47.29052" lon="-2.26691">
        <ele>13.39999961853</ele>
        <time>2019-06-13T08:18:10.000Z</time>
      </trkpt>
      <trkpt lat="47.29051" lon="-2.26684">
        <ele>13.800000190735</ele>
        <time>2019-06-13T08:18:11.000Z</time>
      </trkpt>
      <trkpt lat="47.2905" lon="-2.26677">
        <ele>13.800000190735</ele>
        <time>2019-06-13T08:18:12.000Z</time>
      </trkpt>
      <trkpt lat="47.29049" lon="-2.26655">
        <ele>13.800000190735</ele>
        <time>2019-06-13T08:18:15.000Z</time>
      </trkpt>
      <trkpt lat="47.29049" lon="-2.26647">
        <ele>14.199999809265</ele>
        <time>2019-06-13T08:18:16.000Z</time>
      </trkpt>
      <trkpt lat="47.29048" lon="-2.2664">
        <ele>14.60000038147</ele>
        <time>2019-06-13T08:18:17.000Z</time>
      </trkpt>
      <trkpt lat="47.29047" lon="-2.26632">
        <ele>15</ele>
        <time>2019-06-13T08:18:18.000Z</time>
      </trkpt>
      <trkpt lat="47.29047" lon="-2.26625">
        <ele>15.60000038147</ele>
        <time>2019-06-13T08:18:19.000Z</time>
      </trkpt>
      <trkpt lat="47.29047" lon="-2.26617">
        <ele>16</ele>
        <time>2019-06-13T08:18:20.000Z</time>
      </trkpt>
      <trkpt lat="47.29046" lon="-2.2661">
        <ele>16</ele>
        <time>2019-06-13T08:18:21.000Z</time>
      </trkpt>
      <trkpt lat="47.29043" lon="-2.26589">
        <ele>16</ele>
        <time>2019-06-13T08:18:24.000Z</time>
      </trkpt>
      <trkpt lat="47.2904" lon="-2.26575">
        <ele>16</ele>
        <time>2019-06-13T08:18:26.000Z</time>
      </trkpt>
      <trkpt lat="47.29035" lon="-2.2655">
        <ele>16</ele>
        <time>2019-06-13T08:18:29.000Z</time>
      </trkpt>
      <trkpt lat="47.29029" lon="-2.26524">
        <ele>16.39999961853</ele>
        <time>2019-06-13T08:18:32.000Z</time>
      </trkpt>
      <trkpt lat="47.29027" lon="-2.26516">
        <ele>16.799999237061</ele>
        <time>2019-06-13T08:18:33.000Z</time>
      </trkpt>
      <trkpt lat="47.29024" lon="-2.26507">
        <ele>17.200000762939</ele>
        <time>2019-06-13T08:18:34.000Z</time>
      </trkpt>
      <trkpt lat="47.29023" lon="-2.26499">
        <ele>17.60000038147</ele>
        <time>2019-06-13T08:18:35.000Z</time>
      </trkpt>
      <trkpt lat="47.29021" lon="-2.2649">
        <ele>18</ele>
        <time>2019-06-13T08:18:36.000Z</time>
      </trkpt>
      <trkpt lat="47.2902" lon="-2.26482">
        <ele>18</ele>
        <time>2019-06-13T08:18:37.000Z</time>
      </trkpt>
      <trkpt lat="47.29017" lon="-2.26449">
        <ele>18</ele>
        <time>2019-06-13T08:18:41.000Z</time>
      </trkpt>
      <trkpt lat="47.29013" lon="-2.2641">
        <ele>18</ele>
        <time>2019-06-13T08:18:47.000Z</time>
      </trkpt>
      <trkpt lat="47.29013" lon="-2.264">
        <ele>18.39999961853</ele>
        <time>2019-06-13T08:18:49.000Z</time>
      </trkpt>
      <trkpt lat="47.29013" lon="-2.26395">
        <ele>18.799999237061</ele>
        <time>2019-06-13T08:18:50.000Z</time>
      </trkpt>
      <trkpt lat="47.29013" lon="-2.2639">
        <ele>19.200000762939</ele>
        <time>2019-06-13T08:18:51.000Z</time>
      </trkpt>
      <trkpt lat="47.29013" lon="-2.26385">
        <ele>19.60000038147</ele>
        <time>2019-06-13T08:18:52.000Z</time>
      </trkpt>
      <trkpt lat="47.29015" lon="-2.26379">
        <ele>20</ele>
        <time>2019-06-13T08:18:53.000Z</time>
      </trkpt>
      <trkpt lat="47.29016" lon="-2.26373">
        <ele>20</ele>
        <time>2019-06-13T08:18:54.000Z</time>
      </trkpt>
      <trkpt lat="47.29024" lon="-2.26358">
        <ele>20</ele>
        <time>2019-06-13T08:18:57.000Z</time>
      </trkpt>
      <trkpt lat="47.29044" lon="-2.2634">
        <ele>20</ele>
        <time>2019-06-13T08:19:02.000Z</time>
      </trkpt>
      <trkpt lat="47.29052" lon="-2.26331">
        <ele>20</ele>
        <time>2019-06-13T08:19:04.000Z</time>
      </trkpt>
      <trkpt lat="47.2906" lon="-2.26321">
        <ele>20</ele>
        <time>2019-06-13T08:19:06.000Z</time>
      </trkpt>
      <trkpt lat="47.29065" lon="-2.26308">
        <ele>20</ele>
        <time>2019-06-13T08:19:08.000Z</time>
      </trkpt>
      <trkpt lat="47.29069" lon="-2.26294">
        <ele>20</ele>
        <time>2019-06-13T08:19:10.000Z</time>
      </trkpt>
      <trkpt lat="47.29075" lon="-2.26271">
        <ele>20</ele>
        <time>2019-06-13T08:19:13.000Z</time>
      </trkpt>
      <trkpt lat="47.29085" lon="-2.26222">
        <ele>20</ele>
        <time>2019-06-13T08:19:19.000Z</time>
      </trkpt>
      <trkpt lat="47.29092" lon="-2.26175">
        <ele>20</ele>
        <time>2019-06-13T08:19:25.000Z</time>
      </trkpt>
      <trkpt lat="47.29098" lon="-2.26133">
        <ele>20</ele>
        <time>2019-06-13T08:19:31.000Z</time>
      </trkpt>
      <trkpt lat="47.291" lon="-2.26127">
        <ele>20</ele>
        <time>2019-06-13T08:19:32.000Z</time>
      </trkpt>
      <trkpt lat="47.29105" lon="-2.26119">
        <ele>20</ele>
        <time>2019-06-13T08:19:35.000Z</time>
      </trkpt>
      <trkpt lat="47.29106" lon="-2.26114">
        <ele>19.60000038147</ele>
        <time>2019-06-13T08:19:36.000Z</time>
      </trkpt>
      <trkpt lat="47.29106" lon="-2.26108">
        <ele>19.200000762939</ele>
        <time>2019-06-13T08:19:37.000Z</time>
      </trkpt>
      <trkpt lat="47.29106" lon="-2.26103">
        <ele>18.799999237061</ele>
        <time>2019-06-13T08:19:38.000Z</time>
      </trkpt>
      <trkpt lat="47.29105" lon="-2.26097">
        <ele>18.39999961853</ele>
        <time>2019-06-13T08:19:39.000Z</time>
      </trkpt>
      <trkpt lat="47.29106" lon="-2.26091">
        <ele>17.799999237061</ele>
        <time>2019-06-13T08:19:40.000Z</time>
      </trkpt>
      <trkpt lat="47.29105" lon="-2.26071">
        <ele>17.799999237061</ele>
        <time>2019-06-13T08:19:43.000Z</time>
      </trkpt>
      <trkpt lat="47.29102" lon="-2.26058">
        <ele>17.799999237061</ele>
        <time>2019-06-13T08:19:45.000Z</time>
      </trkpt>
      <trkpt lat="47.29093" lon="-2.26027">
        <ele>17.799999237061</ele>
        <time>2019-06-13T08:19:50.000Z</time>
      </trkpt>
      <trkpt lat="47.29085" lon="-2.26007">
        <ele>17.799999237061</ele>
        <time>2019-06-13T08:19:55.000Z</time>
      </trkpt>
      <trkpt lat="47.29082" lon="-2.26005">
        <ele>17.799999237061</ele>
        <time>2019-06-13T08:19:56.000Z</time>
      </trkpt>
      <trkpt lat="47.29082" lon="-2.25995">
        <ele>17.799999237061</ele>
        <time>2019-06-13T08:19:58.000Z</time>
      </trkpt>
      <trkpt lat="47.29093" lon="-2.25986">
        <ele>17.799999237061</ele>
        <time>2019-06-13T08:20:01.000Z</time>
      </trkpt>
      <trkpt lat="47.2911" lon="-2.25972">
        <ele>17.799999237061</ele>
        <time>2019-06-13T08:20:06.000Z</time>
      </trkpt>
      <trkpt lat="47.29127" lon="-2.25971">
        <ele>17.799999237061</ele>
        <time>2019-06-13T08:20:10.000Z</time>
      </trkpt>
      <trkpt lat="47.29152" lon="-2.25977">
        <ele>17.799999237061</ele>
        <time>2019-06-13T08:20:15.000Z</time>
      </trkpt>
      <trkpt lat="47.29176" lon="-2.25976">
        <ele>17.799999237061</ele>
        <time>2019-06-13T08:20:20.000Z</time>
      </trkpt>
      <trkpt lat="47.29198" lon="-2.25972">
        <ele>17.799999237061</ele>
        <time>2019-06-13T08:20:25.000Z</time>
      </trkpt>
      <trkpt lat="47.29203" lon="-2.25972">
        <ele>17.799999237061</ele>
        <time>2019-06-13T08:20:26.000Z</time>
      </trkpt>
      <trkpt lat="47.29218" lon="-2.25967">
        <ele>17.799999237061</ele>
        <time>2019-06-13T08:20:29.000Z</time>
      </trkpt>
      <trkpt lat="47.29225" lon="-2.25961">
        <ele>17.799999237061</ele>
        <time>2019-06-13T08:20:31.000Z</time>
      </trkpt>
      <trkpt lat="47.29235" lon="-2.25949">
        <ele>17.799999237061</ele>
        <time>2019-06-13T08:20:35.000Z</time>
      </trkpt>
      <trkpt lat="47.29238" lon="-2.25947">
        <ele>17.799999237061</ele>
        <time>2019-06-13T08:20:36.000Z</time>
      </trkpt>
      <trkpt lat="47.29253" lon="-2.25939">
        <ele>17.799999237061</ele>
        <time>2019-06-13T08:20:40.000Z</time>
      </trkpt>
      <trkpt lat="47.29267" lon="-2.25924">
        <ele>17.799999237061</ele>
        <time>2019-06-13T08:20:44.000Z</time>
      </trkpt>
      <trkpt lat="47.29284" lon="-2.25918">
        <ele>17.799999237061</ele>
        <time>2019-06-13T08:20:48.000Z</time>
      </trkpt>
      <trkpt lat="47.29288" lon="-2.25918">
        <ele>17.799999237061</ele>
        <time>2019-06-13T08:20:49.000Z</time>
      </trkpt>
      <trkpt lat="47.29292" lon="-2.25917">
        <ele>17.799999237061</ele>
        <time>2019-06-13T08:20:51.000Z</time>
      </trkpt>
      <trkpt lat="47.29295" lon="-2.25916">
        <ele>17.799999237061</ele>
        <time>2019-06-13T08:20:54.000Z</time>
      </trkpt>
      <trkpt lat="47.29298" lon="-2.25915">
        <ele>17.799999237061</ele>
        <time>2019-06-13T08:20:56.000Z</time>
      </trkpt>
      <trkpt lat="47.29306" lon="-2.25905">
        <ele>17.799999237061</ele>
        <time>2019-06-13T08:21:01.000Z</time>
      </trkpt>
      <trkpt lat="47.29302" lon="-2.25887">
        <ele>17.799999237061</ele>
        <time>2019-06-13T08:21:06.000Z</time>
      </trkpt>
      <trkpt lat="47.29296" lon="-2.25873">
        <ele>17.799999237061</ele>
        <time>2019-06-13T08:21:10.000Z</time>
      </trkpt>
      <trkpt lat="47.29297" lon="-2.25861">
        <ele>17.799999237061</ele>
        <time>2019-06-13T08:21:13.000Z</time>
      </trkpt>
      <trkpt lat="47.293" lon="-2.25862">
        <ele>17.799999237061</ele>
        <time>2019-06-13T08:21:15.000Z</time>
      </trkpt>
      <trkpt lat="47.29302" lon="-2.25866">
        <ele>17.799999237061</ele>
        <time>2019-06-13T08:21:17.000Z</time>
      </trkpt>
      <trkpt lat="47.29305" lon="-2.25872">
        <ele>17.799999237061</ele>
        <time>2019-06-13T08:21:20.000Z</time>
      </trkpt>
      <trkpt lat="47.29311" lon="-2.25879">
        <ele>17.799999237061</ele>
        <time>2019-06-13T08:21:23.000Z</time>
      </trkpt>
      <trkpt lat="47.29319" lon="-2.25895">
        <ele>17.799999237061</ele>
        <time>2019-06-13T08:21:27.000Z</time>
      </trkpt>
      <trkpt lat="47.2932" lon="-2.259">
        <ele>17.799999237061</ele>
        <time>2019-06-13T08:21:28.000Z</time>
      </trkpt>
      <trkpt lat="47.29325" lon="-2.25923">
        <ele>17.799999237061</ele>
        <time>2019-06-13T08:21:33.000Z</time>
      </trkpt>
      <trkpt lat="47.29328" lon="-2.25944">
        <ele>17.799999237061</ele>
        <time>2019-06-13T08:21:38.000Z</time>
      </trkpt>
      <trkpt lat="47.29329" lon="-2.25949">
        <ele>17.39999961853</ele>
        <time>2019-06-13T08:21:39.000Z</time>
      </trkpt>
      <trkpt lat="47.29329" lon="-2.25954">
        <ele>17</ele>
        <time>2019-06-13T08:21:40.000Z</time>
      </trkpt>
      <trkpt lat="47.2933" lon="-2.25958">
        <ele>16.60000038147</ele>
        <time>2019-06-13T08:21:41.000Z</time>
      </trkpt>
      <trkpt lat="47.29331" lon="-2.25962">
        <ele>16.200000762939</ele>
        <time>2019-06-13T08:21:42.000Z</time>
      </trkpt>
      <trkpt lat="47.29332" lon="-2.25966">
        <ele>15.800000190735</ele>
        <time>2019-06-13T08:21:43.000Z</time>
      </trkpt>
      <trkpt lat="47.29334" lon="-2.25968">
        <ele>15.800000190735</ele>
        <time>2019-06-13T08:21:44.000Z</time>
      </trkpt>
      <trkpt lat="47.29342" lon="-2.25972">
        <ele>15.800000190735</ele>
        <time>2019-06-13T08:21:47.000Z</time>
      </trkpt>
      <trkpt lat="47.29347" lon="-2.25972">
        <ele>15.800000190735</ele>
        <time>2019-06-13T08:21:49.000Z</time>
      </trkpt>
      <trkpt lat="47.29354" lon="-2.25972">
        <ele>15.800000190735</ele>
        <time>2019-06-13T08:21:52.000Z</time>
      </trkpt>
      <trkpt lat="47.29356" lon="-2.25972">
        <ele>15.800000190735</ele>
        <time>2019-06-13T08:21:53.000Z</time>
      </trkpt>
      <trkpt lat="47.29359" lon="-2.25978">
        <ele>15.800000190735</ele>
        <time>2019-06-13T08:21:56.000Z</time>
      </trkpt>
      <trkpt lat="47.29359" lon="-2.25979">
        <ele>15.800000190735</ele>
        <time>2019-06-13T08:21:57.000Z</time>
      </trkpt>
      <trkpt lat="47.29364" lon="-2.25983">
        <ele>15.39999961853</ele>
        <time>2019-06-13T08:21:59.000Z</time>
      </trkpt>
      <trkpt lat="47.29367" lon="-2.25985">
        <ele>15</ele>
        <time>2019-06-13T08:22:00.000Z</time>
      </trkpt>
      <trkpt lat="47.29369" lon="-2.25987">
        <ele>14.60000038147</ele>
        <time>2019-06-13T08:22:01.000Z</time>
      </trkpt>
      <trkpt lat="47.2937" lon="-2.2599">
        <ele>14.199999809265</ele>
        <time>2019-06-13T08:22:02.000Z</time>
      </trkpt>
      <trkpt lat="47.29371" lon="-2.25992">
        <ele>13.800000190735</ele>
        <time>2019-06-13T08:22:03.000Z</time>
      </trkpt>
      <trkpt lat="47.29372" lon="-2.25996">
        <ele>13.800000190735</ele>
        <time>2019-06-13T08:22:04.000Z</time>
      </trkpt>
      <trkpt lat="47.29372" lon="-2.26002">
        <ele>13.800000190735</ele>
        <time>2019-06-13T08:22:06.000Z</time>
      </trkpt>
      <trkpt lat="47.29378" lon="-2.26013">
        <ele>13.800000190735</ele>
        <time>2019-06-13T08:22:09.000Z</time>
      </trkpt>
      <trkpt lat="47.29383" lon="-2.26013">
        <ele>13.39999961853</ele>
        <time>2019-06-13T08:22:11.000Z</time>
      </trkpt>
      <trkpt lat="47.29385" lon="-2.26011">
        <ele>13</ele>
        <time>2019-06-13T08:22:12.000Z</time>
      </trkpt>
      <trkpt lat="47.29387" lon="-2.26009">
        <ele>12.60000038147</ele>
        <time>2019-06-13T08:22:13.000Z</time>
      </trkpt>
      <trkpt lat="47.29388" lon="-2.26006">
        <ele>12.199999809265</ele>
        <time>2019-06-13T08:22:14.000Z</time>
      </trkpt>
      <trkpt lat="47.29389" lon="-2.26003">
        <ele>11.800000190735</ele>
        <time>2019-06-13T08:22:15.000Z</time>
      </trkpt>
      <trkpt lat="47.29392" lon="-2.25993">
        <ele>11.800000190735</ele>
        <time>2019-06-13T08:22:18.000Z</time>
      </trkpt>
      <trkpt lat="47.29395" lon="-2.25979">
        <ele>11.800000190735</ele>
        <time>2019-06-13T08:22:21.000Z</time>
      </trkpt>
      <trkpt lat="47.29395" lon="-2.2597">
        <ele>11.800000190735</ele>
        <time>2019-06-13T08:22:23.000Z</time>
      </trkpt>
      <trkpt lat="47.29394" lon="-2.25961">
        <ele>12.199999809265</ele>
        <time>2019-06-13T08:22:25.000Z</time>
      </trkpt>
      <trkpt lat="47.29395" lon="-2.2596">
        <ele>12.60000038147</ele>
        <time>2019-06-13T08:22:26.000Z</time>
      </trkpt>
      <trkpt lat="47.29398" lon="-2.2596">
        <ele>13</ele>
        <time>2019-06-13T08:22:27.000Z</time>
      </trkpt>
      <trkpt lat="47.29399" lon="-2.25961">
        <ele>13.39999961853</ele>
        <time>2019-06-13T08:22:28.000Z</time>
      </trkpt>
      <trkpt lat="47.29402" lon="-2.25962">
        <ele>13.800000190735</ele>
        <time>2019-06-13T08:22:29.000Z</time>
      </trkpt>
      <trkpt lat="47.29409" lon="-2.25962">
        <ele>13.800000190735</ele>
        <time>2019-06-13T08:22:31.000Z</time>
      </trkpt>
      <trkpt lat="47.29421" lon="-2.25957">
        <ele>13.800000190735</ele>
        <time>2019-06-13T08:22:36.000Z</time>
      </trkpt>
      <trkpt lat="47.29432" lon="-2.25944">
        <ele>13.39999961853</ele>
        <time>2019-06-13T08:22:41.000Z</time>
      </trkpt>
      <trkpt lat="47.29434" lon="-2.25939">
        <ele>13</ele>
        <time>2019-06-13T08:22:42.000Z</time>
      </trkpt>
      <trkpt lat="47.29435" lon="-2.25935">
        <ele>12.60000038147</ele>
        <time>2019-06-13T08:22:43.000Z</time>
      </trkpt>
      <trkpt lat="47.29434" lon="-2.25933">
        <ele>11.800000190735</ele>
        <time>2019-06-13T08:22:44.000Z</time>
      </trkpt>
      <trkpt lat="47.29434" lon="-2.25931">
        <ele>11.800000190735</ele>
        <time>2019-06-13T08:22:45.000Z</time>
      </trkpt>
      <trkpt lat="47.29436" lon="-2.25914">
        <ele>11.800000190735</ele>
        <time>2019-06-13T08:22:48.000Z</time>
      </trkpt>
      <trkpt lat="47.29434" lon="-2.25898">
        <ele>11.800000190735</ele>
        <time>2019-06-13T08:22:51.000Z</time>
      </trkpt>
      <trkpt lat="47.29432" lon="-2.25886">
        <ele>11.800000190735</ele>
        <time>2019-06-13T08:22:53.000Z</time>
      </trkpt>
      <trkpt lat="47.29425" lon="-2.25868">
        <ele>11.800000190735</ele>
        <time>2019-06-13T08:22:57.000Z</time>
      </trkpt>
      <trkpt lat="47.29427" lon="-2.2584">
        <ele>11.800000190735</ele>
        <time>2019-06-13T08:23:02.000Z</time>
      </trkpt>
      <trkpt lat="47.29427" lon="-2.25813">
        <ele>11.800000190735</ele>
        <time>2019-06-13T08:23:06.000Z</time>
      </trkpt>
      <trkpt lat="47.29427" lon="-2.25795">
        <ele>11.800000190735</ele>
        <time>2019-06-13T08:23:10.000Z</time>
      </trkpt>
      <trkpt lat="47.29424" lon="-2.25782">
        <ele>11.800000190735</ele>
        <time>2019-06-13T08:23:15.000Z</time>
      </trkpt>
      <trkpt lat="47.29423" lon="-2.2578">
        <ele>11.800000190735</ele>
        <time>2019-06-13T08:23:16.000Z</time>
      </trkpt>
      <trkpt lat="47.2942" lon="-2.25768">
        <ele>12.199999809265</ele>
        <time>2019-06-13T08:23:21.000Z</time>
      </trkpt>
      <trkpt lat="47.29418" lon="-2.25767">
        <ele>12.60000038147</ele>
        <time>2019-06-13T08:23:22.000Z</time>
      </trkpt>
      <trkpt lat="47.29415" lon="-2.25766">
        <ele>13</ele>
        <time>2019-06-13T08:23:23.000Z</time>
      </trkpt>
      <trkpt lat="47.29411" lon="-2.25765">
        <ele>13.39999961853</ele>
        <time>2019-06-13T08:23:24.000Z</time>
      </trkpt>
      <trkpt lat="47.29408" lon="-2.25763">
        <ele>13.800000190735</ele>
        <time>2019-06-13T08:23:25.000Z</time>
      </trkpt>
      <trkpt lat="47.29405" lon="-2.25761">
        <ele>13.800000190735</ele>
        <time>2019-06-13T08:23:26.000Z</time>
      </trkpt>
      <trkpt lat="47.29394" lon="-2.25761">
        <ele>13.800000190735</ele>
        <time>2019-06-13T08:23:31.000Z</time>
      </trkpt>
      <trkpt lat="47.29387" lon="-2.25762">
        <ele>13.800000190735</ele>
        <time>2019-06-13T08:23:35.000Z</time>
      </trkpt>
      <trkpt lat="47.29386" lon="-2.25762">
        <ele>13.800000190735</ele>
        <time>2019-06-13T08:23:36.000Z</time>
      </trkpt>
      <trkpt lat="47.29374" lon="-2.25764">
        <ele>13.800000190735</ele>
        <time>2019-06-13T08:23:44.000Z</time>
      </trkpt>
      <trkpt lat="47.29372" lon="-2.25766">
        <ele>13.800000190735</ele>
        <time>2019-06-13T08:23:45.000Z</time>
      </trkpt>
      <trkpt lat="47.29371" lon="-2.25768">
        <ele>14.199999809265</ele>
        <time>2019-06-13T08:23:46.000Z</time>
      </trkpt>
      <trkpt lat="47.29371" lon="-2.25772">
        <ele>14.60000038147</ele>
        <time>2019-06-13T08:23:47.000Z</time>
      </trkpt>
      <trkpt lat="47.2937" lon="-2.25774">
        <ele>15</ele>
        <time>2019-06-13T08:23:48.000Z</time>
      </trkpt>
      <trkpt lat="47.29369" lon="-2.25775">
        <ele>15.39999961853</ele>
        <time>2019-06-13T08:23:49.000Z</time>
      </trkpt>
      <trkpt lat="47.29369" lon="-2.25777">
        <ele>15.800000190735</ele>
        <time>2019-06-13T08:23:50.000Z</time>
      </trkpt>
      <trkpt lat="47.29368" lon="-2.25779">
        <ele>15.800000190735</ele>
        <time>2019-06-13T08:23:51.000Z</time>
      </trkpt>
      <trkpt lat="47.29368" lon="-2.25782">
        <ele>15.800000190735</ele>
        <time>2019-06-13T08:23:52.000Z</time>
      </trkpt>
      <trkpt lat="47.29366" lon="-2.25787">
        <ele>15.800000190735</ele>
        <time>2019-06-13T08:23:56.000Z</time>
      </trkpt>
      <trkpt lat="47.29367" lon="-2.25794">
        <ele>15.800000190735</ele>
        <time>2019-06-13T08:24:11.000Z</time>
      </trkpt>
      <trkpt lat="47.29368" lon="-2.258">
        <ele>15.800000190735</ele>
        <time>2019-06-13T08:24:14.000Z</time>
      </trkpt>
      <trkpt lat="47.2937" lon="-2.25813">
        <ele>15.800000190735</ele>
        <time>2019-06-13T08:24:17.000Z</time>
      </trkpt>
      <trkpt lat="47.29368" lon="-2.25825">
        <ele>15.800000190735</ele>
        <time>2019-06-13T08:24:20.000Z</time>
      </trkpt>
      <trkpt lat="47.29366" lon="-2.25835">
        <ele>15.800000190735</ele>
        <time>2019-06-13T08:24:23.000Z</time>
      </trkpt>
      <trkpt lat="47.29367" lon="-2.25838">
        <ele>15.800000190735</ele>
        <time>2019-06-13T08:24:24.000Z</time>
      </trkpt>
      <trkpt lat="47.29369" lon="-2.25851">
        <ele>15.800000190735</ele>
        <time>2019-06-13T08:24:28.000Z</time>
      </trkpt>
      <trkpt lat="47.29368" lon="-2.25862">
        <ele>15.800000190735</ele>
        <time>2019-06-13T08:24:32.000Z</time>
      </trkpt>
      <trkpt lat="47.29365" lon="-2.25865">
        <ele>15.800000190735</ele>
        <time>2019-06-13T08:24:33.000Z</time>
      </trkpt>
      <trkpt lat="47.29355" lon="-2.25874">
        <ele>15.800000190735</ele>
        <time>2019-06-13T08:24:37.000Z</time>
      </trkpt>
      <trkpt lat="47.29342" lon="-2.25877">
        <ele>15.800000190735</ele>
        <time>2019-06-13T08:24:42.000Z</time>
      </trkpt>
      <trkpt lat="47.29332" lon="-2.25864">
        <ele>15.800000190735</ele>
        <time>2019-06-13T08:24:47.000Z</time>
      </trkpt>
      <trkpt lat="47.29329" lon="-2.25862">
        <ele>15.800000190735</ele>
        <time>2019-06-13T08:24:50.000Z</time>
      </trkpt>
      <trkpt lat="47.29313" lon="-2.25847">
        <ele>15.800000190735</ele>
        <time>2019-06-13T08:25:21.000Z</time>
      </trkpt>
      <trkpt lat="47.29313" lon="-2.25846">
        <ele>15.800000190735</ele>
        <time>2019-06-13T08:25:22.000Z</time>
      </trkpt>
      <trkpt lat="47.2931" lon="-2.25851">
        <ele>15.800000190735</ele>
        <time>2019-06-13T08:25:26.000Z</time>
      </trkpt>
      <trkpt lat="47.2931" lon="-2.25861">
        <ele>15.800000190735</ele>
        <time>2019-06-13T08:25:34.000Z</time>
      </trkpt>
      <trkpt lat="47.29315" lon="-2.25867">
        <ele>15.800000190735</ele>
        <time>2019-06-13T08:25:37.000Z</time>
      </trkpt>
      <trkpt lat="47.29317" lon="-2.25871">
        <ele>15.800000190735</ele>
        <time>2019-06-13T08:25:39.000Z</time>
      </trkpt>
      <trkpt lat="47.29321" lon="-2.25881">
        <ele>15.800000190735</ele>
        <time>2019-06-13T08:25:42.000Z</time>
      </trkpt>
      <trkpt lat="47.29319" lon="-2.259">
        <ele>15.800000190735</ele>
        <time>2019-06-13T08:25:45.000Z</time>
      </trkpt>
      <trkpt lat="47.29316" lon="-2.25908">
        <ele>15.800000190735</ele>
        <time>2019-06-13T08:25:47.000Z</time>
      </trkpt>
      <trkpt lat="47.29314" lon="-2.25909">
        <ele>15.800000190735</ele>
        <time>2019-06-13T08:25:48.000Z</time>
      </trkpt>
      <trkpt lat="47.2931" lon="-2.25915">
        <ele>15.800000190735</ele>
        <time>2019-06-13T08:25:51.000Z</time>
      </trkpt>
      <trkpt lat="47.2931" lon="-2.25915">
        <ele>15.800000190735</ele>
        <time>2019-06-13T08:25:52.000Z</time>
      </trkpt>
      <trkpt lat="47.29302" lon="-2.2592">
        <ele>15.800000190735</ele>
        <time>2019-06-13T08:26:06.000Z</time>
      </trkpt>
      <trkpt lat="47.2929" lon="-2.25924">
        <ele>15.800000190735</ele>
        <time>2019-06-13T08:26:13.000Z</time>
      </trkpt>
      <trkpt lat="47.29288" lon="-2.25921">
        <ele>15.800000190735</ele>
        <time>2019-06-13T08:26:18.000Z</time>
      </trkpt>
      <trkpt lat="47.29289" lon="-2.25925">
        <ele>15.800000190735</ele>
        <time>2019-06-13T08:26:23.000Z</time>
      </trkpt>
      <trkpt lat="47.29289" lon="-2.25932">
        <ele>15.800000190735</ele>
        <time>2019-06-13T08:26:28.000Z</time>
      </trkpt>
      <trkpt lat="47.29289" lon="-2.25935">
        <ele>15.800000190735</ele>
        <time>2019-06-13T08:26:29.000Z</time>
      </trkpt>
      <trkpt lat="47.29294" lon="-2.25949">
        <ele>15.800000190735</ele>
        <time>2019-06-13T08:26:33.000Z</time>
      </trkpt>
      <trkpt lat="47.29295" lon="-2.25953">
        <ele>15.800000190735</ele>
        <time>2019-06-13T08:26:34.000Z</time>
      </trkpt>
      <trkpt lat="47.29299" lon="-2.25975">
        <ele>15.800000190735</ele>
        <time>2019-06-13T08:26:38.000Z</time>
      </trkpt>
      <trkpt lat="47.29309" lon="-2.26">
        <ele>15.800000190735</ele>
        <time>2019-06-13T08:26:43.000Z</time>
      </trkpt>
      <trkpt lat="47.29313" lon="-2.26023">
        <ele>15.800000190735</ele>
        <time>2019-06-13T08:26:46.000Z</time>
      </trkpt>
      <trkpt lat="47.29314" lon="-2.26039">
        <ele>15.800000190735</ele>
        <time>2019-06-13T08:26:48.000Z</time>
      </trkpt>
      <trkpt lat="47.29306" lon="-2.26052">
        <ele>15.800000190735</ele>
        <time>2019-06-13T08:26:51.000Z</time>
      </trkpt>
      <trkpt lat="47.293" lon="-2.26056">
        <ele>15.800000190735</ele>
        <time>2019-06-13T08:26:53.000Z</time>
      </trkpt>
      <trkpt lat="47.29296" lon="-2.26058">
        <ele>16.200000762939</ele>
        <time>2019-06-13T08:26:54.000Z</time>
      </trkpt>
      <trkpt lat="47.29293" lon="-2.26059">
        <ele>16.60000038147</ele>
        <time>2019-06-13T08:26:55.000Z</time>
      </trkpt>
      <trkpt lat="47.29289" lon="-2.2606">
        <ele>17</ele>
        <time>2019-06-13T08:26:56.000Z</time>
      </trkpt>
      <trkpt lat="47.29284" lon="-2.26062">
        <ele>17.39999961853</ele>
        <time>2019-06-13T08:26:57.000Z</time>
      </trkpt>
      <trkpt lat="47.29279" lon="-2.26065">
        <ele>17.799999237061</ele>
        <time>2019-06-13T08:26:58.000Z</time>
      </trkpt>
      <trkpt lat="47.29261" lon="-2.26074">
        <ele>17.799999237061</ele>
        <time>2019-06-13T08:27:02.000Z</time>
      </trkpt>
      <trkpt lat="47.29244" lon="-2.26083">
        <ele>18.200000762939</ele>
        <time>2019-06-13T08:27:06.000Z</time>
      </trkpt>
      <trkpt lat="47.2924" lon="-2.26085">
        <ele>18.60000038147</ele>
        <time>2019-06-13T08:27:07.000Z</time>
      </trkpt>
      <trkpt lat="47.29237" lon="-2.26088">
        <ele>19</ele>
        <time>2019-06-13T08:27:08.000Z</time>
      </trkpt>
      <trkpt lat="47.29235" lon="-2.26093">
        <ele>19.39999961853</ele>
        <time>2019-06-13T08:27:09.000Z</time>
      </trkpt>
      <trkpt lat="47.29235" lon="-2.26097">
        <ele>19.799999237061</ele>
        <time>2019-06-13T08:27:10.000Z</time>
      </trkpt>
      <trkpt lat="47.29235" lon="-2.26101">
        <ele>19.799999237061</ele>
        <time>2019-06-13T08:27:11.000Z</time>
      </trkpt>
      <trkpt lat="47.29239" lon="-2.26128">
        <ele>19.799999237061</ele>
        <time>2019-06-13T08:27:16.000Z</time>
      </trkpt>
      <trkpt lat="47.29241" lon="-2.2616">
        <ele>19.799999237061</ele>
        <time>2019-06-13T08:27:21.000Z</time>
      </trkpt>
      <trkpt lat="47.29244" lon="-2.26167">
        <ele>19.799999237061</ele>
        <time>2019-06-13T08:27:22.000Z</time>
      </trkpt>
      <trkpt lat="47.2925" lon="-2.26174">
        <ele>19.799999237061</ele>
        <time>2019-06-13T08:27:24.000Z</time>
      </trkpt>
      <trkpt lat="47.29265" lon="-2.26174">
        <ele>19.799999237061</ele>
        <time>2019-06-13T08:27:27.000Z</time>
      </trkpt>
      <trkpt lat="47.29286" lon="-2.26179">
        <ele>19.799999237061</ele>
        <time>2019-06-13T08:27:31.000Z</time>
      </trkpt>
      <trkpt lat="47.2929" lon="-2.2618">
        <ele>19.799999237061</ele>
        <time>2019-06-13T08:27:32.000Z</time>
      </trkpt>
      <trkpt lat="47.29298" lon="-2.26181">
        <ele>19.799999237061</ele>
        <time>2019-06-13T08:27:34.000Z</time>
      </trkpt>
      <trkpt lat="47.29304" lon="-2.26177">
        <ele>19.799999237061</ele>
        <time>2019-06-13T08:27:36.000Z</time>
      </trkpt>
      <trkpt lat="47.2931" lon="-2.26171">
        <ele>19.799999237061</ele>
        <time>2019-06-13T08:27:39.000Z</time>
      </trkpt>
      <trkpt lat="47.29315" lon="-2.2617">
        <ele>19.39999961853</ele>
        <time>2019-06-13T08:27:41.000Z</time>
      </trkpt>
      <trkpt lat="47.29318" lon="-2.26172">
        <ele>19</ele>
        <time>2019-06-13T08:27:42.000Z</time>
      </trkpt>
      <trkpt lat="47.29321" lon="-2.26173">
        <ele>18.60000038147</ele>
        <time>2019-06-13T08:27:43.000Z</time>
      </trkpt>
      <trkpt lat="47.29324" lon="-2.26173">
        <ele>18.200000762939</ele>
        <time>2019-06-13T08:27:44.000Z</time>
      </trkpt>
      <trkpt lat="47.29326" lon="-2.26173">
        <ele>17.799999237061</ele>
        <time>2019-06-13T08:27:45.000Z</time>
      </trkpt>
      <trkpt lat="47.29339" lon="-2.26169">
        <ele>17.799999237061</ele>
        <time>2019-06-13T08:27:48.000Z</time>
      </trkpt>
      <trkpt lat="47.29358" lon="-2.26161">
        <ele>17.799999237061</ele>
        <time>2019-06-13T08:27:52.000Z</time>
      </trkpt>
      <trkpt lat="47.29367" lon="-2.26162">
        <ele>17.799999237061</ele>
        <time>2019-06-13T08:27:54.000Z</time>
      </trkpt>
      <trkpt lat="47.29381" lon="-2.26164">
        <ele>17.799999237061</ele>
        <time>2019-06-13T08:27:57.000Z</time>
      </trkpt>
      <trkpt lat="47.29385" lon="-2.26165">
        <ele>17.200000762939</ele>
        <time>2019-06-13T08:27:58.000Z</time>
      </trkpt>
      <trkpt lat="47.29388" lon="-2.26165">
        <ele>16.799999237061</ele>
        <time>2019-06-13T08:27:59.000Z</time>
      </trkpt>
      <trkpt lat="47.2939" lon="-2.26165">
        <ele>16.39999961853</ele>
        <time>2019-06-13T08:28:00.000Z</time>
      </trkpt>
      <trkpt lat="47.2939" lon="-2.26165">
        <ele>16</ele>
        <time>2019-06-13T08:28:01.000Z</time>
      </trkpt>
      <trkpt lat="47.29392" lon="-2.26166">
        <ele>15.39999961853</ele>
        <time>2019-06-13T08:28:02.000Z</time>
      </trkpt>
      <trkpt lat="47.29398" lon="-2.26163">
        <ele>15.39999961853</ele>
        <time>2019-06-13T08:28:16.000Z</time>
      </trkpt>
      <trkpt lat="47.29406" lon="-2.26154">
        <ele>15.39999961853</ele>
        <time>2019-06-13T08:28:18.000Z</time>
      </trkpt>
      <trkpt lat="47.29407" lon="-2.26148">
        <ele>15</ele>
        <time>2019-06-13T08:28:19.000Z</time>
      </trkpt>
      <trkpt lat="47.29408" lon="-2.26142">
        <ele>14.60000038147</ele>
        <time>2019-06-13T08:28:20.000Z</time>
      </trkpt>
      <trkpt lat="47.29408" lon="-2.26136">
        <ele>14</ele>
        <time>2019-06-13T08:28:21.000Z</time>
      </trkpt>
      <trkpt lat="47.2941" lon="-2.26129">
        <ele>13.60000038147</ele>
        <time>2019-06-13T08:28:22.000Z</time>
      </trkpt>
      <trkpt lat="47.29412" lon="-2.26122">
        <ele>13</ele>
        <time>2019-06-13T08:28:23.000Z</time>
      </trkpt>
      <trkpt lat="47.29413" lon="-2.26115">
        <ele>13</ele>
        <time>2019-06-13T08:28:24.000Z</time>
      </trkpt>
      <trkpt lat="47.29414" lon="-2.26108">
        <ele>13</ele>
        <time>2019-06-13T08:28:25.000Z</time>
      </trkpt>
      <trkpt lat="47.29412" lon="-2.26094">
        <ele>12.60000038147</ele>
        <time>2019-06-13T08:28:27.000Z</time>
      </trkpt>
      <trkpt lat="47.29411" lon="-2.26088">
        <ele>12.199999809265</ele>
        <time>2019-06-13T08:28:28.000Z</time>
      </trkpt>
      <trkpt lat="47.29412" lon="-2.26084">
        <ele>11.800000190735</ele>
        <time>2019-06-13T08:28:29.000Z</time>
      </trkpt>
      <trkpt lat="47.29412" lon="-2.26082">
        <ele>11</ele>
        <time>2019-06-13T08:28:30.000Z</time>
      </trkpt>
      <trkpt lat="47.29409" lon="-2.26075">
        <ele>11</ele>
        <time>2019-06-13T08:28:35.000Z</time>
      </trkpt>
      <trkpt lat="47.294" lon="-2.26055">
        <ele>11</ele>
        <time>2019-06-13T08:28:40.000Z</time>
      </trkpt>
      <trkpt lat="47.29393" lon="-2.26019">
        <ele>11</ele>
        <time>2019-06-13T08:28:46.000Z</time>
      </trkpt>
      <trkpt lat="47.29398" lon="-2.25989">
        <ele>11</ele>
        <time>2019-06-13T08:28:51.000Z</time>
      </trkpt>
      <trkpt lat="47.29398" lon="-2.25968">
        <ele>12</ele>
        <time>2019-06-13T08:28:55.000Z</time>
      </trkpt>
      <trkpt lat="47.29399" lon="-2.25964">
        <ele>12.39999961853</ele>
        <time>2019-06-13T08:28:56.000Z</time>
      </trkpt>
      <trkpt lat="47.29401" lon="-2.25962">
        <ele>12.800000190735</ele>
        <time>2019-06-13T08:28:57.000Z</time>
      </trkpt>
      <trkpt lat="47.29403" lon="-2.25963">
        <ele>13.199999809265</ele>
        <time>2019-06-13T08:28:58.000Z</time>
      </trkpt>
      <trkpt lat="47.29413" lon="-2.25964">
        <ele>13.199999809265</ele>
        <time>2019-06-13T08:29:01.000Z</time>
      </trkpt>
      <trkpt lat="47.29416" lon="-2.25961">
        <ele>13.199999809265</ele>
        <time>2019-06-13T08:29:02.000Z</time>
      </trkpt>
      <trkpt lat="47.29432" lon="-2.2595">
        <ele>13.199999809265</ele>
        <time>2019-06-13T08:29:07.000Z</time>
      </trkpt>
      <trkpt lat="47.29437" lon="-2.25941">
        <ele>12.800000190735</ele>
        <time>2019-06-13T08:29:09.000Z</time>
      </trkpt>
      <trkpt lat="47.29439" lon="-2.25937">
        <ele>12.199999809265</ele>
        <time>2019-06-13T08:29:10.000Z</time>
      </trkpt>
      <trkpt lat="47.2944" lon="-2.25933">
        <ele>11.800000190735</ele>
        <time>2019-06-13T08:29:11.000Z</time>
      </trkpt>
      <trkpt lat="47.2944" lon="-2.25929">
        <ele>11.39999961853</ele>
        <time>2019-06-13T08:29:12.000Z</time>
      </trkpt>
      <trkpt lat="47.2944" lon="-2.25924">
        <ele>10.800000190735</ele>
        <time>2019-06-13T08:29:13.000Z</time>
      </trkpt>
      <trkpt lat="47.29435" lon="-2.25894">
        <ele>10.800000190735</ele>
        <time>2019-06-13T08:29:19.000Z</time>
      </trkpt>
      <trkpt lat="47.29428" lon="-2.25871">
        <ele>10.800000190735</ele>
        <time>2019-06-13T08:29:23.000Z</time>
      </trkpt>
      <trkpt lat="47.29427" lon="-2.25866">
        <ele>10.800000190735</ele>
        <time>2019-06-13T08:29:24.000Z</time>
      </trkpt>
      <trkpt lat="47.29429" lon="-2.25856">
        <ele>10.800000190735</ele>
        <time>2019-06-13T08:29:26.000Z</time>
      </trkpt>
      <trkpt lat="47.29431" lon="-2.25823">
        <ele>10.800000190735</ele>
        <time>2019-06-13T08:29:31.000Z</time>
      </trkpt>
      <trkpt lat="47.29429" lon="-2.25798">
        <ele>10.800000190735</ele>
        <time>2019-06-13T08:29:35.000Z</time>
      </trkpt>
      <trkpt lat="47.29436" lon="-2.25786">
        <ele>10.800000190735</ele>
        <time>2019-06-13T08:29:39.000Z</time>
      </trkpt>
      <trkpt lat="47.29445" lon="-2.25774">
        <ele>10.800000190735</ele>
        <time>2019-06-13T08:29:43.000Z</time>
      </trkpt>
      <trkpt lat="47.29444" lon="-2.25755">
        <ele>10.800000190735</ele>
        <time>2019-06-13T08:29:47.000Z</time>
      </trkpt>
      <trkpt lat="47.29442" lon="-2.25746">
        <ele>11.199999809265</ele>
        <time>2019-06-13T08:29:49.000Z</time>
      </trkpt>
      <trkpt lat="47.29441" lon="-2.25741">
        <ele>11.800000190735</ele>
        <time>2019-06-13T08:29:50.000Z</time>
      </trkpt>
      <trkpt lat="47.2944" lon="-2.25735">
        <ele>12.199999809265</ele>
        <time>2019-06-13T08:29:51.000Z</time>
      </trkpt>
      <trkpt lat="47.29439" lon="-2.2573">
        <ele>12.60000038147</ele>
        <time>2019-06-13T08:29:52.000Z</time>
      </trkpt>
      <trkpt lat="47.29439" lon="-2.25725">
        <ele>13.199999809265</ele>
        <time>2019-06-13T08:29:53.000Z</time>
      </trkpt>
      <trkpt lat="47.29434" lon="-2.2571">
        <ele>13.199999809265</ele>
        <time>2019-06-13T08:29:57.000Z</time>
      </trkpt>
      <trkpt lat="47.29432" lon="-2.25706">
        <ele>13.60000038147</ele>
        <time>2019-06-13T08:29:58.000Z</time>
      </trkpt>
      <trkpt lat="47.29431" lon="-2.25702">
        <ele>14</ele>
        <time>2019-06-13T08:29:59.000Z</time>
      </trkpt>
      <trkpt lat="47.2943" lon="-2.25698">
        <ele>14.39999961853</ele>
        <time>2019-06-13T08:30:00.000Z</time>
      </trkpt>
      <trkpt lat="47.29428" lon="-2.25694">
        <ele>15</ele>
        <time>2019-06-13T08:30:01.000Z</time>
      </trkpt>
      <trkpt lat="47.29427" lon="-2.25689">
        <ele>15.39999961853</ele>
        <time>2019-06-13T08:30:02.000Z</time>
      </trkpt>
      <trkpt lat="47.29417" lon="-2.25671">
        <ele>15.39999961853</ele>
        <time>2019-06-13T08:30:07.000Z</time>
      </trkpt>
      <trkpt lat="47.29401" lon="-2.25658">
        <ele>15.800000190735</ele>
        <time>2019-06-13T08:30:13.000Z</time>
      </trkpt>
      <trkpt lat="47.29398" lon="-2.25655">
        <ele>16.39999961853</ele>
        <time>2019-06-13T08:30:14.000Z</time>
      </trkpt>
      <trkpt lat="47.29396" lon="-2.25653">
        <ele>16.799999237061</ele>
        <time>2019-06-13T08:30:15.000Z</time>
      </trkpt>
      <trkpt lat="47.29394" lon="-2.25651">
        <ele>17.200000762939</ele>
        <time>2019-06-13T08:30:16.000Z</time>
      </trkpt>
      <trkpt lat="47.29392" lon="-2.25648">
        <ele>17.799999237061</ele>
        <time>2019-06-13T08:30:17.000Z</time>
      </trkpt>
      <trkpt lat="47.2939" lon="-2.25645">
        <ele>17.799999237061</ele>
        <time>2019-06-13T08:30:18.000Z</time>
      </trkpt>
      <trkpt lat="47.29386" lon="-2.25634">
        <ele>17.799999237061</ele>
        <time>2019-06-13T08:30:22.000Z</time>
      </trkpt>
      <trkpt lat="47.29386" lon="-2.25634">
        <ele>17.799999237061</ele>
        <time>2019-06-13T08:30:24.000Z</time>
      </trkpt>
      <trkpt lat="47.29387" lon="-2.25634">
        <ele>17.799999237061</ele>
        <time>2019-06-13T08:30:38.000Z</time>
      </trkpt>
      <trkpt lat="47.29389" lon="-2.25632">
        <ele>17.799999237061</ele>
        <time>2019-06-13T08:30:39.000Z</time>
      </trkpt>
      <trkpt lat="47.29404" lon="-2.25623">
        <ele>17.799999237061</ele>
        <time>2019-06-13T08:30:44.000Z</time>
      </trkpt>
      <trkpt lat="47.29432" lon="-2.25612">
        <ele>17.799999237061</ele>
        <time>2019-06-13T08:30:50.000Z</time>
      </trkpt>
      <trkpt lat="47.29465" lon="-2.25598">
        <ele>17.799999237061</ele>
        <time>2019-06-13T08:30:58.000Z</time>
      </trkpt>
      <trkpt lat="47.29503" lon="-2.25578">
        <ele>17.799999237061</ele>
        <time>2019-06-13T08:31:05.000Z</time>
      </trkpt>
      <trkpt lat="47.2955" lon="-2.25547">
        <ele>17.799999237061</ele>
        <time>2019-06-13T08:31:13.000Z</time>
      </trkpt>
      <trkpt lat="47.29556" lon="-2.25542">
        <ele>17.39999961853</ele>
        <time>2019-06-13T08:31:14.000Z</time>
      </trkpt>
      <trkpt lat="47.29562" lon="-2.25537">
        <ele>16.799999237061</ele>
        <time>2019-06-13T08:31:15.000Z</time>
      </trkpt>
      <trkpt lat="47.29568" lon="-2.25531">
        <ele>16.39999961853</ele>
        <time>2019-06-13T08:31:16.000Z</time>
      </trkpt>
      <trkpt lat="47.29574" lon="-2.25525">
        <ele>16</ele>
        <time>2019-06-13T08:31:17.000Z</time>
      </trkpt>
      <trkpt lat="47.29578" lon="-2.25517">
        <ele>15.60000038147</ele>
        <time>2019-06-13T08:31:18.000Z</time>
      </trkpt>
      <trkpt lat="47.29584" lon="-2.25487">
        <ele>15.60000038147</ele>
        <time>2019-06-13T08:31:21.000Z</time>
      </trkpt>
      <trkpt lat="47.29585" lon="-2.25464">
        <ele>15.60000038147</ele>
        <time>2019-06-13T08:31:23.000Z</time>
      </trkpt>
      <trkpt lat="47.29583" lon="-2.25431">
        <ele>15.60000038147</ele>
        <time>2019-06-13T08:31:26.000Z</time>
      </trkpt>
      <trkpt lat="47.29573" lon="-2.25375">
        <ele>15.60000038147</ele>
        <time>2019-06-13T08:31:31.000Z</time>
      </trkpt>
      <trkpt lat="47.29558" lon="-2.25336">
        <ele>15.199999809265</ele>
        <time>2019-06-13T08:31:35.000Z</time>
      </trkpt>
      <trkpt lat="47.29554" lon="-2.25327">
        <ele>14.800000190735</ele>
        <time>2019-06-13T08:31:36.000Z</time>
      </trkpt>
      <trkpt lat="47.2955" lon="-2.25318">
        <ele>14.39999961853</ele>
        <time>2019-06-13T08:31:37.000Z</time>
      </trkpt>
      <trkpt lat="47.29546" lon="-2.25308">
        <ele>13.800000190735</ele>
        <time>2019-06-13T08:31:38.000Z</time>
      </trkpt>
      <trkpt lat="47.29543" lon="-2.25298">
        <ele>13.39999961853</ele>
        <time>2019-06-13T08:31:39.000Z</time>
      </trkpt>
      <trkpt lat="47.29538" lon="-2.25278">
        <ele>13</ele>
        <time>2019-06-13T08:31:41.000Z</time>
      </trkpt>
      <trkpt lat="47.29537" lon="-2.25267">
        <ele>12.60000038147</ele>
        <time>2019-06-13T08:31:42.000Z</time>
      </trkpt>
      <trkpt lat="47.29537" lon="-2.25255">
        <ele>12.199999809265</ele>
        <time>2019-06-13T08:31:43.000Z</time>
      </trkpt>
      <trkpt lat="47.29537" lon="-2.25244">
        <ele>11.60000038147</ele>
        <time>2019-06-13T08:31:44.000Z</time>
      </trkpt>
      <trkpt lat="47.29539" lon="-2.25233">
        <ele>11.199999809265</ele>
        <time>2019-06-13T08:31:45.000Z</time>
      </trkpt>
      <trkpt lat="47.29543" lon="-2.25213">
        <ele>11.199999809265</ele>
        <time>2019-06-13T08:31:47.000Z</time>
      </trkpt>
      <trkpt lat="47.29545" lon="-2.25204">
        <ele>11.199999809265</ele>
        <time>2019-06-13T08:31:48.000Z</time>
      </trkpt>
      <trkpt lat="47.29548" lon="-2.25197">
        <ele>11.199999809265</ele>
        <time>2019-06-13T08:31:49.000Z</time>
      </trkpt>
      <trkpt lat="47.2955" lon="-2.25184">
        <ele>11.199999809265</ele>
        <time>2019-06-13T08:31:52.000Z</time>
      </trkpt>
      <trkpt lat="47.29543" lon="-2.25178">
        <ele>11.199999809265</ele>
        <time>2019-06-13T08:31:55.000Z</time>
      </trkpt>
      <trkpt lat="47.29531" lon="-2.25182">
        <ele>11.199999809265</ele>
        <time>2019-06-13T08:31:58.000Z</time>
      </trkpt>
      <trkpt lat="47.29526" lon="-2.25184">
        <ele>11.199999809265</ele>
        <time>2019-06-13T08:31:59.000Z</time>
      </trkpt>
      <trkpt lat="47.2951" lon="-2.25192">
        <ele>11.199999809265</ele>
        <time>2019-06-13T08:32:02.000Z</time>
      </trkpt>
      <trkpt lat="47.29491" lon="-2.25198">
        <ele>11.199999809265</ele>
        <time>2019-06-13T08:32:05.000Z</time>
      </trkpt>
      <trkpt lat="47.29477" lon="-2.25201">
        <ele>10.800000190735</ele>
        <time>2019-06-13T08:32:07.000Z</time>
      </trkpt>
      <trkpt lat="47.29471" lon="-2.25203">
        <ele>10.39999961853</ele>
        <time>2019-06-13T08:32:08.000Z</time>
      </trkpt>
      <trkpt lat="47.29464" lon="-2.25204">
        <ele>9.8000001907349</ele>
        <time>2019-06-13T08:32:09.000Z</time>
      </trkpt>
      <trkpt lat="47.29457" lon="-2.25205">
        <ele>9.3999996185303</ele>
        <time>2019-06-13T08:32:10.000Z</time>
      </trkpt>
      <trkpt lat="47.2945" lon="-2.25207">
        <ele>9</ele>
        <time>2019-06-13T08:32:11.000Z</time>
      </trkpt>
      <trkpt lat="47.29422" lon="-2.25218">
        <ele>9</ele>
        <time>2019-06-13T08:32:15.000Z</time>
      </trkpt>
      <trkpt lat="47.29406" lon="-2.25217">
        <ele>9</ele>
        <time>2019-06-13T08:32:17.000Z</time>
      </trkpt>
      <trkpt lat="47.2939" lon="-2.25213">
        <ele>9</ele>
        <time>2019-06-13T08:32:19.000Z</time>
      </trkpt>
      <trkpt lat="47.29375" lon="-2.25208">
        <ele>9</ele>
        <time>2019-06-13T08:32:21.000Z</time>
      </trkpt>
      <trkpt lat="47.29368" lon="-2.25206">
        <ele>8.6000003814697</ele>
        <time>2019-06-13T08:32:22.000Z</time>
      </trkpt>
      <trkpt lat="47.29361" lon="-2.25203">
        <ele>8.1999998092651</ele>
        <time>2019-06-13T08:32:23.000Z</time>
      </trkpt>
      <trkpt lat="47.29354" lon="-2.25202">
        <ele>7.8000001907349</ele>
        <time>2019-06-13T08:32:24.000Z</time>
      </trkpt>
      <trkpt lat="47.29347" lon="-2.252">
        <ele>7.4000000953674</ele>
        <time>2019-06-13T08:32:25.000Z</time>
      </trkpt>
      <trkpt lat="47.29341" lon="-2.25199">
        <ele>6.8000001907349</ele>
        <time>2019-06-13T08:32:26.000Z</time>
      </trkpt>
      <trkpt lat="47.29334" lon="-2.25198">
        <ele>6.8000001907349</ele>
        <time>2019-06-13T08:32:27.000Z</time>
      </trkpt>
      <trkpt lat="47.29316" lon="-2.25199">
        <ele>6.8000001907349</ele>
        <time>2019-06-13T08:32:30.000Z</time>
      </trkpt>
      <trkpt lat="47.29312" lon="-2.25195">
        <ele>6.8000001907349</ele>
        <time>2019-06-13T08:32:31.000Z</time>
      </trkpt>
      <trkpt lat="47.29306" lon="-2.25171">
        <ele>6.8000001907349</ele>
        <time>2019-06-13T08:32:34.000Z</time>
      </trkpt>
      <trkpt lat="47.29297" lon="-2.2512">
        <ele>6.8000001907349</ele>
        <time>2019-06-13T08:32:40.000Z</time>
      </trkpt>
      <trkpt lat="47.29289" lon="-2.2508">
        <ele>6.8000001907349</ele>
        <time>2019-06-13T08:32:45.000Z</time>
      </trkpt>
      <trkpt lat="47.29287" lon="-2.25072">
        <ele>7.4000000953674</ele>
        <time>2019-06-13T08:32:46.000Z</time>
      </trkpt>
      <trkpt lat="47.29285" lon="-2.25065">
        <ele>7.8000001907349</ele>
        <time>2019-06-13T08:32:47.000Z</time>
      </trkpt>
      <trkpt lat="47.29283" lon="-2.25057">
        <ele>8.1999998092651</ele>
        <time>2019-06-13T08:32:48.000Z</time>
      </trkpt>
      <trkpt lat="47.29281" lon="-2.25049">
        <ele>8.6000003814697</ele>
        <time>2019-06-13T08:32:49.000Z</time>
      </trkpt>
      <trkpt lat="47.29279" lon="-2.25041">
        <ele>9</ele>
        <time>2019-06-13T08:32:50.000Z</time>
      </trkpt>
      <trkpt lat="47.29277" lon="-2.25033">
        <ele>9</ele>
        <time>2019-06-13T08:32:51.000Z</time>
      </trkpt>
      <trkpt lat="47.29275" lon="-2.25024">
        <ele>9</ele>
        <time>2019-06-13T08:32:52.000Z</time>
      </trkpt>
      <trkpt lat="47.29268" lon="-2.24991">
        <ele>9</ele>
        <time>2019-06-13T08:32:56.000Z</time>
      </trkpt>
      <trkpt lat="47.2926" lon="-2.24959">
        <ele>9</ele>
        <time>2019-06-13T08:33:00.000Z</time>
      </trkpt>
      <trkpt lat="47.29259" lon="-2.24942">
        <ele>9</ele>
        <time>2019-06-13T08:33:02.000Z</time>
      </trkpt>
      <trkpt lat="47.29266" lon="-2.24923">
        <ele>9.3999996185303</ele>
        <time>2019-06-13T08:33:05.000Z</time>
      </trkpt>
      <trkpt lat="47.2927" lon="-2.2492">
        <ele>9.8000001907349</ele>
        <time>2019-06-13T08:33:06.000Z</time>
      </trkpt>
      <trkpt lat="47.29275" lon="-2.24918">
        <ele>10.199999809265</ele>
        <time>2019-06-13T08:33:07.000Z</time>
      </trkpt>
      <trkpt lat="47.2928" lon="-2.24918">
        <ele>10.60000038147</ele>
        <time>2019-06-13T08:33:08.000Z</time>
      </trkpt>
      <trkpt lat="47.29286" lon="-2.24917">
        <ele>11</ele>
        <time>2019-06-13T08:33:09.000Z</time>
      </trkpt>
      <trkpt lat="47.29322" lon="-2.24918">
        <ele>11</ele>
        <time>2019-06-13T08:33:15.000Z</time>
      </trkpt>
      <trkpt lat="47.29327" lon="-2.24918">
        <ele>11</ele>
        <time>2019-06-13T08:33:16.000Z</time>
      </trkpt>
      <trkpt lat="47.29334" lon="-2.24907">
        <ele>10.60000038147</ele>
        <time>2019-06-13T08:33:18.000Z</time>
      </trkpt>
      <trkpt lat="47.29336" lon="-2.24901">
        <ele>10.199999809265</ele>
        <time>2019-06-13T08:33:19.000Z</time>
      </trkpt>
      <trkpt lat="47.29336" lon="-2.24895">
        <ele>9.8000001907349</ele>
        <time>2019-06-13T08:33:20.000Z</time>
      </trkpt>
      <trkpt lat="47.29336" lon="-2.24888">
        <ele>9.3999996185303</ele>
        <time>2019-06-13T08:33:21.000Z</time>
      </trkpt>
      <trkpt lat="47.29335" lon="-2.2488">
        <ele>9</ele>
        <time>2019-06-13T08:33:22.000Z</time>
      </trkpt>
      <trkpt lat="47.29334" lon="-2.24873">
        <ele>9</ele>
        <time>2019-06-13T08:33:23.000Z</time>
      </trkpt>
      <trkpt lat="47.29332" lon="-2.24857">
        <ele>9</ele>
        <time>2019-06-13T08:33:25.000Z</time>
      </trkpt>
      <trkpt lat="47.2933" lon="-2.24842">
        <ele>9</ele>
        <time>2019-06-13T08:33:27.000Z</time>
      </trkpt>
      <trkpt lat="47.29327" lon="-2.24814">
        <ele>9</ele>
        <time>2019-06-13T08:33:31.000Z</time>
      </trkpt>
      <trkpt lat="47.29322" lon="-2.24782">
        <ele>9</ele>
        <time>2019-06-13T08:33:36.000Z</time>
      </trkpt>
      <trkpt lat="47.29313" lon="-2.24756">
        <ele>9</ele>
        <time>2019-06-13T08:33:40.000Z</time>
      </trkpt>
      <trkpt lat="47.29305" lon="-2.24716">
        <ele>9</ele>
        <time>2019-06-13T08:33:45.000Z</time>
      </trkpt>
      <trkpt lat="47.29295" lon="-2.24673">
        <ele>9</ele>
        <time>2019-06-13T08:33:50.000Z</time>
      </trkpt>
      <trkpt lat="47.29293" lon="-2.24655">
        <ele>8.6000003814697</ele>
        <time>2019-06-13T08:33:52.000Z</time>
      </trkpt>
      <trkpt lat="47.29293" lon="-2.24646">
        <ele>8.1999998092651</ele>
        <time>2019-06-13T08:33:53.000Z</time>
      </trkpt>
      <trkpt lat="47.29293" lon="-2.24637">
        <ele>7.8000001907349</ele>
        <time>2019-06-13T08:33:54.000Z</time>
      </trkpt>
      <trkpt lat="47.29294" lon="-2.24627">
        <ele>7.4000000953674</ele>
        <time>2019-06-13T08:33:55.000Z</time>
      </trkpt>
      <trkpt lat="47.29295" lon="-2.24617">
        <ele>6.8000001907349</ele>
        <time>2019-06-13T08:33:56.000Z</time>
      </trkpt>
      <trkpt lat="47.29295" lon="-2.24607">
        <ele>6.8000001907349</ele>
        <time>2019-06-13T08:33:57.000Z</time>
      </trkpt>
      <trkpt lat="47.29294" lon="-2.24573">
        <ele>6.8000001907349</ele>
        <time>2019-06-13T08:34:00.000Z</time>
      </trkpt>
      <trkpt lat="47.29294" lon="-2.24515">
        <ele>6.8000001907349</ele>
        <time>2019-06-13T08:34:06.000Z</time>
      </trkpt>
      <trkpt lat="47.29295" lon="-2.24462">
        <ele>6.8000001907349</ele>
        <time>2019-06-13T08:34:13.000Z</time>
      </trkpt>
      <trkpt lat="47.29308" lon="-2.24443">
        <ele>6.8000001907349</ele>
        <time>2019-06-13T08:34:17.000Z</time>
      </trkpt>
      <trkpt lat="47.29317" lon="-2.24434">
        <ele>6.8000001907349</ele>
        <time>2019-06-13T08:34:19.000Z</time>
      </trkpt>
      <trkpt lat="47.29332" lon="-2.24419">
        <ele>6.8000001907349</ele>
        <time>2019-06-13T08:34:22.000Z</time>
      </trkpt>
      <trkpt lat="47.29367" lon="-2.24381">
        <ele>6.8000001907349</ele>
        <time>2019-06-13T08:34:30.000Z</time>
      </trkpt>
      <trkpt lat="47.29389" lon="-2.2436">
        <ele>6.8000001907349</ele>
        <time>2019-06-13T08:34:35.000Z</time>
      </trkpt>
      <trkpt lat="47.29424" lon="-2.24326">
        <ele>6.8000001907349</ele>
        <time>2019-06-13T08:34:42.000Z</time>
      </trkpt>
      <trkpt lat="47.29428" lon="-2.24321">
        <ele>6.8000001907349</ele>
        <time>2019-06-13T08:34:43.000Z</time>
      </trkpt>
      <trkpt lat="47.29446" lon="-2.24312">
        <ele>6.8000001907349</ele>
        <time>2019-06-13T08:34:46.000Z</time>
      </trkpt>
      <trkpt lat="47.29452" lon="-2.24311">
        <ele>6.8000001907349</ele>
        <time>2019-06-13T08:34:47.000Z</time>
      </trkpt>
      <trkpt lat="47.29472" lon="-2.24304">
        <ele>6.4000000953674</ele>
        <time>2019-06-13T08:34:50.000Z</time>
      </trkpt>
      <trkpt lat="47.29479" lon="-2.24302">
        <ele>6</ele>
        <time>2019-06-13T08:34:51.000Z</time>
      </trkpt>
      <trkpt lat="47.29485" lon="-2.243">
        <ele>5.5999999046326</ele>
        <time>2019-06-13T08:34:52.000Z</time>
      </trkpt>
      <trkpt lat="47.29492" lon="-2.24298">
        <ele>5.1999998092651</ele>
        <time>2019-06-13T08:34:53.000Z</time>
      </trkpt>
      <trkpt lat="47.29499" lon="-2.24295">
        <ele>4.8000001907349</ele>
        <time>2019-06-13T08:34:54.000Z</time>
      </trkpt>
      <trkpt lat="47.29512" lon="-2.2429">
        <ele>4.4000000953674</ele>
        <time>2019-06-13T08:34:56.000Z</time>
      </trkpt>
      <trkpt lat="47.29519" lon="-2.24288">
        <ele>3.7999999523163</ele>
        <time>2019-06-13T08:34:57.000Z</time>
      </trkpt>
      <trkpt lat="47.29526" lon="-2.24285">
        <ele>3.2000000476837</ele>
        <time>2019-06-13T08:34:58.000Z</time>
      </trkpt>
      <trkpt lat="47.29533" lon="-2.24283">
        <ele>2.7999999523163</ele>
        <time>2019-06-13T08:34:59.000Z</time>
      </trkpt>
      <trkpt lat="47.29539" lon="-2.24283">
        <ele>2.2000000476837</ele>
        <time>2019-06-13T08:35:00.000Z</time>
      </trkpt>
      <trkpt lat="47.29545" lon="-2.24283">
        <ele>1.7999999523163</ele>
        <time>2019-06-13T08:35:01.000Z</time>
      </trkpt>
      <trkpt lat="47.29551" lon="-2.24285">
        <ele>1.3999999761581</ele>
        <time>2019-06-13T08:35:02.000Z</time>
      </trkpt>
      <trkpt lat="47.29556" lon="-2.24289">
        <ele>1</ele>
        <time>2019-06-13T08:35:03.000Z</time>
      </trkpt>
      <trkpt lat="47.2956" lon="-2.24295">
        <ele>0.60000002384186</ele>
        <time>2019-06-13T08:35:04.000Z</time>
      </trkpt>
      <trkpt lat="47.29564" lon="-2.24301">
        <ele>0.20000000298023</ele>
        <time>2019-06-13T08:35:05.000Z</time>
      </trkpt>
      <trkpt lat="47.29584" lon="-2.24315">
        <ele>0.20000000298023</ele>
        <time>2019-06-13T08:35:09.000Z</time>
      </trkpt>
      <trkpt lat="47.29589" lon="-2.24315">
        <ele>0.20000000298023</ele>
        <time>2019-06-13T08:35:10.000Z</time>
      </trkpt>
      <trkpt lat="47.29594" lon="-2.24315">
        <ele>0.20000000298023</ele>
        <time>2019-06-13T08:35:11.000Z</time>
      </trkpt>
      <trkpt lat="47.29613" lon="-2.2431">
        <ele>0.60000002384186</ele>
        <time>2019-06-13T08:35:14.000Z</time>
      </trkpt>
      <trkpt lat="47.29619" lon="-2.24308">
        <ele>1</ele>
        <time>2019-06-13T08:35:15.000Z</time>
      </trkpt>
      <trkpt lat="47.29625" lon="-2.24306">
        <ele>1.3999999761581</ele>
        <time>2019-06-13T08:35:16.000Z</time>
      </trkpt>
      <trkpt lat="47.29631" lon="-2.24304">
        <ele>1.7999999523163</ele>
        <time>2019-06-13T08:35:17.000Z</time>
      </trkpt>
      <trkpt lat="47.29638" lon="-2.24302">
        <ele>2.4000000953674</ele>
        <time>2019-06-13T08:35:18.000Z</time>
      </trkpt>
      <trkpt lat="47.29651" lon="-2.24296">
        <ele>2.4000000953674</ele>
        <time>2019-06-13T08:35:20.000Z</time>
      </trkpt>
      <trkpt lat="47.29668" lon="-2.24287">
        <ele>2.4000000953674</ele>
        <time>2019-06-13T08:35:23.000Z</time>
      </trkpt>
      <trkpt lat="47.29672" lon="-2.24285">
        <ele>2.4000000953674</ele>
        <time>2019-06-13T08:35:24.000Z</time>
      </trkpt>
      <trkpt lat="47.297" lon="-2.24268">
        <ele>2.4000000953674</ele>
        <time>2019-06-13T08:35:29.000Z</time>
      </trkpt>
      <trkpt lat="47.29706" lon="-2.24264">
        <ele>2.7999999523163</ele>
        <time>2019-06-13T08:35:30.000Z</time>
      </trkpt>
      <trkpt lat="47.29712" lon="-2.24261">
        <ele>3.5999999046326</ele>
        <time>2019-06-13T08:35:31.000Z</time>
      </trkpt>
      <trkpt lat="47.29717" lon="-2.24258">
        <ele>4</ele>
        <time>2019-06-13T08:35:32.000Z</time>
      </trkpt>
      <trkpt lat="47.29723" lon="-2.24255">
        <ele>4.4000000953674</ele>
        <time>2019-06-13T08:35:33.000Z</time>
      </trkpt>
      <trkpt lat="47.2974" lon="-2.24246">
        <ele>4.4000000953674</ele>
        <time>2019-06-13T08:35:36.000Z</time>
      </trkpt>
      <trkpt lat="47.29746" lon="-2.24243">
        <ele>4.8000001907349</ele>
        <time>2019-06-13T08:35:37.000Z</time>
      </trkpt>
      <trkpt lat="47.29751" lon="-2.2424">
        <ele>5.1999998092651</ele>
        <time>2019-06-13T08:35:38.000Z</time>
      </trkpt>
      <trkpt lat="47.29756" lon="-2.24237">
        <ele>5.5999999046326</ele>
        <time>2019-06-13T08:35:39.000Z</time>
      </trkpt>
      <trkpt lat="47.29762" lon="-2.24234">
        <ele>6</ele>
        <time>2019-06-13T08:35:40.000Z</time>
      </trkpt>
      <trkpt lat="47.29768" lon="-2.24231">
        <ele>6.4000000953674</ele>
        <time>2019-06-13T08:35:41.000Z</time>
      </trkpt>
      <trkpt lat="47.29784" lon="-2.24222">
        <ele>6.8000001907349</ele>
        <time>2019-06-13T08:35:44.000Z</time>
      </trkpt>
      <trkpt lat="47.29789" lon="-2.2422">
        <ele>7.1999998092651</ele>
        <time>2019-06-13T08:35:45.000Z</time>
      </trkpt>
      <trkpt lat="47.29795" lon="-2.24218">
        <ele>7.5999999046326</ele>
        <time>2019-06-13T08:35:46.000Z</time>
      </trkpt>
      <trkpt lat="47.298" lon="-2.24217">
        <ele>8</ele>
        <time>2019-06-13T08:35:47.000Z</time>
      </trkpt>
      <trkpt lat="47.29806" lon="-2.24217">
        <ele>8.3999996185303</ele>
        <time>2019-06-13T08:35:48.000Z</time>
      </trkpt>
      <trkpt lat="47.29811" lon="-2.24219">
        <ele>8.3999996185303</ele>
        <time>2019-06-13T08:35:49.000Z</time>
      </trkpt>
      <trkpt lat="47.29826" lon="-2.24229">
        <ele>8.8000001907349</ele>
        <time>2019-06-13T08:35:52.000Z</time>
      </trkpt>
      <trkpt lat="47.29831" lon="-2.24232">
        <ele>9.3999996185303</ele>
        <time>2019-06-13T08:35:53.000Z</time>
      </trkpt>
      <trkpt lat="47.29836" lon="-2.24234">
        <ele>9.8000001907349</ele>
        <time>2019-06-13T08:35:54.000Z</time>
      </trkpt>
      <trkpt lat="47.29841" lon="-2.24236">
        <ele>10.60000038147</ele>
        <time>2019-06-13T08:35:55.000Z</time>
      </trkpt>
      <trkpt lat="47.29868" lon="-2.24247">
        <ele>10.60000038147</ele>
        <time>2019-06-13T08:36:00.000Z</time>
      </trkpt>
      <trkpt lat="47.29899" lon="-2.2427">
        <ele>10.60000038147</ele>
        <time>2019-06-13T08:36:06.000Z</time>
      </trkpt>
      <trkpt lat="47.29905" lon="-2.24275">
        <ele>11</ele>
        <time>2019-06-13T08:36:07.000Z</time>
      </trkpt>
      <trkpt lat="47.2991" lon="-2.24278">
        <ele>11.39999961853</ele>
        <time>2019-06-13T08:36:08.000Z</time>
      </trkpt>
      <trkpt lat="47.29916" lon="-2.24281">
        <ele>11.800000190735</ele>
        <time>2019-06-13T08:36:09.000Z</time>
      </trkpt>
      <trkpt lat="47.29922" lon="-2.24284">
        <ele>12.199999809265</ele>
        <time>2019-06-13T08:36:10.000Z</time>
      </trkpt>
      <trkpt lat="47.29927" lon="-2.24288">
        <ele>12.60000038147</ele>
        <time>2019-06-13T08:36:11.000Z</time>
      </trkpt>
      <trkpt lat="47.29932" lon="-2.24292">
        <ele>12.199999809265</ele>
        <time>2019-06-13T08:36:12.000Z</time>
      </trkpt>
      <trkpt lat="47.29936" lon="-2.24297">
        <ele>11.800000190735</ele>
        <time>2019-06-13T08:36:13.000Z</time>
      </trkpt>
      <trkpt lat="47.2994" lon="-2.24302">
        <ele>11.39999961853</ele>
        <time>2019-06-13T08:36:14.000Z</time>
      </trkpt>
      <trkpt lat="47.29944" lon="-2.24308">
        <ele>11</ele>
        <time>2019-06-13T08:36:15.000Z</time>
      </trkpt>
      <trkpt lat="47.29947" lon="-2.24313">
        <ele>10.60000038147</ele>
        <time>2019-06-13T08:36:16.000Z</time>
      </trkpt>
      <trkpt lat="47.29951" lon="-2.24318">
        <ele>10.60000038147</ele>
        <time>2019-06-13T08:36:17.000Z</time>
      </trkpt>
      <trkpt lat="47.29964" lon="-2.2433">
        <ele>10.60000038147</ele>
        <time>2019-06-13T08:36:20.000Z</time>
      </trkpt>
      <trkpt lat="47.29989" lon="-2.2436">
        <ele>10.60000038147</ele>
        <time>2019-06-13T08:36:27.000Z</time>
      </trkpt>
      <trkpt lat="47.29991" lon="-2.24361">
        <ele>10.60000038147</ele>
        <time>2019-06-13T08:36:28.000Z</time>
      </trkpt>
      <trkpt lat="47.29993" lon="-2.2436">
        <ele>10.60000038147</ele>
        <time>2019-06-13T08:36:29.000Z</time>
      </trkpt>
      <trkpt lat="47.29995" lon="-2.24358">
        <ele>10.60000038147</ele>
        <time>2019-06-13T08:36:30.000Z</time>
      </trkpt>
      <trkpt lat="47.30001" lon="-2.24342">
        <ele>10.60000038147</ele>
        <time>2019-06-13T08:36:34.000Z</time>
      </trkpt>
      <trkpt lat="47.30007" lon="-2.24318">
        <ele>10.60000038147</ele>
        <time>2019-06-13T08:36:39.000Z</time>
      </trkpt>
      <trkpt lat="47.30015" lon="-2.24295">
        <ele>10.60000038147</ele>
        <time>2019-06-13T08:36:44.000Z</time>
      </trkpt>
      <trkpt lat="47.30019" lon="-2.24288">
        <ele>10.60000038147</ele>
        <time>2019-06-13T08:36:46.000Z</time>
      </trkpt>
      <trkpt lat="47.30021" lon="-2.24286">
        <ele>10.60000038147</ele>
        <time>2019-06-13T08:36:47.000Z</time>
      </trkpt>
      <trkpt lat="47.30026" lon="-2.24268">
        <ele>10.60000038147</ele>
        <time>2019-06-13T08:36:51.000Z</time>
      </trkpt>
      <trkpt lat="47.30026" lon="-2.24262">
        <ele>10.60000038147</ele>
        <time>2019-06-13T08:36:52.000Z</time>
      </trkpt>
      <trkpt lat="47.30024" lon="-2.24256">
        <ele>10.60000038147</ele>
        <time>2019-06-13T08:36:53.000Z</time>
      </trkpt>
      <trkpt lat="47.30023" lon="-2.24249">
        <ele>10.60000038147</ele>
        <time>2019-06-13T08:36:54.000Z</time>
      </trkpt>
      <trkpt lat="47.30021" lon="-2.24236">
        <ele>10.60000038147</ele>
        <time>2019-06-13T08:36:56.000Z</time>
      </trkpt>
      <trkpt lat="47.30019" lon="-2.24215">
        <ele>10.199999809265</ele>
        <time>2019-06-13T08:36:59.000Z</time>
      </trkpt>
      <trkpt lat="47.30017" lon="-2.24208">
        <ele>9.8000001907349</ele>
        <time>2019-06-13T08:37:00.000Z</time>
      </trkpt>
      <trkpt lat="47.30016" lon="-2.24199">
        <ele>9.3999996185303</ele>
        <time>2019-06-13T08:37:01.000Z</time>
      </trkpt>
      <trkpt lat="47.30014" lon="-2.2419">
        <ele>8.8000001907349</ele>
        <time>2019-06-13T08:37:02.000Z</time>
      </trkpt>
      <trkpt lat="47.30014" lon="-2.24182">
        <ele>8.3999996185303</ele>
        <time>2019-06-13T08:37:03.000Z</time>
      </trkpt>
      <trkpt lat="47.30013" lon="-2.24175">
        <ele>8</ele>
        <time>2019-06-13T08:37:04.000Z</time>
      </trkpt>
      <trkpt lat="47.30013" lon="-2.24169">
        <ele>7.5999999046326</ele>
        <time>2019-06-13T08:37:05.000Z</time>
      </trkpt>
      <trkpt lat="47.30012" lon="-2.24166">
        <ele>7.1999998092651</ele>
        <time>2019-06-13T08:37:06.000Z</time>
      </trkpt>
      <trkpt lat="47.30012" lon="-2.24163">
        <ele>6.8000001907349</ele>
        <time>2019-06-13T08:37:07.000Z</time>
      </trkpt>
      <trkpt lat="47.30013" lon="-2.24162">
        <ele>6.1999998092651</ele>
        <time>2019-06-13T08:37:08.000Z</time>
      </trkpt>
      <trkpt lat="47.30014" lon="-2.24161">
        <ele>5.1999998092651</ele>
        <time>2019-06-13T08:37:09.000Z</time>
      </trkpt>
      <trkpt lat="47.3002" lon="-2.24147">
        <ele>2.2000000476837</ele>
        <time>2019-06-13T08:43:07.000Z</time>
      </trkpt>
      <trkpt lat="47.30022" lon="-2.24146">
        <ele>2.2000000476837</ele>
        <time>2019-06-13T08:43:08.000Z</time>
      </trkpt>
      <trkpt lat="47.30029" lon="-2.24138">
        <ele>2.2000000476837</ele>
        <time>2019-06-13T08:43:13.000Z</time>
      </trkpt>
      <trkpt lat="47.30033" lon="-2.24136">
        <ele>2.5999999046326</ele>
        <time>2019-06-13T08:43:15.000Z</time>
      </trkpt>
      <trkpt lat="47.30035" lon="-2.24134">
        <ele>3.2000000476837</ele>
        <time>2019-06-13T08:43:16.000Z</time>
      </trkpt>
      <trkpt lat="47.30037" lon="-2.24133">
        <ele>3.5999999046326</ele>
        <time>2019-06-13T08:43:17.000Z</time>
      </trkpt>
      <trkpt lat="47.3004" lon="-2.24132">
        <ele>4</ele>
        <time>2019-06-13T08:43:18.000Z</time>
      </trkpt>
      <trkpt lat="47.30043" lon="-2.2413">
        <ele>4.5999999046326</ele>
        <time>2019-06-13T08:43:19.000Z</time>
      </trkpt>
      <trkpt lat="47.3006" lon="-2.24119">
        <ele>4.5999999046326</ele>
        <time>2019-06-13T08:43:25.000Z</time>
      </trkpt>
      <trkpt lat="47.30067" lon="-2.24114">
        <ele>5</ele>
        <time>2019-06-13T08:43:27.000Z</time>
      </trkpt>
      <trkpt lat="47.30071" lon="-2.24112">
        <ele>5.4000000953674</ele>
        <time>2019-06-13T08:43:28.000Z</time>
      </trkpt>
      <trkpt lat="47.30075" lon="-2.2411">
        <ele>5.8000001907349</ele>
        <time>2019-06-13T08:43:29.000Z</time>
      </trkpt>
      <trkpt lat="47.30079" lon="-2.24107">
        <ele>6.1999998092651</ele>
        <time>2019-06-13T08:43:30.000Z</time>
      </trkpt>
      <trkpt lat="47.30083" lon="-2.24106">
        <ele>6.5999999046326</ele>
        <time>2019-06-13T08:43:31.000Z</time>
      </trkpt>
      <trkpt lat="47.30098" lon="-2.24095">
        <ele>6.5999999046326</ele>
        <time>2019-06-13T08:43:35.000Z</time>
      </trkpt>
      <trkpt lat="47.3011" lon="-2.2409">
        <ele>6.5999999046326</ele>
        <time>2019-06-13T08:43:38.000Z</time>
      </trkpt>
      <trkpt lat="47.3012" lon="-2.24082">
        <ele>6.5999999046326</ele>
        <time>2019-06-13T08:43:40.000Z</time>
      </trkpt>
      <trkpt lat="47.30125" lon="-2.24082">
        <ele>6.5999999046326</ele>
        <time>2019-06-13T08:43:41.000Z</time>
      </trkpt>
      <trkpt lat="47.30141" lon="-2.2408">
        <ele>6.5999999046326</ele>
        <time>2019-06-13T08:43:45.000Z</time>
      </trkpt>
      <trkpt lat="47.30148" lon="-2.24074">
        <ele>6.5999999046326</ele>
        <time>2019-06-13T08:43:47.000Z</time>
      </trkpt>
      <trkpt lat="47.30156" lon="-2.24069">
        <ele>6.5999999046326</ele>
        <time>2019-06-13T08:43:49.000Z</time>
      </trkpt>
      <trkpt lat="47.30182" lon="-2.2406">
        <ele>6.5999999046326</ele>
        <time>2019-06-13T08:43:54.000Z</time>
      </trkpt>
      <trkpt lat="47.30191" lon="-2.2406">
        <ele>6.5999999046326</ele>
        <time>2019-06-13T08:43:56.000Z</time>
      </trkpt>
      <trkpt lat="47.30202" lon="-2.24061">
        <ele>6.5999999046326</ele>
        <time>2019-06-13T08:43:58.000Z</time>
      </trkpt>
      <trkpt lat="47.30211" lon="-2.24058">
        <ele>6.5999999046326</ele>
        <time>2019-06-13T08:44:00.000Z</time>
      </trkpt>
      <trkpt lat="47.30219" lon="-2.24059">
        <ele>6.5999999046326</ele>
        <time>2019-06-13T08:44:02.000Z</time>
      </trkpt>
      <trkpt lat="47.30231" lon="-2.24059">
        <ele>6.5999999046326</ele>
        <time>2019-06-13T08:44:05.000Z</time>
      </trkpt>
      <trkpt lat="47.30239" lon="-2.24059">
        <ele>6</ele>
        <time>2019-06-13T08:44:07.000Z</time>
      </trkpt>
      <trkpt lat="47.30243" lon="-2.2406">
        <ele>5.5999999046326</ele>
        <time>2019-06-13T08:44:08.000Z</time>
      </trkpt>
      <trkpt lat="47.30248" lon="-2.2406">
        <ele>5.1999998092651</ele>
        <time>2019-06-13T08:44:09.000Z</time>
      </trkpt>
      <trkpt lat="47.30252" lon="-2.2406">
        <ele>4.4000000953674</ele>
        <time>2019-06-13T08:44:10.000Z</time>
      </trkpt>
      <trkpt lat="47.30268" lon="-2.24062">
        <ele>4.4000000953674</ele>
        <time>2019-06-13T08:44:14.000Z</time>
      </trkpt>
      <trkpt lat="47.30273" lon="-2.24058">
        <ele>4.4000000953674</ele>
        <time>2019-06-13T08:44:15.000Z</time>
      </trkpt>
      <trkpt lat="47.30276" lon="-2.24052">
        <ele>4.4000000953674</ele>
        <time>2019-06-13T08:44:16.000Z</time>
      </trkpt>
      <trkpt lat="47.30275" lon="-2.24023">
        <ele>4.4000000953674</ele>
        <time>2019-06-13T08:44:20.000Z</time>
      </trkpt>
      <trkpt lat="47.30274" lon="-2.24015">
        <ele>4</ele>
        <time>2019-06-13T08:44:21.000Z</time>
      </trkpt>
      <trkpt lat="47.30273" lon="-2.24006">
        <ele>3.5999999046326</ele>
        <time>2019-06-13T08:44:22.000Z</time>
      </trkpt>
      <trkpt lat="47.30272" lon="-2.23995">
        <ele>3.2000000476837</ele>
        <time>2019-06-13T08:44:23.000Z</time>
      </trkpt>
      <trkpt lat="47.3027" lon="-2.23985">
        <ele>2.7999999523163</ele>
        <time>2019-06-13T08:44:24.000Z</time>
      </trkpt>
      <trkpt lat="47.30269" lon="-2.23974">
        <ele>2.4000000953674</ele>
        <time>2019-06-13T08:44:25.000Z</time>
      </trkpt>
      <trkpt lat="47.3026" lon="-2.23933">
        <ele>2.4000000953674</ele>
        <time>2019-06-13T08:44:29.000Z</time>
      </trkpt>
      <trkpt lat="47.30259" lon="-2.23922">
        <ele>2</ele>
        <time>2019-06-13T08:44:30.000Z</time>
      </trkpt>
      <trkpt lat="47.30261" lon="-2.23912">
        <ele>1.6000000238419</ele>
        <time>2019-06-13T08:44:31.000Z</time>
      </trkpt>
      <trkpt lat="47.30263" lon="-2.23903">
        <ele>1.2000000476837</ele>
        <time>2019-06-13T08:44:32.000Z</time>
      </trkpt>
      <trkpt lat="47.30267" lon="-2.23896">
        <ele>0.80000001192093</ele>
        <time>2019-06-13T08:44:33.000Z</time>
      </trkpt>
      <trkpt lat="47.30272" lon="-2.2389">
        <ele>0.20000000298023</ele>
        <time>2019-06-13T08:44:34.000Z</time>
      </trkpt>
      <trkpt lat="47.30278" lon="-2.23886">
        <ele>-0.80000001192093</ele>
        <time>2019-06-13T08:44:35.000Z</time>
      </trkpt>
      <trkpt lat="47.30285" lon="-2.23884">
        <ele>-1.2000000476837</ele>
        <time>2019-06-13T08:44:36.000Z</time>
      </trkpt>
      <trkpt lat="47.30292" lon="-2.23883">
        <ele>-1.7999999523163</ele>
        <time>2019-06-13T08:44:37.000Z</time>
      </trkpt>
      <trkpt lat="47.30321" lon="-2.23873">
        <ele>-1.7999999523163</ele>
        <time>2019-06-13T08:44:41.000Z</time>
      </trkpt>
      <trkpt lat="47.30363" lon="-2.23856">
        <ele>-1.7999999523163</ele>
        <time>2019-06-13T08:44:47.000Z</time>
      </trkpt>
      <trkpt lat="47.30377" lon="-2.23852">
        <ele>-1.7999999523163</ele>
        <time>2019-06-13T08:44:49.000Z</time>
      </trkpt>
      <trkpt lat="47.30404" lon="-2.23849">
        <ele>-1.7999999523163</ele>
        <time>2019-06-13T08:44:53.000Z</time>
      </trkpt>
      <trkpt lat="47.3044" lon="-2.23844">
        <ele>-1.7999999523163</ele>
        <time>2019-06-13T08:44:59.000Z</time>
      </trkpt>
      <trkpt lat="47.30471" lon="-2.23838">
        <ele>-1.7999999523163</ele>
        <time>2019-06-13T08:45:05.000Z</time>
      </trkpt>
      <trkpt lat="47.3048" lon="-2.23838">
        <ele>-1.7999999523163</ele>
        <time>2019-06-13T08:45:07.000Z</time>
      </trkpt>
      <trkpt lat="47.3049" lon="-2.2384">
        <ele>-1.7999999523163</ele>
        <time>2019-06-13T08:45:09.000Z</time>
      </trkpt>
      <trkpt lat="47.30494" lon="-2.23844">
        <ele>-1.7999999523163</ele>
        <time>2019-06-13T08:45:10.000Z</time>
      </trkpt>
      <trkpt lat="47.30503" lon="-2.23852">
        <ele>-1.7999999523163</ele>
        <time>2019-06-13T08:45:12.000Z</time>
      </trkpt>
      <trkpt lat="47.30513" lon="-2.23869">
        <ele>-1.7999999523163</ele>
        <time>2019-06-13T08:45:15.000Z</time>
      </trkpt>
      <trkpt lat="47.30531" lon="-2.23894">
        <ele>-1.7999999523163</ele>
        <time>2019-06-13T08:45:20.000Z</time>
      </trkpt>
      <trkpt lat="47.30538" lon="-2.23902">
        <ele>-1.7999999523163</ele>
        <time>2019-06-13T08:45:22.000Z</time>
      </trkpt>
      <trkpt lat="47.30548" lon="-2.23918">
        <ele>-1.7999999523163</ele>
        <time>2019-06-13T08:45:27.000Z</time>
      </trkpt>
      <trkpt lat="47.30552" lon="-2.23929">
        <ele>-1.7999999523163</ele>
        <time>2019-06-13T08:45:29.000Z</time>
      </trkpt>
      <trkpt lat="47.30552" lon="-2.23941">
        <ele>-1.7999999523163</ele>
        <time>2019-06-13T08:45:31.000Z</time>
      </trkpt>
      <trkpt lat="47.30544" lon="-2.23954">
        <ele>-1.7999999523163</ele>
        <time>2019-06-13T08:45:34.000Z</time>
      </trkpt>
      <trkpt lat="47.30526" lon="-2.23976">
        <ele>-1.7999999523163</ele>
        <time>2019-06-13T08:45:40.000Z</time>
      </trkpt>
      <trkpt lat="47.30516" lon="-2.23987">
        <ele>-1.3999999761581</ele>
        <time>2019-06-13T08:45:43.000Z</time>
      </trkpt>
      <trkpt lat="47.30513" lon="-2.23991">
        <ele>-1</ele>
        <time>2019-06-13T08:45:44.000Z</time>
      </trkpt>
      <trkpt lat="47.3051" lon="-2.23995">
        <ele>-0.40000000596046</ele>
        <time>2019-06-13T08:45:45.000Z</time>
      </trkpt>
      <trkpt lat="47.30507" lon="-2.23998">
        <ele>7.6</ele>
        <time>2019-06-13T08:45:46.000Z</time>
      </trkpt>
      <trkpt lat="47.30504" lon="-2.24002">
        <ele>0.40000000596046</ele>
        <time>2019-06-13T08:45:47.000Z</time>
      </trkpt>
      <trkpt lat="47.30497" lon="-2.24014">
        <ele>0.80000001192093</ele>
        <time>2019-06-13T08:45:50.000Z</time>
      </trkpt>
      <trkpt lat="47.30494" lon="-2.24018">
        <ele>1.2000000476837</ele>
        <time>2019-06-13T08:45:51.000Z</time>
      </trkpt>
      <trkpt lat="47.30492" lon="-2.24022">
        <ele>1.7999999523163</ele>
        <time>2019-06-13T08:45:52.000Z</time>
      </trkpt>
      <trkpt lat="47.3049" lon="-2.24025">
        <ele>2.2000000476837</ele>
        <time>2019-06-13T08:45:53.000Z</time>
      </trkpt>
      <trkpt lat="47.30487" lon="-2.24027">
        <ele>2.5999999046326</ele>
        <time>2019-06-13T08:45:54.000Z</time>
      </trkpt>
      <trkpt lat="47.30482" lon="-2.24032">
        <ele>2.5999999046326</ele>
        <time>2019-06-13T08:45:56.000Z</time>
      </trkpt>
      <trkpt lat="47.3048" lon="-2.24034">
        <ele>3.2000000476837</ele>
        <time>2019-06-13T08:45:57.000Z</time>
      </trkpt>
      <trkpt lat="47.30478" lon="-2.24035">
        <ele>3.5999999046326</ele>
        <time>2019-06-13T08:45:58.000Z</time>
      </trkpt>
      <trkpt lat="47.30476" lon="-2.24037">
        <ele>4</ele>
        <time>2019-06-13T08:45:59.000Z</time>
      </trkpt>
      <trkpt lat="47.30473" lon="-2.24038">
        <ele>4.4000000953674</ele>
        <time>2019-06-13T08:46:00.000Z</time>
      </trkpt>
      <trkpt lat="47.30471" lon="-2.24039">
        <ele>4.8000001907349</ele>
        <time>2019-06-13T08:46:01.000Z</time>
      </trkpt>
      <trkpt lat="47.30462" lon="-2.24046">
        <ele>5.1999998092651</ele>
        <time>2019-06-13T08:46:04.000Z</time>
      </trkpt>
      <trkpt lat="47.30458" lon="-2.24049">
        <ele>5.5999999046326</ele>
        <time>2019-06-13T08:46:05.000Z</time>
      </trkpt>
      <trkpt lat="47.30455" lon="-2.24051">
        <ele>6</ele>
        <time>2019-06-13T08:46:06.000Z</time>
      </trkpt>
      <trkpt lat="47.30452" lon="-2.24054">
        <ele>6.4000000953674</ele>
        <time>2019-06-13T08:46:07.000Z</time>
      </trkpt>
      <trkpt lat="47.3045" lon="-2.24057">
        <ele>6.8000001907349</ele>
        <time>2019-06-13T08:46:08.000Z</time>
      </trkpt>
      <trkpt lat="47.30438" lon="-2.24071">
        <ele>6.8000001907349</ele>
        <time>2019-06-13T08:46:12.000Z</time>
      </trkpt>
      <trkpt lat="47.30425" lon="-2.24086">
        <ele>7.4000000953674</ele>
        <time>2019-06-13T08:46:17.000Z</time>
      </trkpt>
      <trkpt lat="47.30422" lon="-2.24089">
        <ele>7.8000001907349</ele>
        <time>2019-06-13T08:46:18.000Z</time>
      </trkpt>
      <trkpt lat="47.3042" lon="-2.24092">
        <ele>8.1999998092651</ele>
        <time>2019-06-13T08:46:19.000Z</time>
      </trkpt>
      <trkpt lat="47.30417" lon="-2.24094">
        <ele>8.8000001907349</ele>
        <time>2019-06-13T08:46:20.000Z</time>
      </trkpt>
      <trkpt lat="47.30414" lon="-2.24098">
        <ele>9.1999998092651</ele>
        <time>2019-06-13T08:46:21.000Z</time>
      </trkpt>
      <trkpt lat="47.304" lon="-2.24112">
        <ele>9.6000003814697</ele>
        <time>2019-06-13T08:46:24.000Z</time>
      </trkpt>
      <trkpt lat="47.30396" lon="-2.24116">
        <ele>10</ele>
        <time>2019-06-13T08:46:25.000Z</time>
      </trkpt>
      <trkpt lat="47.30393" lon="-2.2412">
        <ele>10.39999961853</ele>
        <time>2019-06-13T08:46:26.000Z</time>
      </trkpt>
      <trkpt lat="47.30389" lon="-2.24123">
        <ele>10.800000190735</ele>
        <time>2019-06-13T08:46:27.000Z</time>
      </trkpt>
      <trkpt lat="47.30385" lon="-2.24126">
        <ele>11.199999809265</ele>
        <time>2019-06-13T08:46:28.000Z</time>
      </trkpt>
      <trkpt lat="47.30377" lon="-2.24134">
        <ele>11.199999809265</ele>
        <time>2019-06-13T08:46:30.000Z</time>
      </trkpt>
      <trkpt lat="47.30372" lon="-2.2414">
        <ele>11.199999809265</ele>
        <time>2019-06-13T08:46:31.000Z</time>
      </trkpt>
      <trkpt lat="47.30354" lon="-2.24172">
        <ele>11.199999809265</ele>
        <time>2019-06-13T08:46:36.000Z</time>
      </trkpt>
      <trkpt lat="47.30349" lon="-2.24193">
        <ele>11.199999809265</ele>
        <time>2019-06-13T08:46:39.000Z</time>
      </trkpt>
      <trkpt lat="47.30357" lon="-2.24209">
        <ele>11.199999809265</ele>
        <time>2019-06-13T08:46:42.000Z</time>
      </trkpt>
      <trkpt lat="47.30361" lon="-2.24214">
        <ele>11.199999809265</ele>
        <time>2019-06-13T08:46:43.000Z</time>
      </trkpt>
      <trkpt lat="47.30369" lon="-2.24223">
        <ele>11.199999809265</ele>
        <time>2019-06-13T08:46:45.000Z</time>
      </trkpt>
      <trkpt lat="47.30377" lon="-2.24231">
        <ele>11.199999809265</ele>
        <time>2019-06-13T08:46:47.000Z</time>
      </trkpt>
      <trkpt lat="47.30389" lon="-2.24245">
        <ele>11.199999809265</ele>
        <time>2019-06-13T08:46:50.000Z</time>
      </trkpt>
      <trkpt lat="47.30397" lon="-2.24254">
        <ele>11.199999809265</ele>
        <time>2019-06-13T08:46:52.000Z</time>
      </trkpt>
      <trkpt lat="47.30415" lon="-2.2427">
        <ele>11.199999809265</ele>
        <time>2019-06-13T08:46:56.000Z</time>
      </trkpt>
      <trkpt lat="47.30425" lon="-2.24275">
        <ele>11.199999809265</ele>
        <time>2019-06-13T08:46:58.000Z</time>
      </trkpt>
      <trkpt lat="47.30437" lon="-2.24277">
        <ele>11.199999809265</ele>
        <time>2019-06-13T08:47:00.000Z</time>
      </trkpt>
      <trkpt lat="47.30454" lon="-2.2428">
        <ele>11.199999809265</ele>
        <time>2019-06-13T08:47:03.000Z</time>
      </trkpt>
      <trkpt lat="47.3046" lon="-2.24282">
        <ele>11.199999809265</ele>
        <time>2019-06-13T08:47:04.000Z</time>
      </trkpt>
      <trkpt lat="47.30481" lon="-2.24292">
        <ele>11.199999809265</ele>
        <time>2019-06-13T08:47:08.000Z</time>
      </trkpt>
      <trkpt lat="47.30486" lon="-2.24295">
        <ele>11.199999809265</ele>
        <time>2019-06-13T08:47:09.000Z</time>
      </trkpt>
      <trkpt lat="47.30504" lon="-2.2431">
        <ele>11.199999809265</ele>
        <time>2019-06-13T08:47:13.000Z</time>
      </trkpt>
      <trkpt lat="47.30536" lon="-2.24344">
        <ele>11.199999809265</ele>
        <time>2019-06-13T08:47:20.000Z</time>
      </trkpt>
      <trkpt lat="47.30569" lon="-2.24378">
        <ele>11.199999809265</ele>
        <time>2019-06-13T08:47:27.000Z</time>
      </trkpt>
      <trkpt lat="47.30603" lon="-2.24412">
        <ele>11.199999809265</ele>
        <time>2019-06-13T08:47:34.000Z</time>
      </trkpt>
      <trkpt lat="47.30614" lon="-2.24418">
        <ele>10.800000190735</ele>
        <time>2019-06-13T08:47:36.000Z</time>
      </trkpt>
      <trkpt lat="47.30619" lon="-2.2442">
        <ele>10.39999961853</ele>
        <time>2019-06-13T08:47:37.000Z</time>
      </trkpt>
      <trkpt lat="47.30624" lon="-2.24422">
        <ele>10</ele>
        <time>2019-06-13T08:47:38.000Z</time>
      </trkpt>
      <trkpt lat="47.30628" lon="-2.24425">
        <ele>9.6000003814697</ele>
        <time>2019-06-13T08:47:39.000Z</time>
      </trkpt>
      <trkpt lat="47.30632" lon="-2.24429">
        <ele>9.1999998092651</ele>
        <time>2019-06-13T08:47:40.000Z</time>
      </trkpt>
      <trkpt lat="47.30635" lon="-2.24445">
        <ele>9.1999998092651</ele>
        <time>2019-06-13T08:47:42.000Z</time>
      </trkpt>
      <trkpt lat="47.30632" lon="-2.24472">
        <ele>8.6000003814697</ele>
        <time>2019-06-13T08:47:45.000Z</time>
      </trkpt>
      <trkpt lat="47.30631" lon="-2.24482">
        <ele>8.1999998092651</ele>
        <time>2019-06-13T08:47:46.000Z</time>
      </trkpt>
      <trkpt lat="47.30629" lon="-2.24492">
        <ele>7.8000001907349</ele>
        <time>2019-06-13T08:47:47.000Z</time>
      </trkpt>
      <trkpt lat="47.30628" lon="-2.24503">
        <ele>7.1999998092651</ele>
        <time>2019-06-13T08:47:48.000Z</time>
      </trkpt>
      <trkpt lat="47.30626" lon="-2.24514">
        <ele>6.8000001907349</ele>
        <time>2019-06-13T08:47:49.000Z</time>
      </trkpt>
      <trkpt lat="47.30623" lon="-2.24536">
        <ele>6.8000001907349</ele>
        <time>2019-06-13T08:47:51.000Z</time>
      </trkpt>
      <trkpt lat="47.30621" lon="-2.24548">
        <ele>6.4000000953674</ele>
        <time>2019-06-13T08:47:52.000Z</time>
      </trkpt>
      <trkpt lat="47.3062" lon="-2.24559">
        <ele>6</ele>
        <time>2019-06-13T08:47:53.000Z</time>
      </trkpt>
      <trkpt lat="47.30619" lon="-2.24571">
        <ele>5.5999999046326</ele>
        <time>2019-06-13T08:47:54.000Z</time>
      </trkpt>
      <trkpt lat="47.30617" lon="-2.24582">
        <ele>5.1999998092651</ele>
        <time>2019-06-13T08:47:55.000Z</time>
      </trkpt>
      <trkpt lat="47.30616" lon="-2.24594">
        <ele>4.5999999046326</ele>
        <time>2019-06-13T08:47:56.000Z</time>
      </trkpt>
      <trkpt lat="47.30616" lon="-2.24605">
        <ele>4</ele>
        <time>2019-06-13T08:47:57.000Z</time>
      </trkpt>
      <trkpt lat="47.30617" lon="-2.24617">
        <ele>3.4000000953674</ele>
        <time>2019-06-13T08:47:58.000Z</time>
      </trkpt>
      <trkpt lat="47.30618" lon="-2.24629">
        <ele>2.7999999523163</ele>
        <time>2019-06-13T08:47:59.000Z</time>
      </trkpt>
      <trkpt lat="47.3062" lon="-2.24639">
        <ele>2.2000000476837</ele>
        <time>2019-06-13T08:48:00.000Z</time>
      </trkpt>
      <trkpt lat="47.30626" lon="-2.2466">
        <ele>2.2000000476837</ele>
        <time>2019-06-13T08:48:02.000Z</time>
      </trkpt>
      <trkpt lat="47.3063" lon="-2.2467">
        <ele>2.2000000476837</ele>
        <time>2019-06-13T08:48:03.000Z</time>
      </trkpt>
      <trkpt lat="47.30645" lon="-2.24722">
        <ele>1.7999999523163</ele>
        <time>2019-06-13T08:48:08.000Z</time>
      </trkpt>
      <trkpt lat="47.30648" lon="-2.24732">
        <ele>1.3999999761581</ele>
        <time>2019-06-13T08:48:09.000Z</time>
      </trkpt>
      <trkpt lat="47.30651" lon="-2.24741">
        <ele>1</ele>
        <time>2019-06-13T08:48:10.000Z</time>
      </trkpt>
      <trkpt lat="47.30655" lon="-2.24749">
        <ele>0.60000002384186</ele>
        <time>2019-06-13T08:48:11.000Z</time>
      </trkpt>
      <trkpt lat="47.30658" lon="-2.24758">
        <ele>0.20000000298023</ele>
        <time>2019-06-13T08:48:12.000Z</time>
      </trkpt>
      <trkpt lat="47.30667" lon="-2.24774">
        <ele>0.20000000298023</ele>
        <time>2019-06-13T08:48:14.000Z</time>
      </trkpt>
      <trkpt lat="47.30672" lon="-2.24781">
        <ele>0.20000000298023</ele>
        <time>2019-06-13T08:48:15.000Z</time>
      </trkpt>
      <trkpt lat="47.30684" lon="-2.24793">
        <ele>0.20000000298023</ele>
        <time>2019-06-13T08:48:17.000Z</time>
      </trkpt>
      <trkpt lat="47.30699" lon="-2.24812">
        <ele>0.20000000298023</ele>
        <time>2019-06-13T08:48:20.000Z</time>
      </trkpt>
      <trkpt lat="47.30708" lon="-2.24826">
        <ele>0.20000000298023</ele>
        <time>2019-06-13T08:48:22.000Z</time>
      </trkpt>
      <trkpt lat="47.3072" lon="-2.24848">
        <ele>0.20000000298023</ele>
        <time>2019-06-13T08:48:25.000Z</time>
      </trkpt>
      <trkpt lat="47.30741" lon="-2.24878">
        <ele>0.20000000298023</ele>
        <time>2019-06-13T08:48:29.000Z</time>
      </trkpt>
      <trkpt lat="47.30747" lon="-2.24883">
        <ele>0.20000000298023</ele>
        <time>2019-06-13T08:48:30.000Z</time>
      </trkpt>
      <trkpt lat="47.30767" lon="-2.24893">
        <ele>0.20000000298023</ele>
        <time>2019-06-13T08:48:33.000Z</time>
      </trkpt>
      <trkpt lat="47.30773" lon="-2.24896">
        <ele>0.20000000298023</ele>
        <time>2019-06-13T08:48:34.000Z</time>
      </trkpt>
      <trkpt lat="47.30814" lon="-2.24915">
        <ele>-0.20000000298023</ele>
        <time>2019-06-13T08:48:40.000Z</time>
      </trkpt>
      <trkpt lat="47.3082" lon="-2.24916">
        <ele>-1</ele>
        <time>2019-06-13T08:48:41.000Z</time>
      </trkpt>
      <trkpt lat="47.30827" lon="-2.24917">
        <ele>-1.3999999761581</ele>
        <time>2019-06-13T08:48:42.000Z</time>
      </trkpt>
      <trkpt lat="47.30833" lon="-2.24916">
        <ele>-1.7999999523163</ele>
        <time>2019-06-13T08:48:43.000Z</time>
      </trkpt>
      <trkpt lat="47.30848" lon="-2.24908">
        <ele>-1.7999999523163</ele>
        <time>2019-06-13T08:48:45.000Z</time>
      </trkpt>
      <trkpt lat="47.30872" lon="-2.24879">
        <ele>-1.7999999523163</ele>
        <time>2019-06-13T08:48:49.000Z</time>
      </trkpt>
      <trkpt lat="47.30913" lon="-2.24822">
        <ele>-1.7999999523163</ele>
        <time>2019-06-13T08:48:56.000Z</time>
      </trkpt>
      <trkpt lat="47.30955" lon="-2.2477">
        <ele>-1.7999999523163</ele>
        <time>2019-06-13T08:49:03.000Z</time>
      </trkpt>
      <trkpt lat="47.30983" lon="-2.24753">
        <ele>-1.7999999523163</ele>
        <time>2019-06-13T08:49:07.000Z</time>
      </trkpt>
      <trkpt lat="47.31007" lon="-2.24752">
        <ele>-1.7999999523163</ele>
        <time>2019-06-13T08:49:10.000Z</time>
      </trkpt>
      <trkpt lat="47.31015" lon="-2.24753">
        <ele>-1.7999999523163</ele>
        <time>2019-06-13T08:49:11.000Z</time>
      </trkpt>
      <trkpt lat="47.31054" lon="-2.24767">
        <ele>-1.7999999523163</ele>
        <time>2019-06-13T08:49:16.000Z</time>
      </trkpt>
      <trkpt lat="47.311" lon="-2.24774">
        <ele>-1.7999999523163</ele>
        <time>2019-06-13T08:49:22.000Z</time>
      </trkpt>
      <trkpt lat="47.3112" lon="-2.24775">
        <ele>-1.7999999523163</ele>
        <time>2019-06-13T08:49:25.000Z</time>
      </trkpt>
      <trkpt lat="47.31126" lon="-2.24779">
        <ele>-1.7999999523163</ele>
        <time>2019-06-13T08:49:26.000Z</time>
      </trkpt>
      <trkpt lat="47.31133" lon="-2.24795">
        <ele>-1.7999999523163</ele>
        <time>2019-06-13T08:49:28.000Z</time>
      </trkpt>
      <trkpt lat="47.31139" lon="-2.24826">
        <ele>-1.7999999523163</ele>
        <time>2019-06-13T08:49:31.000Z</time>
      </trkpt>
      <trkpt lat="47.31141" lon="-2.24836">
        <ele>-1.7999999523163</ele>
        <time>2019-06-13T08:49:32.000Z</time>
      </trkpt>
      <trkpt lat="47.31154" lon="-2.24907">
        <ele>-1.7999999523163</ele>
        <time>2019-06-13T08:49:39.000Z</time>
      </trkpt>
      <trkpt lat="47.31165" lon="-2.24982">
        <ele>-1.7999999523163</ele>
        <time>2019-06-13T08:49:47.000Z</time>
      </trkpt>
      <trkpt lat="47.31182" lon="-2.24993">
        <ele>-1.7999999523163</ele>
        <time>2019-06-13T08:49:50.000Z</time>
      </trkpt>
      <trkpt lat="47.31198" lon="-2.25012">
        <ele>-1.7999999523163</ele>
        <time>2019-06-13T08:49:53.000Z</time>
      </trkpt>
      <trkpt lat="47.31208" lon="-2.25039">
        <ele>-1.7999999523163</ele>
        <time>2019-06-13T08:49:56.000Z</time>
      </trkpt>
      <trkpt lat="47.31212" lon="-2.25049">
        <ele>-1.7999999523163</ele>
        <time>2019-06-13T08:49:57.000Z</time>
      </trkpt>
      <trkpt lat="47.31232" lon="-2.25102">
        <ele>-1.7999999523163</ele>
        <time>2019-06-13T08:50:03.000Z</time>
      </trkpt>
      <trkpt lat="47.3124" lon="-2.2512">
        <ele>-1.7999999523163</ele>
        <time>2019-06-13T08:50:05.000Z</time>
      </trkpt>
      <trkpt lat="47.31254" lon="-2.25145">
        <ele>-1.7999999523163</ele>
        <time>2019-06-13T08:50:08.000Z</time>
      </trkpt>
      <trkpt lat="47.3129" lon="-2.25208">
        <ele>-1.7999999523163</ele>
        <time>2019-06-13T08:50:16.000Z</time>
      </trkpt>
      <trkpt lat="47.31321" lon="-2.25246">
        <ele>-1.7999999523163</ele>
        <time>2019-06-13T08:50:22.000Z</time>
      </trkpt>
      <trkpt lat="47.31336" lon="-2.25265">
        <ele>-1.7999999523163</ele>
        <time>2019-06-13T08:50:25.000Z</time>
      </trkpt>
      <trkpt lat="47.31343" lon="-2.2528">
        <ele>-1.7999999523163</ele>
        <time>2019-06-13T08:50:27.000Z</time>
      </trkpt>
      <trkpt lat="47.31345" lon="-2.25288">
        <ele>-1.7999999523163</ele>
        <time>2019-06-13T08:50:28.000Z</time>
      </trkpt>
      <trkpt lat="47.31347" lon="-2.25326">
        <ele>-1.7999999523163</ele>
        <time>2019-06-13T08:50:32.000Z</time>
      </trkpt>
      <trkpt lat="47.31355" lon="-2.25373">
        <ele>-1.7999999523163</ele>
        <time>2019-06-13T08:50:37.000Z</time>
      </trkpt>
      <trkpt lat="47.31368" lon="-2.25394">
        <ele>-1.7999999523163</ele>
        <time>2019-06-13T08:50:40.000Z</time>
      </trkpt>
      <trkpt lat="47.31379" lon="-2.25404">
        <ele>-1.7999999523163</ele>
        <time>2019-06-13T08:50:42.000Z</time>
      </trkpt>
      <trkpt lat="47.3139" lon="-2.25413">
        <ele>-1.7999999523163</ele>
        <time>2019-06-13T08:50:44.000Z</time>
      </trkpt>
      <trkpt lat="47.31394" lon="-2.25419">
        <ele>-1.7999999523163</ele>
        <time>2019-06-13T08:50:45.000Z</time>
      </trkpt>
      <trkpt lat="47.31414" lon="-2.25457">
        <ele>-1.7999999523163</ele>
        <time>2019-06-13T08:50:50.000Z</time>
      </trkpt>
      <trkpt lat="47.31433" lon="-2.25505">
        <ele>-1.7999999523163</ele>
        <time>2019-06-13T08:50:56.000Z</time>
      </trkpt>
      <trkpt lat="47.3145" lon="-2.25534">
        <ele>-1.7999999523163</ele>
        <time>2019-06-13T08:51:00.000Z</time>
      </trkpt>
      <trkpt lat="47.31465" lon="-2.25551">
        <ele>-1.7999999523163</ele>
        <time>2019-06-13T08:51:03.000Z</time>
      </trkpt>
      <trkpt lat="47.31476" lon="-2.2556">
        <ele>-1.7999999523163</ele>
        <time>2019-06-13T08:51:05.000Z</time>
      </trkpt>
      <trkpt lat="47.315" lon="-2.25589">
        <ele>-1.7999999523163</ele>
        <time>2019-06-13T08:51:10.000Z</time>
      </trkpt>
      <trkpt lat="47.31504" lon="-2.25597">
        <ele>-1.7999999523163</ele>
        <time>2019-06-13T08:51:11.000Z</time>
      </trkpt>
      <trkpt lat="47.31515" lon="-2.25627">
        <ele>-1.7999999523163</ele>
        <time>2019-06-13T08:51:15.000Z</time>
      </trkpt>
      <trkpt lat="47.31518" lon="-2.25644">
        <ele>-1.7999999523163</ele>
        <time>2019-06-13T08:51:17.000Z</time>
      </trkpt>
      <trkpt lat="47.31521" lon="-2.2566">
        <ele>-1.7999999523163</ele>
        <time>2019-06-13T08:51:19.000Z</time>
      </trkpt>
      <trkpt lat="47.3153" lon="-2.2569">
        <ele>-1.7999999523163</ele>
        <time>2019-06-13T08:51:23.000Z</time>
      </trkpt>
      <trkpt lat="47.31537" lon="-2.25722">
        <ele>-1.7999999523163</ele>
        <time>2019-06-13T08:51:27.000Z</time>
      </trkpt>
      <trkpt lat="47.31539" lon="-2.25737">
        <ele>-1.7999999523163</ele>
        <time>2019-06-13T08:51:29.000Z</time>
      </trkpt>
      <trkpt lat="47.31543" lon="-2.25772">
        <ele>-1.7999999523163</ele>
        <time>2019-06-13T08:51:33.000Z</time>
      </trkpt>
      <trkpt lat="47.31544" lon="-2.25781">
        <ele>-1.7999999523163</ele>
        <time>2019-06-13T08:51:34.000Z</time>
      </trkpt>
      <trkpt lat="47.31552" lon="-2.25836">
        <ele>-1.7999999523163</ele>
        <time>2019-06-13T08:51:40.000Z</time>
      </trkpt>
      <trkpt lat="47.31553" lon="-2.25853">
        <ele>-1.7999999523163</ele>
        <time>2019-06-13T08:51:42.000Z</time>
      </trkpt>
      <trkpt lat="47.31548" lon="-2.25879">
        <ele>-1.7999999523163</ele>
        <time>2019-06-13T08:51:45.000Z</time>
      </trkpt>
      <trkpt lat="47.31538" lon="-2.25897">
        <ele>-1.7999999523163</ele>
        <time>2019-06-13T08:51:48.000Z</time>
      </trkpt>
      <trkpt lat="47.31536" lon="-2.25901">
        <ele>-1.7999999523163</ele>
        <time>2019-06-13T08:51:49.000Z</time>
      </trkpt>
      <trkpt lat="47.31533" lon="-2.25906">
        <ele>-1.7999999523163</ele>
        <time>2019-06-13T08:51:50.000Z</time>
      </trkpt>
      <trkpt lat="47.31517" lon="-2.25933">
        <ele>-1.7999999523163</ele>
        <time>2019-06-13T08:51:54.000Z</time>
      </trkpt>
      <trkpt lat="47.31499" lon="-2.25971">
        <ele>-1.7999999523163</ele>
        <time>2019-06-13T08:51:59.000Z</time>
      </trkpt>
      <trkpt lat="47.31495" lon="-2.25978">
        <ele>-1.7999999523163</ele>
        <time>2019-06-13T08:52:00.000Z</time>
      </trkpt>
      <trkpt lat="47.31491" lon="-2.25994">
        <ele>-1.7999999523163</ele>
        <time>2019-06-13T08:52:03.000Z</time>
      </trkpt>
      <trkpt lat="47.31494" lon="-2.26012">
        <ele>-1.7999999523163</ele>
        <time>2019-06-13T08:52:08.000Z</time>
      </trkpt>
      <trkpt lat="47.31496" lon="-2.2602">
        <ele>-2.2000000476837</ele>
        <time>2019-06-13T08:52:13.000Z</time>
      </trkpt>
      <trkpt lat="47.31497" lon="-2.26019">
        <ele>-2.5999999046326</ele>
        <time>2019-06-13T08:52:14.000Z</time>
      </trkpt>
      <trkpt lat="47.31494" lon="-2.26025">
        <ele>-3.7999999523163</ele>
        <time>2019-06-13T09:08:44.000Z</time>
      </trkpt>
      <trkpt lat="47.31492" lon="-2.26026">
        <ele>-3.7999999523163</ele>
        <time>2019-06-13T09:08:45.000Z</time>
      </trkpt>
      <trkpt lat="47.31486" lon="-2.26023">
        <ele>-3.7999999523163</ele>
        <time>2019-06-13T09:08:50.000Z</time>
      </trkpt>
      <trkpt lat="47.31484" lon="-2.26035">
        <ele>-3.7999999523163</ele>
        <time>2019-06-13T09:08:54.000Z</time>
      </trkpt>
      <trkpt lat="47.3148" lon="-2.26043">
        <ele>-3.7999999523163</ele>
        <time>2019-06-13T09:08:57.000Z</time>
      </trkpt>
      <trkpt lat="47.31478" lon="-2.26045">
        <ele>-3.7999999523163</ele>
        <time>2019-06-13T09:08:58.000Z</time>
      </trkpt>
      <trkpt lat="47.31475" lon="-2.26047">
        <ele>-3.7999999523163</ele>
        <time>2019-06-13T09:08:59.000Z</time>
      </trkpt>
      <trkpt lat="47.31464" lon="-2.26048">
        <ele>-3.7999999523163</ele>
        <time>2019-06-13T09:09:04.000Z</time>
      </trkpt>
      <trkpt lat="47.31454" lon="-2.26048">
        <ele>-3.4000000953674</ele>
        <time>2019-06-13T09:09:07.000Z</time>
      </trkpt>
      <trkpt lat="47.31452" lon="-2.26052">
        <ele>-2.7999999523163</ele>
        <time>2019-06-13T09:09:08.000Z</time>
      </trkpt>
      <trkpt lat="47.31448" lon="-2.26054">
        <ele>-2.4000000953674</ele>
        <time>2019-06-13T09:09:09.000Z</time>
      </trkpt>
      <trkpt lat="47.31445" lon="-2.26058">
        <ele>-2</ele>
        <time>2019-06-13T09:09:10.000Z</time>
      </trkpt>
      <trkpt lat="47.31441" lon="-2.26063">
        <ele>-1.6000000238419</ele>
        <time>2019-06-13T09:09:11.000Z</time>
      </trkpt>
      <trkpt lat="47.31435" lon="-2.26074">
        <ele>-1.6000000238419</ele>
        <time>2019-06-13T09:09:13.000Z</time>
      </trkpt>
      <trkpt lat="47.31419" lon="-2.26115">
        <ele>-1.6000000238419</ele>
        <time>2019-06-13T09:09:19.000Z</time>
      </trkpt>
      <trkpt lat="47.31412" lon="-2.26128">
        <ele>-1.6000000238419</ele>
        <time>2019-06-13T09:09:21.000Z</time>
      </trkpt>
      <trkpt lat="47.31399" lon="-2.26142">
        <ele>-1.6000000238419</ele>
        <time>2019-06-13T09:09:24.000Z</time>
      </trkpt>
      <trkpt lat="47.31395" lon="-2.26145">
        <ele>-1.6000000238419</ele>
        <time>2019-06-13T09:09:25.000Z</time>
      </trkpt>
      <trkpt lat="47.31375" lon="-2.26159">
        <ele>-1.6000000238419</ele>
        <time>2019-06-13T09:09:30.000Z</time>
      </trkpt>
      <trkpt lat="47.31372" lon="-2.26156">
        <ele>-1.6000000238419</ele>
        <time>2019-06-13T09:09:31.000Z</time>
      </trkpt>
      <trkpt lat="47.3137" lon="-2.26145">
        <ele>-1.6000000238419</ele>
        <time>2019-06-13T09:09:33.000Z</time>
      </trkpt>
      <trkpt lat="47.31363" lon="-2.26118">
        <ele>-1.6000000238419</ele>
        <time>2019-06-13T09:09:38.000Z</time>
      </trkpt>
      <trkpt lat="47.31353" lon="-2.26095">
        <ele>-1.6000000238419</ele>
        <time>2019-06-13T09:09:43.000Z</time>
      </trkpt>
      <trkpt lat="47.31349" lon="-2.26087">
        <ele>-1.2000000476837</ele>
        <time>2019-06-13T09:09:45.000Z</time>
      </trkpt>
      <trkpt lat="47.31347" lon="-2.26083">
        <ele>-0.80000001192093</ele>
        <time>2019-06-13T09:09:46.000Z</time>
      </trkpt>
      <trkpt lat="47.31344" lon="-2.26078">
        <ele>-0.40000000596046</ele>
        <time>2019-06-13T09:09:47.000Z</time>
      </trkpt>
      <trkpt lat="47.31342" lon="-2.26074">
        <ele>0.40000000596046</ele>
        <time>2019-06-13T09:09:48.000Z</time>
      </trkpt>
      <trkpt lat="47.31338" lon="-2.26064">
        <ele>0.40000000596046</ele>
        <time>2019-06-13T09:09:50.000Z</time>
      </trkpt>
      <trkpt lat="47.31333" lon="-2.26046">
        <ele>0.40000000596046</ele>
        <time>2019-06-13T09:09:55.000Z</time>
      </trkpt>
      <trkpt lat="47.31327" lon="-2.26032">
        <ele>0.40000000596046</ele>
        <time>2019-06-13T09:09:59.000Z</time>
      </trkpt>
      <trkpt lat="47.3132" lon="-2.26012">
        <ele>0.40000000596046</ele>
        <time>2019-06-13T09:10:04.000Z</time>
      </trkpt>
      <trkpt lat="47.31317" lon="-2.26009">
        <ele>0.40000000596046</ele>
        <time>2019-06-13T09:10:05.000Z</time>
      </trkpt>
      <trkpt lat="47.31304" lon="-2.26003">
        <ele>0.40000000596046</ele>
        <time>2019-06-13T09:10:08.000Z</time>
      </trkpt>
      <trkpt lat="47.31293" lon="-2.25998">
        <ele>0.40000000596046</ele>
        <time>2019-06-13T09:10:12.000Z</time>
      </trkpt>
      <trkpt lat="47.31279" lon="-2.26008">
        <ele>0.40000000596046</ele>
        <time>2019-06-13T09:10:17.000Z</time>
      </trkpt>
      <trkpt lat="47.31259" lon="-2.2602">
        <ele>0.40000000596046</ele>
        <time>2019-06-13T09:10:22.000Z</time>
      </trkpt>
      <trkpt lat="47.31242" lon="-2.26032">
        <ele>0.40000000596046</ele>
        <time>2019-06-13T09:10:27.000Z</time>
      </trkpt>
      <trkpt lat="47.3122" lon="-2.26043">
        <ele>0.40000000596046</ele>
        <time>2019-06-13T09:10:32.000Z</time>
      </trkpt>
      <trkpt lat="47.31199" lon="-2.26056">
        <ele>0.40000000596046</ele>
        <time>2019-06-13T09:10:37.000Z</time>
      </trkpt>
      <trkpt lat="47.31193" lon="-2.2606">
        <ele>2.8</ele>
        <time>2019-06-13T09:10:39.000Z</time>
      </trkpt>
      <trkpt lat="47.31189" lon="-2.26062">
        <ele>-0.40000000596046</ele>
        <time>2019-06-13T09:10:40.000Z</time>
      </trkpt>
      <trkpt lat="47.31185" lon="-2.2606">
        <ele>-0.80000001192093</ele>
        <time>2019-06-13T09:10:41.000Z</time>
      </trkpt>
      <trkpt lat="47.31181" lon="-2.26057">
        <ele>-1.3999999761581</ele>
        <time>2019-06-13T09:10:42.000Z</time>
      </trkpt>
      <trkpt lat="47.31178" lon="-2.26054">
        <ele>-1.7999999523163</ele>
        <time>2019-06-13T09:10:43.000Z</time>
      </trkpt>
      <trkpt lat="47.3117" lon="-2.26056">
        <ele>-1.7999999523163</ele>
        <time>2019-06-13T09:10:45.000Z</time>
      </trkpt>
      <trkpt lat="47.31167" lon="-2.26073">
        <ele>-1.7999999523163</ele>
        <time>2019-06-13T09:10:48.000Z</time>
      </trkpt>
      <trkpt lat="47.31161" lon="-2.26104">
        <ele>-1.7999999523163</ele>
        <time>2019-06-13T09:10:53.000Z</time>
      </trkpt>
      <trkpt lat="47.31157" lon="-2.2611">
        <ele>-1.7999999523163</ele>
        <time>2019-06-13T09:10:55.000Z</time>
      </trkpt>
      <trkpt lat="47.31157" lon="-2.26113">
        <ele>-1.7999999523163</ele>
        <time>2019-06-13T09:10:56.000Z</time>
      </trkpt>
      <trkpt lat="47.3116" lon="-2.26121">
        <ele>-1.7999999523163</ele>
        <time>2019-06-13T09:11:00.000Z</time>
      </trkpt>
      <trkpt lat="47.31159" lon="-2.26129">
        <ele>-1.7999999523163</ele>
        <time>2019-06-13T09:11:04.000Z</time>
      </trkpt>
      <trkpt lat="47.31158" lon="-2.26132">
        <ele>-1.7999999523163</ele>
        <time>2019-06-13T09:11:05.000Z</time>
      </trkpt>
      <trkpt lat="47.31153" lon="-2.26141">
        <ele>-1.7999999523163</ele>
        <time>2019-06-13T09:11:08.000Z</time>
      </trkpt>
      <trkpt lat="47.31149" lon="-2.26143">
        <ele>-1.7999999523163</ele>
        <time>2019-06-13T09:11:10.000Z</time>
      </trkpt>
      <trkpt lat="47.31146" lon="-2.26147">
        <ele>-1.7999999523163</ele>
        <time>2019-06-13T09:11:12.000Z</time>
      </trkpt>
      <trkpt lat="47.31146" lon="-2.2615">
        <ele>-2.2000000476837</ele>
        <time>2019-06-13T09:11:14.000Z</time>
      </trkpt>
      <trkpt lat="47.31146" lon="-2.26151">
        <ele>-2.5999999046326</ele>
        <time>2019-06-13T09:11:15.000Z</time>
      </trkpt>
      <trkpt lat="47.31147" lon="-2.26153">
        <ele>-3</ele>
        <time>2019-06-13T09:11:16.000Z</time>
      </trkpt>
      <trkpt lat="47.31147" lon="-2.26155">
        <ele>-3.4000000953674</ele>
        <time>2019-06-13T09:11:17.000Z</time>
      </trkpt>
      <trkpt lat="47.31147" lon="-2.26156">
        <ele>-3.7999999523163</ele>
        <time>2019-06-13T09:11:18.000Z</time>
      </trkpt>
      <trkpt lat="47.31145" lon="-2.2616">
        <ele>-3.7999999523163</ele>
        <time>2019-06-13T09:11:20.000Z</time>
      </trkpt>
      <trkpt lat="47.31143" lon="-2.26162">
        <ele>-3.7999999523163</ele>
        <time>2019-06-13T09:11:21.000Z</time>
      </trkpt>
      <trkpt lat="47.31139" lon="-2.26169">
        <ele>-3.7999999523163</ele>
        <time>2019-06-13T09:11:25.000Z</time>
      </trkpt>
      <trkpt lat="47.31139" lon="-2.26171">
        <ele>-3.7999999523163</ele>
        <time>2019-06-13T09:11:26.000Z</time>
      </trkpt>
      <trkpt lat="47.31135" lon="-2.2618">
        <ele>-3.7999999523163</ele>
        <time>2019-06-13T09:11:29.000Z</time>
      </trkpt>
      <trkpt lat="47.31133" lon="-2.26183">
        <ele>-3.7999999523163</ele>
        <time>2019-06-13T09:11:30.000Z</time>
      </trkpt>
      <trkpt lat="47.31121" lon="-2.26187">
        <ele>-3.7999999523163</ele>
        <time>2019-06-13T09:11:34.000Z</time>
      </trkpt>
      <trkpt lat="47.31117" lon="-2.2619">
        <ele>-3.7999999523163</ele>
        <time>2019-06-13T09:11:38.000Z</time>
      </trkpt>
      <trkpt lat="47.31111" lon="-2.26199">
        <ele>-3.7999999523163</ele>
        <time>2019-06-13T09:11:43.000Z</time>
      </trkpt>
      <trkpt lat="47.31109" lon="-2.26201">
        <ele>-3.7999999523163</ele>
        <time>2019-06-13T09:11:44.000Z</time>
      </trkpt>
      <trkpt lat="47.31097" lon="-2.26209">
        <ele>-3.7999999523163</ele>
        <time>2019-06-13T09:11:48.000Z</time>
      </trkpt>
      <trkpt lat="47.31084" lon="-2.26223">
        <ele>-3.7999999523163</ele>
        <time>2019-06-13T09:11:53.000Z</time>
      </trkpt>
      <trkpt lat="47.31077" lon="-2.26232">
        <ele>-3.7999999523163</ele>
        <time>2019-06-13T09:11:57.000Z</time>
      </trkpt>
      <trkpt lat="47.31074" lon="-2.26234">
        <ele>-3.7999999523163</ele>
        <time>2019-06-13T09:11:58.000Z</time>
      </trkpt>
      <trkpt lat="47.31068" lon="-2.26237">
        <ele>-3.7999999523163</ele>
        <time>2019-06-13T09:12:01.000Z</time>
      </trkpt>
      <trkpt lat="47.31061" lon="-2.26237">
        <ele>-3.7999999523163</ele>
        <time>2019-06-13T09:12:04.000Z</time>
      </trkpt>
      <trkpt lat="47.31045" lon="-2.26247">
        <ele>-3.7999999523163</ele>
        <time>2019-06-13T09:12:09.000Z</time>
      </trkpt>
      <trkpt lat="47.31034" lon="-2.26264">
        <ele>-3.7999999523163</ele>
        <time>2019-06-13T09:12:16.000Z</time>
      </trkpt>
      <trkpt lat="47.31031" lon="-2.26288">
        <ele>-3.7999999523163</ele>
        <time>2019-06-13T09:12:21.000Z</time>
      </trkpt>
      <trkpt lat="47.31024" lon="-2.26317">
        <ele>-3.7999999523163</ele>
        <time>2019-06-13T09:12:26.000Z</time>
      </trkpt>
      <trkpt lat="47.31018" lon="-2.26333">
        <ele>-3.7999999523163</ele>
        <time>2019-06-13T09:12:29.000Z</time>
      </trkpt>
      <trkpt lat="47.31018" lon="-2.26336">
        <ele>-3.7999999523163</ele>
        <time>2019-06-13T09:12:30.000Z</time>
      </trkpt>
      <trkpt lat="47.31011" lon="-2.26363">
        <ele>-3.7999999523163</ele>
        <time>2019-06-13T09:12:35.000Z</time>
      </trkpt>
      <trkpt lat="47.31005" lon="-2.26393">
        <ele>-3.7999999523163</ele>
        <time>2019-06-13T09:12:41.000Z</time>
      </trkpt>
      <trkpt lat="47.31002" lon="-2.26422">
        <ele>-3.7999999523163</ele>
        <time>2019-06-13T09:12:47.000Z</time>
      </trkpt>
      <trkpt lat="47.31001" lon="-2.26426">
        <ele>-3.7999999523163</ele>
        <time>2019-06-13T09:12:48.000Z</time>
      </trkpt>
      <trkpt lat="47.30996" lon="-2.26448">
        <ele>-3.7999999523163</ele>
        <time>2019-06-13T09:12:54.000Z</time>
      </trkpt>
      <trkpt lat="47.30996" lon="-2.26453">
        <ele>-3.7999999523163</ele>
        <time>2019-06-13T09:12:55.000Z</time>
      </trkpt>
      <trkpt lat="47.30995" lon="-2.26467">
        <ele>-3.7999999523163</ele>
        <time>2019-06-13T09:12:58.000Z</time>
      </trkpt>
      <trkpt lat="47.30988" lon="-2.26496">
        <ele>-3.7999999523163</ele>
        <time>2019-06-13T09:13:03.000Z</time>
      </trkpt>
      <trkpt lat="47.30981" lon="-2.26533">
        <ele>-3.7999999523163</ele>
        <time>2019-06-13T09:13:09.000Z</time>
      </trkpt>
      <trkpt lat="47.30979" lon="-2.26546">
        <ele>-3.7999999523163</ele>
        <time>2019-06-13T09:13:11.000Z</time>
      </trkpt>
      <trkpt lat="47.30973" lon="-2.26577">
        <ele>-3.7999999523163</ele>
        <time>2019-06-13T09:13:16.000Z</time>
      </trkpt>
      <trkpt lat="47.30965" lon="-2.26605">
        <ele>-3.7999999523163</ele>
        <time>2019-06-13T09:13:22.000Z</time>
      </trkpt>
      <trkpt lat="47.30956" lon="-2.26614">
        <ele>-3.7999999523163</ele>
        <time>2019-06-13T09:13:26.000Z</time>
      </trkpt>
      <trkpt lat="47.30954" lon="-2.2662">
        <ele>-3.7999999523163</ele>
        <time>2019-06-13T09:13:27.000Z</time>
      </trkpt>
      <trkpt lat="47.30952" lon="-2.26632">
        <ele>-3.7999999523163</ele>
        <time>2019-06-13T09:13:29.000Z</time>
      </trkpt>
      <trkpt lat="47.30944" lon="-2.26676">
        <ele>-3.7999999523163</ele>
        <time>2019-06-13T09:13:35.000Z</time>
      </trkpt>
      <trkpt lat="47.30936" lon="-2.26714">
        <ele>-3.7999999523163</ele>
        <time>2019-06-13T09:13:40.000Z</time>
      </trkpt>
      <trkpt lat="47.30935" lon="-2.26721">
        <ele>-3.7999999523163</ele>
        <time>2019-06-13T09:13:41.000Z</time>
      </trkpt>
      <trkpt lat="47.3093" lon="-2.26744">
        <ele>-3.4000000953674</ele>
        <time>2019-06-13T09:13:44.000Z</time>
      </trkpt>
      <trkpt lat="47.30929" lon="-2.26752">
        <ele>-3</ele>
        <time>2019-06-13T09:13:45.000Z</time>
      </trkpt>
      <trkpt lat="47.30927" lon="-2.26759">
        <ele>-2.5999999046326</ele>
        <time>2019-06-13T09:13:46.000Z</time>
      </trkpt>
      <trkpt lat="47.30926" lon="-2.26767">
        <ele>-2.2000000476837</ele>
        <time>2019-06-13T09:13:47.000Z</time>
      </trkpt>
      <trkpt lat="47.30925" lon="-2.26774">
        <ele>-1.7999999523163</ele>
        <time>2019-06-13T09:13:48.000Z</time>
      </trkpt>
      <trkpt lat="47.30913" lon="-2.26836">
        <ele>-1.7999999523163</ele>
        <time>2019-06-13T09:13:56.000Z</time>
      </trkpt>
      <trkpt lat="47.30907" lon="-2.26864">
        <ele>-1.7999999523163</ele>
        <time>2019-06-13T09:14:00.000Z</time>
      </trkpt>
      <trkpt lat="47.30904" lon="-2.26876">
        <ele>-1.7999999523163</ele>
        <time>2019-06-13T09:14:02.000Z</time>
      </trkpt>
      <trkpt lat="47.30897" lon="-2.26893">
        <ele>-1.7999999523163</ele>
        <time>2019-06-13T09:14:05.000Z</time>
      </trkpt>
      <trkpt lat="47.30892" lon="-2.26903">
        <ele>-1.7999999523163</ele>
        <time>2019-06-13T09:14:07.000Z</time>
      </trkpt>
      <trkpt lat="47.30889" lon="-2.26908">
        <ele>-1.7999999523163</ele>
        <time>2019-06-13T09:14:08.000Z</time>
      </trkpt>
      <trkpt lat="47.30882" lon="-2.26916">
        <ele>-1.7999999523163</ele>
        <time>2019-06-13T09:14:10.000Z</time>
      </trkpt>
      <trkpt lat="47.30874" lon="-2.26923">
        <ele>-1.7999999523163</ele>
        <time>2019-06-13T09:14:12.000Z</time>
      </trkpt>
      <trkpt lat="47.30849" lon="-2.26934">
        <ele>-1.7999999523163</ele>
        <time>2019-06-13T09:14:17.000Z</time>
      </trkpt>
      <trkpt lat="47.30833" lon="-2.26943">
        <ele>-1.7999999523163</ele>
        <time>2019-06-13T09:14:20.000Z</time>
      </trkpt>
      <trkpt lat="47.30824" lon="-2.26952">
        <ele>-1.7999999523163</ele>
        <time>2019-06-13T09:14:22.000Z</time>
      </trkpt>
      <trkpt lat="47.30812" lon="-2.26978">
        <ele>-1.7999999523163</ele>
        <time>2019-06-13T09:14:26.000Z</time>
      </trkpt>
      <trkpt lat="47.30807" lon="-2.26998">
        <ele>-1.7999999523163</ele>
        <time>2019-06-13T09:14:29.000Z</time>
      </trkpt>
      <trkpt lat="47.30805" lon="-2.27012">
        <ele>-1.7999999523163</ele>
        <time>2019-06-13T09:14:31.000Z</time>
      </trkpt>
      <trkpt lat="47.30796" lon="-2.27063">
        <ele>-1.7999999523163</ele>
        <time>2019-06-13T09:14:38.000Z</time>
      </trkpt>
      <trkpt lat="47.30794" lon="-2.2707">
        <ele>-1.3999999761581</ele>
        <time>2019-06-13T09:14:39.000Z</time>
      </trkpt>
      <trkpt lat="47.30793" lon="-2.27077">
        <ele>-1</ele>
        <time>2019-06-13T09:14:40.000Z</time>
      </trkpt>
      <trkpt lat="47.30792" lon="-2.27083">
        <ele>-0.40000000596046</ele>
        <time>2019-06-13T09:14:41.000Z</time>
      </trkpt>
      <trkpt lat="47.30791" lon="-2.27089">
        <ele>8.6</ele>
        <time>2019-06-13T09:14:42.000Z</time>
      </trkpt>
      <trkpt lat="47.30789" lon="-2.27095">
        <ele>1</ele>
        <time>2019-06-13T09:14:43.000Z</time>
      </trkpt>
      <trkpt lat="47.30787" lon="-2.27101">
        <ele>1.6000000238419</ele>
        <time>2019-06-13T09:14:44.000Z</time>
      </trkpt>
      <trkpt lat="47.30784" lon="-2.27106">
        <ele>2.2000000476837</ele>
        <time>2019-06-13T09:14:45.000Z</time>
      </trkpt>
      <trkpt lat="47.30781" lon="-2.27112">
        <ele>2.7999999523163</ele>
        <time>2019-06-13T09:14:46.000Z</time>
      </trkpt>
      <trkpt lat="47.30771" lon="-2.27125">
        <ele>2.7999999523163</ele>
        <time>2019-06-13T09:14:49.000Z</time>
      </trkpt>
      <trkpt lat="47.30767" lon="-2.27129">
        <ele>2.7999999523163</ele>
        <time>2019-06-13T09:14:50.000Z</time>
      </trkpt>
      <trkpt lat="47.30763" lon="-2.27133">
        <ele>2.7999999523163</ele>
        <time>2019-06-13T09:14:51.000Z</time>
      </trkpt>
      <trkpt lat="47.30753" lon="-2.27139">
        <ele>2.7999999523163</ele>
        <time>2019-06-13T09:14:53.000Z</time>
      </trkpt>
      <trkpt lat="47.30743" lon="-2.27144">
        <ele>2.7999999523163</ele>
        <time>2019-06-13T09:14:55.000Z</time>
      </trkpt>
      <trkpt lat="47.30727" lon="-2.27147">
        <ele>3.2000000476837</ele>
        <time>2019-06-13T09:14:58.000Z</time>
      </trkpt>
      <trkpt lat="47.30721" lon="-2.27149">
        <ele>3.5999999046326</ele>
        <time>2019-06-13T09:14:59.000Z</time>
      </trkpt>
      <trkpt lat="47.30716" lon="-2.27151">
        <ele>4</ele>
        <time>2019-06-13T09:15:00.000Z</time>
      </trkpt>
      <trkpt lat="47.30711" lon="-2.27153">
        <ele>4.4000000953674</ele>
        <time>2019-06-13T09:15:01.000Z</time>
      </trkpt>
      <trkpt lat="47.30706" lon="-2.27156">
        <ele>4.8000001907349</ele>
        <time>2019-06-13T09:15:02.000Z</time>
      </trkpt>
      <trkpt lat="47.30688" lon="-2.27171">
        <ele>4.8000001907349</ele>
        <time>2019-06-13T09:15:06.000Z</time>
      </trkpt>
      <trkpt lat="47.3068" lon="-2.27181">
        <ele>4.8000001907349</ele>
        <time>2019-06-13T09:15:08.000Z</time>
      </trkpt>
      <trkpt lat="47.3067" lon="-2.272">
        <ele>4.8000001907349</ele>
        <time>2019-06-13T09:15:11.000Z</time>
      </trkpt>
      <trkpt lat="47.30648" lon="-2.27241">
        <ele>4.8000001907349</ele>
        <time>2019-06-13T09:15:17.000Z</time>
      </trkpt>
      <trkpt lat="47.30616" lon="-2.27275">
        <ele>4.8000001907349</ele>
        <time>2019-06-13T09:15:23.000Z</time>
      </trkpt>
      <trkpt lat="47.30598" lon="-2.27291">
        <ele>4.4000000953674</ele>
        <time>2019-06-13T09:15:26.000Z</time>
      </trkpt>
      <trkpt lat="47.30592" lon="-2.27296">
        <ele>4</ele>
        <time>2019-06-13T09:15:27.000Z</time>
      </trkpt>
      <trkpt lat="47.30586" lon="-2.27302">
        <ele>3.5999999046326</ele>
        <time>2019-06-13T09:15:28.000Z</time>
      </trkpt>
      <trkpt lat="47.3058" lon="-2.27307">
        <ele>3.2000000476837</ele>
        <time>2019-06-13T09:15:29.000Z</time>
      </trkpt>
      <trkpt lat="47.30574" lon="-2.27312">
        <ele>2.7999999523163</ele>
        <time>2019-06-13T09:15:30.000Z</time>
      </trkpt>
      <trkpt lat="47.30562" lon="-2.27325">
        <ele>2.7999999523163</ele>
        <time>2019-06-13T09:15:32.000Z</time>
      </trkpt>
      <trkpt lat="47.30548" lon="-2.27359">
        <ele>2.7999999523163</ele>
        <time>2019-06-13T09:15:36.000Z</time>
      </trkpt>
      <trkpt lat="47.30547" lon="-2.27388">
        <ele>2.2000000476837</ele>
        <time>2019-06-13T09:15:39.000Z</time>
      </trkpt>
      <trkpt lat="47.30548" lon="-2.27397">
        <ele>1.7999999523163</ele>
        <time>2019-06-13T09:15:40.000Z</time>
      </trkpt>
      <trkpt lat="47.3055" lon="-2.27406">
        <ele>1.3999999761581</ele>
        <time>2019-06-13T09:15:41.000Z</time>
      </trkpt>
      <trkpt lat="47.30553" lon="-2.27414">
        <ele>1</ele>
        <time>2019-06-13T09:15:42.000Z</time>
      </trkpt>
      <trkpt lat="47.30556" lon="-2.27423">
        <ele>0.60000002384186</ele>
        <time>2019-06-13T09:15:43.000Z</time>
      </trkpt>
      <trkpt lat="47.3056" lon="-2.27431">
        <ele>0.60000002384186</ele>
        <time>2019-06-13T09:15:44.000Z</time>
      </trkpt>
      <trkpt lat="47.30563" lon="-2.27439">
        <ele>4.1</ele>
        <time>2019-06-13T09:15:45.000Z</time>
      </trkpt>
      <trkpt lat="47.30567" lon="-2.27448">
        <ele>-0.40000000596046</ele>
        <time>2019-06-13T09:15:46.000Z</time>
      </trkpt>
      <trkpt lat="47.30571" lon="-2.27456">
        <ele>-0.80000001192093</ele>
        <time>2019-06-13T09:15:47.000Z</time>
      </trkpt>
      <trkpt lat="47.30574" lon="-2.27464">
        <ele>-1.3999999761581</ele>
        <time>2019-06-13T09:15:48.000Z</time>
      </trkpt>
      <trkpt lat="47.30578" lon="-2.27472">
        <ele>-1.7999999523163</ele>
        <time>2019-06-13T09:15:49.000Z</time>
      </trkpt>
      <trkpt lat="47.30582" lon="-2.27481">
        <ele>-1.7999999523163</ele>
        <time>2019-06-13T09:15:50.000Z</time>
      </trkpt>
      <trkpt lat="47.30595" lon="-2.27515">
        <ele>-1.7999999523163</ele>
        <time>2019-06-13T09:15:54.000Z</time>
      </trkpt>
      <trkpt lat="47.30597" lon="-2.27524">
        <ele>-1.7999999523163</ele>
        <time>2019-06-13T09:15:55.000Z</time>
      </trkpt>
      <trkpt lat="47.30596" lon="-2.27532">
        <ele>-1.7999999523163</ele>
        <time>2019-06-13T09:15:56.000Z</time>
      </trkpt>
      <trkpt lat="47.30584" lon="-2.27547">
        <ele>-1.7999999523163</ele>
        <time>2019-06-13T09:15:59.000Z</time>
      </trkpt>
      <trkpt lat="47.30579" lon="-2.27551">
        <ele>-1.7999999523163</ele>
        <time>2019-06-13T09:16:00.000Z</time>
      </trkpt>
      <trkpt lat="47.30555" lon="-2.27566">
        <ele>-1.7999999523163</ele>
        <time>2019-06-13T09:16:04.000Z</time>
      </trkpt>
      <trkpt lat="47.30543" lon="-2.27571">
        <ele>-1.7999999523163</ele>
        <time>2019-06-13T09:16:06.000Z</time>
      </trkpt>
      <trkpt lat="47.30531" lon="-2.27574">
        <ele>-1.7999999523163</ele>
        <time>2019-06-13T09:16:08.000Z</time>
      </trkpt>
      <trkpt lat="47.30519" lon="-2.27578">
        <ele>-1.7999999523163</ele>
        <time>2019-06-13T09:16:10.000Z</time>
      </trkpt>
      <trkpt lat="47.30508" lon="-2.27586">
        <ele>-1.7999999523163</ele>
        <time>2019-06-13T09:16:12.000Z</time>
      </trkpt>
      <trkpt lat="47.30482" lon="-2.27612">
        <ele>-1.7999999523163</ele>
        <time>2019-06-13T09:16:17.000Z</time>
      </trkpt>
      <trkpt lat="47.30472" lon="-2.27622">
        <ele>-1.3999999761581</ele>
        <time>2019-06-13T09:16:19.000Z</time>
      </trkpt>
      <trkpt lat="47.30467" lon="-2.27627">
        <ele>-1</ele>
        <time>2019-06-13T09:16:20.000Z</time>
      </trkpt>
      <trkpt lat="47.30461" lon="-2.27632">
        <ele>-0.60000002384186</ele>
        <time>2019-06-13T09:16:21.000Z</time>
      </trkpt>
      <trkpt lat="47.30455" lon="-2.27637">
        <ele>0.20000000298023</ele>
        <time>2019-06-13T09:16:22.000Z</time>
      </trkpt>
      <trkpt lat="47.30443" lon="-2.27645">
        <ele>0.20000000298023</ele>
        <time>2019-06-13T09:16:24.000Z</time>
      </trkpt>
      <trkpt lat="47.30415" lon="-2.27665">
        <ele>0.20000000298023</ele>
        <time>2019-06-13T09:16:29.000Z</time>
      </trkpt>
      <trkpt lat="47.3041" lon="-2.2767">
        <ele>0.20000000298023</ele>
        <time>2019-06-13T09:16:30.000Z</time>
      </trkpt>
      <trkpt lat="47.30405" lon="-2.27694">
        <ele>0.20000000298023</ele>
        <time>2019-06-13T09:16:33.000Z</time>
      </trkpt>
      <trkpt lat="47.30417" lon="-2.27731">
        <ele>0.20000000298023</ele>
        <time>2019-06-13T09:16:37.000Z</time>
      </trkpt>
      <trkpt lat="47.30427" lon="-2.27747">
        <ele>0.20000000298023</ele>
        <time>2019-06-13T09:16:39.000Z</time>
      </trkpt>
      <trkpt lat="47.30439" lon="-2.27763">
        <ele>0.20000000298023</ele>
        <time>2019-06-13T09:16:41.000Z</time>
      </trkpt>
      <trkpt lat="47.30468" lon="-2.27798">
        <ele>-0.60000002384186</ele>
        <time>2019-06-13T09:16:46.000Z</time>
      </trkpt>
      <trkpt lat="47.30473" lon="-2.27807">
        <ele>-1.2000000476837</ele>
        <time>2019-06-13T09:16:47.000Z</time>
      </trkpt>
      <trkpt lat="47.30476" lon="-2.27817">
        <ele>-1.6000000238419</ele>
        <time>2019-06-13T09:16:48.000Z</time>
      </trkpt>
      <trkpt lat="47.30478" lon="-2.27829">
        <ele>-2</ele>
        <time>2019-06-13T09:16:49.000Z</time>
      </trkpt>
      <trkpt lat="47.30473" lon="-2.27861">
        <ele>-2</ele>
        <time>2019-06-13T09:16:52.000Z</time>
      </trkpt>
      <trkpt lat="47.30461" lon="-2.27885">
        <ele>-2</ele>
        <time>2019-06-13T09:16:55.000Z</time>
      </trkpt>
      <trkpt lat="47.30441" lon="-2.279">
        <ele>-2</ele>
        <time>2019-06-13T09:16:59.000Z</time>
      </trkpt>
      <trkpt lat="47.3043" lon="-2.27899">
        <ele>-2</ele>
        <time>2019-06-13T09:17:01.000Z</time>
      </trkpt>
      <trkpt lat="47.30419" lon="-2.27899">
        <ele>-2</ele>
        <time>2019-06-13T09:17:03.000Z</time>
      </trkpt>
      <trkpt lat="47.30408" lon="-2.27899">
        <ele>-2</ele>
        <time>2019-06-13T09:17:05.000Z</time>
      </trkpt>
      <trkpt lat="47.30385" lon="-2.279">
        <ele>-2</ele>
        <time>2019-06-13T09:17:09.000Z</time>
      </trkpt>
      <trkpt lat="47.30344" lon="-2.27905">
        <ele>-2</ele>
        <time>2019-06-13T09:17:16.000Z</time>
      </trkpt>
      <trkpt lat="47.3031" lon="-2.2791">
        <ele>-2</ele>
        <time>2019-06-13T09:17:22.000Z</time>
      </trkpt>
      <trkpt lat="47.30272" lon="-2.27913">
        <ele>-2</ele>
        <time>2019-06-13T09:17:28.000Z</time>
      </trkpt>
      <trkpt lat="47.30235" lon="-2.27917">
        <ele>-2</ele>
        <time>2019-06-13T09:17:34.000Z</time>
      </trkpt>
      <trkpt lat="47.30204" lon="-2.27918">
        <ele>-1.6000000238419</ele>
        <time>2019-06-13T09:17:39.000Z</time>
      </trkpt>
      <trkpt lat="47.30198" lon="-2.27918">
        <ele>-1.2000000476837</ele>
        <time>2019-06-13T09:17:40.000Z</time>
      </trkpt>
      <trkpt lat="47.30192" lon="-2.27918">
        <ele>-0.80000001192093</ele>
        <time>2019-06-13T09:17:41.000Z</time>
      </trkpt>
      <trkpt lat="47.30187" lon="-2.27918">
        <ele>-0.40000000596046</ele>
        <time>2019-06-13T09:17:42.000Z</time>
      </trkpt>
      <trkpt lat="47.30181" lon="-2.27918">
        <ele>7.6</ele>
        <time>2019-06-13T09:17:43.000Z</time>
      </trkpt>
      <trkpt lat="47.30175" lon="-2.27918">
        <ele>7.8</ele>
        <time>2019-06-13T09:17:44.000Z</time>
      </trkpt>
      <trkpt lat="47.30163" lon="-2.27921">
        <ele>8.4</ele>
        <time>2019-06-13T09:17:46.000Z</time>
      </trkpt>
      <trkpt lat="47.30151" lon="-2.27923">
        <ele>8.9</ele>
        <time>2019-06-13T09:17:48.000Z</time>
      </trkpt>
      <trkpt lat="47.30133" lon="-2.27931">
        <ele>9.5</ele>
        <time>2019-06-13T09:17:51.000Z</time>
      </trkpt>
      <trkpt lat="47.30112" lon="-2.27945">
        <ele>9.1</ele>
        <time>2019-06-13T09:17:55.000Z</time>
      </trkpt>
      <trkpt lat="47.30108" lon="-2.2795">
        <ele>0.60000002384186</ele>
        <time>2019-06-13T09:17:56.000Z</time>
      </trkpt>
      <trkpt lat="47.30103" lon="-2.27954">
        <ele>1</ele>
        <time>2019-06-13T09:17:57.000Z</time>
      </trkpt>
      <trkpt lat="47.30098" lon="-2.27959">
        <ele>1.3999999761581</ele>
        <time>2019-06-13T09:17:58.000Z</time>
      </trkpt>
      <trkpt lat="47.30093" lon="-2.27963">
        <ele>1.7999999523163</ele>
        <time>2019-06-13T09:17:59.000Z</time>
      </trkpt>
      <trkpt lat="47.30088" lon="-2.27968">
        <ele>2.2000000476837</ele>
        <time>2019-06-13T09:18:00.000Z</time>
      </trkpt>
      <trkpt lat="47.30073" lon="-2.2798">
        <ele>2.2000000476837</ele>
        <time>2019-06-13T09:18:03.000Z</time>
      </trkpt>
      <trkpt lat="47.30037" lon="-2.28009">
        <ele>2.2000000476837</ele>
        <time>2019-06-13T09:18:10.000Z</time>
      </trkpt>
      <trkpt lat="47.30005" lon="-2.28027">
        <ele>2.2000000476837</ele>
        <time>2019-06-13T09:18:16.000Z</time>
      </trkpt>
      <trkpt lat="47.29996" lon="-2.28034">
        <ele>2.2000000476837</ele>
        <time>2019-06-13T09:18:18.000Z</time>
      </trkpt>
      <trkpt lat="47.29993" lon="-2.28039">
        <ele>2.5999999046326</ele>
        <time>2019-06-13T09:18:19.000Z</time>
      </trkpt>
      <trkpt lat="47.2999" lon="-2.28045">
        <ele>3</ele>
        <time>2019-06-13T09:18:20.000Z</time>
      </trkpt>
      <trkpt lat="47.29988" lon="-2.28052">
        <ele>3.4000000953674</ele>
        <time>2019-06-13T09:18:21.000Z</time>
      </trkpt>
      <trkpt lat="47.29986" lon="-2.28059">
        <ele>4</ele>
        <time>2019-06-13T09:18:22.000Z</time>
      </trkpt>
      <trkpt lat="47.29984" lon="-2.28066">
        <ele>4.4000000953674</ele>
        <time>2019-06-13T09:18:23.000Z</time>
      </trkpt>
      <trkpt lat="47.29981" lon="-2.2808">
        <ele>4.4000000953674</ele>
        <time>2019-06-13T09:18:25.000Z</time>
      </trkpt>
      <trkpt lat="47.29974" lon="-2.281">
        <ele>4.4000000953674</ele>
        <time>2019-06-13T09:18:28.000Z</time>
      </trkpt>
      <trkpt lat="47.29965" lon="-2.2813">
        <ele>4.4000000953674</ele>
        <time>2019-06-13T09:18:32.000Z</time>
      </trkpt>
      <trkpt lat="47.29963" lon="-2.28137">
        <ele>4.8000001907349</ele>
        <time>2019-06-13T09:18:33.000Z</time>
      </trkpt>
      <trkpt lat="47.2996" lon="-2.28143">
        <ele>5.1999998092651</ele>
        <time>2019-06-13T09:18:34.000Z</time>
      </trkpt>
      <trkpt lat="47.29958" lon="-2.2815">
        <ele>5.5999999046326</ele>
        <time>2019-06-13T09:18:35.000Z</time>
      </trkpt>
      <trkpt lat="47.29955" lon="-2.28156">
        <ele>6</ele>
        <time>2019-06-13T09:18:36.000Z</time>
      </trkpt>
      <trkpt lat="47.29953" lon="-2.28163">
        <ele>6.4000000953674</ele>
        <time>2019-06-13T09:18:37.000Z</time>
      </trkpt>
      <trkpt lat="47.29951" lon="-2.2817">
        <ele>6.4000000953674</ele>
        <time>2019-06-13T09:18:38.000Z</time>
      </trkpt>
      <trkpt lat="47.29949" lon="-2.28177">
        <ele>6.4000000953674</ele>
        <time>2019-06-13T09:18:39.000Z</time>
      </trkpt>
      <trkpt lat="47.29946" lon="-2.28192">
        <ele>6.4000000953674</ele>
        <time>2019-06-13T09:18:41.000Z</time>
      </trkpt>
      <trkpt lat="47.29945" lon="-2.28206">
        <ele>6.4000000953674</ele>
        <time>2019-06-13T09:18:43.000Z</time>
      </trkpt>
      <trkpt lat="47.29948" lon="-2.28225">
        <ele>6.4000000953674</ele>
        <time>2019-06-13T09:18:46.000Z</time>
      </trkpt>
      <trkpt lat="47.29949" lon="-2.28231">
        <ele>6.4000000953674</ele>
        <time>2019-06-13T09:18:47.000Z</time>
      </trkpt>
      <trkpt lat="47.2995" lon="-2.28238">
        <ele>6.4000000953674</ele>
        <time>2019-06-13T09:18:48.000Z</time>
      </trkpt>
      <trkpt lat="47.29953" lon="-2.28265">
        <ele>6.4000000953674</ele>
        <time>2019-06-13T09:18:51.000Z</time>
      </trkpt>
      <trkpt lat="47.29953" lon="-2.28274">
        <ele>6.4000000953674</ele>
        <time>2019-06-13T09:18:52.000Z</time>
      </trkpt>
      <trkpt lat="47.29952" lon="-2.28301">
        <ele>6.4000000953674</ele>
        <time>2019-06-13T09:18:55.000Z</time>
      </trkpt>
      <trkpt lat="47.29953" lon="-2.28311">
        <ele>6.4000000953674</ele>
        <time>2019-06-13T09:18:56.000Z</time>
      </trkpt>
      <trkpt lat="47.29952" lon="-2.28321">
        <ele>6.4000000953674</ele>
        <time>2019-06-13T09:18:57.000Z</time>
      </trkpt>
      <trkpt lat="47.2995" lon="-2.28339">
        <ele>6.4000000953674</ele>
        <time>2019-06-13T09:18:59.000Z</time>
      </trkpt>
      <trkpt lat="47.2995" lon="-2.28385">
        <ele>6.4000000953674</ele>
        <time>2019-06-13T09:19:04.000Z</time>
      </trkpt>
      <trkpt lat="47.29951" lon="-2.28395">
        <ele>6.4000000953674</ele>
        <time>2019-06-13T09:19:05.000Z</time>
      </trkpt>
      <trkpt lat="47.29951" lon="-2.28405">
        <ele>6.4000000953674</ele>
        <time>2019-06-13T09:19:06.000Z</time>
      </trkpt>
      <trkpt lat="47.29946" lon="-2.28418">
        <ele>6.4000000953674</ele>
        <time>2019-06-13T09:19:08.000Z</time>
      </trkpt>
      <trkpt lat="47.2994" lon="-2.28428">
        <ele>6.4000000953674</ele>
        <time>2019-06-13T09:19:10.000Z</time>
      </trkpt>
      <trkpt lat="47.29938" lon="-2.28445">
        <ele>6.4000000953674</ele>
        <time>2019-06-13T09:19:12.000Z</time>
      </trkpt>
      <trkpt lat="47.29938" lon="-2.28462">
        <ele>6.4000000953674</ele>
        <time>2019-06-13T09:19:14.000Z</time>
      </trkpt>
      <trkpt lat="47.29939" lon="-2.2847">
        <ele>6.4000000953674</ele>
        <time>2019-06-13T09:19:15.000Z</time>
      </trkpt>
      <trkpt lat="47.2994" lon="-2.28478">
        <ele>6</ele>
        <time>2019-06-13T09:19:16.000Z</time>
      </trkpt>
      <trkpt lat="47.2994" lon="-2.28487">
        <ele>5.5999999046326</ele>
        <time>2019-06-13T09:19:17.000Z</time>
      </trkpt>
      <trkpt lat="47.29938" lon="-2.28496">
        <ele>5.1999998092651</ele>
        <time>2019-06-13T09:19:18.000Z</time>
      </trkpt>
      <trkpt lat="47.29935" lon="-2.28505">
        <ele>4.8000001907349</ele>
        <time>2019-06-13T09:19:19.000Z</time>
      </trkpt>
      <trkpt lat="47.29933" lon="-2.28515">
        <ele>4.4000000953674</ele>
        <time>2019-06-13T09:19:20.000Z</time>
      </trkpt>
      <trkpt lat="47.29929" lon="-2.28523">
        <ele>4.4000000953674</ele>
        <time>2019-06-13T09:19:21.000Z</time>
      </trkpt>
      <trkpt lat="47.29927" lon="-2.28531">
        <ele>4.4000000953674</ele>
        <time>2019-06-13T09:19:22.000Z</time>
      </trkpt>
      <trkpt lat="47.2993" lon="-2.28548">
        <ele>4.4000000953674</ele>
        <time>2019-06-13T09:19:24.000Z</time>
      </trkpt>
      <trkpt lat="47.2994" lon="-2.28566">
        <ele>4.4000000953674</ele>
        <time>2019-06-13T09:19:27.000Z</time>
      </trkpt>
      <trkpt lat="47.29938" lon="-2.28588">
        <ele>4.4000000953674</ele>
        <time>2019-06-13T09:19:30.000Z</time>
      </trkpt>
      <trkpt lat="47.29935" lon="-2.28603">
        <ele>4.4000000953674</ele>
        <time>2019-06-13T09:19:32.000Z</time>
      </trkpt>
      <trkpt lat="47.29932" lon="-2.28619">
        <ele>4.4000000953674</ele>
        <time>2019-06-13T09:19:34.000Z</time>
      </trkpt>
      <trkpt lat="47.29931" lon="-2.28626">
        <ele>4.4000000953674</ele>
        <time>2019-06-13T09:19:35.000Z</time>
      </trkpt>
      <trkpt lat="47.29927" lon="-2.28647">
        <ele>4.4000000953674</ele>
        <time>2019-06-13T09:19:38.000Z</time>
      </trkpt>
      <trkpt lat="47.29923" lon="-2.28662">
        <ele>4.4000000953674</ele>
        <time>2019-06-13T09:19:40.000Z</time>
      </trkpt>
      <trkpt lat="47.2992" lon="-2.28676">
        <ele>4.4000000953674</ele>
        <time>2019-06-13T09:19:42.000Z</time>
      </trkpt>
      <trkpt lat="47.29918" lon="-2.28699">
        <ele>4.4000000953674</ele>
        <time>2019-06-13T09:19:45.000Z</time>
      </trkpt>
      <trkpt lat="47.29914" lon="-2.28719">
        <ele>4.4000000953674</ele>
        <time>2019-06-13T09:19:47.000Z</time>
      </trkpt>
      <trkpt lat="47.29906" lon="-2.28749">
        <ele>4</ele>
        <time>2019-06-13T09:19:50.000Z</time>
      </trkpt>
      <trkpt lat="47.29904" lon="-2.28757">
        <ele>3.5999999046326</ele>
        <time>2019-06-13T09:19:51.000Z</time>
      </trkpt>
      <trkpt lat="47.29902" lon="-2.28765">
        <ele>3.2000000476837</ele>
        <time>2019-06-13T09:19:52.000Z</time>
      </trkpt>
      <trkpt lat="47.29901" lon="-2.28772">
        <ele>2.7999999523163</ele>
        <time>2019-06-13T09:19:53.000Z</time>
      </trkpt>
      <trkpt lat="47.299" lon="-2.2878">
        <ele>2.4000000953674</ele>
        <time>2019-06-13T09:19:54.000Z</time>
      </trkpt>
      <trkpt lat="47.29896" lon="-2.28813">
        <ele>2.4000000953674</ele>
        <time>2019-06-13T09:19:58.000Z</time>
      </trkpt>
      <trkpt lat="47.29895" lon="-2.28822">
        <ele>2.4000000953674</ele>
        <time>2019-06-13T09:19:59.000Z</time>
      </trkpt>
      <trkpt lat="47.29893" lon="-2.28838">
        <ele>2.4000000953674</ele>
        <time>2019-06-13T09:20:01.000Z</time>
      </trkpt>
      <trkpt lat="47.2989" lon="-2.28855">
        <ele>2.4000000953674</ele>
        <time>2019-06-13T09:20:03.000Z</time>
      </trkpt>
      <trkpt lat="47.29881" lon="-2.28888">
        <ele>2.4000000953674</ele>
        <time>2019-06-13T09:20:07.000Z</time>
      </trkpt>
      <trkpt lat="47.29877" lon="-2.28902">
        <ele>2.4000000953674</ele>
        <time>2019-06-13T09:20:09.000Z</time>
      </trkpt>
      <trkpt lat="47.29876" lon="-2.28918">
        <ele>2.4000000953674</ele>
        <time>2019-06-13T09:20:11.000Z</time>
      </trkpt>
      <trkpt lat="47.29876" lon="-2.28926">
        <ele>2.4000000953674</ele>
        <time>2019-06-13T09:20:12.000Z</time>
      </trkpt>
      <trkpt lat="47.29877" lon="-2.28934">
        <ele>2.4000000953674</ele>
        <time>2019-06-13T09:20:13.000Z</time>
      </trkpt>
      <trkpt lat="47.2989" lon="-2.28943">
        <ele>2.4000000953674</ele>
        <time>2019-06-13T09:20:16.000Z</time>
      </trkpt>
      <trkpt lat="47.29895" lon="-2.28943">
        <ele>2.4000000953674</ele>
        <time>2019-06-13T09:20:17.000Z</time>
      </trkpt>
      <trkpt lat="47.29912" lon="-2.28948">
        <ele>2.4000000953674</ele>
        <time>2019-06-13T09:20:20.000Z</time>
      </trkpt>
      <trkpt lat="47.29923" lon="-2.28952">
        <ele>2.4000000953674</ele>
        <time>2019-06-13T09:20:22.000Z</time>
      </trkpt>
      <trkpt lat="47.29931" lon="-2.28969">
        <ele>2.4000000953674</ele>
        <time>2019-06-13T09:20:25.000Z</time>
      </trkpt>
      <trkpt lat="47.29935" lon="-2.28975">
        <ele>2.4000000953674</ele>
        <time>2019-06-13T09:20:26.000Z</time>
      </trkpt>
      <trkpt lat="47.2995" lon="-2.29001">
        <ele>2.4000000953674</ele>
        <time>2019-06-13T09:20:30.000Z</time>
      </trkpt>
      <trkpt lat="47.2997" lon="-2.29036">
        <ele>2.4000000953674</ele>
        <time>2019-06-13T09:20:35.000Z</time>
      </trkpt>
      <trkpt lat="47.29979" lon="-2.2905">
        <ele>2</ele>
        <time>2019-06-13T09:20:37.000Z</time>
      </trkpt>
      <trkpt lat="47.29983" lon="-2.29058">
        <ele>1.6000000238419</ele>
        <time>2019-06-13T09:20:38.000Z</time>
      </trkpt>
      <trkpt lat="47.29987" lon="-2.29065">
        <ele>1.2000000476837</ele>
        <time>2019-06-13T09:20:39.000Z</time>
      </trkpt>
      <trkpt lat="47.29991" lon="-2.29072">
        <ele>0.80000001192093</ele>
        <time>2019-06-13T09:20:40.000Z</time>
      </trkpt>
      <trkpt lat="47.29995" lon="-2.2908">
        <ele>0.40000000596046</ele>
        <time>2019-06-13T09:20:41.000Z</time>
      </trkpt>
      <trkpt lat="47.30013" lon="-2.29097">
        <ele>0.40000000596046</ele>
        <time>2019-06-13T09:20:44.000Z</time>
      </trkpt>
      <trkpt lat="47.30047" lon="-2.29123">
        <ele>0.40000000596046</ele>
        <time>2019-06-13T09:20:50.000Z</time>
      </trkpt>
      <trkpt lat="47.30053" lon="-2.29127">
        <ele>0.40000000596046</ele>
        <time>2019-06-13T09:20:51.000Z</time>
      </trkpt>
      <trkpt lat="47.30066" lon="-2.29143">
        <ele>0.40000000596046</ele>
        <time>2019-06-13T09:20:54.000Z</time>
      </trkpt>
      <trkpt lat="47.30092" lon="-2.29185">
        <ele>0.40000000596046</ele>
        <time>2019-06-13T09:20:59.000Z</time>
      </trkpt>
      <trkpt lat="47.30119" lon="-2.29227">
        <ele>0.40000000596046</ele>
        <time>2019-06-13T09:21:04.000Z</time>
      </trkpt>
      <trkpt lat="47.30145" lon="-2.29269">
        <ele>0.40000000596046</ele>
        <time>2019-06-13T09:21:09.000Z</time>
      </trkpt>
      <trkpt lat="47.30161" lon="-2.29292">
        <ele>-0.20000000298023</ele>
        <time>2019-06-13T09:21:12.000Z</time>
      </trkpt>
      <trkpt lat="47.30166" lon="-2.293">
        <ele>-0.60000002384186</ele>
        <time>2019-06-13T09:21:13.000Z</time>
      </trkpt>
      <trkpt lat="47.30171" lon="-2.29307">
        <ele>-1</ele>
        <time>2019-06-13T09:21:14.000Z</time>
      </trkpt>
      <trkpt lat="47.30176" lon="-2.29315">
        <ele>-1.3999999761581</ele>
        <time>2019-06-13T09:21:15.000Z</time>
      </trkpt>
      <trkpt lat="47.30181" lon="-2.29323">
        <ele>-1.7999999523163</ele>
        <time>2019-06-13T09:21:16.000Z</time>
      </trkpt>
      <trkpt lat="47.30195" lon="-2.29346">
        <ele>-1.7999999523163</ele>
        <time>2019-06-13T09:21:19.000Z</time>
      </trkpt>
      <trkpt lat="47.30206" lon="-2.29359">
        <ele>-1.7999999523163</ele>
        <time>2019-06-13T09:21:21.000Z</time>
      </trkpt>
      <trkpt lat="47.30226" lon="-2.29367">
        <ele>-1.7999999523163</ele>
        <time>2019-06-13T09:21:24.000Z</time>
      </trkpt>
      <trkpt lat="47.30233" lon="-2.29367">
        <ele>-2.2000000476837</ele>
        <time>2019-06-13T09:21:25.000Z</time>
      </trkpt>
      <trkpt lat="47.30239" lon="-2.29367">
        <ele>-2.5999999046326</ele>
        <time>2019-06-13T09:21:26.000Z</time>
      </trkpt>
      <trkpt lat="47.30246" lon="-2.29365">
        <ele>-3</ele>
        <time>2019-06-13T09:21:27.000Z</time>
      </trkpt>
      <trkpt lat="47.30252" lon="-2.29363">
        <ele>-3.4000000953674</ele>
        <time>2019-06-13T09:21:28.000Z</time>
      </trkpt>
      <trkpt lat="47.30257" lon="-2.29359">
        <ele>-3.7999999523163</ele>
        <time>2019-06-13T09:21:29.000Z</time>
      </trkpt>
      <trkpt lat="47.30262" lon="-2.29355">
        <ele>-3.7999999523163</ele>
        <time>2019-06-13T09:21:30.000Z</time>
      </trkpt>
      <trkpt lat="47.30267" lon="-2.2935">
        <ele>-3.7999999523163</ele>
        <time>2019-06-13T09:21:31.000Z</time>
      </trkpt>
      <trkpt lat="47.30271" lon="-2.29347">
        <ele>-3.7999999523163</ele>
        <time>2019-06-13T09:21:32.000Z</time>
      </trkpt>
      <trkpt lat="47.30278" lon="-2.29338">
        <ele>-3.7999999523163</ele>
        <time>2019-06-13T09:21:34.000Z</time>
      </trkpt>
      <trkpt lat="47.30284" lon="-2.2933">
        <ele>-3.7999999523163</ele>
        <time>2019-06-13T09:21:36.000Z</time>
      </trkpt>
      <trkpt lat="47.30296" lon="-2.29317">
        <ele>-3.7999999523163</ele>
        <time>2019-06-13T09:21:39.000Z</time>
      </trkpt>
      <trkpt lat="47.30305" lon="-2.29309">
        <ele>-3.7999999523163</ele>
        <time>2019-06-13T09:21:41.000Z</time>
      </trkpt>
      <trkpt lat="47.30316" lon="-2.29301">
        <ele>-3.7999999523163</ele>
        <time>2019-06-13T09:21:43.000Z</time>
      </trkpt>
      <trkpt lat="47.30328" lon="-2.29296">
        <ele>-3.7999999523163</ele>
        <time>2019-06-13T09:21:45.000Z</time>
      </trkpt>
      <trkpt lat="47.30335" lon="-2.29294">
        <ele>-3.7999999523163</ele>
        <time>2019-06-13T09:21:46.000Z</time>
      </trkpt>
      <trkpt lat="47.3036" lon="-2.2929">
        <ele>-3.7999999523163</ele>
        <time>2019-06-13T09:21:50.000Z</time>
      </trkpt>
      <trkpt lat="47.30393" lon="-2.29278">
        <ele>-3.7999999523163</ele>
        <time>2019-06-13T09:21:55.000Z</time>
      </trkpt>
      <trkpt lat="47.30415" lon="-2.29253">
        <ele>-3.7999999523163</ele>
        <time>2019-06-13T09:21:59.000Z</time>
      </trkpt>
      <trkpt lat="47.30431" lon="-2.29232">
        <ele>-3.7999999523163</ele>
        <time>2019-06-13T09:22:02.000Z</time>
      </trkpt>
      <trkpt lat="47.30441" lon="-2.29217">
        <ele>-3.7999999523163</ele>
        <time>2019-06-13T09:22:04.000Z</time>
      </trkpt>
      <trkpt lat="47.30475" lon="-2.29169">
        <ele>-3.7999999523163</ele>
        <time>2019-06-13T09:22:11.000Z</time>
      </trkpt>
      <trkpt lat="47.30498" lon="-2.29123">
        <ele>-3.7999999523163</ele>
        <time>2019-06-13T09:22:17.000Z</time>
      </trkpt>
      <trkpt lat="47.30506" lon="-2.29101">
        <ele>-3.7999999523163</ele>
        <time>2019-06-13T09:22:20.000Z</time>
      </trkpt>
      <trkpt lat="47.30508" lon="-2.29084">
        <ele>-3.7999999523163</ele>
        <time>2019-06-13T09:22:22.000Z</time>
      </trkpt>
      <trkpt lat="47.30503" lon="-2.29041">
        <ele>-3.7999999523163</ele>
        <time>2019-06-13T09:22:27.000Z</time>
      </trkpt>
      <trkpt lat="47.305" lon="-2.29032">
        <ele>-3.7999999523163</ele>
        <time>2019-06-13T09:22:28.000Z</time>
      </trkpt>
      <trkpt lat="47.30498" lon="-2.29013">
        <ele>-3.7999999523163</ele>
        <time>2019-06-13T09:22:30.000Z</time>
      </trkpt>
      <trkpt lat="47.305" lon="-2.29004">
        <ele>-3.7999999523163</ele>
        <time>2019-06-13T09:22:31.000Z</time>
      </trkpt>
      <trkpt lat="47.30512" lon="-2.28981">
        <ele>-3.7999999523163</ele>
        <time>2019-06-13T09:22:34.000Z</time>
      </trkpt>
      <trkpt lat="47.30517" lon="-2.28976">
        <ele>-3.7999999523163</ele>
        <time>2019-06-13T09:22:35.000Z</time>
      </trkpt>
      <trkpt lat="47.30528" lon="-2.28968">
        <ele>-3.7999999523163</ele>
        <time>2019-06-13T09:22:37.000Z</time>
      </trkpt>
      <trkpt lat="47.30552" lon="-2.28951">
        <ele>-3.7999999523163</ele>
        <time>2019-06-13T09:22:41.000Z</time>
      </trkpt>
      <trkpt lat="47.30558" lon="-2.28946">
        <ele>-3.7999999523163</ele>
        <time>2019-06-13T09:22:42.000Z</time>
      </trkpt>
      <trkpt lat="47.30586" lon="-2.28918">
        <ele>-3.7999999523163</ele>
        <time>2019-06-13T09:22:47.000Z</time>
      </trkpt>
      <trkpt lat="47.30621" lon="-2.28893">
        <ele>-3.4000000953674</ele>
        <time>2019-06-13T09:22:53.000Z</time>
      </trkpt>
      <trkpt lat="47.30627" lon="-2.2889">
        <ele>-3</ele>
        <time>2019-06-13T09:22:54.000Z</time>
      </trkpt>
      <trkpt lat="47.30633" lon="-2.28885">
        <ele>-2.5999999046326</ele>
        <time>2019-06-13T09:22:55.000Z</time>
      </trkpt>
      <trkpt lat="47.30639" lon="-2.28882">
        <ele>-2.2000000476837</ele>
        <time>2019-06-13T09:22:56.000Z</time>
      </trkpt>
      <trkpt lat="47.30644" lon="-2.28878">
        <ele>-1.7999999523163</ele>
        <time>2019-06-13T09:22:57.000Z</time>
      </trkpt>
      <trkpt lat="47.3065" lon="-2.28875">
        <ele>-1.7999999523163</ele>
        <time>2019-06-13T09:22:58.000Z</time>
      </trkpt>
      <trkpt lat="47.30674" lon="-2.28859">
        <ele>-1.7999999523163</ele>
        <time>2019-06-13T09:23:02.000Z</time>
      </trkpt>
      <trkpt lat="47.30681" lon="-2.28854">
        <ele>-1.7999999523163</ele>
        <time>2019-06-13T09:23:03.000Z</time>
      </trkpt>
      <trkpt lat="47.30705" lon="-2.28837">
        <ele>-1.3999999761581</ele>
        <time>2019-06-13T09:23:07.000Z</time>
      </trkpt>
      <trkpt lat="47.30713" lon="-2.28833">
        <ele>-1</ele>
        <time>2019-06-13T09:23:08.000Z</time>
      </trkpt>
      <trkpt lat="47.3072" lon="-2.28831">
        <ele>-0.40000000596046</ele>
        <time>2019-06-13T09:23:09.000Z</time>
      </trkpt>
      <trkpt lat="47.30727" lon="-2.28829">
        <ele>7.1</ele>
        <time>2019-06-13T09:23:10.000Z</time>
      </trkpt>
      <trkpt lat="47.30734" lon="-2.28827">
        <ele>0.40000000596046</ele>
        <time>2019-06-13T09:23:11.000Z</time>
      </trkpt>
      <trkpt lat="47.3078" lon="-2.28819">
        <ele>0.40000000596046</ele>
        <time>2019-06-13T09:23:17.000Z</time>
      </trkpt>
      <trkpt lat="47.30827" lon="-2.28817">
        <ele>0.40000000596046</ele>
        <time>2019-06-13T09:23:23.000Z</time>
      </trkpt>
      <trkpt lat="47.30851" lon="-2.28821">
        <ele>3.4</ele>
        <time>2019-06-13T09:23:26.000Z</time>
      </trkpt>
      <trkpt lat="47.30859" lon="-2.28821">
        <ele>-0.60000002384186</ele>
        <time>2019-06-13T09:23:27.000Z</time>
      </trkpt>
      <trkpt lat="47.30867" lon="-2.28821">
        <ele>-1</ele>
        <time>2019-06-13T09:23:28.000Z</time>
      </trkpt>
      <trkpt lat="47.30875" lon="-2.28821">
        <ele>-1.3999999761581</ele>
        <time>2019-06-13T09:23:29.000Z</time>
      </trkpt>
      <trkpt lat="47.30884" lon="-2.28821">
        <ele>-1.7999999523163</ele>
        <time>2019-06-13T09:23:30.000Z</time>
      </trkpt>
      <trkpt lat="47.30917" lon="-2.28819">
        <ele>-1.7999999523163</ele>
        <time>2019-06-13T09:23:34.000Z</time>
      </trkpt>
      <trkpt lat="47.30952" lon="-2.28819">
        <ele>-1.7999999523163</ele>
        <time>2019-06-13T09:23:39.000Z</time>
      </trkpt>
      <trkpt lat="47.30958" lon="-2.28818">
        <ele>-1.7999999523163</ele>
        <time>2019-06-13T09:23:40.000Z</time>
      </trkpt>
      <trkpt lat="47.30974" lon="-2.28814">
        <ele>-1.7999999523163</ele>
        <time>2019-06-13T09:23:43.000Z</time>
      </trkpt>
      <trkpt lat="47.30979" lon="-2.28813">
        <ele>-1.7999999523163</ele>
        <time>2019-06-13T09:23:44.000Z</time>
      </trkpt>
      <trkpt lat="47.30989" lon="-2.28808">
        <ele>-1.3999999761581</ele>
        <time>2019-06-13T09:23:46.000Z</time>
      </trkpt>
      <trkpt lat="47.30995" lon="-2.28807">
        <ele>-0.60000002384186</ele>
        <time>2019-06-13T09:23:47.000Z</time>
      </trkpt>
      <trkpt lat="47.31001" lon="-2.28807">
        <ele>-0.20000000298023</ele>
        <time>2019-06-13T09:23:48.000Z</time>
      </trkpt>
      <trkpt lat="47.31007" lon="-2.28809">
        <ele>0.20000000298023</ele>
        <time>2019-06-13T09:23:49.000Z</time>
      </trkpt>
      <trkpt lat="47.31018" lon="-2.28816">
        <ele>0.20000000298023</ele>
        <time>2019-06-13T09:23:51.000Z</time>
      </trkpt>
      <trkpt lat="47.31022" lon="-2.28821">
        <ele>0.20000000298023</ele>
        <time>2019-06-13T09:23:52.000Z</time>
      </trkpt>
      <trkpt lat="47.31045" lon="-2.28839">
        <ele>0.20000000298023</ele>
        <time>2019-06-13T09:23:56.000Z</time>
      </trkpt>
      <trkpt lat="47.3109" lon="-2.28873">
        <ele>0.20000000298023</ele>
        <time>2019-06-13T09:24:03.000Z</time>
      </trkpt>
      <trkpt lat="47.31124" lon="-2.28899">
        <ele>0.20000000298023</ele>
        <time>2019-06-13T09:24:08.000Z</time>
      </trkpt>
      <trkpt lat="47.3113" lon="-2.28903">
        <ele>0.20000000298023</ele>
        <time>2019-06-13T09:24:09.000Z</time>
      </trkpt>
      <trkpt lat="47.31138" lon="-2.28904">
        <ele>-0.20000000298023</ele>
        <time>2019-06-13T09:24:10.000Z</time>
      </trkpt>
      <trkpt lat="47.31145" lon="-2.28903">
        <ele>-1</ele>
        <time>2019-06-13T09:24:11.000Z</time>
      </trkpt>
      <trkpt lat="47.31152" lon="-2.289">
        <ele>-1.3999999761581</ele>
        <time>2019-06-13T09:24:12.000Z</time>
      </trkpt>
      <trkpt lat="47.31159" lon="-2.28897">
        <ele>-1.7999999523163</ele>
        <time>2019-06-13T09:24:13.000Z</time>
      </trkpt>
      <trkpt lat="47.3117" lon="-2.28896">
        <ele>-1.7999999523163</ele>
        <time>2019-06-13T09:24:15.000Z</time>
      </trkpt>
      <trkpt lat="47.3118" lon="-2.28908">
        <ele>-1.7999999523163</ele>
        <time>2019-06-13T09:24:17.000Z</time>
      </trkpt>
      <trkpt lat="47.31188" lon="-2.28935">
        <ele>-1.7999999523163</ele>
        <time>2019-06-13T09:24:20.000Z</time>
      </trkpt>
      <trkpt lat="47.31193" lon="-2.28964">
        <ele>-1.7999999523163</ele>
        <time>2019-06-13T09:24:23.000Z</time>
      </trkpt>
      <trkpt lat="47.31196" lon="-2.28983">
        <ele>-1.7999999523163</ele>
        <time>2019-06-13T09:24:25.000Z</time>
      </trkpt>
      <trkpt lat="47.31202" lon="-2.29039">
        <ele>-1.7999999523163</ele>
        <time>2019-06-13T09:24:31.000Z</time>
      </trkpt>
      <trkpt lat="47.31203" lon="-2.29058">
        <ele>-1.3999999761581</ele>
        <time>2019-06-13T09:24:33.000Z</time>
      </trkpt>
      <trkpt lat="47.31203" lon="-2.29067">
        <ele>-1</ele>
        <time>2019-06-13T09:24:34.000Z</time>
      </trkpt>
      <trkpt lat="47.31204" lon="-2.29077">
        <ele>-0.60000002384186</ele>
        <time>2019-06-13T09:24:35.000Z</time>
      </trkpt>
      <trkpt lat="47.31206" lon="-2.29086">
        <ele>0.20000000298023</ele>
        <time>2019-06-13T09:24:36.000Z</time>
      </trkpt>
      <trkpt lat="47.31207" lon="-2.29095">
        <ele>0.20000000298023</ele>
        <time>2019-06-13T09:24:37.000Z</time>
      </trkpt>
      <trkpt lat="47.31217" lon="-2.2916">
        <ele>0.20000000298023</ele>
        <time>2019-06-13T09:24:44.000Z</time>
      </trkpt>
      <trkpt lat="47.31233" lon="-2.29225">
        <ele>0.20000000298023</ele>
        <time>2019-06-13T09:24:51.000Z</time>
      </trkpt>
      <trkpt lat="47.31243" lon="-2.29269">
        <ele>0.20000000298023</ele>
        <time>2019-06-13T09:24:56.000Z</time>
      </trkpt>
      <trkpt lat="47.31247" lon="-2.29286">
        <ele>0.20000000298023</ele>
        <time>2019-06-13T09:24:58.000Z</time>
      </trkpt>
      <trkpt lat="47.31252" lon="-2.29316">
        <ele>0.20000000298023</ele>
        <time>2019-06-13T09:25:02.000Z</time>
      </trkpt>
      <trkpt lat="47.31257" lon="-2.29341">
        <ele>0.20000000298023</ele>
        <time>2019-06-13T09:25:07.000Z</time>
      </trkpt>
      <trkpt lat="47.31258" lon="-2.29343">
        <ele>0.20000000298023</ele>
        <time>2019-06-13T09:25:08.000Z</time>
      </trkpt>
      <trkpt lat="47.31262" lon="-2.29342">
        <ele>0.20000000298023</ele>
        <time>2019-06-13T09:25:11.000Z</time>
      </trkpt>
      <trkpt lat="47.31264" lon="-2.29341">
        <ele>0.20000000298023</ele>
        <time>2019-06-13T09:25:12.000Z</time>
      </trkpt>
      <trkpt lat="47.31265" lon="-2.29339">
        <ele>0.20000000298023</ele>
        <time>2019-06-13T09:25:13.000Z</time>
      </trkpt>
      <trkpt lat="47.3127" lon="-2.29331">
        <ele>0.20000000298023</ele>
        <time>2019-06-13T09:25:17.000Z</time>
      </trkpt>
      <trkpt lat="47.31274" lon="-2.29326">
        <ele>0.20000000298023</ele>
        <time>2019-06-13T09:25:20.000Z</time>
      </trkpt>
      <trkpt lat="47.31278" lon="-2.29316">
        <ele>0.20000000298023</ele>
        <time>2019-06-13T09:25:23.000Z</time>
      </trkpt>
      <trkpt lat="47.31279" lon="-2.29314">
        <ele>0.20000000298023</ele>
        <time>2019-06-13T09:25:24.000Z</time>
      </trkpt>
      <trkpt lat="47.31285" lon="-2.29308">
        <ele>0.20000000298023</ele>
        <time>2019-06-13T09:25:27.000Z</time>
      </trkpt>
      <trkpt lat="47.31288" lon="-2.29305">
        <ele>0.20000000298023</ele>
        <time>2019-06-13T09:25:28.000Z</time>
      </trkpt>
      <trkpt lat="47.31302" lon="-2.29296">
        <ele>0.20000000298023</ele>
        <time>2019-06-13T09:25:32.000Z</time>
      </trkpt>
      <trkpt lat="47.31318" lon="-2.29293">
        <ele>0.20000000298023</ele>
        <time>2019-06-13T09:25:36.000Z</time>
      </trkpt>
      <trkpt lat="47.31324" lon="-2.29295">
        <ele>0.20000000298023</ele>
        <time>2019-06-13T09:25:37.000Z</time>
      </trkpt>
      <trkpt lat="47.31354" lon="-2.29307">
        <ele>0.20000000298023</ele>
        <time>2019-06-13T09:25:43.000Z</time>
      </trkpt>
      <trkpt lat="47.31369" lon="-2.29315">
        <ele>0.20000000298023</ele>
        <time>2019-06-13T09:25:46.000Z</time>
      </trkpt>
      <trkpt lat="47.31378" lon="-2.29318">
        <ele>0.20000000298023</ele>
        <time>2019-06-13T09:25:48.000Z</time>
      </trkpt>
      <trkpt lat="47.31399" lon="-2.29328">
        <ele>0.20000000298023</ele>
        <time>2019-06-13T09:25:52.000Z</time>
      </trkpt>
      <trkpt lat="47.31412" lon="-2.29338">
        <ele>0.20000000298023</ele>
        <time>2019-06-13T09:25:55.000Z</time>
      </trkpt>
      <trkpt lat="47.31416" lon="-2.29342">
        <ele>0.60000002384186</ele>
        <time>2019-06-13T09:25:56.000Z</time>
      </trkpt>
      <trkpt lat="47.3142" lon="-2.29346">
        <ele>1</ele>
        <time>2019-06-13T09:25:57.000Z</time>
      </trkpt>
      <trkpt lat="47.31423" lon="-2.29351">
        <ele>1.3999999761581</ele>
        <time>2019-06-13T09:25:58.000Z</time>
      </trkpt>
      <trkpt lat="47.31427" lon="-2.29355">
        <ele>1.7999999523163</ele>
        <time>2019-06-13T09:25:59.000Z</time>
      </trkpt>
      <trkpt lat="47.3143" lon="-2.2936">
        <ele>2.2000000476837</ele>
        <time>2019-06-13T09:26:00.000Z</time>
      </trkpt>
      <trkpt lat="47.31437" lon="-2.29371">
        <ele>2.2000000476837</ele>
        <time>2019-06-13T09:26:02.000Z</time>
      </trkpt>
      <trkpt lat="47.3144" lon="-2.29376">
        <ele>2.2000000476837</ele>
        <time>2019-06-13T09:26:03.000Z</time>
      </trkpt>
      <trkpt lat="47.31449" lon="-2.29392">
        <ele>2.2000000476837</ele>
        <time>2019-06-13T09:26:06.000Z</time>
      </trkpt>
      <trkpt lat="47.31453" lon="-2.29396">
        <ele>2.2000000476837</ele>
        <time>2019-06-13T09:26:07.000Z</time>
      </trkpt>
      <trkpt lat="47.31465" lon="-2.29398">
        <ele>2.2000000476837</ele>
        <time>2019-06-13T09:26:10.000Z</time>
      </trkpt>
      <trkpt lat="47.3148" lon="-2.29394">
        <ele>2.2000000476837</ele>
        <time>2019-06-13T09:26:13.000Z</time>
      </trkpt>
      <trkpt lat="47.31485" lon="-2.29393">
        <ele>2.2000000476837</ele>
        <time>2019-06-13T09:26:14.000Z</time>
      </trkpt>
      <trkpt lat="47.31489" lon="-2.29393">
        <ele>2.5999999046326</ele>
        <time>2019-06-13T09:26:15.000Z</time>
      </trkpt>
      <trkpt lat="47.31494" lon="-2.29392">
        <ele>3</ele>
        <time>2019-06-13T09:26:16.000Z</time>
      </trkpt>
      <trkpt lat="47.31499" lon="-2.29394">
        <ele>3.5999999046326</ele>
        <time>2019-06-13T09:26:17.000Z</time>
      </trkpt>
      <trkpt lat="47.31503" lon="-2.29397">
        <ele>4</ele>
        <time>2019-06-13T09:26:18.000Z</time>
      </trkpt>
      <trkpt lat="47.31506" lon="-2.29402">
        <ele>4.4000000953674</ele>
        <time>2019-06-13T09:26:19.000Z</time>
      </trkpt>
      <trkpt lat="47.31513" lon="-2.29412">
        <ele>4.4000000953674</ele>
        <time>2019-06-13T09:26:21.000Z</time>
      </trkpt>
      <trkpt lat="47.3152" lon="-2.29424">
        <ele>4.4000000953674</ele>
        <time>2019-06-13T09:26:23.000Z</time>
      </trkpt>
      <trkpt lat="47.31526" lon="-2.29445">
        <ele>4.8000001907349</ele>
        <time>2019-06-13T09:26:26.000Z</time>
      </trkpt>
      <trkpt lat="47.31529" lon="-2.29452">
        <ele>5.1999998092651</ele>
        <time>2019-06-13T09:26:27.000Z</time>
      </trkpt>
      <trkpt lat="47.31531" lon="-2.29459">
        <ele>5.5999999046326</ele>
        <time>2019-06-13T09:26:28.000Z</time>
      </trkpt>
      <trkpt lat="47.31533" lon="-2.29466">
        <ele>6</ele>
        <time>2019-06-13T09:26:29.000Z</time>
      </trkpt>
      <trkpt lat="47.31535" lon="-2.29472">
        <ele>6.5999999046326</ele>
        <time>2019-06-13T09:26:30.000Z</time>
      </trkpt>
      <trkpt lat="47.31542" lon="-2.2949">
        <ele>6.5999999046326</ele>
        <time>2019-06-13T09:26:33.000Z</time>
      </trkpt>
      <trkpt lat="47.31543" lon="-2.29497">
        <ele>6.5999999046326</ele>
        <time>2019-06-13T09:26:34.000Z</time>
      </trkpt>
      <trkpt lat="47.31545" lon="-2.29504">
        <ele>6.5999999046326</ele>
        <time>2019-06-13T09:26:35.000Z</time>
      </trkpt>
      <trkpt lat="47.31548" lon="-2.29517">
        <ele>6.5999999046326</ele>
        <time>2019-06-13T09:26:37.000Z</time>
      </trkpt>
      <trkpt lat="47.31551" lon="-2.2953">
        <ele>6.5999999046326</ele>
        <time>2019-06-13T09:26:39.000Z</time>
      </trkpt>
      <trkpt lat="47.31562" lon="-2.29549">
        <ele>6.5999999046326</ele>
        <time>2019-06-13T09:26:43.000Z</time>
      </trkpt>
      <trkpt lat="47.31565" lon="-2.29554">
        <ele>6.5999999046326</ele>
        <time>2019-06-13T09:26:44.000Z</time>
      </trkpt>
      <trkpt lat="47.31569" lon="-2.29558">
        <ele>6.5999999046326</ele>
        <time>2019-06-13T09:26:45.000Z</time>
      </trkpt>
      <trkpt lat="47.31578" lon="-2.29571">
        <ele>6.5999999046326</ele>
        <time>2019-06-13T09:26:48.000Z</time>
      </trkpt>
      <trkpt lat="47.31582" lon="-2.29576">
        <ele>6.5999999046326</ele>
        <time>2019-06-13T09:26:49.000Z</time>
      </trkpt>
      <trkpt lat="47.31589" lon="-2.29585">
        <ele>6.5999999046326</ele>
        <time>2019-06-13T09:26:51.000Z</time>
      </trkpt>
      <trkpt lat="47.31597" lon="-2.29593">
        <ele>6.5999999046326</ele>
        <time>2019-06-13T09:26:53.000Z</time>
      </trkpt>
      <trkpt lat="47.31606" lon="-2.296">
        <ele>7</ele>
        <time>2019-06-13T09:26:55.000Z</time>
      </trkpt>
      <trkpt lat="47.3161" lon="-2.29605">
        <ele>7.4000000953674</ele>
        <time>2019-06-13T09:26:56.000Z</time>
      </trkpt>
      <trkpt lat="47.31613" lon="-2.2961">
        <ele>7.8000001907349</ele>
        <time>2019-06-13T09:26:57.000Z</time>
      </trkpt>
      <trkpt lat="47.31616" lon="-2.29615">
        <ele>8.1999998092651</ele>
        <time>2019-06-13T09:26:58.000Z</time>
      </trkpt>
      <trkpt lat="47.31619" lon="-2.29621">
        <ele>8.6000003814697</ele>
        <time>2019-06-13T09:26:59.000Z</time>
      </trkpt>
      <trkpt lat="47.3163" lon="-2.29645">
        <ele>8.6000003814697</ele>
        <time>2019-06-13T09:27:03.000Z</time>
      </trkpt>
      <trkpt lat="47.31641" lon="-2.29673">
        <ele>8.6000003814697</ele>
        <time>2019-06-13T09:27:07.000Z</time>
      </trkpt>
      <trkpt lat="47.31645" lon="-2.29687">
        <ele>8.6000003814697</ele>
        <time>2019-06-13T09:27:09.000Z</time>
      </trkpt>
      <trkpt lat="47.31655" lon="-2.29713">
        <ele>8.6000003814697</ele>
        <time>2019-06-13T09:27:14.000Z</time>
      </trkpt>
      <trkpt lat="47.3166" lon="-2.29724">
        <ele>8.6000003814697</ele>
        <time>2019-06-13T09:27:16.000Z</time>
      </trkpt>
      <trkpt lat="47.3167" lon="-2.29732">
        <ele>8.6000003814697</ele>
        <time>2019-06-13T09:27:18.000Z</time>
      </trkpt>
      <trkpt lat="47.3169" lon="-2.29733">
        <ele>8.6000003814697</ele>
        <time>2019-06-13T09:27:22.000Z</time>
      </trkpt>
      <trkpt lat="47.317" lon="-2.2973">
        <ele>8.6000003814697</ele>
        <time>2019-06-13T09:27:24.000Z</time>
      </trkpt>
      <trkpt lat="47.3171" lon="-2.29726">
        <ele>8.6000003814697</ele>
        <time>2019-06-13T09:27:26.000Z</time>
      </trkpt>
      <trkpt lat="47.31714" lon="-2.29721">
        <ele>8.6000003814697</ele>
        <time>2019-06-13T09:27:27.000Z</time>
      </trkpt>
      <trkpt lat="47.31748" lon="-2.29694">
        <ele>8.6000003814697</ele>
        <time>2019-06-13T09:27:33.000Z</time>
      </trkpt>
      <trkpt lat="47.31777" lon="-2.29673">
        <ele>8.6000003814697</ele>
        <time>2019-06-13T09:27:38.000Z</time>
      </trkpt>
      <trkpt lat="47.31822" lon="-2.29643">
        <ele>8.6000003814697</ele>
        <time>2019-06-13T09:27:46.000Z</time>
      </trkpt>
      <trkpt lat="47.31839" lon="-2.29633">
        <ele>8.6000003814697</ele>
        <time>2019-06-13T09:27:49.000Z</time>
      </trkpt>
      <trkpt lat="47.31851" lon="-2.29626">
        <ele>8.6000003814697</ele>
        <time>2019-06-13T09:27:51.000Z</time>
      </trkpt>
      <trkpt lat="47.31871" lon="-2.296">
        <ele>8.6000003814697</ele>
        <time>2019-06-13T09:27:55.000Z</time>
      </trkpt>
      <trkpt lat="47.31872" lon="-2.29572">
        <ele>8.6000003814697</ele>
        <time>2019-06-13T09:27:58.000Z</time>
      </trkpt>
      <trkpt lat="47.31868" lon="-2.29553">
        <ele>8.6000003814697</ele>
        <time>2019-06-13T09:28:00.000Z</time>
      </trkpt>
      <trkpt lat="47.31859" lon="-2.29525">
        <ele>8.6000003814697</ele>
        <time>2019-06-13T09:28:03.000Z</time>
      </trkpt>
      <trkpt lat="47.31848" lon="-2.29488">
        <ele>8.6000003814697</ele>
        <time>2019-06-13T09:28:07.000Z</time>
      </trkpt>
      <trkpt lat="47.31847" lon="-2.29469">
        <ele>8.6000003814697</ele>
        <time>2019-06-13T09:28:09.000Z</time>
      </trkpt>
      <trkpt lat="47.31848" lon="-2.29452">
        <ele>8.6000003814697</ele>
        <time>2019-06-13T09:28:11.000Z</time>
      </trkpt>
      <trkpt lat="47.31851" lon="-2.29439">
        <ele>8.6000003814697</ele>
        <time>2019-06-13T09:28:13.000Z</time>
      </trkpt>
      <trkpt lat="47.31852" lon="-2.29432">
        <ele>8.6000003814697</ele>
        <time>2019-06-13T09:28:14.000Z</time>
      </trkpt>
      <trkpt lat="47.31851" lon="-2.29409">
        <ele>8.6000003814697</ele>
        <time>2019-06-13T09:28:17.000Z</time>
      </trkpt>
      <trkpt lat="47.31849" lon="-2.29401">
        <ele>8.6000003814697</ele>
        <time>2019-06-13T09:28:18.000Z</time>
      </trkpt>
      <trkpt lat="47.31841" lon="-2.29366">
        <ele>8.6000003814697</ele>
        <time>2019-06-13T09:28:22.000Z</time>
      </trkpt>
      <trkpt lat="47.31835" lon="-2.2934">
        <ele>8.1999998092651</ele>
        <time>2019-06-13T09:28:25.000Z</time>
      </trkpt>
      <trkpt lat="47.31833" lon="-2.29332">
        <ele>7.8000001907349</ele>
        <time>2019-06-13T09:28:26.000Z</time>
      </trkpt>
      <trkpt lat="47.31832" lon="-2.29323">
        <ele>7.4000000953674</ele>
        <time>2019-06-13T09:28:27.000Z</time>
      </trkpt>
      <trkpt lat="47.31832" lon="-2.29314">
        <ele>7</ele>
        <time>2019-06-13T09:28:28.000Z</time>
      </trkpt>
      <trkpt lat="47.31832" lon="-2.29305">
        <ele>6.5999999046326</ele>
        <time>2019-06-13T09:28:29.000Z</time>
      </trkpt>
      <trkpt lat="47.31826" lon="-2.29248">
        <ele>6.1999998092651</ele>
        <time>2019-06-13T09:28:35.000Z</time>
      </trkpt>
      <trkpt lat="47.31825" lon="-2.29238">
        <ele>5.8000001907349</ele>
        <time>2019-06-13T09:28:36.000Z</time>
      </trkpt>
      <trkpt lat="47.31823" lon="-2.29229">
        <ele>5.4000000953674</ele>
        <time>2019-06-13T09:28:37.000Z</time>
      </trkpt>
      <trkpt lat="47.31823" lon="-2.2922">
        <ele>5</ele>
        <time>2019-06-13T09:28:38.000Z</time>
      </trkpt>
      <trkpt lat="47.31822" lon="-2.29211">
        <ele>4.5999999046326</ele>
        <time>2019-06-13T09:28:39.000Z</time>
      </trkpt>
      <trkpt lat="47.31822" lon="-2.292">
        <ele>4.5999999046326</ele>
        <time>2019-06-13T09:28:40.000Z</time>
      </trkpt>
      <trkpt lat="47.31824" lon="-2.29177">
        <ele>4.5999999046326</ele>
        <time>2019-06-13T09:28:42.000Z</time>
      </trkpt>
      <trkpt lat="47.31828" lon="-2.29143">
        <ele>4</ele>
        <time>2019-06-13T09:28:45.000Z</time>
      </trkpt>
      <trkpt lat="47.3183" lon="-2.29132">
        <ele>3.5999999046326</ele>
        <time>2019-06-13T09:28:46.000Z</time>
      </trkpt>
      <trkpt lat="47.31832" lon="-2.29122">
        <ele>3.2000000476837</ele>
        <time>2019-06-13T09:28:47.000Z</time>
      </trkpt>
      <trkpt lat="47.31833" lon="-2.29111">
        <ele>2.7999999523163</ele>
        <time>2019-06-13T09:28:48.000Z</time>
      </trkpt>
      <trkpt lat="47.31834" lon="-2.29101">
        <ele>2.2000000476837</ele>
        <time>2019-06-13T09:28:49.000Z</time>
      </trkpt>
      <trkpt lat="47.31839" lon="-2.2906">
        <ele>1.7999999523163</ele>
        <time>2019-06-13T09:28:53.000Z</time>
      </trkpt>
      <trkpt lat="47.31841" lon="-2.29051">
        <ele>1.3999999761581</ele>
        <time>2019-06-13T09:28:54.000Z</time>
      </trkpt>
      <trkpt lat="47.31843" lon="-2.29041">
        <ele>1</ele>
        <time>2019-06-13T09:28:55.000Z</time>
      </trkpt>
      <trkpt lat="47.31846" lon="-2.29031">
        <ele>0.60000002384186</ele>
        <time>2019-06-13T09:28:56.000Z</time>
      </trkpt>
      <trkpt lat="47.31848" lon="-2.29021">
        <ele>0.20000000298023</ele>
        <time>2019-06-13T09:28:57.000Z</time>
      </trkpt>
      <trkpt lat="47.31857" lon="-2.28983">
        <ele>0.20000000298023</ele>
        <time>2019-06-13T09:29:01.000Z</time>
      </trkpt>
      <trkpt lat="47.31859" lon="-2.28974">
        <ele>0.20000000298023</ele>
        <time>2019-06-13T09:29:02.000Z</time>
      </trkpt>
      <trkpt lat="47.31865" lon="-2.2895">
        <ele>0.20000000298023</ele>
        <time>2019-06-13T09:29:05.000Z</time>
      </trkpt>
      <trkpt lat="47.31873" lon="-2.28944">
        <ele>-0.20000000298023</ele>
        <time>2019-06-13T09:29:07.000Z</time>
      </trkpt>
      <trkpt lat="47.31877" lon="-2.28944">
        <ele>-1.2000000476837</ele>
        <time>2019-06-13T09:29:08.000Z</time>
      </trkpt>
      <trkpt lat="47.31882" lon="-2.28944">
        <ele>-1.6000000238419</ele>
        <time>2019-06-13T09:29:09.000Z</time>
      </trkpt>
      <trkpt lat="47.31887" lon="-2.28943">
        <ele>-2</ele>
        <time>2019-06-13T09:29:10.000Z</time>
      </trkpt>
      <trkpt lat="47.31898" lon="-2.2894">
        <ele>-2</ele>
        <time>2019-06-13T09:29:12.000Z</time>
      </trkpt>
      <trkpt lat="47.31903" lon="-2.28938">
        <ele>-2</ele>
        <time>2019-06-13T09:29:13.000Z</time>
      </trkpt>
      <trkpt lat="47.31914" lon="-2.2893">
        <ele>-2</ele>
        <time>2019-06-13T09:29:16.000Z</time>
      </trkpt>
      <trkpt lat="47.31924" lon="-2.28917">
        <ele>-2</ele>
        <time>2019-06-13T09:29:21.000Z</time>
      </trkpt>
      <trkpt lat="47.3193" lon="-2.28909">
        <ele>-2</ele>
        <time>2019-06-13T09:29:23.000Z</time>
      </trkpt>
      <trkpt lat="47.31939" lon="-2.28903">
        <ele>-2</ele>
        <time>2019-06-13T09:29:25.000Z</time>
      </trkpt>
      <trkpt lat="47.31947" lon="-2.28898">
        <ele>-2</ele>
        <time>2019-06-13T09:29:29.000Z</time>
      </trkpt>
      <trkpt lat="47.31947" lon="-2.28898">
        <ele>-2</ele>
        <time>2019-06-13T09:29:30.000Z</time>
      </trkpt>
      <trkpt lat="47.31948" lon="-2.28898">
        <ele>-4.1999998092651</ele>
        <time>2019-06-13T09:29:36.000Z</time>
      </trkpt>
      <trkpt lat="47.31952" lon="-2.28896">
        <ele>-4.1999998092651</ele>
        <time>2019-06-13T09:29:38.000Z</time>
      </trkpt>
      <trkpt lat="47.31967" lon="-2.2889">
        <ele>-4.1999998092651</ele>
        <time>2019-06-13T09:29:42.000Z</time>
      </trkpt>
      <trkpt lat="47.31976" lon="-2.28888">
        <ele>-4.1999998092651</ele>
        <time>2019-06-13T09:29:44.000Z</time>
      </trkpt>
      <trkpt lat="47.31991" lon="-2.28885">
        <ele>-4.1999998092651</ele>
        <time>2019-06-13T09:29:47.000Z</time>
      </trkpt>
      <trkpt lat="47.32018" lon="-2.28876">
        <ele>-4.1999998092651</ele>
        <time>2019-06-13T09:29:52.000Z</time>
      </trkpt>
      <trkpt lat="47.32028" lon="-2.28872">
        <ele>-4.1999998092651</ele>
        <time>2019-06-13T09:29:54.000Z</time>
      </trkpt>
      <trkpt lat="47.32037" lon="-2.28875">
        <ele>-4.1999998092651</ele>
        <time>2019-06-13T09:29:56.000Z</time>
      </trkpt>
      <trkpt lat="47.32042" lon="-2.2889">
        <ele>-4.1999998092651</ele>
        <time>2019-06-13T09:29:59.000Z</time>
      </trkpt>
      <trkpt lat="47.32043" lon="-2.28903">
        <ele>-4.1999998092651</ele>
        <time>2019-06-13T09:30:01.000Z</time>
      </trkpt>
      <trkpt lat="47.32045" lon="-2.28916">
        <ele>-4.1999998092651</ele>
        <time>2019-06-13T09:30:03.000Z</time>
      </trkpt>
      <trkpt lat="47.32048" lon="-2.28935">
        <ele>-4.1999998092651</ele>
        <time>2019-06-13T09:30:06.000Z</time>
      </trkpt>
      <trkpt lat="47.32056" lon="-2.28945">
        <ele>-4.1999998092651</ele>
        <time>2019-06-13T09:30:08.000Z</time>
      </trkpt>
      <trkpt lat="47.32065" lon="-2.2895">
        <ele>-4.1999998092651</ele>
        <time>2019-06-13T09:30:11.000Z</time>
      </trkpt>
      <trkpt lat="47.32078" lon="-2.28956">
        <ele>-4.1999998092651</ele>
        <time>2019-06-13T09:30:15.000Z</time>
      </trkpt>
      <trkpt lat="47.32085" lon="-2.28961">
        <ele>-4.1999998092651</ele>
        <time>2019-06-13T09:30:17.000Z</time>
      </trkpt>
      <trkpt lat="47.32095" lon="-2.28971">
        <ele>-4.1999998092651</ele>
        <time>2019-06-13T09:30:19.000Z</time>
      </trkpt>
      <trkpt lat="47.32102" lon="-2.28981">
        <ele>-4.1999998092651</ele>
        <time>2019-06-13T09:30:21.000Z</time>
      </trkpt>
      <trkpt lat="47.32108" lon="-2.28991">
        <ele>-3.7999999523163</ele>
        <time>2019-06-13T09:30:23.000Z</time>
      </trkpt>
      <trkpt lat="47.32111" lon="-2.28997">
        <ele>-3.2000000476837</ele>
        <time>2019-06-13T09:30:24.000Z</time>
      </trkpt>
      <trkpt lat="47.32113" lon="-2.29003">
        <ele>-2.7999999523163</ele>
        <time>2019-06-13T09:30:25.000Z</time>
      </trkpt>
      <trkpt lat="47.32116" lon="-2.29009">
        <ele>-2.4000000953674</ele>
        <time>2019-06-13T09:30:26.000Z</time>
      </trkpt>
      <trkpt lat="47.32118" lon="-2.29015">
        <ele>-2</ele>
        <time>2019-06-13T09:30:27.000Z</time>
      </trkpt>
      <trkpt lat="47.32122" lon="-2.29028">
        <ele>-2</ele>
        <time>2019-06-13T09:30:29.000Z</time>
      </trkpt>
      <trkpt lat="47.3213" lon="-2.2905">
        <ele>-2</ele>
        <time>2019-06-13T09:30:33.000Z</time>
      </trkpt>
      <trkpt lat="47.32141" lon="-2.29079">
        <ele>-1.6000000238419</ele>
        <time>2019-06-13T09:30:38.000Z</time>
      </trkpt>
      <trkpt lat="47.32144" lon="-2.29084">
        <ele>-1.2000000476837</ele>
        <time>2019-06-13T09:30:39.000Z</time>
      </trkpt>
      <trkpt lat="47.32145" lon="-2.29089">
        <ele>-0.60000002384186</ele>
        <time>2019-06-13T09:30:40.000Z</time>
      </trkpt>
      <trkpt lat="47.32148" lon="-2.29095">
        <ele>-0.20000000298023</ele>
        <time>2019-06-13T09:30:41.000Z</time>
      </trkpt>
      <trkpt lat="47.32152" lon="-2.291">
        <ele>0.20000000298023</ele>
        <time>2019-06-13T09:30:42.000Z</time>
      </trkpt>
      <trkpt lat="47.32179" lon="-2.29129">
        <ele>0.20000000298023</ele>
        <time>2019-06-13T09:30:48.000Z</time>
      </trkpt>
      <trkpt lat="47.32185" lon="-2.29135">
        <ele>0.20000000298023</ele>
        <time>2019-06-13T09:30:49.000Z</time>
      </trkpt>
      <trkpt lat="47.32208" lon="-2.29159">
        <ele>0.20000000298023</ele>
        <time>2019-06-13T09:30:53.000Z</time>
      </trkpt>
      <trkpt lat="47.32223" lon="-2.29184">
        <ele>0.20000000298023</ele>
        <time>2019-06-13T09:30:58.000Z</time>
      </trkpt>
      <trkpt lat="47.3223" lon="-2.29194">
        <ele>-0.20000000298023</ele>
        <time>2019-06-13T09:31:00.000Z</time>
      </trkpt>
      <trkpt lat="47.32234" lon="-2.29199">
        <ele>-0.60000002384186</ele>
        <time>2019-06-13T09:31:01.000Z</time>
      </trkpt>
      <trkpt lat="47.32238" lon="-2.29205">
        <ele>-1.2000000476837</ele>
        <time>2019-06-13T09:31:02.000Z</time>
      </trkpt>
      <trkpt lat="47.3224" lon="-2.2921">
        <ele>-1.6000000238419</ele>
        <time>2019-06-13T09:31:03.000Z</time>
      </trkpt>
      <trkpt lat="47.32244" lon="-2.29215">
        <ele>-2</ele>
        <time>2019-06-13T09:31:04.000Z</time>
      </trkpt>
      <trkpt lat="47.32247" lon="-2.29219">
        <ele>-2</ele>
        <time>2019-06-13T09:31:05.000Z</time>
      </trkpt>
      <trkpt lat="47.32251" lon="-2.2922">
        <ele>-2</ele>
        <time>2019-06-13T09:31:06.000Z</time>
      </trkpt>
      <trkpt lat="47.32274" lon="-2.2922">
        <ele>-2</ele>
        <time>2019-06-13T09:31:10.000Z</time>
      </trkpt>
      <trkpt lat="47.32286" lon="-2.29219">
        <ele>-2</ele>
        <time>2019-06-13T09:31:12.000Z</time>
      </trkpt>
      <trkpt lat="47.32292" lon="-2.29218">
        <ele>-2</ele>
        <time>2019-06-13T09:31:13.000Z</time>
      </trkpt>
      <trkpt lat="47.32298" lon="-2.29217">
        <ele>-2</ele>
        <time>2019-06-13T09:31:14.000Z</time>
      </trkpt>
      <trkpt lat="47.3231" lon="-2.29217">
        <ele>-2</ele>
        <time>2019-06-13T09:31:16.000Z</time>
      </trkpt>
      <trkpt lat="47.32322" lon="-2.29222">
        <ele>-2</ele>
        <time>2019-06-13T09:31:18.000Z</time>
      </trkpt>
      <trkpt lat="47.32345" lon="-2.29233">
        <ele>-2</ele>
        <time>2019-06-13T09:31:22.000Z</time>
      </trkpt>
      <trkpt lat="47.32384" lon="-2.29253">
        <ele>-2</ele>
        <time>2019-06-13T09:31:28.000Z</time>
      </trkpt>
      <trkpt lat="47.32402" lon="-2.29264">
        <ele>-2</ele>
        <time>2019-06-13T09:31:31.000Z</time>
      </trkpt>
      <trkpt lat="47.32406" lon="-2.2927">
        <ele>-2</ele>
        <time>2019-06-13T09:31:32.000Z</time>
      </trkpt>
      <trkpt lat="47.32415" lon="-2.29295">
        <ele>-2</ele>
        <time>2019-06-13T09:31:35.000Z</time>
      </trkpt>
      <trkpt lat="47.32417" lon="-2.29304">
        <ele>-2</ele>
        <time>2019-06-13T09:31:36.000Z</time>
      </trkpt>
      <trkpt lat="47.32423" lon="-2.29347">
        <ele>-2</ele>
        <time>2019-06-13T09:31:41.000Z</time>
      </trkpt>
      <trkpt lat="47.32425" lon="-2.29374">
        <ele>-2</ele>
        <time>2019-06-13T09:31:44.000Z</time>
      </trkpt>
      <trkpt lat="47.3243" lon="-2.29399">
        <ele>-2</ele>
        <time>2019-06-13T09:31:47.000Z</time>
      </trkpt>
      <trkpt lat="47.32432" lon="-2.29414">
        <ele>-2</ele>
        <time>2019-06-13T09:31:49.000Z</time>
      </trkpt>
      <trkpt lat="47.32435" lon="-2.29431">
        <ele>-2</ele>
        <time>2019-06-13T09:31:51.000Z</time>
      </trkpt>
      <trkpt lat="47.32437" lon="-2.29446">
        <ele>-2</ele>
        <time>2019-06-13T09:31:53.000Z</time>
      </trkpt>
      <trkpt lat="47.32438" lon="-2.29454">
        <ele>-1.6000000238419</ele>
        <time>2019-06-13T09:31:54.000Z</time>
      </trkpt>
      <trkpt lat="47.32439" lon="-2.29462">
        <ele>-1.2000000476837</ele>
        <time>2019-06-13T09:31:55.000Z</time>
      </trkpt>
      <trkpt lat="47.3244" lon="-2.29469">
        <ele>-0.80000001192093</ele>
        <time>2019-06-13T09:31:56.000Z</time>
      </trkpt>
      <trkpt lat="47.32442" lon="-2.29476">
        <ele>-0.40000000596046</ele>
        <time>2019-06-13T09:31:57.000Z</time>
      </trkpt>
      <trkpt lat="47.32445" lon="-2.29482">
        <ele>8</ele>
        <time>2019-06-13T09:31:58.000Z</time>
      </trkpt>
      <trkpt lat="47.32451" lon="-2.29501">
        <ele>8.3</ele>
        <time>2019-06-13T09:32:01.000Z</time>
      </trkpt>
      <trkpt lat="47.3246" lon="-2.29531">
        <ele>9.7</ele>
        <time>2019-06-13T09:32:06.000Z</time>
      </trkpt>
      <trkpt lat="47.32462" lon="-2.29536">
        <ele>0.40000000596046</ele>
        <time>2019-06-13T09:32:07.000Z</time>
      </trkpt>
      <trkpt lat="47.32463" lon="-2.29542">
        <ele>1</ele>
        <time>2019-06-13T09:32:08.000Z</time>
      </trkpt>
      <trkpt lat="47.32464" lon="-2.29549">
        <ele>1.3999999761581</ele>
        <time>2019-06-13T09:32:09.000Z</time>
      </trkpt>
      <trkpt lat="47.32466" lon="-2.29553">
        <ele>1.7999999523163</ele>
        <time>2019-06-13T09:32:10.000Z</time>
      </trkpt>
      <trkpt lat="47.32468" lon="-2.29558">
        <ele>2.4000000953674</ele>
        <time>2019-06-13T09:32:11.000Z</time>
      </trkpt>
      <trkpt lat="47.32473" lon="-2.2958">
        <ele>2.7999999523163</ele>
        <time>2019-06-13T09:32:15.000Z</time>
      </trkpt>
      <trkpt lat="47.32475" lon="-2.29587">
        <ele>3.2000000476837</ele>
        <time>2019-06-13T09:32:16.000Z</time>
      </trkpt>
      <trkpt lat="47.32476" lon="-2.29592">
        <ele>3.5999999046326</ele>
        <time>2019-06-13T09:32:17.000Z</time>
      </trkpt>
      <trkpt lat="47.32478" lon="-2.29598">
        <ele>4.1999998092651</ele>
        <time>2019-06-13T09:32:18.000Z</time>
      </trkpt>
      <trkpt lat="47.32479" lon="-2.29603">
        <ele>4.5999999046326</ele>
        <time>2019-06-13T09:32:19.000Z</time>
      </trkpt>
      <trkpt lat="47.32484" lon="-2.29619">
        <ele>4.5999999046326</ele>
        <time>2019-06-13T09:32:22.000Z</time>
      </trkpt>
      <trkpt lat="47.32486" lon="-2.29625">
        <ele>5</ele>
        <time>2019-06-13T09:32:23.000Z</time>
      </trkpt>
      <trkpt lat="47.32487" lon="-2.2963">
        <ele>5.4000000953674</ele>
        <time>2019-06-13T09:32:24.000Z</time>
      </trkpt>
      <trkpt lat="47.32489" lon="-2.29635">
        <ele>6.1999998092651</ele>
        <time>2019-06-13T09:32:25.000Z</time>
      </trkpt>
      <trkpt lat="47.3249" lon="-2.29641">
        <ele>6.5999999046326</ele>
        <time>2019-06-13T09:32:26.000Z</time>
      </trkpt>
      <trkpt lat="47.32492" lon="-2.29653">
        <ele>6.5999999046326</ele>
        <time>2019-06-13T09:32:28.000Z</time>
      </trkpt>
      <trkpt lat="47.32497" lon="-2.2967">
        <ele>7</ele>
        <time>2019-06-13T09:32:31.000Z</time>
      </trkpt>
      <trkpt lat="47.32498" lon="-2.29675">
        <ele>7.4000000953674</ele>
        <time>2019-06-13T09:32:32.000Z</time>
      </trkpt>
      <trkpt lat="47.32499" lon="-2.29682">
        <ele>7.8000001907349</ele>
        <time>2019-06-13T09:32:33.000Z</time>
      </trkpt>
      <trkpt lat="47.32501" lon="-2.29688">
        <ele>8.3999996185303</ele>
        <time>2019-06-13T09:32:34.000Z</time>
      </trkpt>
      <trkpt lat="47.32502" lon="-2.29694">
        <ele>8.8000001907349</ele>
        <time>2019-06-13T09:32:35.000Z</time>
      </trkpt>
      <trkpt lat="47.32511" lon="-2.29725">
        <ele>8.8000001907349</ele>
        <time>2019-06-13T09:32:40.000Z</time>
      </trkpt>
      <trkpt lat="47.32515" lon="-2.29745">
        <ele>9.1999998092651</ele>
        <time>2019-06-13T09:32:43.000Z</time>
      </trkpt>
      <trkpt lat="47.32517" lon="-2.29752">
        <ele>9.6000003814697</ele>
        <time>2019-06-13T09:32:44.000Z</time>
      </trkpt>
      <trkpt lat="47.32518" lon="-2.29758">
        <ele>10</ele>
        <time>2019-06-13T09:32:45.000Z</time>
      </trkpt>
      <trkpt lat="47.32519" lon="-2.29764">
        <ele>10.39999961853</ele>
        <time>2019-06-13T09:32:46.000Z</time>
      </trkpt>
      <trkpt lat="47.32521" lon="-2.2977">
        <ele>10.800000190735</ele>
        <time>2019-06-13T09:32:47.000Z</time>
      </trkpt>
      <trkpt lat="47.32524" lon="-2.29791">
        <ele>10.800000190735</ele>
        <time>2019-06-13T09:32:51.000Z</time>
      </trkpt>
      <trkpt lat="47.32513" lon="-2.29803">
        <ele>10.800000190735</ele>
        <time>2019-06-13T09:32:54.000Z</time>
      </trkpt>
      <trkpt lat="47.32501" lon="-2.29814">
        <ele>10.800000190735</ele>
        <time>2019-06-13T09:32:57.000Z</time>
      </trkpt>
      <trkpt lat="47.32488" lon="-2.29826">
        <ele>10.800000190735</ele>
        <time>2019-06-13T09:33:00.000Z</time>
      </trkpt>
      <trkpt lat="47.32461" lon="-2.29852">
        <ele>10.800000190735</ele>
        <time>2019-06-13T09:33:06.000Z</time>
      </trkpt>
      <trkpt lat="47.32451" lon="-2.2986">
        <ele>10.800000190735</ele>
        <time>2019-06-13T09:33:08.000Z</time>
      </trkpt>
      <trkpt lat="47.32444" lon="-2.29872">
        <ele>10.800000190735</ele>
        <time>2019-06-13T09:33:10.000Z</time>
      </trkpt>
      <trkpt lat="47.32443" lon="-2.29881">
        <ele>10.800000190735</ele>
        <time>2019-06-13T09:33:11.000Z</time>
      </trkpt>
      <trkpt lat="47.32445" lon="-2.29906">
        <ele>10.800000190735</ele>
        <time>2019-06-13T09:33:14.000Z</time>
      </trkpt>
      <trkpt lat="47.32446" lon="-2.29914">
        <ele>10.800000190735</ele>
        <time>2019-06-13T09:33:15.000Z</time>
      </trkpt>
      <trkpt lat="47.32448" lon="-2.29937">
        <ele>10.800000190735</ele>
        <time>2019-06-13T09:33:18.000Z</time>
      </trkpt>
      <trkpt lat="47.32445" lon="-2.2995">
        <ele>10.800000190735</ele>
        <time>2019-06-13T09:33:20.000Z</time>
      </trkpt>
      <trkpt lat="47.32446" lon="-2.29957">
        <ele>10.800000190735</ele>
        <time>2019-06-13T09:33:21.000Z</time>
      </trkpt>
      <trkpt lat="47.32448" lon="-2.29963">
        <ele>10.800000190735</ele>
        <time>2019-06-13T09:33:22.000Z</time>
      </trkpt>
      <trkpt lat="47.32463" lon="-2.29983">
        <ele>10.800000190735</ele>
        <time>2019-06-13T09:33:26.000Z</time>
      </trkpt>
      <trkpt lat="47.32477" lon="-2.30006">
        <ele>10.800000190735</ele>
        <time>2019-06-13T09:33:30.000Z</time>
      </trkpt>
      <trkpt lat="47.3248" lon="-2.30012">
        <ele>10.800000190735</ele>
        <time>2019-06-13T09:33:31.000Z</time>
      </trkpt>
      <trkpt lat="47.32489" lon="-2.30048">
        <ele>10.800000190735</ele>
        <time>2019-06-13T09:33:36.000Z</time>
      </trkpt>
      <trkpt lat="47.32494" lon="-2.30061">
        <ele>10.800000190735</ele>
        <time>2019-06-13T09:33:38.000Z</time>
      </trkpt>
      <trkpt lat="47.32495" lon="-2.30076">
        <ele>10.800000190735</ele>
        <time>2019-06-13T09:33:40.000Z</time>
      </trkpt>
      <trkpt lat="47.32495" lon="-2.30092">
        <ele>10.800000190735</ele>
        <time>2019-06-13T09:33:42.000Z</time>
      </trkpt>
      <trkpt lat="47.32495" lon="-2.30107">
        <ele>10.800000190735</ele>
        <time>2019-06-13T09:33:44.000Z</time>
      </trkpt>
      <trkpt lat="47.32496" lon="-2.30115">
        <ele>10.800000190735</ele>
        <time>2019-06-13T09:33:45.000Z</time>
      </trkpt>
      <trkpt lat="47.325" lon="-2.30138">
        <ele>10.800000190735</ele>
        <time>2019-06-13T09:33:48.000Z</time>
      </trkpt>
      <trkpt lat="47.32503" lon="-2.30154">
        <ele>10.800000190735</ele>
        <time>2019-06-13T09:33:50.000Z</time>
      </trkpt>
      <trkpt lat="47.32503" lon="-2.30162">
        <ele>10.800000190735</ele>
        <time>2019-06-13T09:33:51.000Z</time>
      </trkpt>
      <trkpt lat="47.32506" lon="-2.30177">
        <ele>10.800000190735</ele>
        <time>2019-06-13T09:33:53.000Z</time>
      </trkpt>
      <trkpt lat="47.3251" lon="-2.30201">
        <ele>10.800000190735</ele>
        <time>2019-06-13T09:33:56.000Z</time>
      </trkpt>
      <trkpt lat="47.32515" lon="-2.30244">
        <ele>10.800000190735</ele>
        <time>2019-06-13T09:34:01.000Z</time>
      </trkpt>
      <trkpt lat="47.32525" lon="-2.30302">
        <ele>10.800000190735</ele>
        <time>2019-06-13T09:34:08.000Z</time>
      </trkpt>
      <trkpt lat="47.3253" lon="-2.30325">
        <ele>10.800000190735</ele>
        <time>2019-06-13T09:34:11.000Z</time>
      </trkpt>
      <trkpt lat="47.32533" lon="-2.30342">
        <ele>10.39999961853</ele>
        <time>2019-06-13T09:34:13.000Z</time>
      </trkpt>
      <trkpt lat="47.32534" lon="-2.3035">
        <ele>10</ele>
        <time>2019-06-13T09:34:14.000Z</time>
      </trkpt>
      <trkpt lat="47.32536" lon="-2.30357">
        <ele>9.6000003814697</ele>
        <time>2019-06-13T09:34:15.000Z</time>
      </trkpt>
      <trkpt lat="47.32538" lon="-2.30365">
        <ele>9.1999998092651</ele>
        <time>2019-06-13T09:34:16.000Z</time>
      </trkpt>
      <trkpt lat="47.3254" lon="-2.30373">
        <ele>8.8000001907349</ele>
        <time>2019-06-13T09:34:17.000Z</time>
      </trkpt>
      <trkpt lat="47.32542" lon="-2.30388">
        <ele>8.8000001907349</ele>
        <time>2019-06-13T09:34:19.000Z</time>
      </trkpt>
      <trkpt lat="47.32542" lon="-2.30395">
        <ele>8.8000001907349</ele>
        <time>2019-06-13T09:34:20.000Z</time>
      </trkpt>
      <trkpt lat="47.32537" lon="-2.30403">
        <ele>8.8000001907349</ele>
        <time>2019-06-13T09:34:22.000Z</time>
      </trkpt>
      <trkpt lat="47.32529" lon="-2.30405">
        <ele>8.8000001907349</ele>
        <time>2019-06-13T09:34:24.000Z</time>
      </trkpt>
      <trkpt lat="47.32523" lon="-2.30408">
        <ele>8.8000001907349</ele>
        <time>2019-06-13T09:34:25.000Z</time>
      </trkpt>
      <trkpt lat="47.32499" lon="-2.3042">
        <ele>8.8000001907349</ele>
        <time>2019-06-13T09:34:30.000Z</time>
      </trkpt>
      <trkpt lat="47.32496" lon="-2.30427">
        <ele>8.8000001907349</ele>
        <time>2019-06-13T09:34:31.000Z</time>
      </trkpt>
      <trkpt lat="47.325" lon="-2.3044">
        <ele>8.8000001907349</ele>
        <time>2019-06-13T09:34:33.000Z</time>
      </trkpt>
      <trkpt lat="47.32506" lon="-2.30463">
        <ele>8.8000001907349</ele>
        <time>2019-06-13T09:34:36.000Z</time>
      </trkpt>
      <trkpt lat="47.32509" lon="-2.30479">
        <ele>8.8000001907349</ele>
        <time>2019-06-13T09:34:38.000Z</time>
      </trkpt>
      <trkpt lat="47.32517" lon="-2.30521">
        <ele>8.8000001907349</ele>
        <time>2019-06-13T09:34:43.000Z</time>
      </trkpt>
      <trkpt lat="47.32518" lon="-2.30529">
        <ele>8.8000001907349</ele>
        <time>2019-06-13T09:34:44.000Z</time>
      </trkpt>
      <trkpt lat="47.3252" lon="-2.30537">
        <ele>8.8000001907349</ele>
        <time>2019-06-13T09:34:45.000Z</time>
      </trkpt>
      <trkpt lat="47.32525" lon="-2.30571">
        <ele>8.8000001907349</ele>
        <time>2019-06-13T09:34:49.000Z</time>
      </trkpt>
      <trkpt lat="47.32538" lon="-2.30639">
        <ele>8.3999996185303</ele>
        <time>2019-06-13T09:34:57.000Z</time>
      </trkpt>
      <trkpt lat="47.3254" lon="-2.30648">
        <ele>8</ele>
        <time>2019-06-13T09:34:58.000Z</time>
      </trkpt>
      <trkpt lat="47.32542" lon="-2.30656">
        <ele>7.5999999046326</ele>
        <time>2019-06-13T09:34:59.000Z</time>
      </trkpt>
      <trkpt lat="47.32543" lon="-2.30665">
        <ele>7</ele>
        <time>2019-06-13T09:35:00.000Z</time>
      </trkpt>
      <trkpt lat="47.32544" lon="-2.30674">
        <ele>6.5999999046326</ele>
        <time>2019-06-13T09:35:01.000Z</time>
      </trkpt>
      <trkpt lat="47.32544" lon="-2.30683">
        <ele>6.5999999046326</ele>
        <time>2019-06-13T09:35:02.000Z</time>
      </trkpt>
      <trkpt lat="47.32544" lon="-2.30691">
        <ele>6.5999999046326</ele>
        <time>2019-06-13T09:35:03.000Z</time>
      </trkpt>
      <trkpt lat="47.3255" lon="-2.30717">
        <ele>6.5999999046326</ele>
        <time>2019-06-13T09:35:06.000Z</time>
      </trkpt>
      <trkpt lat="47.32552" lon="-2.30742">
        <ele>6.5999999046326</ele>
        <time>2019-06-13T09:35:09.000Z</time>
      </trkpt>
      <trkpt lat="47.32556" lon="-2.3076">
        <ele>6.5999999046326</ele>
        <time>2019-06-13T09:35:11.000Z</time>
      </trkpt>
      <trkpt lat="47.32559" lon="-2.30778">
        <ele>6.5999999046326</ele>
        <time>2019-06-13T09:35:13.000Z</time>
      </trkpt>
      <trkpt lat="47.32564" lon="-2.30833">
        <ele>6.5999999046326</ele>
        <time>2019-06-13T09:35:19.000Z</time>
      </trkpt>
      <trkpt lat="47.32564" lon="-2.30867">
        <ele>6.5999999046326</ele>
        <time>2019-06-13T09:35:23.000Z</time>
      </trkpt>
      <trkpt lat="47.32565" lon="-2.30883">
        <ele>6.5999999046326</ele>
        <time>2019-06-13T09:35:25.000Z</time>
      </trkpt>
      <trkpt lat="47.32564" lon="-2.30891">
        <ele>6.5999999046326</ele>
        <time>2019-06-13T09:35:26.000Z</time>
      </trkpt>
      <trkpt lat="47.32564" lon="-2.30915">
        <ele>6.5999999046326</ele>
        <time>2019-06-13T09:35:29.000Z</time>
      </trkpt>
      <trkpt lat="47.32563" lon="-2.30922">
        <ele>6.5999999046326</ele>
        <time>2019-06-13T09:35:30.000Z</time>
      </trkpt>
      <trkpt lat="47.32561" lon="-2.30944">
        <ele>6.5999999046326</ele>
        <time>2019-06-13T09:35:33.000Z</time>
      </trkpt>
      <trkpt lat="47.32562" lon="-2.30958">
        <ele>6.5999999046326</ele>
        <time>2019-06-13T09:35:35.000Z</time>
      </trkpt>
      <trkpt lat="47.32563" lon="-2.30973">
        <ele>6.5999999046326</ele>
        <time>2019-06-13T09:35:37.000Z</time>
      </trkpt>
      <trkpt lat="47.32561" lon="-2.30995">
        <ele>6.5999999046326</ele>
        <time>2019-06-13T09:35:40.000Z</time>
      </trkpt>
      <trkpt lat="47.32566" lon="-2.31034">
        <ele>6.5999999046326</ele>
        <time>2019-06-13T09:35:45.000Z</time>
      </trkpt>
      <trkpt lat="47.32572" lon="-2.31067">
        <ele>6.5999999046326</ele>
        <time>2019-06-13T09:35:49.000Z</time>
      </trkpt>
      <trkpt lat="47.32572" lon="-2.31076">
        <ele>6.5999999046326</ele>
        <time>2019-06-13T09:35:50.000Z</time>
      </trkpt>
      <trkpt lat="47.3257" lon="-2.31135">
        <ele>6.5999999046326</ele>
        <time>2019-06-13T09:35:57.000Z</time>
      </trkpt>
      <trkpt lat="47.32568" lon="-2.31144">
        <ele>6.5999999046326</ele>
        <time>2019-06-13T09:35:58.000Z</time>
      </trkpt>
      <trkpt lat="47.32566" lon="-2.31152">
        <ele>6.1999998092651</ele>
        <time>2019-06-13T09:35:59.000Z</time>
      </trkpt>
      <trkpt lat="47.32565" lon="-2.31161">
        <ele>5.8000001907349</ele>
        <time>2019-06-13T09:36:00.000Z</time>
      </trkpt>
      <trkpt lat="47.32564" lon="-2.31168">
        <ele>5.4000000953674</ele>
        <time>2019-06-13T09:36:01.000Z</time>
      </trkpt>
      <trkpt lat="47.32565" lon="-2.31176">
        <ele>5</ele>
        <time>2019-06-13T09:36:02.000Z</time>
      </trkpt>
      <trkpt lat="47.32566" lon="-2.31186">
        <ele>4.5999999046326</ele>
        <time>2019-06-13T09:36:03.000Z</time>
      </trkpt>
      <trkpt lat="47.32573" lon="-2.31203">
        <ele>4.5999999046326</ele>
        <time>2019-06-13T09:36:05.000Z</time>
      </trkpt>
      <trkpt lat="47.32576" lon="-2.3123">
        <ele>4.5999999046326</ele>
        <time>2019-06-13T09:36:08.000Z</time>
      </trkpt>
      <trkpt lat="47.32573" lon="-2.31275">
        <ele>4.5999999046326</ele>
        <time>2019-06-13T09:36:13.000Z</time>
      </trkpt>
      <trkpt lat="47.32573" lon="-2.31301">
        <ele>4.5999999046326</ele>
        <time>2019-06-13T09:36:16.000Z</time>
      </trkpt>
      <trkpt lat="47.32572" lon="-2.31309">
        <ele>4.5999999046326</ele>
        <time>2019-06-13T09:36:17.000Z</time>
      </trkpt>
      <trkpt lat="47.3257" lon="-2.31316">
        <ele>4.5999999046326</ele>
        <time>2019-06-13T09:36:18.000Z</time>
      </trkpt>
      <trkpt lat="47.32559" lon="-2.31343">
        <ele>4.5999999046326</ele>
        <time>2019-06-13T09:36:22.000Z</time>
      </trkpt>
      <trkpt lat="47.32556" lon="-2.31367">
        <ele>4.5999999046326</ele>
        <time>2019-06-13T09:36:25.000Z</time>
      </trkpt>
      <trkpt lat="47.32555" lon="-2.31375">
        <ele>4.5999999046326</ele>
        <time>2019-06-13T09:36:26.000Z</time>
      </trkpt>
      <trkpt lat="47.32552" lon="-2.31396">
        <ele>4.5999999046326</ele>
        <time>2019-06-13T09:36:30.000Z</time>
      </trkpt>
      <trkpt lat="47.32551" lon="-2.31417">
        <ele>4.5999999046326</ele>
        <time>2019-06-13T09:36:34.000Z</time>
      </trkpt>
      <trkpt lat="47.32557" lon="-2.31457">
        <ele>4.5999999046326</ele>
        <time>2019-06-13T09:36:40.000Z</time>
      </trkpt>
      <trkpt lat="47.3256" lon="-2.31473">
        <ele>4.5999999046326</ele>
        <time>2019-06-13T09:36:42.000Z</time>
      </trkpt>
      <trkpt lat="47.3256" lon="-2.31494">
        <ele>4.5999999046326</ele>
        <time>2019-06-13T09:36:45.000Z</time>
      </trkpt>
      <trkpt lat="47.32559" lon="-2.31502">
        <ele>4.5999999046326</ele>
        <time>2019-06-13T09:36:46.000Z</time>
      </trkpt>
      <trkpt lat="47.32557" lon="-2.31526">
        <ele>4.5999999046326</ele>
        <time>2019-06-13T09:36:49.000Z</time>
      </trkpt>
      <trkpt lat="47.32557" lon="-2.31554">
        <ele>4.5999999046326</ele>
        <time>2019-06-13T09:36:53.000Z</time>
      </trkpt>
      <trkpt lat="47.32558" lon="-2.31563">
        <ele>4.5999999046326</ele>
        <time>2019-06-13T09:36:54.000Z</time>
      </trkpt>
      <trkpt lat="47.32558" lon="-2.3157">
        <ele>4.5999999046326</ele>
        <time>2019-06-13T09:36:55.000Z</time>
      </trkpt>
      <trkpt lat="47.3255" lon="-2.3159">
        <ele>4.5999999046326</ele>
        <time>2019-06-13T09:36:58.000Z</time>
      </trkpt>
      <trkpt lat="47.32545" lon="-2.31597">
        <ele>4.5999999046326</ele>
        <time>2019-06-13T09:36:59.000Z</time>
      </trkpt>
      <trkpt lat="47.32524" lon="-2.31628">
        <ele>4.5999999046326</ele>
        <time>2019-06-13T09:37:04.000Z</time>
      </trkpt>
      <trkpt lat="47.32516" lon="-2.3164">
        <ele>4.5999999046326</ele>
        <time>2019-06-13T09:37:06.000Z</time>
      </trkpt>
      <trkpt lat="47.3251" lon="-2.31654">
        <ele>4.5999999046326</ele>
        <time>2019-06-13T09:37:08.000Z</time>
      </trkpt>
      <trkpt lat="47.32508" lon="-2.31688">
        <ele>4.5999999046326</ele>
        <time>2019-06-13T09:37:12.000Z</time>
      </trkpt>
      <trkpt lat="47.32509" lon="-2.31697">
        <ele>4.5999999046326</ele>
        <time>2019-06-13T09:37:13.000Z</time>
      </trkpt>
      <trkpt lat="47.32513" lon="-2.31722">
        <ele>4.5999999046326</ele>
        <time>2019-06-13T09:37:16.000Z</time>
      </trkpt>
      <trkpt lat="47.32514" lon="-2.31731">
        <ele>4.5999999046326</ele>
        <time>2019-06-13T09:37:17.000Z</time>
      </trkpt>
      <trkpt lat="47.32516" lon="-2.31774">
        <ele>4.5999999046326</ele>
        <time>2019-06-13T09:37:22.000Z</time>
      </trkpt>
      <trkpt lat="47.32521" lon="-2.31828">
        <ele>4.5999999046326</ele>
        <time>2019-06-13T09:37:28.000Z</time>
      </trkpt>
      <trkpt lat="47.32521" lon="-2.31857">
        <ele>4.5999999046326</ele>
        <time>2019-06-13T09:37:31.000Z</time>
      </trkpt>
      <trkpt lat="47.32518" lon="-2.31875">
        <ele>4.5999999046326</ele>
        <time>2019-06-13T09:37:33.000Z</time>
      </trkpt>
      <trkpt lat="47.32516" lon="-2.31902">
        <ele>4.5999999046326</ele>
        <time>2019-06-13T09:37:36.000Z</time>
      </trkpt>
      <trkpt lat="47.32513" lon="-2.31918">
        <ele>4.5999999046326</ele>
        <time>2019-06-13T09:37:38.000Z</time>
      </trkpt>
      <trkpt lat="47.32505" lon="-2.3197">
        <ele>4.5999999046326</ele>
        <time>2019-06-13T09:37:44.000Z</time>
      </trkpt>
      <trkpt lat="47.32504" lon="-2.31988">
        <ele>4.5999999046326</ele>
        <time>2019-06-13T09:37:46.000Z</time>
      </trkpt>
      <trkpt lat="47.32504" lon="-2.32024">
        <ele>4.5999999046326</ele>
        <time>2019-06-13T09:37:50.000Z</time>
      </trkpt>
      <trkpt lat="47.32501" lon="-2.32075">
        <ele>4.5999999046326</ele>
        <time>2019-06-13T09:37:56.000Z</time>
      </trkpt>
      <trkpt lat="47.3249" lon="-2.32095">
        <ele>4.5999999046326</ele>
        <time>2019-06-13T09:37:59.000Z</time>
      </trkpt>
      <trkpt lat="47.3247" lon="-2.32099">
        <ele>4.5999999046326</ele>
        <time>2019-06-13T09:38:02.000Z</time>
      </trkpt>
      <trkpt lat="47.32431" lon="-2.32103">
        <ele>4.5999999046326</ele>
        <time>2019-06-13T09:38:08.000Z</time>
      </trkpt>
      <trkpt lat="47.32424" lon="-2.32103">
        <ele>4.1999998092651</ele>
        <time>2019-06-13T09:38:09.000Z</time>
      </trkpt>
      <trkpt lat="47.32418" lon="-2.32104">
        <ele>3.4000000953674</ele>
        <time>2019-06-13T09:38:10.000Z</time>
      </trkpt>
      <trkpt lat="47.32412" lon="-2.32105">
        <ele>2.7999999523163</ele>
        <time>2019-06-13T09:38:11.000Z</time>
      </trkpt>
      <trkpt lat="47.32406" lon="-2.32104">
        <ele>2.4000000953674</ele>
        <time>2019-06-13T09:38:12.000Z</time>
      </trkpt>
      <trkpt lat="47.32401" lon="-2.32105">
        <ele>2.4000000953674</ele>
        <time>2019-06-13T09:38:13.000Z</time>
      </trkpt>
      <trkpt lat="47.32363" lon="-2.32108">
        <ele>2.4000000953674</ele>
        <time>2019-06-13T09:38:20.000Z</time>
      </trkpt>
      <trkpt lat="47.32344" lon="-2.32108">
        <ele>2.4000000953674</ele>
        <time>2019-06-13T09:38:24.000Z</time>
      </trkpt>
      <trkpt lat="47.32337" lon="-2.32106">
        <ele>2.4000000953674</ele>
        <time>2019-06-13T09:38:25.000Z</time>
      </trkpt>
      <trkpt lat="47.3231" lon="-2.32103">
        <ele>2.4000000953674</ele>
        <time>2019-06-13T09:38:30.000Z</time>
      </trkpt>
      <trkpt lat="47.3227" lon="-2.32104">
        <ele>2.4000000953674</ele>
        <time>2019-06-13T09:38:37.000Z</time>
      </trkpt>
      <trkpt lat="47.32229" lon="-2.32111">
        <ele>2.4000000953674</ele>
        <time>2019-06-13T09:38:44.000Z</time>
      </trkpt>
      <trkpt lat="47.32213" lon="-2.32115">
        <ele>2.4000000953674</ele>
        <time>2019-06-13T09:38:47.000Z</time>
      </trkpt>
      <trkpt lat="47.32203" lon="-2.32117">
        <ele>2.4000000953674</ele>
        <time>2019-06-13T09:38:49.000Z</time>
      </trkpt>
      <trkpt lat="47.32188" lon="-2.32123">
        <ele>2.4000000953674</ele>
        <time>2019-06-13T09:38:52.000Z</time>
      </trkpt>
      <trkpt lat="47.32177" lon="-2.32132">
        <ele>2.4000000953674</ele>
        <time>2019-06-13T09:38:54.000Z</time>
      </trkpt>
      <trkpt lat="47.3213" lon="-2.32173">
        <ele>2.4000000953674</ele>
        <time>2019-06-13T09:39:03.000Z</time>
      </trkpt>
      <trkpt lat="47.32115" lon="-2.32181">
        <ele>2.4000000953674</ele>
        <time>2019-06-13T09:39:06.000Z</time>
      </trkpt>
      <trkpt lat="47.32104" lon="-2.32184">
        <ele>2.4000000953674</ele>
        <time>2019-06-13T09:39:08.000Z</time>
      </trkpt>
      <trkpt lat="47.32075" lon="-2.32187">
        <ele>2.4000000953674</ele>
        <time>2019-06-13T09:39:13.000Z</time>
      </trkpt>
      <trkpt lat="47.3207" lon="-2.32186">
        <ele>2.4000000953674</ele>
        <time>2019-06-13T09:39:14.000Z</time>
      </trkpt>
      <trkpt lat="47.32043" lon="-2.3219">
        <ele>2.4000000953674</ele>
        <time>2019-06-13T09:39:20.000Z</time>
      </trkpt>
      <trkpt lat="47.32015" lon="-2.32196">
        <ele>2.4000000953674</ele>
        <time>2019-06-13T09:39:26.000Z</time>
      </trkpt>
      <trkpt lat="47.32011" lon="-2.32199">
        <ele>2.4000000953674</ele>
        <time>2019-06-13T09:39:27.000Z</time>
      </trkpt>
      <trkpt lat="47.31978" lon="-2.32234">
        <ele>3</ele>
        <time>2019-06-13T09:39:37.000Z</time>
      </trkpt>
      <trkpt lat="47.31974" lon="-2.32238">
        <ele>3.4000000953674</ele>
        <time>2019-06-13T09:39:38.000Z</time>
      </trkpt>
      <trkpt lat="47.31971" lon="-2.32241">
        <ele>3.7999999523163</ele>
        <time>2019-06-13T09:39:39.000Z</time>
      </trkpt>
      <trkpt lat="47.31968" lon="-2.32245">
        <ele>4.1999998092651</ele>
        <time>2019-06-13T09:39:40.000Z</time>
      </trkpt>
      <trkpt lat="47.31966" lon="-2.32249">
        <ele>4.5999999046326</ele>
        <time>2019-06-13T09:39:41.000Z</time>
      </trkpt>
      <trkpt lat="47.31963" lon="-2.32253">
        <ele>4.5999999046326</ele>
        <time>2019-06-13T09:39:42.000Z</time>
      </trkpt>
      <trkpt lat="47.3196" lon="-2.32262">
        <ele>5</ele>
        <time>2019-06-13T09:39:44.000Z</time>
      </trkpt>
      <trkpt lat="47.31956" lon="-2.32264">
        <ele>5.5999999046326</ele>
        <time>2019-06-13T09:39:45.000Z</time>
      </trkpt>
      <trkpt lat="47.31953" lon="-2.32263">
        <ele>6</ele>
        <time>2019-06-13T09:39:46.000Z</time>
      </trkpt>
      <trkpt lat="47.31952" lon="-2.32259">
        <ele>6.4000000953674</ele>
        <time>2019-06-13T09:39:47.000Z</time>
      </trkpt>
      <trkpt lat="47.31952" lon="-2.32254">
        <ele>7</ele>
        <time>2019-06-13T09:39:48.000Z</time>
      </trkpt>
      <trkpt lat="47.31952" lon="-2.3225">
        <ele>7</ele>
        <time>2019-06-13T09:39:49.000Z</time>
      </trkpt>
      <trkpt lat="47.31953" lon="-2.32245">
        <ele>7.4000000953674</ele>
        <time>2019-06-13T09:39:50.000Z</time>
      </trkpt>
      <trkpt lat="47.31954" lon="-2.32241">
        <ele>7.8000001907349</ele>
        <time>2019-06-13T09:39:51.000Z</time>
      </trkpt>
      <trkpt lat="47.31955" lon="-2.32237">
        <ele>8.1999998092651</ele>
        <time>2019-06-13T09:39:52.000Z</time>
      </trkpt>
      <trkpt lat="47.31957" lon="-2.32233">
        <ele>8.6000003814697</ele>
        <time>2019-06-13T09:39:53.000Z</time>
      </trkpt>
      <trkpt lat="47.31958" lon="-2.32228">
        <ele>9</ele>
        <time>2019-06-13T09:39:54.000Z</time>
      </trkpt>
      <trkpt lat="47.31953" lon="-2.32212">
        <ele>9</ele>
        <time>2019-06-13T09:39:58.000Z</time>
      </trkpt>
      <trkpt lat="47.31946" lon="-2.3221">
        <ele>9</ele>
        <time>2019-06-13T09:40:00.000Z</time>
      </trkpt>
      <trkpt lat="47.3194" lon="-2.32209">
        <ele>9</ele>
        <time>2019-06-13T09:40:02.000Z</time>
      </trkpt>
      <trkpt lat="47.3193" lon="-2.32206">
        <ele>9.3999996185303</ele>
        <time>2019-06-13T09:40:05.000Z</time>
      </trkpt>
      <trkpt lat="47.31926" lon="-2.32205">
        <ele>9.8000001907349</ele>
        <time>2019-06-13T09:40:06.000Z</time>
      </trkpt>
      <trkpt lat="47.31923" lon="-2.32205">
        <ele>10.199999809265</ele>
        <time>2019-06-13T09:40:07.000Z</time>
      </trkpt>
      <trkpt lat="47.31919" lon="-2.32204">
        <ele>10.60000038147</ele>
        <time>2019-06-13T09:40:08.000Z</time>
      </trkpt>
      <trkpt lat="47.31916" lon="-2.32204">
        <ele>11</ele>
        <time>2019-06-13T09:40:09.000Z</time>
      </trkpt>
      <trkpt lat="47.31909" lon="-2.32203">
        <ele>11.39999961853</ele>
        <time>2019-06-13T09:40:11.000Z</time>
      </trkpt>
      <trkpt lat="47.31906" lon="-2.32204">
        <ele>11.800000190735</ele>
        <time>2019-06-13T09:40:12.000Z</time>
      </trkpt>
      <trkpt lat="47.31902" lon="-2.32204">
        <ele>12.60000038147</ele>
        <time>2019-06-13T09:40:13.000Z</time>
      </trkpt>
      <trkpt lat="47.31899" lon="-2.32205">
        <ele>13</ele>
        <time>2019-06-13T09:40:14.000Z</time>
      </trkpt>
      <trkpt lat="47.31882" lon="-2.3221">
        <ele>13.39999961853</ele>
        <time>2019-06-13T09:40:19.000Z</time>
      </trkpt>
      <trkpt lat="47.31879" lon="-2.32211">
        <ele>13.800000190735</ele>
        <time>2019-06-13T09:40:20.000Z</time>
      </trkpt>
      <trkpt lat="47.31875" lon="-2.32212">
        <ele>14.199999809265</ele>
        <time>2019-06-13T09:40:21.000Z</time>
      </trkpt>
      <trkpt lat="47.31871" lon="-2.32214">
        <ele>14.800000190735</ele>
        <time>2019-06-13T09:40:22.000Z</time>
      </trkpt>
      <trkpt lat="47.31868" lon="-2.32214">
        <ele>15.199999809265</ele>
        <time>2019-06-13T09:40:23.000Z</time>
      </trkpt>
      <trkpt lat="47.31865" lon="-2.32215">
        <ele>15.199999809265</ele>
        <time>2019-06-13T09:40:24.000Z</time>
      </trkpt>
      <trkpt lat="47.31848" lon="-2.32221">
        <ele>15.60000038147</ele>
        <time>2019-06-13T09:40:29.000Z</time>
      </trkpt>
      <trkpt lat="47.31845" lon="-2.32222">
        <ele>16</ele>
        <time>2019-06-13T09:40:30.000Z</time>
      </trkpt>
      <trkpt lat="47.31843" lon="-2.32223">
        <ele>16.39999961853</ele>
        <time>2019-06-13T09:40:31.000Z</time>
      </trkpt>
      <trkpt lat="47.3184" lon="-2.32224">
        <ele>16.799999237061</ele>
        <time>2019-06-13T09:40:32.000Z</time>
      </trkpt>
      <trkpt lat="47.31837" lon="-2.32225">
        <ele>17.200000762939</ele>
        <time>2019-06-13T09:40:33.000Z</time>
      </trkpt>
      <trkpt lat="47.31825" lon="-2.32226">
        <ele>17.60000038147</ele>
        <time>2019-06-13T09:40:36.000Z</time>
      </trkpt>
      <trkpt lat="47.31822" lon="-2.32227">
        <ele>18</ele>
        <time>2019-06-13T09:40:37.000Z</time>
      </trkpt>
      <trkpt lat="47.31818" lon="-2.32228">
        <ele>18.799999237061</ele>
        <time>2019-06-13T09:40:38.000Z</time>
      </trkpt>
      <trkpt lat="47.31815" lon="-2.32229">
        <ele>19.200000762939</ele>
        <time>2019-06-13T09:40:39.000Z</time>
      </trkpt>
      <trkpt lat="47.31802" lon="-2.3223">
        <ele>19.200000762939</ele>
        <time>2019-06-13T09:40:43.000Z</time>
      </trkpt>
      <trkpt lat="47.31788" lon="-2.32232">
        <ele>19.60000038147</ele>
        <time>2019-06-13T09:40:47.000Z</time>
      </trkpt>
      <trkpt lat="47.31784" lon="-2.32232">
        <ele>20</ele>
        <time>2019-06-13T09:40:48.000Z</time>
      </trkpt>
      <trkpt lat="47.3178" lon="-2.32232">
        <ele>20.39999961853</ele>
        <time>2019-06-13T09:40:49.000Z</time>
      </trkpt>
      <trkpt lat="47.31776" lon="-2.32233">
        <ele>20.799999237061</ele>
        <time>2019-06-13T09:40:50.000Z</time>
      </trkpt>
      <trkpt lat="47.31773" lon="-2.32233">
        <ele>21.200000762939</ele>
        <time>2019-06-13T09:40:51.000Z</time>
      </trkpt>
      <trkpt lat="47.3176" lon="-2.32237">
        <ele>21.200000762939</ele>
        <time>2019-06-13T09:40:55.000Z</time>
      </trkpt>
      <trkpt lat="47.31758" lon="-2.32241">
        <ele>21.200000762939</ele>
        <time>2019-06-13T09:40:56.000Z</time>
      </trkpt>
      <trkpt lat="47.3176" lon="-2.32258">
        <ele>21.200000762939</ele>
        <time>2019-06-13T09:40:59.000Z</time>
      </trkpt>
      <trkpt lat="47.31761" lon="-2.32264">
        <ele>21.200000762939</ele>
        <time>2019-06-13T09:41:00.000Z</time>
      </trkpt>
      <trkpt lat="47.31762" lon="-2.32277">
        <ele>21.200000762939</ele>
        <time>2019-06-13T09:41:02.000Z</time>
      </trkpt>
      <trkpt lat="47.31763" lon="-2.32292">
        <ele>21.200000762939</ele>
        <time>2019-06-13T09:41:04.000Z</time>
      </trkpt>
      <trkpt lat="47.31764" lon="-2.32298">
        <ele>21.200000762939</ele>
        <time>2019-06-13T09:41:05.000Z</time>
      </trkpt>
      <trkpt lat="47.31768" lon="-2.32328">
        <ele>21.200000762939</ele>
        <time>2019-06-13T09:41:09.000Z</time>
      </trkpt>
      <trkpt lat="47.31776" lon="-2.32367">
        <ele>21.200000762939</ele>
        <time>2019-06-13T09:41:14.000Z</time>
      </trkpt>
      <trkpt lat="47.31783" lon="-2.3241">
        <ele>21.200000762939</ele>
        <time>2019-06-13T09:41:19.000Z</time>
      </trkpt>
      <trkpt lat="47.3179" lon="-2.32457">
        <ele>21.200000762939</ele>
        <time>2019-06-13T09:41:24.000Z</time>
      </trkpt>
      <trkpt lat="47.31798" lon="-2.32482">
        <ele>20.799999237061</ele>
        <time>2019-06-13T09:41:27.000Z</time>
      </trkpt>
      <trkpt lat="47.318" lon="-2.32493">
        <ele>19.799999237061</ele>
        <time>2019-06-13T09:41:28.000Z</time>
      </trkpt>
      <trkpt lat="47.31801" lon="-2.32503">
        <ele>19.200000762939</ele>
        <time>2019-06-13T09:41:29.000Z</time>
      </trkpt>
      <trkpt lat="47.31802" lon="-2.32513">
        <ele>18.799999237061</ele>
        <time>2019-06-13T09:41:30.000Z</time>
      </trkpt>
      <trkpt lat="47.31804" lon="-2.32522">
        <ele>18.200000762939</ele>
        <time>2019-06-13T09:41:31.000Z</time>
      </trkpt>
      <trkpt lat="47.31804" lon="-2.32531">
        <ele>17.799999237061</ele>
        <time>2019-06-13T09:41:32.000Z</time>
      </trkpt>
      <trkpt lat="47.31807" lon="-2.32542">
        <ele>17.39999961853</ele>
        <time>2019-06-13T09:41:33.000Z</time>
      </trkpt>
      <trkpt lat="47.3181" lon="-2.32553">
        <ele>16.799999237061</ele>
        <time>2019-06-13T09:41:34.000Z</time>
      </trkpt>
      <trkpt lat="47.31813" lon="-2.32564">
        <ele>16.39999961853</ele>
        <time>2019-06-13T09:41:35.000Z</time>
      </trkpt>
      <trkpt lat="47.31817" lon="-2.32584">
        <ele>16</ele>
        <time>2019-06-13T09:41:37.000Z</time>
      </trkpt>
      <trkpt lat="47.31819" lon="-2.32593">
        <ele>15.60000038147</ele>
        <time>2019-06-13T09:41:38.000Z</time>
      </trkpt>
      <trkpt lat="47.31821" lon="-2.32603">
        <ele>15.199999809265</ele>
        <time>2019-06-13T09:41:39.000Z</time>
      </trkpt>
      <trkpt lat="47.31824" lon="-2.32612">
        <ele>14.800000190735</ele>
        <time>2019-06-13T09:41:40.000Z</time>
      </trkpt>
      <trkpt lat="47.31827" lon="-2.32621">
        <ele>14.39999961853</ele>
        <time>2019-06-13T09:41:41.000Z</time>
      </trkpt>
      <trkpt lat="47.31839" lon="-2.3266">
        <ele>13.800000190735</ele>
        <time>2019-06-13T09:41:46.000Z</time>
      </trkpt>
      <trkpt lat="47.31843" lon="-2.32668">
        <ele>13.39999961853</ele>
        <time>2019-06-13T09:41:47.000Z</time>
      </trkpt>
      <trkpt lat="47.31846" lon="-2.32675">
        <ele>13</ele>
        <time>2019-06-13T09:41:48.000Z</time>
      </trkpt>
      <trkpt lat="47.3185" lon="-2.32683">
        <ele>12.60000038147</ele>
        <time>2019-06-13T09:41:49.000Z</time>
      </trkpt>
      <trkpt lat="47.31853" lon="-2.32692">
        <ele>12.199999809265</ele>
        <time>2019-06-13T09:41:50.000Z</time>
      </trkpt>
      <trkpt lat="47.31856" lon="-2.327">
        <ele>12.199999809265</ele>
        <time>2019-06-13T09:41:51.000Z</time>
      </trkpt>
      <trkpt lat="47.3187" lon="-2.32734">
        <ele>12.199999809265</ele>
        <time>2019-06-13T09:41:55.000Z</time>
      </trkpt>
      <trkpt lat="47.31873" lon="-2.32742">
        <ele>12.199999809265</ele>
        <time>2019-06-13T09:41:56.000Z</time>
      </trkpt>
      <trkpt lat="47.31882" lon="-2.32771">
        <ele>12.199999809265</ele>
        <time>2019-06-13T09:41:59.000Z</time>
      </trkpt>
      <trkpt lat="47.31884" lon="-2.32781">
        <ele>12.199999809265</ele>
        <time>2019-06-13T09:42:00.000Z</time>
      </trkpt>
      <trkpt lat="47.31885" lon="-2.3279">
        <ele>11.800000190735</ele>
        <time>2019-06-13T09:42:01.000Z</time>
      </trkpt>
      <trkpt lat="47.31887" lon="-2.32799">
        <ele>11.39999961853</ele>
        <time>2019-06-13T09:42:02.000Z</time>
      </trkpt>
      <trkpt lat="47.31888" lon="-2.32808">
        <ele>11</ele>
        <time>2019-06-13T09:42:03.000Z</time>
      </trkpt>
      <trkpt lat="47.3189" lon="-2.32818">
        <ele>10.39999961853</ele>
        <time>2019-06-13T09:42:04.000Z</time>
      </trkpt>
      <trkpt lat="47.3189" lon="-2.32828">
        <ele>10</ele>
        <time>2019-06-13T09:42:05.000Z</time>
      </trkpt>
      <trkpt lat="47.31891" lon="-2.32838">
        <ele>10</ele>
        <time>2019-06-13T09:42:06.000Z</time>
      </trkpt>
      <trkpt lat="47.3189" lon="-2.32856">
        <ele>10</ele>
        <time>2019-06-13T09:42:08.000Z</time>
      </trkpt>
      <trkpt lat="47.31889" lon="-2.32872">
        <ele>10</ele>
        <time>2019-06-13T09:42:10.000Z</time>
      </trkpt>
      <trkpt lat="47.31889" lon="-2.32898">
        <ele>10</ele>
        <time>2019-06-13T09:42:13.000Z</time>
      </trkpt>
      <trkpt lat="47.31889" lon="-2.32916">
        <ele>10</ele>
        <time>2019-06-13T09:42:15.000Z</time>
      </trkpt>
      <trkpt lat="47.31885" lon="-2.3296">
        <ele>10</ele>
        <time>2019-06-13T09:42:20.000Z</time>
      </trkpt>
      <trkpt lat="47.31879" lon="-2.3299">
        <ele>10</ele>
        <time>2019-06-13T09:42:23.000Z</time>
      </trkpt>
      <trkpt lat="47.3188" lon="-2.33008">
        <ele>10</ele>
        <time>2019-06-13T09:42:25.000Z</time>
      </trkpt>
      <trkpt lat="47.3188" lon="-2.33035">
        <ele>9.6000003814697</ele>
        <time>2019-06-13T09:42:28.000Z</time>
      </trkpt>
      <trkpt lat="47.3188" lon="-2.33046">
        <ele>9.1999998092651</ele>
        <time>2019-06-13T09:42:29.000Z</time>
      </trkpt>
      <trkpt lat="47.3188" lon="-2.33056">
        <ele>8.8000001907349</ele>
        <time>2019-06-13T09:42:30.000Z</time>
      </trkpt>
      <trkpt lat="47.3188" lon="-2.33065">
        <ele>8.3999996185303</ele>
        <time>2019-06-13T09:42:31.000Z</time>
      </trkpt>
      <trkpt lat="47.31879" lon="-2.33072">
        <ele>8</ele>
        <time>2019-06-13T09:42:32.000Z</time>
      </trkpt>
      <trkpt lat="47.31879" lon="-2.33086">
        <ele>8</ele>
        <time>2019-06-13T09:42:34.000Z</time>
      </trkpt>
      <trkpt lat="47.31878" lon="-2.33093">
        <ele>8</ele>
        <time>2019-06-13T09:42:35.000Z</time>
      </trkpt>
      <trkpt lat="47.31874" lon="-2.33129">
        <ele>8</ele>
        <time>2019-06-13T09:42:41.000Z</time>
      </trkpt>
      <trkpt lat="47.31871" lon="-2.3314">
        <ele>8.3999996185303</ele>
        <time>2019-06-13T09:42:43.000Z</time>
      </trkpt>
      <trkpt lat="47.31871" lon="-2.33145">
        <ele>8.8000001907349</ele>
        <time>2019-06-13T09:42:44.000Z</time>
      </trkpt>
      <trkpt lat="47.31869" lon="-2.3315">
        <ele>9.1999998092651</ele>
        <time>2019-06-13T09:42:45.000Z</time>
      </trkpt>
      <trkpt lat="47.31867" lon="-2.33156">
        <ele>9.6000003814697</ele>
        <time>2019-06-13T09:42:46.000Z</time>
      </trkpt>
      <trkpt lat="47.31865" lon="-2.33161">
        <ele>10</ele>
        <time>2019-06-13T09:42:47.000Z</time>
      </trkpt>
      <trkpt lat="47.31864" lon="-2.33173">
        <ele>10</ele>
        <time>2019-06-13T09:42:49.000Z</time>
      </trkpt>
      <trkpt lat="47.3186" lon="-2.33205">
        <ele>10</ele>
        <time>2019-06-13T09:42:54.000Z</time>
      </trkpt>
      <trkpt lat="47.31859" lon="-2.33219">
        <ele>10.39999961853</ele>
        <time>2019-06-13T09:42:57.000Z</time>
      </trkpt>
      <trkpt lat="47.31859" lon="-2.33224">
        <ele>10.800000190735</ele>
        <time>2019-06-13T09:42:58.000Z</time>
      </trkpt>
      <trkpt lat="47.31858" lon="-2.33229">
        <ele>11.199999809265</ele>
        <time>2019-06-13T09:42:59.000Z</time>
      </trkpt>
      <trkpt lat="47.31856" lon="-2.33235">
        <ele>11.60000038147</ele>
        <time>2019-06-13T09:43:00.000Z</time>
      </trkpt>
      <trkpt lat="47.31853" lon="-2.33242">
        <ele>12.199999809265</ele>
        <time>2019-06-13T09:43:01.000Z</time>
      </trkpt>
      <trkpt lat="47.31851" lon="-2.33248">
        <ele>12.199999809265</ele>
        <time>2019-06-13T09:43:02.000Z</time>
      </trkpt>
      <trkpt lat="47.31835" lon="-2.33274">
        <ele>12.199999809265</ele>
        <time>2019-06-13T09:43:07.000Z</time>
      </trkpt>
      <trkpt lat="47.31823" lon="-2.33284">
        <ele>12.199999809265</ele>
        <time>2019-06-13T09:43:11.000Z</time>
      </trkpt>
      <trkpt lat="47.31813" lon="-2.33293">
        <ele>12.60000038147</ele>
        <time>2019-06-13T09:43:14.000Z</time>
      </trkpt>
      <trkpt lat="47.31811" lon="-2.33297">
        <ele>13</ele>
        <time>2019-06-13T09:43:15.000Z</time>
      </trkpt>
      <trkpt lat="47.31808" lon="-2.333">
        <ele>13.39999961853</ele>
        <time>2019-06-13T09:43:16.000Z</time>
      </trkpt>
      <trkpt lat="47.31806" lon="-2.33303">
        <ele>13.800000190735</ele>
        <time>2019-06-13T09:43:17.000Z</time>
      </trkpt>
      <trkpt lat="47.31802" lon="-2.33306">
        <ele>14.199999809265</ele>
        <time>2019-06-13T09:43:18.000Z</time>
      </trkpt>
      <trkpt lat="47.31796" lon="-2.33312">
        <ele>14.199999809265</ele>
        <time>2019-06-13T09:43:21.000Z</time>
      </trkpt>
      <trkpt lat="47.31793" lon="-2.33314">
        <ele>14.60000038147</ele>
        <time>2019-06-13T09:43:22.000Z</time>
      </trkpt>
      <trkpt lat="47.31791" lon="-2.33316">
        <ele>15</ele>
        <time>2019-06-13T09:43:23.000Z</time>
      </trkpt>
      <trkpt lat="47.31788" lon="-2.33318">
        <ele>15.39999961853</ele>
        <time>2019-06-13T09:43:24.000Z</time>
      </trkpt>
      <trkpt lat="47.31785" lon="-2.33322">
        <ele>16</ele>
        <time>2019-06-13T09:43:25.000Z</time>
      </trkpt>
      <trkpt lat="47.31782" lon="-2.33322">
        <ele>16.39999961853</ele>
        <time>2019-06-13T09:43:26.000Z</time>
      </trkpt>
      <trkpt lat="47.31774" lon="-2.33322">
        <ele>16.39999961853</ele>
        <time>2019-06-13T09:43:29.000Z</time>
      </trkpt>
      <trkpt lat="47.31772" lon="-2.33321">
        <ele>16.39999961853</ele>
        <time>2019-06-13T09:43:30.000Z</time>
      </trkpt>
      <trkpt lat="47.31769" lon="-2.3332">
        <ele>16.799999237061</ele>
        <time>2019-06-13T09:43:31.000Z</time>
      </trkpt>
      <trkpt lat="47.31768" lon="-2.33316">
        <ele>17.200000762939</ele>
        <time>2019-06-13T09:43:32.000Z</time>
      </trkpt>
      <trkpt lat="47.31765" lon="-2.33314">
        <ele>17.60000038147</ele>
        <time>2019-06-13T09:43:33.000Z</time>
      </trkpt>
      <trkpt lat="47.31763" lon="-2.33312">
        <ele>18</ele>
        <time>2019-06-13T09:43:34.000Z</time>
      </trkpt>
      <trkpt lat="47.31762" lon="-2.33308">
        <ele>18.39999961853</ele>
        <time>2019-06-13T09:43:35.000Z</time>
      </trkpt>
      <trkpt lat="47.31753" lon="-2.33284">
        <ele>18.39999961853</ele>
        <time>2019-06-13T09:43:40.000Z</time>
      </trkpt>
      <trkpt lat="47.31745" lon="-2.33259">
        <ele>18.39999961853</ele>
        <time>2019-06-13T09:43:45.000Z</time>
      </trkpt>
      <trkpt lat="47.3174" lon="-2.33253">
        <ele>18.39999961853</ele>
        <time>2019-06-13T09:43:47.000Z</time>
      </trkpt>
      <trkpt lat="47.31736" lon="-2.33253">
        <ele>18.39999961853</ele>
        <time>2019-06-13T09:43:48.000Z</time>
      </trkpt>
      <trkpt lat="47.31723" lon="-2.33255">
        <ele>18.39999961853</ele>
        <time>2019-06-13T09:43:52.000Z</time>
      </trkpt>
      <trkpt lat="47.31711" lon="-2.33258">
        <ele>18.799999237061</ele>
        <time>2019-06-13T09:43:55.000Z</time>
      </trkpt>
      <trkpt lat="47.31708" lon="-2.33259">
        <ele>19.799999237061</ele>
        <time>2019-06-13T09:43:56.000Z</time>
      </trkpt>
      <trkpt lat="47.31705" lon="-2.3326">
        <ele>20.200000762939</ele>
        <time>2019-06-13T09:43:57.000Z</time>
      </trkpt>
      <trkpt lat="47.31703" lon="-2.33261">
        <ele>20.60000038147</ele>
        <time>2019-06-13T09:43:58.000Z</time>
      </trkpt>
      <trkpt lat="47.31696" lon="-2.33266">
        <ele>20.60000038147</ele>
        <time>2019-06-13T09:44:02.000Z</time>
      </trkpt>
      <trkpt lat="47.31694" lon="-2.33268">
        <ele>20.60000038147</ele>
        <time>2019-06-13T09:44:03.000Z</time>
      </trkpt>
      <trkpt lat="47.31692" lon="-2.33269">
        <ele>21</ele>
        <time>2019-06-13T09:44:04.000Z</time>
      </trkpt>
      <trkpt lat="47.31687" lon="-2.3327">
        <ele>21.39999961853</ele>
        <time>2019-06-13T09:44:05.000Z</time>
      </trkpt>
      <trkpt lat="47.31681" lon="-2.33272">
        <ele>21.799999237061</ele>
        <time>2019-06-13T09:44:06.000Z</time>
      </trkpt>
      <trkpt lat="47.31677" lon="-2.33274">
        <ele>22.200000762939</ele>
        <time>2019-06-13T09:44:07.000Z</time>
      </trkpt>
      <trkpt lat="47.31673" lon="-2.33275">
        <ele>22.799999237061</ele>
        <time>2019-06-13T09:44:08.000Z</time>
      </trkpt>
      <trkpt lat="47.31664" lon="-2.33279">
        <ele>22.799999237061</ele>
        <time>2019-06-13T09:44:10.000Z</time>
      </trkpt>
      <trkpt lat="47.31657" lon="-2.33284">
        <ele>22.799999237061</ele>
        <time>2019-06-13T09:44:12.000Z</time>
      </trkpt>
      <trkpt lat="47.31653" lon="-2.33286">
        <ele>22.799999237061</ele>
        <time>2019-06-13T09:44:13.000Z</time>
      </trkpt>
      <trkpt lat="47.31629" lon="-2.33298">
        <ele>22.799999237061</ele>
        <time>2019-06-13T09:44:19.000Z</time>
      </trkpt>
      <trkpt lat="47.316" lon="-2.33314">
        <ele>23.200000762939</ele>
        <time>2019-06-13T09:44:26.000Z</time>
      </trkpt>
      <trkpt lat="47.31596" lon="-2.33317">
        <ele>23.60000038147</ele>
        <time>2019-06-13T09:44:27.000Z</time>
      </trkpt>
      <trkpt lat="47.31592" lon="-2.33319">
        <ele>24</ele>
        <time>2019-06-13T09:44:28.000Z</time>
      </trkpt>
      <trkpt lat="47.31588" lon="-2.33321">
        <ele>24.39999961853</ele>
        <time>2019-06-13T09:44:29.000Z</time>
      </trkpt>
      <trkpt lat="47.31583" lon="-2.33324">
        <ele>24.799999237061</ele>
        <time>2019-06-13T09:44:30.000Z</time>
      </trkpt>
      <trkpt lat="47.31568" lon="-2.33329">
        <ele>24.799999237061</ele>
        <time>2019-06-13T09:44:33.000Z</time>
      </trkpt>
      <trkpt lat="47.31532" lon="-2.33346">
        <ele>24.799999237061</ele>
        <time>2019-06-13T09:44:40.000Z</time>
      </trkpt>
      <trkpt lat="47.31491" lon="-2.33368">
        <ele>24.799999237061</ele>
        <time>2019-06-13T09:44:48.000Z</time>
      </trkpt>
      <trkpt lat="47.31477" lon="-2.33363">
        <ele>24.799999237061</ele>
        <time>2019-06-13T09:44:51.000Z</time>
      </trkpt>
      <trkpt lat="47.31466" lon="-2.33341">
        <ele>24.799999237061</ele>
        <time>2019-06-13T09:44:54.000Z</time>
      </trkpt>
      <trkpt lat="47.31463" lon="-2.33334">
        <ele>24.799999237061</ele>
        <time>2019-06-13T09:44:55.000Z</time>
      </trkpt>
      <trkpt lat="47.31455" lon="-2.33319">
        <ele>24.799999237061</ele>
        <time>2019-06-13T09:44:57.000Z</time>
      </trkpt>
      <trkpt lat="47.31448" lon="-2.33306">
        <ele>24.799999237061</ele>
        <time>2019-06-13T09:44:59.000Z</time>
      </trkpt>
      <trkpt lat="47.31431" lon="-2.33283">
        <ele>24.799999237061</ele>
        <time>2019-06-13T09:45:03.000Z</time>
      </trkpt>
      <trkpt lat="47.31426" lon="-2.33277">
        <ele>24.799999237061</ele>
        <time>2019-06-13T09:45:04.000Z</time>
      </trkpt>
      <trkpt lat="47.31391" lon="-2.33251">
        <ele>24.799999237061</ele>
        <time>2019-06-13T09:45:10.000Z</time>
      </trkpt>
      <trkpt lat="47.31354" lon="-2.33225">
        <ele>24.799999237061</ele>
        <time>2019-06-13T09:45:16.000Z</time>
      </trkpt>
      <trkpt lat="47.31321" lon="-2.33195">
        <ele>24.799999237061</ele>
        <time>2019-06-13T09:45:22.000Z</time>
      </trkpt>
      <trkpt lat="47.313" lon="-2.33176">
        <ele>24.39999961853</ele>
        <time>2019-06-13T09:45:26.000Z</time>
      </trkpt>
      <trkpt lat="47.31294" lon="-2.33172">
        <ele>23.799999237061</ele>
        <time>2019-06-13T09:45:27.000Z</time>
      </trkpt>
      <trkpt lat="47.31288" lon="-2.33169">
        <ele>23.39999961853</ele>
        <time>2019-06-13T09:45:28.000Z</time>
      </trkpt>
      <trkpt lat="47.31283" lon="-2.33165">
        <ele>22.799999237061</ele>
        <time>2019-06-13T09:45:29.000Z</time>
      </trkpt>
      <trkpt lat="47.31277" lon="-2.33162">
        <ele>22.39999961853</ele>
        <time>2019-06-13T09:45:30.000Z</time>
      </trkpt>
      <trkpt lat="47.31265" lon="-2.33159">
        <ele>22.39999961853</ele>
        <time>2019-06-13T09:45:32.000Z</time>
      </trkpt>
      <trkpt lat="47.31226" lon="-2.33154">
        <ele>22.39999961853</ele>
        <time>2019-06-13T09:45:38.000Z</time>
      </trkpt>
      <trkpt lat="47.31213" lon="-2.33156">
        <ele>22.39999961853</ele>
        <time>2019-06-13T09:45:40.000Z</time>
      </trkpt>
      <trkpt lat="47.31195" lon="-2.33165">
        <ele>22.39999961853</ele>
        <time>2019-06-13T09:45:43.000Z</time>
      </trkpt>
      <trkpt lat="47.31166" lon="-2.33182">
        <ele>22.39999961853</ele>
        <time>2019-06-13T09:45:48.000Z</time>
      </trkpt>
      <trkpt lat="47.3115" lon="-2.33192">
        <ele>22.39999961853</ele>
        <time>2019-06-13T09:45:51.000Z</time>
      </trkpt>
      <trkpt lat="47.31141" lon="-2.33198">
        <ele>22.39999961853</ele>
        <time>2019-06-13T09:45:53.000Z</time>
      </trkpt>
      <trkpt lat="47.31131" lon="-2.33203">
        <ele>22.799999237061</ele>
        <time>2019-06-13T09:45:55.000Z</time>
      </trkpt>
      <trkpt lat="47.31127" lon="-2.33205">
        <ele>23.200000762939</ele>
        <time>2019-06-13T09:45:56.000Z</time>
      </trkpt>
      <trkpt lat="47.31123" lon="-2.33206">
        <ele>23.60000038147</ele>
        <time>2019-06-13T09:45:57.000Z</time>
      </trkpt>
      <trkpt lat="47.31119" lon="-2.33206">
        <ele>24.200000762939</ele>
        <time>2019-06-13T09:45:58.000Z</time>
      </trkpt>
      <trkpt lat="47.31115" lon="-2.33204">
        <ele>24.60000038147</ele>
        <time>2019-06-13T09:45:59.000Z</time>
      </trkpt>
      <trkpt lat="47.31109" lon="-2.33195">
        <ele>24</ele>
        <time>2019-06-13T09:46:01.000Z</time>
      </trkpt>
      <trkpt lat="47.31108" lon="-2.33188">
        <ele>23.60000038147</ele>
        <time>2019-06-13T09:46:02.000Z</time>
      </trkpt>
      <trkpt lat="47.31105" lon="-2.33181">
        <ele>23.200000762939</ele>
        <time>2019-06-13T09:46:03.000Z</time>
      </trkpt>
      <trkpt lat="47.31104" lon="-2.33173">
        <ele>22.799999237061</ele>
        <time>2019-06-13T09:46:04.000Z</time>
      </trkpt>
      <trkpt lat="47.31103" lon="-2.33165">
        <ele>22.200000762939</ele>
        <time>2019-06-13T09:46:05.000Z</time>
      </trkpt>
      <trkpt lat="47.31103" lon="-2.33157">
        <ele>22.200000762939</ele>
        <time>2019-06-13T09:46:06.000Z</time>
      </trkpt>
      <trkpt lat="47.31104" lon="-2.33141">
        <ele>22.200000762939</ele>
        <time>2019-06-13T09:46:08.000Z</time>
      </trkpt>
      <trkpt lat="47.31104" lon="-2.33107">
        <ele>22.200000762939</ele>
        <time>2019-06-13T09:46:12.000Z</time>
      </trkpt>
      <trkpt lat="47.31102" lon="-2.33084">
        <ele>22.200000762939</ele>
        <time>2019-06-13T09:46:15.000Z</time>
      </trkpt>
      <trkpt lat="47.311" lon="-2.33068">
        <ele>22.200000762939</ele>
        <time>2019-06-13T09:46:17.000Z</time>
      </trkpt>
      <trkpt lat="47.31098" lon="-2.33028">
        <ele>22.200000762939</ele>
        <time>2019-06-13T09:46:22.000Z</time>
      </trkpt>
      <trkpt lat="47.31097" lon="-2.33021">
        <ele>22.200000762939</ele>
        <time>2019-06-13T09:46:23.000Z</time>
      </trkpt>
      <trkpt lat="47.31099" lon="-2.32997">
        <ele>22.200000762939</ele>
        <time>2019-06-13T09:46:26.000Z</time>
      </trkpt>
      <trkpt lat="47.31099" lon="-2.32989">
        <ele>22.200000762939</ele>
        <time>2019-06-13T09:46:27.000Z</time>
      </trkpt>
      <trkpt lat="47.31102" lon="-2.32972">
        <ele>22.200000762939</ele>
        <time>2019-06-13T09:46:29.000Z</time>
      </trkpt>
      <trkpt lat="47.31104" lon="-2.32954">
        <ele>22.200000762939</ele>
        <time>2019-06-13T09:46:31.000Z</time>
      </trkpt>
      <trkpt lat="47.31105" lon="-2.32901">
        <ele>22.200000762939</ele>
        <time>2019-06-13T09:46:37.000Z</time>
      </trkpt>
      <trkpt lat="47.311" lon="-2.32845">
        <ele>22.200000762939</ele>
        <time>2019-06-13T09:46:43.000Z</time>
      </trkpt>
      <trkpt lat="47.31097" lon="-2.32836">
        <ele>22.200000762939</ele>
        <time>2019-06-13T09:46:44.000Z</time>
      </trkpt>
      <trkpt lat="47.31086" lon="-2.32802">
        <ele>22.200000762939</ele>
        <time>2019-06-13T09:46:48.000Z</time>
      </trkpt>
      <trkpt lat="47.31062" lon="-2.32747">
        <ele>22.200000762939</ele>
        <time>2019-06-13T09:46:55.000Z</time>
      </trkpt>
      <trkpt lat="47.31035" lon="-2.32693">
        <ele>22.200000762939</ele>
        <time>2019-06-13T09:47:02.000Z</time>
      </trkpt>
      <trkpt lat="47.31028" lon="-2.32679">
        <ele>22.200000762939</ele>
        <time>2019-06-13T09:47:04.000Z</time>
      </trkpt>
      <trkpt lat="47.31017" lon="-2.32655">
        <ele>22.200000762939</ele>
        <time>2019-06-13T09:47:07.000Z</time>
      </trkpt>
      <trkpt lat="47.30993" lon="-2.32615">
        <ele>22.200000762939</ele>
        <time>2019-06-13T09:47:12.000Z</time>
      </trkpt>
      <trkpt lat="47.30973" lon="-2.32586">
        <ele>21.799999237061</ele>
        <time>2019-06-13T09:47:16.000Z</time>
      </trkpt>
      <trkpt lat="47.30968" lon="-2.32577">
        <ele>21.39999961853</ele>
        <time>2019-06-13T09:47:17.000Z</time>
      </trkpt>
      <trkpt lat="47.30964" lon="-2.32569">
        <ele>21</ele>
        <time>2019-06-13T09:47:18.000Z</time>
      </trkpt>
      <trkpt lat="47.30961" lon="-2.32561">
        <ele>20.60000038147</ele>
        <time>2019-06-13T09:47:19.000Z</time>
      </trkpt>
      <trkpt lat="47.30957" lon="-2.32554">
        <ele>20.200000762939</ele>
        <time>2019-06-13T09:47:20.000Z</time>
      </trkpt>
      <trkpt lat="47.3094" lon="-2.32516">
        <ele>20.200000762939</ele>
        <time>2019-06-13T09:47:24.000Z</time>
      </trkpt>
      <trkpt lat="47.30935" lon="-2.32505">
        <ele>19.799999237061</ele>
        <time>2019-06-13T09:47:25.000Z</time>
      </trkpt>
      <trkpt lat="47.3093" lon="-2.32495">
        <ele>19.39999961853</ele>
        <time>2019-06-13T09:47:26.000Z</time>
      </trkpt>
      <trkpt lat="47.30925" lon="-2.32484">
        <ele>18.799999237061</ele>
        <time>2019-06-13T09:47:27.000Z</time>
      </trkpt>
      <trkpt lat="47.3092" lon="-2.32473">
        <ele>18.39999961853</ele>
        <time>2019-06-13T09:47:28.000Z</time>
      </trkpt>
      <trkpt lat="47.30915" lon="-2.32462">
        <ele>18</ele>
        <time>2019-06-13T09:47:29.000Z</time>
      </trkpt>
      <trkpt lat="47.30911" lon="-2.32451">
        <ele>18</ele>
        <time>2019-06-13T09:47:30.000Z</time>
      </trkpt>
      <trkpt lat="47.30894" lon="-2.324">
        <ele>17.60000038147</ele>
        <time>2019-06-13T09:47:34.000Z</time>
      </trkpt>
      <trkpt lat="47.30891" lon="-2.32387">
        <ele>17</ele>
        <time>2019-06-13T09:47:35.000Z</time>
      </trkpt>
      <trkpt lat="47.30887" lon="-2.32375">
        <ele>16.60000038147</ele>
        <time>2019-06-13T09:47:36.000Z</time>
      </trkpt>
      <trkpt lat="47.30883" lon="-2.32362">
        <ele>16.200000762939</ele>
        <time>2019-06-13T09:47:37.000Z</time>
      </trkpt>
      <trkpt lat="47.30879" lon="-2.3235">
        <ele>15.800000190735</ele>
        <time>2019-06-13T09:47:38.000Z</time>
      </trkpt>
      <trkpt lat="47.30874" lon="-2.32336">
        <ele>15</ele>
        <time>2019-06-13T09:47:39.000Z</time>
      </trkpt>
      <trkpt lat="47.3087" lon="-2.32324">
        <ele>14.60000038147</ele>
        <time>2019-06-13T09:47:40.000Z</time>
      </trkpt>
      <trkpt lat="47.30867" lon="-2.32311">
        <ele>14</ele>
        <time>2019-06-13T09:47:41.000Z</time>
      </trkpt>
      <trkpt lat="47.30863" lon="-2.32299">
        <ele>13.60000038147</ele>
        <time>2019-06-13T09:47:42.000Z</time>
      </trkpt>
      <trkpt lat="47.30846" lon="-2.3225">
        <ele>13.199999809265</ele>
        <time>2019-06-13T09:47:46.000Z</time>
      </trkpt>
      <trkpt lat="47.30842" lon="-2.32238">
        <ele>12.800000190735</ele>
        <time>2019-06-13T09:47:47.000Z</time>
      </trkpt>
      <trkpt lat="47.30838" lon="-2.32226">
        <ele>12.39999961853</ele>
        <time>2019-06-13T09:47:48.000Z</time>
      </trkpt>
      <trkpt lat="47.30834" lon="-2.32215">
        <ele>12</ele>
        <time>2019-06-13T09:47:49.000Z</time>
      </trkpt>
      <trkpt lat="47.3083" lon="-2.32204">
        <ele>11.60000038147</ele>
        <time>2019-06-13T09:47:50.000Z</time>
      </trkpt>
      <trkpt lat="47.30826" lon="-2.32192">
        <ele>11</ele>
        <time>2019-06-13T09:47:51.000Z</time>
      </trkpt>
      <trkpt lat="47.30823" lon="-2.3218">
        <ele>10.60000038147</ele>
        <time>2019-06-13T09:47:52.000Z</time>
      </trkpt>
      <trkpt lat="47.30818" lon="-2.32169">
        <ele>10.199999809265</ele>
        <time>2019-06-13T09:47:53.000Z</time>
      </trkpt>
      <trkpt lat="47.30814" lon="-2.32157">
        <ele>9.8000001907349</ele>
        <time>2019-06-13T09:47:54.000Z</time>
      </trkpt>
      <trkpt lat="47.3081" lon="-2.32144">
        <ele>9.3999996185303</ele>
        <time>2019-06-13T09:47:55.000Z</time>
      </trkpt>
      <trkpt lat="47.30807" lon="-2.32132">
        <ele>9.3999996185303</ele>
        <time>2019-06-13T09:47:56.000Z</time>
      </trkpt>
      <trkpt lat="47.30804" lon="-2.3212">
        <ele>9</ele>
        <time>2019-06-13T09:47:57.000Z</time>
      </trkpt>
      <trkpt lat="47.30801" lon="-2.32108">
        <ele>8.3999996185303</ele>
        <time>2019-06-13T09:47:58.000Z</time>
      </trkpt>
      <trkpt lat="47.30798" lon="-2.32096">
        <ele>8</ele>
        <time>2019-06-13T09:47:59.000Z</time>
      </trkpt>
      <trkpt lat="47.30796" lon="-2.32084">
        <ele>7.5999999046326</ele>
        <time>2019-06-13T09:48:00.000Z</time>
      </trkpt>
      <trkpt lat="47.30793" lon="-2.32073">
        <ele>7</ele>
        <time>2019-06-13T09:48:01.000Z</time>
      </trkpt>
      <trkpt lat="47.30788" lon="-2.32051">
        <ele>6.1999998092651</ele>
        <time>2019-06-13T09:48:03.000Z</time>
      </trkpt>
      <trkpt lat="47.30785" lon="-2.32042">
        <ele>5.8000001907349</ele>
        <time>2019-06-13T09:48:04.000Z</time>
      </trkpt>
      <trkpt lat="47.30782" lon="-2.32032">
        <ele>5.4000000953674</ele>
        <time>2019-06-13T09:48:05.000Z</time>
      </trkpt>
      <trkpt lat="47.30779" lon="-2.32022">
        <ele>5</ele>
        <time>2019-06-13T09:48:06.000Z</time>
      </trkpt>
      <trkpt lat="47.30763" lon="-2.31979">
        <ele>5</ele>
        <time>2019-06-13T09:48:11.000Z</time>
      </trkpt>
      <trkpt lat="47.30759" lon="-2.31971">
        <ele>4.5999999046326</ele>
        <time>2019-06-13T09:48:12.000Z</time>
      </trkpt>
      <trkpt lat="47.30756" lon="-2.31962">
        <ele>4.1999998092651</ele>
        <time>2019-06-13T09:48:13.000Z</time>
      </trkpt>
      <trkpt lat="47.30754" lon="-2.31954">
        <ele>3.7999999523163</ele>
        <time>2019-06-13T09:48:14.000Z</time>
      </trkpt>
      <trkpt lat="47.30751" lon="-2.31945">
        <ele>3.4000000953674</ele>
        <time>2019-06-13T09:48:15.000Z</time>
      </trkpt>
      <trkpt lat="47.30749" lon="-2.31937">
        <ele>3</ele>
        <time>2019-06-13T09:48:16.000Z</time>
      </trkpt>
      <trkpt lat="47.30739" lon="-2.31876">
        <ele>3</ele>
        <time>2019-06-13T09:48:23.000Z</time>
      </trkpt>
      <trkpt lat="47.30733" lon="-2.31817">
        <ele>3</ele>
        <time>2019-06-13T09:48:30.000Z</time>
      </trkpt>
      <trkpt lat="47.3073" lon="-2.31805">
        <ele>3</ele>
        <time>2019-06-13T09:48:32.000Z</time>
      </trkpt>
      <trkpt lat="47.30727" lon="-2.31797">
        <ele>3</ele>
        <time>2019-06-13T09:48:34.000Z</time>
      </trkpt>
      <trkpt lat="47.30724" lon="-2.3178">
        <ele>3</ele>
        <time>2019-06-13T09:48:38.000Z</time>
      </trkpt>
      <trkpt lat="47.30726" lon="-2.31755">
        <ele>3</ele>
        <time>2019-06-13T09:48:43.000Z</time>
      </trkpt>
      <trkpt lat="47.30722" lon="-2.3174">
        <ele>3</ele>
        <time>2019-06-13T09:48:46.000Z</time>
      </trkpt>
      <trkpt lat="47.30719" lon="-2.31731">
        <ele>3</ele>
        <time>2019-06-13T09:48:48.000Z</time>
      </trkpt>
      <trkpt lat="47.30708" lon="-2.31705">
        <ele>3</ele>
        <time>2019-06-13T09:48:54.000Z</time>
      </trkpt>
      <trkpt lat="47.30701" lon="-2.31689">
        <ele>3.4000000953674</ele>
        <time>2019-06-13T09:48:57.000Z</time>
      </trkpt>
      <trkpt lat="47.30698" lon="-2.31684">
        <ele>3.7999999523163</ele>
        <time>2019-06-13T09:48:58.000Z</time>
      </trkpt>
      <trkpt lat="47.30696" lon="-2.31678">
        <ele>4.1999998092651</ele>
        <time>2019-06-13T09:48:59.000Z</time>
      </trkpt>
      <trkpt lat="47.30692" lon="-2.31672">
        <ele>4.5999999046326</ele>
        <time>2019-06-13T09:49:00.000Z</time>
      </trkpt>
      <trkpt lat="47.30689" lon="-2.31665">
        <ele>5</ele>
        <time>2019-06-13T09:49:01.000Z</time>
      </trkpt>
      <trkpt lat="47.30687" lon="-2.31658">
        <ele>5</ele>
        <time>2019-06-13T09:49:02.000Z</time>
      </trkpt>
      <trkpt lat="47.3068" lon="-2.31633">
        <ele>5</ele>
        <time>2019-06-13T09:49:05.000Z</time>
      </trkpt>
      <trkpt lat="47.30668" lon="-2.31604">
        <ele>5</ele>
        <time>2019-06-13T09:49:09.000Z</time>
      </trkpt>
      <trkpt lat="47.30662" lon="-2.3159">
        <ele>5</ele>
        <time>2019-06-13T09:49:11.000Z</time>
      </trkpt>
      <trkpt lat="47.30645" lon="-2.3155">
        <ele>5</ele>
        <time>2019-06-13T09:49:17.000Z</time>
      </trkpt>
      <trkpt lat="47.30639" lon="-2.31535">
        <ele>5</ele>
        <time>2019-06-13T09:49:19.000Z</time>
      </trkpt>
      <trkpt lat="47.30617" lon="-2.31476">
        <ele>5</ele>
        <time>2019-06-13T09:49:27.000Z</time>
      </trkpt>
      <trkpt lat="47.30608" lon="-2.31454">
        <ele>5.4000000953674</ele>
        <time>2019-06-13T09:49:30.000Z</time>
      </trkpt>
      <trkpt lat="47.30604" lon="-2.31447">
        <ele>5.8000001907349</ele>
        <time>2019-06-13T09:49:31.000Z</time>
      </trkpt>
      <trkpt lat="47.30601" lon="-2.31439">
        <ele>6.1999998092651</ele>
        <time>2019-06-13T09:49:32.000Z</time>
      </trkpt>
      <trkpt lat="47.30598" lon="-2.31431">
        <ele>6.5999999046326</ele>
        <time>2019-06-13T09:49:33.000Z</time>
      </trkpt>
      <trkpt lat="47.30594" lon="-2.31423">
        <ele>7</ele>
        <time>2019-06-13T09:49:34.000Z</time>
      </trkpt>
      <trkpt lat="47.30569" lon="-2.31371">
        <ele>7</ele>
        <time>2019-06-13T09:49:41.000Z</time>
      </trkpt>
      <trkpt lat="47.3055" lon="-2.3134">
        <ele>7</ele>
        <time>2019-06-13T09:49:46.000Z</time>
      </trkpt>
      <trkpt lat="47.30537" lon="-2.3132">
        <ele>7</ele>
        <time>2019-06-13T09:49:49.000Z</time>
      </trkpt>
      <trkpt lat="47.30533" lon="-2.31313">
        <ele>7</ele>
        <time>2019-06-13T09:49:50.000Z</time>
      </trkpt>
      <trkpt lat="47.30506" lon="-2.31275">
        <ele>7</ele>
        <time>2019-06-13T09:49:56.000Z</time>
      </trkpt>
      <trkpt lat="47.30483" lon="-2.31236">
        <ele>7</ele>
        <time>2019-06-13T09:50:02.000Z</time>
      </trkpt>
      <trkpt lat="47.30469" lon="-2.312">
        <ele>7</ele>
        <time>2019-06-13T09:50:07.000Z</time>
      </trkpt>
      <trkpt lat="47.30467" lon="-2.31192">
        <ele>7</ele>
        <time>2019-06-13T09:50:08.000Z</time>
      </trkpt>
      <trkpt lat="47.30457" lon="-2.31161">
        <ele>7</ele>
        <time>2019-06-13T09:50:12.000Z</time>
      </trkpt>
      <trkpt lat="47.30449" lon="-2.31137">
        <ele>7</ele>
        <time>2019-06-13T09:50:15.000Z</time>
      </trkpt>
      <trkpt lat="47.30442" lon="-2.31123">
        <ele>7</ele>
        <time>2019-06-13T09:50:17.000Z</time>
      </trkpt>
      <trkpt lat="47.30437" lon="-2.31118">
        <ele>7</ele>
        <time>2019-06-13T09:50:18.000Z</time>
      </trkpt>
      <trkpt lat="47.30421" lon="-2.31105">
        <ele>7</ele>
        <time>2019-06-13T09:50:21.000Z</time>
      </trkpt>
      <trkpt lat="47.30415" lon="-2.311">
        <ele>7</ele>
        <time>2019-06-13T09:50:22.000Z</time>
      </trkpt>
      <trkpt lat="47.3041" lon="-2.31096">
        <ele>7</ele>
        <time>2019-06-13T09:50:23.000Z</time>
      </trkpt>
      <trkpt lat="47.30401" lon="-2.31088">
        <ele>7</ele>
        <time>2019-06-13T09:50:25.000Z</time>
      </trkpt>
      <trkpt lat="47.30391" lon="-2.31076">
        <ele>7</ele>
        <time>2019-06-13T09:50:27.000Z</time>
      </trkpt>
      <trkpt lat="47.3038" lon="-2.31062">
        <ele>7</ele>
        <time>2019-06-13T09:50:29.000Z</time>
      </trkpt>
      <trkpt lat="47.30353" lon="-2.31024">
        <ele>7</ele>
        <time>2019-06-13T09:50:35.000Z</time>
      </trkpt>
      <trkpt lat="47.30338" lon="-2.31004">
        <ele>6.5999999046326</ele>
        <time>2019-06-13T09:50:38.000Z</time>
      </trkpt>
      <trkpt lat="47.30333" lon="-2.30997">
        <ele>6.1999998092651</ele>
        <time>2019-06-13T09:50:39.000Z</time>
      </trkpt>
      <trkpt lat="47.30328" lon="-2.3099">
        <ele>5.8000001907349</ele>
        <time>2019-06-13T09:50:40.000Z</time>
      </trkpt>
      <trkpt lat="47.30323" lon="-2.30982">
        <ele>5.4000000953674</ele>
        <time>2019-06-13T09:50:41.000Z</time>
      </trkpt>
      <trkpt lat="47.30317" lon="-2.30973">
        <ele>5</ele>
        <time>2019-06-13T09:50:42.000Z</time>
      </trkpt>
      <trkpt lat="47.30299" lon="-2.30947">
        <ele>4.4000000953674</ele>
        <time>2019-06-13T09:50:45.000Z</time>
      </trkpt>
      <trkpt lat="47.30292" lon="-2.30938">
        <ele>4</ele>
        <time>2019-06-13T09:50:46.000Z</time>
      </trkpt>
      <trkpt lat="47.30285" lon="-2.30929">
        <ele>3.5999999046326</ele>
        <time>2019-06-13T09:50:47.000Z</time>
      </trkpt>
      <trkpt lat="47.30279" lon="-2.3092">
        <ele>3.2000000476837</ele>
        <time>2019-06-13T09:50:48.000Z</time>
      </trkpt>
      <trkpt lat="47.30272" lon="-2.30911">
        <ele>2.7999999523163</ele>
        <time>2019-06-13T09:50:49.000Z</time>
      </trkpt>
      <trkpt lat="47.30259" lon="-2.30894">
        <ele>2.7999999523163</ele>
        <time>2019-06-13T09:50:51.000Z</time>
      </trkpt>
      <trkpt lat="47.30245" lon="-2.30878">
        <ele>2.4000000953674</ele>
        <time>2019-06-13T09:50:53.000Z</time>
      </trkpt>
      <trkpt lat="47.30238" lon="-2.30871">
        <ele>1.7999999523163</ele>
        <time>2019-06-13T09:50:54.000Z</time>
      </trkpt>
      <trkpt lat="47.30232" lon="-2.30863">
        <ele>1.3999999761581</ele>
        <time>2019-06-13T09:50:55.000Z</time>
      </trkpt>
      <trkpt lat="47.30226" lon="-2.30856">
        <ele>0.60000002384186</ele>
        <time>2019-06-13T09:50:56.000Z</time>
      </trkpt>
      <trkpt lat="47.30213" lon="-2.30842">
        <ele>0.60000002384186</ele>
        <time>2019-06-13T09:50:58.000Z</time>
      </trkpt>
      <trkpt lat="47.30207" lon="-2.30835">
        <ele>0.20000000298023</ele>
        <time>2019-06-13T09:50:59.000Z</time>
      </trkpt>
      <trkpt lat="47.30201" lon="-2.30828">
        <ele>-0.20000000298023</ele>
        <time>2019-06-13T09:51:00.000Z</time>
      </trkpt>
      <trkpt lat="47.30195" lon="-2.30821">
        <ele>-0.60000002384186</ele>
        <time>2019-06-13T09:51:01.000Z</time>
      </trkpt>
      <trkpt lat="47.30188" lon="-2.30814">
        <ele>-1.2000000476837</ele>
        <time>2019-06-13T09:51:02.000Z</time>
      </trkpt>
      <trkpt lat="47.30183" lon="-2.30807">
        <ele>-1.6000000238419</ele>
        <time>2019-06-13T09:51:03.000Z</time>
      </trkpt>
      <trkpt lat="47.30178" lon="-2.30801">
        <ele>-1.6000000238419</ele>
        <time>2019-06-13T09:51:04.000Z</time>
      </trkpt>
      <trkpt lat="47.30167" lon="-2.30793">
        <ele>-2</ele>
        <time>2019-06-13T09:51:06.000Z</time>
      </trkpt>
      <trkpt lat="47.30162" lon="-2.30791">
        <ele>-2.4000000953674</ele>
        <time>2019-06-13T09:51:07.000Z</time>
      </trkpt>
      <trkpt lat="47.30158" lon="-2.30792">
        <ele>-2.7999999523163</ele>
        <time>2019-06-13T09:51:08.000Z</time>
      </trkpt>
      <trkpt lat="47.30154" lon="-2.30795">
        <ele>-3.4000000953674</ele>
        <time>2019-06-13T09:51:09.000Z</time>
      </trkpt>
      <trkpt lat="47.30151" lon="-2.308">
        <ele>-3.7999999523163</ele>
        <time>2019-06-13T09:51:10.000Z</time>
      </trkpt>
      <trkpt lat="47.30148" lon="-2.30812">
        <ele>-3.7999999523163</ele>
        <time>2019-06-13T09:51:12.000Z</time>
      </trkpt>
      <trkpt lat="47.30147" lon="-2.3082">
        <ele>-3.7999999523163</ele>
        <time>2019-06-13T09:51:13.000Z</time>
      </trkpt>
      <trkpt lat="47.30143" lon="-2.3085">
        <ele>-3.7999999523163</ele>
        <time>2019-06-13T09:51:17.000Z</time>
      </trkpt>
      <trkpt lat="47.30132" lon="-2.30887">
        <ele>-3.7999999523163</ele>
        <time>2019-06-13T09:51:22.000Z</time>
      </trkpt>
      <trkpt lat="47.30119" lon="-2.30932">
        <ele>-3.7999999523163</ele>
        <time>2019-06-13T09:51:28.000Z</time>
      </trkpt>
      <trkpt lat="47.30118" lon="-2.3094">
        <ele>-3.7999999523163</ele>
        <time>2019-06-13T09:51:29.000Z</time>
      </trkpt>
      <trkpt lat="47.30112" lon="-2.30975">
        <ele>-3.7999999523163</ele>
        <time>2019-06-13T09:51:34.000Z</time>
      </trkpt>
      <trkpt lat="47.30109" lon="-2.31001">
        <ele>-3.7999999523163</ele>
        <time>2019-06-13T09:51:37.000Z</time>
      </trkpt>
      <trkpt lat="47.30105" lon="-2.31027">
        <ele>-3.7999999523163</ele>
        <time>2019-06-13T09:51:40.000Z</time>
      </trkpt>
      <trkpt lat="47.30104" lon="-2.31036">
        <ele>-3.7999999523163</ele>
        <time>2019-06-13T09:51:41.000Z</time>
      </trkpt>
      <trkpt lat="47.30097" lon="-2.3107">
        <ele>-3.7999999523163</ele>
        <time>2019-06-13T09:51:45.000Z</time>
      </trkpt>
      <trkpt lat="47.30083" lon="-2.31125">
        <ele>-3.7999999523163</ele>
        <time>2019-06-13T09:51:52.000Z</time>
      </trkpt>
      <trkpt lat="47.30078" lon="-2.31149">
        <ele>-3.4000000953674</ele>
        <time>2019-06-13T09:51:55.000Z</time>
      </trkpt>
      <trkpt lat="47.30076" lon="-2.31157">
        <ele>-3</ele>
        <time>2019-06-13T09:51:56.000Z</time>
      </trkpt>
      <trkpt lat="47.30074" lon="-2.31164">
        <ele>-2.4000000953674</ele>
        <time>2019-06-13T09:51:57.000Z</time>
      </trkpt>
      <trkpt lat="47.30072" lon="-2.31172">
        <ele>-2</ele>
        <time>2019-06-13T09:51:58.000Z</time>
      </trkpt>
      <trkpt lat="47.3007" lon="-2.3118">
        <ele>-1.6000000238419</ele>
        <time>2019-06-13T09:51:59.000Z</time>
      </trkpt>
      <trkpt lat="47.3006" lon="-2.31228">
        <ele>-1.6000000238419</ele>
        <time>2019-06-13T09:52:05.000Z</time>
      </trkpt>
      <trkpt lat="47.30053" lon="-2.31261">
        <ele>-1.6000000238419</ele>
        <time>2019-06-13T09:52:09.000Z</time>
      </trkpt>
      <trkpt lat="47.30049" lon="-2.31278">
        <ele>-1.6000000238419</ele>
        <time>2019-06-13T09:52:11.000Z</time>
      </trkpt>
      <trkpt lat="47.3004" lon="-2.31338">
        <ele>-1.6000000238419</ele>
        <time>2019-06-13T09:52:18.000Z</time>
      </trkpt>
      <trkpt lat="47.30042" lon="-2.31369">
        <ele>-1.2000000476837</ele>
        <time>2019-06-13T09:52:22.000Z</time>
      </trkpt>
      <trkpt lat="47.30043" lon="-2.31376">
        <ele>-0.80000001192093</ele>
        <time>2019-06-13T09:52:23.000Z</time>
      </trkpt>
      <trkpt lat="47.30044" lon="-2.31384">
        <ele>-0.40000000596046</ele>
        <time>2019-06-13T09:52:24.000Z</time>
      </trkpt>
      <trkpt lat="47.30046" lon="-2.31392">
        <ele>6.1</ele>
        <time>2019-06-13T09:52:25.000Z</time>
      </trkpt>
      <trkpt lat="47.30048" lon="-2.31399">
        <ele>0.40000000596046</ele>
        <time>2019-06-13T09:52:26.000Z</time>
      </trkpt>
      <trkpt lat="47.30056" lon="-2.31439">
        <ele>0.40000000596046</ele>
        <time>2019-06-13T09:52:31.000Z</time>
      </trkpt>
      <trkpt lat="47.3006" lon="-2.31463">
        <ele>0.40000000596046</ele>
        <time>2019-06-13T09:52:34.000Z</time>
      </trkpt>
      <trkpt lat="47.30064" lon="-2.31488">
        <ele>0.40000000596046</ele>
        <time>2019-06-13T09:52:37.000Z</time>
      </trkpt>
      <trkpt lat="47.3007" lon="-2.31546">
        <ele>0.40000000596046</ele>
        <time>2019-06-13T09:52:44.000Z</time>
      </trkpt>
      <trkpt lat="47.30075" lon="-2.31592">
        <ele>0.40000000596046</ele>
        <time>2019-06-13T09:52:50.000Z</time>
      </trkpt>
      <trkpt lat="47.30079" lon="-2.3164">
        <ele>0.80000001192093</ele>
        <time>2019-06-13T09:52:56.000Z</time>
      </trkpt>
      <trkpt lat="47.3008" lon="-2.31647">
        <ele>1.2000000476837</ele>
        <time>2019-06-13T09:52:57.000Z</time>
      </trkpt>
      <trkpt lat="47.30081" lon="-2.31655">
        <ele>1.6000000238419</ele>
        <time>2019-06-13T09:52:58.000Z</time>
      </trkpt>
      <trkpt lat="47.30081" lon="-2.31663">
        <ele>2.2000000476837</ele>
        <time>2019-06-13T09:52:59.000Z</time>
      </trkpt>
      <trkpt lat="47.30082" lon="-2.3167">
        <ele>2.5999999046326</ele>
        <time>2019-06-13T09:53:00.000Z</time>
      </trkpt>
      <trkpt lat="47.30083" lon="-2.31692">
        <ele>2.5999999046326</ele>
        <time>2019-06-13T09:53:03.000Z</time>
      </trkpt>
      <trkpt lat="47.30084" lon="-2.31698">
        <ele>2.5999999046326</ele>
        <time>2019-06-13T09:53:04.000Z</time>
      </trkpt>
      <trkpt lat="47.30087" lon="-2.31724">
        <ele>2.5999999046326</ele>
        <time>2019-06-13T09:53:08.000Z</time>
      </trkpt>
      <trkpt lat="47.30089" lon="-2.31752">
        <ele>2.5999999046326</ele>
        <time>2019-06-13T09:53:13.000Z</time>
      </trkpt>
      <trkpt lat="47.3009" lon="-2.31775">
        <ele>2.5999999046326</ele>
        <time>2019-06-13T09:53:16.000Z</time>
      </trkpt>
      <trkpt lat="47.30094" lon="-2.31791">
        <ele>2.5999999046326</ele>
        <time>2019-06-13T09:53:18.000Z</time>
      </trkpt>
      <trkpt lat="47.30106" lon="-2.3183">
        <ele>2.5999999046326</ele>
        <time>2019-06-13T09:53:23.000Z</time>
      </trkpt>
      <trkpt lat="47.3011" lon="-2.31848">
        <ele>2.5999999046326</ele>
        <time>2019-06-13T09:53:25.000Z</time>
      </trkpt>
      <trkpt lat="47.301" lon="-2.31888">
        <ele>2.5999999046326</ele>
        <time>2019-06-13T09:53:28.000Z</time>
      </trkpt>
      <trkpt lat="47.30084" lon="-2.31919">
        <ele>2.5999999046326</ele>
        <time>2019-06-13T09:53:32.000Z</time>
      </trkpt>
      <trkpt lat="47.3007" lon="-2.31935">
        <ele>2.5999999046326</ele>
        <time>2019-06-13T09:53:35.000Z</time>
      </trkpt>
      <trkpt lat="47.30065" lon="-2.3194">
        <ele>3</ele>
        <time>2019-06-13T09:53:36.000Z</time>
      </trkpt>
      <trkpt lat="47.3006" lon="-2.31944">
        <ele>3.4000000953674</ele>
        <time>2019-06-13T09:53:37.000Z</time>
      </trkpt>
      <trkpt lat="47.30054" lon="-2.31948">
        <ele>3.7999999523163</ele>
        <time>2019-06-13T09:53:38.000Z</time>
      </trkpt>
      <trkpt lat="47.30049" lon="-2.31952">
        <ele>4.1999998092651</ele>
        <time>2019-06-13T09:53:39.000Z</time>
      </trkpt>
      <trkpt lat="47.30044" lon="-2.31955">
        <ele>4.5999999046326</ele>
        <time>2019-06-13T09:53:40.000Z</time>
      </trkpt>
      <trkpt lat="47.30024" lon="-2.31966">
        <ele>4.5999999046326</ele>
        <time>2019-06-13T09:53:44.000Z</time>
      </trkpt>
      <trkpt lat="47.30013" lon="-2.31971">
        <ele>5</ele>
        <time>2019-06-13T09:53:46.000Z</time>
      </trkpt>
      <trkpt lat="47.30009" lon="-2.31974">
        <ele>5.4000000953674</ele>
        <time>2019-06-13T09:53:47.000Z</time>
      </trkpt>
      <trkpt lat="47.30004" lon="-2.31977">
        <ele>5.8000001907349</ele>
        <time>2019-06-13T09:53:48.000Z</time>
      </trkpt>
      <trkpt lat="47.3" lon="-2.3198">
        <ele>6.5999999046326</ele>
        <time>2019-06-13T09:53:49.000Z</time>
      </trkpt>
      <trkpt lat="47.29996" lon="-2.31983">
        <ele>6.5999999046326</ele>
        <time>2019-06-13T09:53:50.000Z</time>
      </trkpt>
      <trkpt lat="47.29973" lon="-2.31997">
        <ele>6.5999999046326</ele>
        <time>2019-06-13T09:53:55.000Z</time>
      </trkpt>
      <trkpt lat="47.2997" lon="-2.32001">
        <ele>6.5999999046326</ele>
        <time>2019-06-13T09:53:56.000Z</time>
      </trkpt>
      <trkpt lat="47.29963" lon="-2.32012">
        <ele>7</ele>
        <time>2019-06-13T09:53:58.000Z</time>
      </trkpt>
      <trkpt lat="47.2996" lon="-2.32017">
        <ele>7.4000000953674</ele>
        <time>2019-06-13T09:53:59.000Z</time>
      </trkpt>
      <trkpt lat="47.29958" lon="-2.32024">
        <ele>7.8000001907349</ele>
        <time>2019-06-13T09:54:00.000Z</time>
      </trkpt>
      <trkpt lat="47.29957" lon="-2.32031">
        <ele>8.3999996185303</ele>
        <time>2019-06-13T09:54:01.000Z</time>
      </trkpt>
      <trkpt lat="47.29956" lon="-2.32037">
        <ele>8.8000001907349</ele>
        <time>2019-06-13T09:54:02.000Z</time>
      </trkpt>
      <trkpt lat="47.29955" lon="-2.32044">
        <ele>8.8000001907349</ele>
        <time>2019-06-13T09:54:03.000Z</time>
      </trkpt>
      <trkpt lat="47.29954" lon="-2.3205">
        <ele>8.8000001907349</ele>
        <time>2019-06-13T09:54:04.000Z</time>
      </trkpt>
      <trkpt lat="47.29952" lon="-2.32056">
        <ele>9.1999998092651</ele>
        <time>2019-06-13T09:54:05.000Z</time>
      </trkpt>
      <trkpt lat="47.2995" lon="-2.32061">
        <ele>9.6000003814697</ele>
        <time>2019-06-13T09:54:06.000Z</time>
      </trkpt>
      <trkpt lat="47.29948" lon="-2.32066">
        <ele>10</ele>
        <time>2019-06-13T09:54:07.000Z</time>
      </trkpt>
      <trkpt lat="47.29945" lon="-2.32069">
        <ele>10.39999961853</ele>
        <time>2019-06-13T09:54:08.000Z</time>
      </trkpt>
      <trkpt lat="47.29941" lon="-2.32073">
        <ele>10.800000190735</ele>
        <time>2019-06-13T09:54:09.000Z</time>
      </trkpt>
      <trkpt lat="47.29933" lon="-2.32077">
        <ele>10.800000190735</ele>
        <time>2019-06-13T09:54:11.000Z</time>
      </trkpt>
      <trkpt lat="47.29928" lon="-2.32079">
        <ele>10.800000190735</ele>
        <time>2019-06-13T09:54:12.000Z</time>
      </trkpt>
      <trkpt lat="47.29923" lon="-2.3208">
        <ele>11.199999809265</ele>
        <time>2019-06-13T09:54:13.000Z</time>
      </trkpt>
      <trkpt lat="47.29918" lon="-2.3208">
        <ele>12</ele>
        <time>2019-06-13T09:54:14.000Z</time>
      </trkpt>
      <trkpt lat="47.29913" lon="-2.3208">
        <ele>12.39999961853</ele>
        <time>2019-06-13T09:54:15.000Z</time>
      </trkpt>
      <trkpt lat="47.29908" lon="-2.3208">
        <ele>12.800000190735</ele>
        <time>2019-06-13T09:54:16.000Z</time>
      </trkpt>
      <trkpt lat="47.29899" lon="-2.32079">
        <ele>12.800000190735</ele>
        <time>2019-06-13T09:54:18.000Z</time>
      </trkpt>
      <trkpt lat="47.29889" lon="-2.32077">
        <ele>12.800000190735</ele>
        <time>2019-06-13T09:54:20.000Z</time>
      </trkpt>
      <trkpt lat="47.29878" lon="-2.32068">
        <ele>12.800000190735</ele>
        <time>2019-06-13T09:54:23.000Z</time>
      </trkpt>
      <trkpt lat="47.29873" lon="-2.32043">
        <ele>12.800000190735</ele>
        <time>2019-06-13T09:54:27.000Z</time>
      </trkpt>
      <trkpt lat="47.29873" lon="-2.32036">
        <ele>12.800000190735</ele>
        <time>2019-06-13T09:54:28.000Z</time>
      </trkpt>
      <trkpt lat="47.29874" lon="-2.3203">
        <ele>12.800000190735</ele>
        <time>2019-06-13T09:54:29.000Z</time>
      </trkpt>
      <trkpt lat="47.29877" lon="-2.32021">
        <ele>12.800000190735</ele>
        <time>2019-06-13T09:54:31.000Z</time>
      </trkpt>
      <trkpt lat="47.29882" lon="-2.32015">
        <ele>12.800000190735</ele>
        <time>2019-06-13T09:54:33.000Z</time>
      </trkpt>
      <trkpt lat="47.29892" lon="-2.32005">
        <ele>12.800000190735</ele>
        <time>2019-06-13T09:54:37.000Z</time>
      </trkpt>
      <trkpt lat="47.29897" lon="-2.32002">
        <ele>12.800000190735</ele>
        <time>2019-06-13T09:54:40.000Z</time>
      </trkpt>
      <trkpt lat="47.299" lon="-2.32002">
        <ele>12.800000190735</ele>
        <time>2019-06-13T09:54:42.000Z</time>
      </trkpt>
      <trkpt lat="47.299" lon="-2.32001">
        <ele>12.800000190735</ele>
        <time>2019-06-13T09:54:44.000Z</time>
      </trkpt>
      <trkpt lat="47.29898" lon="-2.32">
        <ele>10.800000190735</ele>
        <time>2019-06-13T09:56:42.000Z</time>
      </trkpt>
      <trkpt lat="47.29896" lon="-2.32">
        <ele>10.800000190735</ele>
        <time>2019-06-13T09:56:43.000Z</time>
      </trkpt>
      <trkpt lat="47.2989" lon="-2.32009">
        <ele>10.800000190735</ele>
        <time>2019-06-13T09:56:47.000Z</time>
      </trkpt>
      <trkpt lat="47.29875" lon="-2.3202">
        <ele>10.800000190735</ele>
        <time>2019-06-13T09:56:53.000Z</time>
      </trkpt>
      <trkpt lat="47.29873" lon="-2.3202">
        <ele>10.800000190735</ele>
        <time>2019-06-13T09:56:54.000Z</time>
      </trkpt>
      <trkpt lat="47.29866" lon="-2.32015">
        <ele>10.800000190735</ele>
        <time>2019-06-13T09:56:57.000Z</time>
      </trkpt>
      <trkpt lat="47.29848" lon="-2.32005">
        <ele>10.800000190735</ele>
        <time>2019-06-13T09:57:02.000Z</time>
      </trkpt>
      <trkpt lat="47.29828" lon="-2.31998">
        <ele>10.800000190735</ele>
        <time>2019-06-13T09:57:07.000Z</time>
      </trkpt>
      <trkpt lat="47.29823" lon="-2.31997">
        <ele>10.800000190735</ele>
        <time>2019-06-13T09:57:08.000Z</time>
      </trkpt>
      <trkpt lat="47.29802" lon="-2.31994">
        <ele>10.800000190735</ele>
        <time>2019-06-13T09:57:13.000Z</time>
      </trkpt>
      <trkpt lat="47.29777" lon="-2.31987">
        <ele>11.199999809265</ele>
        <time>2019-06-13T09:57:19.000Z</time>
      </trkpt>
      <trkpt lat="47.29773" lon="-2.31987">
        <ele>11.60000038147</ele>
        <time>2019-06-13T09:57:20.000Z</time>
      </trkpt>
      <trkpt lat="47.29769" lon="-2.31987">
        <ele>12</ele>
        <time>2019-06-13T09:57:21.000Z</time>
      </trkpt>
      <trkpt lat="47.29766" lon="-2.31987">
        <ele>12.60000038147</ele>
        <time>2019-06-13T09:57:22.000Z</time>
      </trkpt>
      <trkpt lat="47.29763" lon="-2.31988">
        <ele>13</ele>
        <time>2019-06-13T09:57:23.000Z</time>
      </trkpt>
      <trkpt lat="47.29756" lon="-2.31988">
        <ele>13</ele>
        <time>2019-06-13T09:57:25.000Z</time>
      </trkpt>
      <trkpt lat="47.29741" lon="-2.31984">
        <ele>13</ele>
        <time>2019-06-13T09:57:30.000Z</time>
      </trkpt>
      <trkpt lat="47.29722" lon="-2.31977">
        <ele>13.39999961853</ele>
        <time>2019-06-13T09:57:36.000Z</time>
      </trkpt>
      <trkpt lat="47.29719" lon="-2.31975">
        <ele>13.800000190735</ele>
        <time>2019-06-13T09:57:37.000Z</time>
      </trkpt>
      <trkpt lat="47.29715" lon="-2.31973">
        <ele>14.199999809265</ele>
        <time>2019-06-13T09:57:38.000Z</time>
      </trkpt>
      <trkpt lat="47.29711" lon="-2.31971">
        <ele>14.60000038147</ele>
        <time>2019-06-13T09:57:39.000Z</time>
      </trkpt>
      <trkpt lat="47.29707" lon="-2.31968">
        <ele>15</ele>
        <time>2019-06-13T09:57:40.000Z</time>
      </trkpt>
      <trkpt lat="47.29704" lon="-2.31966">
        <ele>15</ele>
        <time>2019-06-13T09:57:41.000Z</time>
      </trkpt>
      <trkpt lat="47.29681" lon="-2.31954">
        <ele>15</ele>
        <time>2019-06-13T09:57:47.000Z</time>
      </trkpt>
      <trkpt lat="47.29662" lon="-2.31947">
        <ele>15</ele>
        <time>2019-06-13T09:57:52.000Z</time>
      </trkpt>
      <trkpt lat="47.29658" lon="-2.31946">
        <ele>15</ele>
        <time>2019-06-13T09:57:53.000Z</time>
      </trkpt>
      <trkpt lat="47.29649" lon="-2.3194">
        <ele>15</ele>
        <time>2019-06-13T09:57:56.000Z</time>
      </trkpt>
      <trkpt lat="47.29645" lon="-2.31937">
        <ele>15</ele>
        <time>2019-06-13T09:57:58.000Z</time>
      </trkpt>
      <trkpt lat="47.29644" lon="-2.31933">
        <ele>15</ele>
        <time>2019-06-13T09:58:00.000Z</time>
      </trkpt>
      <trkpt lat="47.29643" lon="-2.31931">
        <ele>15</ele>
        <time>2019-06-13T09:58:02.000Z</time>
      </trkpt>
      <trkpt lat="47.29644" lon="-2.31935">
        <ele>15</ele>
        <time>2019-06-13T09:58:04.000Z</time>
      </trkpt>
      <trkpt lat="47.29646" lon="-2.31941">
        <ele>15</ele>
        <time>2019-06-13T09:58:05.000Z</time>
      </trkpt>
      <trkpt lat="47.29647" lon="-2.31948">
        <ele>15</ele>
        <time>2019-06-13T09:58:06.000Z</time>
      </trkpt>
      <trkpt lat="47.2965" lon="-2.31968">
        <ele>15</ele>
        <time>2019-06-13T09:58:09.000Z</time>
      </trkpt>
      <trkpt lat="47.2965" lon="-2.31976">
        <ele>15</ele>
        <time>2019-06-13T09:58:10.000Z</time>
      </trkpt>
      <trkpt lat="47.29651" lon="-2.3201">
        <ele>15</ele>
        <time>2019-06-13T09:58:15.000Z</time>
      </trkpt>
      <trkpt lat="47.29651" lon="-2.32017">
        <ele>15.39999961853</ele>
        <time>2019-06-13T09:58:16.000Z</time>
      </trkpt>
      <trkpt lat="47.29651" lon="-2.32024">
        <ele>15.800000190735</ele>
        <time>2019-06-13T09:58:17.000Z</time>
      </trkpt>
      <trkpt lat="47.29651" lon="-2.3203">
        <ele>16.200000762939</ele>
        <time>2019-06-13T09:58:18.000Z</time>
      </trkpt>
      <trkpt lat="47.29651" lon="-2.32037">
        <ele>16.60000038147</ele>
        <time>2019-06-13T09:58:19.000Z</time>
      </trkpt>
      <trkpt lat="47.29651" lon="-2.32043">
        <ele>17</ele>
        <time>2019-06-13T09:58:20.000Z</time>
      </trkpt>
      <trkpt lat="47.29651" lon="-2.32062">
        <ele>17</ele>
        <time>2019-06-13T09:58:23.000Z</time>
      </trkpt>
      <trkpt lat="47.29654" lon="-2.321">
        <ele>17</ele>
        <time>2019-06-13T09:58:29.000Z</time>
      </trkpt>
      <trkpt lat="47.29657" lon="-2.32126">
        <ele>17.60000038147</ele>
        <time>2019-06-13T09:58:33.000Z</time>
      </trkpt>
      <trkpt lat="47.29658" lon="-2.32133">
        <ele>18</ele>
        <time>2019-06-13T09:58:34.000Z</time>
      </trkpt>
      <trkpt lat="47.29659" lon="-2.32139">
        <ele>18.39999961853</ele>
        <time>2019-06-13T09:58:35.000Z</time>
      </trkpt>
      <trkpt lat="47.2966" lon="-2.32146">
        <ele>18.799999237061</ele>
        <time>2019-06-13T09:58:36.000Z</time>
      </trkpt>
      <trkpt lat="47.29661" lon="-2.32154">
        <ele>19.200000762939</ele>
        <time>2019-06-13T09:58:37.000Z</time>
      </trkpt>
      <trkpt lat="47.29663" lon="-2.32169">
        <ele>19.200000762939</ele>
        <time>2019-06-13T09:58:39.000Z</time>
      </trkpt>
      <trkpt lat="47.29662" lon="-2.32185">
        <ele>19.200000762939</ele>
        <time>2019-06-13T09:58:41.000Z</time>
      </trkpt>
      <trkpt lat="47.29662" lon="-2.32209">
        <ele>19.200000762939</ele>
        <time>2019-06-13T09:58:44.000Z</time>
      </trkpt>
      <trkpt lat="47.29662" lon="-2.32232">
        <ele>19.200000762939</ele>
        <time>2019-06-13T09:58:47.000Z</time>
      </trkpt>
      <trkpt lat="47.29662" lon="-2.32256">
        <ele>19.200000762939</ele>
        <time>2019-06-13T09:58:50.000Z</time>
      </trkpt>
      <trkpt lat="47.29664" lon="-2.32318">
        <ele>19.200000762939</ele>
        <time>2019-06-13T09:58:58.000Z</time>
      </trkpt>
      <trkpt lat="47.29661" lon="-2.32369">
        <ele>19.200000762939</ele>
        <time>2019-06-13T09:59:05.000Z</time>
      </trkpt>
      <trkpt lat="47.29657" lon="-2.32379">
        <ele>19.200000762939</ele>
        <time>2019-06-13T09:59:07.000Z</time>
      </trkpt>
      <trkpt lat="47.29649" lon="-2.32387">
        <ele>19.200000762939</ele>
        <time>2019-06-13T09:59:09.000Z</time>
      </trkpt>
      <trkpt lat="47.29627" lon="-2.32404">
        <ele>19.200000762939</ele>
        <time>2019-06-13T09:59:13.000Z</time>
      </trkpt>
      <trkpt lat="47.29592" lon="-2.32429">
        <ele>18.799999237061</ele>
        <time>2019-06-13T09:59:19.000Z</time>
      </trkpt>
      <trkpt lat="47.29586" lon="-2.32433">
        <ele>18.39999961853</ele>
        <time>2019-06-13T09:59:20.000Z</time>
      </trkpt>
      <trkpt lat="47.2958" lon="-2.32437">
        <ele>18</ele>
        <time>2019-06-13T09:59:21.000Z</time>
      </trkpt>
      <trkpt lat="47.29574" lon="-2.32442">
        <ele>17.60000038147</ele>
        <time>2019-06-13T09:59:22.000Z</time>
      </trkpt>
      <trkpt lat="47.29569" lon="-2.32446">
        <ele>17</ele>
        <time>2019-06-13T09:59:23.000Z</time>
      </trkpt>
      <trkpt lat="47.29539" lon="-2.32469">
        <ele>17</ele>
        <time>2019-06-13T09:59:28.000Z</time>
      </trkpt>
      <trkpt lat="47.29527" lon="-2.32479">
        <ele>16.60000038147</ele>
        <time>2019-06-13T09:59:30.000Z</time>
      </trkpt>
      <trkpt lat="47.29521" lon="-2.32483">
        <ele>16.200000762939</ele>
        <time>2019-06-13T09:59:31.000Z</time>
      </trkpt>
      <trkpt lat="47.29516" lon="-2.32488">
        <ele>15.800000190735</ele>
        <time>2019-06-13T09:59:32.000Z</time>
      </trkpt>
      <trkpt lat="47.2951" lon="-2.32492">
        <ele>15</ele>
        <time>2019-06-13T09:59:33.000Z</time>
      </trkpt>
      <trkpt lat="47.29498" lon="-2.325">
        <ele>15</ele>
        <time>2019-06-13T09:59:35.000Z</time>
      </trkpt>
      <trkpt lat="47.29456" lon="-2.32527">
        <ele>15</ele>
        <time>2019-06-13T09:59:42.000Z</time>
      </trkpt>
      <trkpt lat="47.29439" lon="-2.3254">
        <ele>15</ele>
        <time>2019-06-13T09:59:45.000Z</time>
      </trkpt>
      <trkpt lat="47.29428" lon="-2.32551">
        <ele>15</ele>
        <time>2019-06-13T09:59:47.000Z</time>
      </trkpt>
      <trkpt lat="47.29424" lon="-2.32558">
        <ele>15</ele>
        <time>2019-06-13T09:59:48.000Z</time>
      </trkpt>
      <trkpt lat="47.29415" lon="-2.32581">
        <ele>15</ele>
        <time>2019-06-13T09:59:51.000Z</time>
      </trkpt>
      <trkpt lat="47.29411" lon="-2.32599">
        <ele>15</ele>
        <time>2019-06-13T09:59:53.000Z</time>
      </trkpt>
      <trkpt lat="47.2941" lon="-2.32608">
        <ele>14.60000038147</ele>
        <time>2019-06-13T09:59:54.000Z</time>
      </trkpt>
      <trkpt lat="47.29408" lon="-2.32617">
        <ele>14.199999809265</ele>
        <time>2019-06-13T09:59:55.000Z</time>
      </trkpt>
      <trkpt lat="47.29407" lon="-2.32627">
        <ele>13.800000190735</ele>
        <time>2019-06-13T09:59:56.000Z</time>
      </trkpt>
      <trkpt lat="47.29406" lon="-2.32636">
        <ele>13.39999961853</ele>
        <time>2019-06-13T09:59:57.000Z</time>
      </trkpt>
      <trkpt lat="47.29405" lon="-2.32645">
        <ele>13</ele>
        <time>2019-06-13T09:59:58.000Z</time>
      </trkpt>
      <trkpt lat="47.29403" lon="-2.32664">
        <ele>13</ele>
        <time>2019-06-13T10:00:00.000Z</time>
      </trkpt>
      <trkpt lat="47.29396" lon="-2.32689">
        <ele>13</ele>
        <time>2019-06-13T10:00:03.000Z</time>
      </trkpt>
      <trkpt lat="47.29381" lon="-2.32715">
        <ele>13</ele>
        <time>2019-06-13T10:00:07.000Z</time>
      </trkpt>
      <trkpt lat="47.29359" lon="-2.32732">
        <ele>13</ele>
        <time>2019-06-13T10:00:11.000Z</time>
      </trkpt>
      <trkpt lat="47.29324" lon="-2.32758">
        <ele>13</ele>
        <time>2019-06-13T10:00:18.000Z</time>
      </trkpt>
      <trkpt lat="47.2931" lon="-2.32769">
        <ele>13</ele>
        <time>2019-06-13T10:00:21.000Z</time>
      </trkpt>
      <trkpt lat="47.29302" lon="-2.32776">
        <ele>13</ele>
        <time>2019-06-13T10:00:23.000Z</time>
      </trkpt>
      <trkpt lat="47.29296" lon="-2.3278">
        <ele>13</ele>
        <time>2019-06-13T10:00:24.000Z</time>
      </trkpt>
      <trkpt lat="47.29257" lon="-2.32813">
        <ele>13</ele>
        <time>2019-06-13T10:00:31.000Z</time>
      </trkpt>
      <trkpt lat="47.29235" lon="-2.32842">
        <ele>13</ele>
        <time>2019-06-13T10:00:36.000Z</time>
      </trkpt>
      <trkpt lat="47.29228" lon="-2.32856">
        <ele>13</ele>
        <time>2019-06-13T10:00:38.000Z</time>
      </trkpt>
      <trkpt lat="47.29213" lon="-2.32891">
        <ele>13</ele>
        <time>2019-06-13T10:00:43.000Z</time>
      </trkpt>
      <trkpt lat="47.29192" lon="-2.32949">
        <ele>13</ele>
        <time>2019-06-13T10:00:51.000Z</time>
      </trkpt>
      <trkpt lat="47.29175" lon="-2.32989">
        <ele>13</ele>
        <time>2019-06-13T10:00:57.000Z</time>
      </trkpt>
      <trkpt lat="47.29172" lon="-2.32996">
        <ele>13.39999961853</ele>
        <time>2019-06-13T10:00:58.000Z</time>
      </trkpt>
      <trkpt lat="47.29169" lon="-2.33002">
        <ele>13.800000190735</ele>
        <time>2019-06-13T10:00:59.000Z</time>
      </trkpt>
      <trkpt lat="47.29166" lon="-2.33009">
        <ele>14.199999809265</ele>
        <time>2019-06-13T10:01:00.000Z</time>
      </trkpt>
      <trkpt lat="47.29163" lon="-2.33015">
        <ele>14.60000038147</ele>
        <time>2019-06-13T10:01:01.000Z</time>
      </trkpt>
      <trkpt lat="47.29159" lon="-2.33021">
        <ele>15</ele>
        <time>2019-06-13T10:01:02.000Z</time>
      </trkpt>
      <trkpt lat="47.29151" lon="-2.33033">
        <ele>15</ele>
        <time>2019-06-13T10:01:04.000Z</time>
      </trkpt>
      <trkpt lat="47.29126" lon="-2.33068">
        <ele>15</ele>
        <time>2019-06-13T10:01:10.000Z</time>
      </trkpt>
      <trkpt lat="47.29093" lon="-2.33112">
        <ele>15</ele>
        <time>2019-06-13T10:01:18.000Z</time>
      </trkpt>
      <trkpt lat="47.29062" lon="-2.33145">
        <ele>15</ele>
        <time>2019-06-13T10:01:25.000Z</time>
      </trkpt>
      <trkpt lat="47.29038" lon="-2.33165">
        <ele>15</ele>
        <time>2019-06-13T10:01:30.000Z</time>
      </trkpt>
      <trkpt lat="47.29033" lon="-2.33169">
        <ele>15</ele>
        <time>2019-06-13T10:01:31.000Z</time>
      </trkpt>
      <trkpt lat="47.29004" lon="-2.33194">
        <ele>15</ele>
        <time>2019-06-13T10:01:37.000Z</time>
      </trkpt>
      <trkpt lat="47.28987" lon="-2.33208">
        <ele>15</ele>
        <time>2019-06-13T10:01:41.000Z</time>
      </trkpt>
      <trkpt lat="47.28983" lon="-2.33213">
        <ele>15.39999961853</ele>
        <time>2019-06-13T10:01:42.000Z</time>
      </trkpt>
      <trkpt lat="47.2898" lon="-2.33217">
        <ele>15.800000190735</ele>
        <time>2019-06-13T10:01:43.000Z</time>
      </trkpt>
      <trkpt lat="47.28976" lon="-2.33223">
        <ele>16.39999961853</ele>
        <time>2019-06-13T10:01:44.000Z</time>
      </trkpt>
      <trkpt lat="47.28973" lon="-2.33228">
        <ele>16.799999237061</ele>
        <time>2019-06-13T10:01:45.000Z</time>
      </trkpt>
      <trkpt lat="47.2897" lon="-2.33234">
        <ele>17.200000762939</ele>
        <time>2019-06-13T10:01:46.000Z</time>
      </trkpt>
      <trkpt lat="47.28962" lon="-2.33252">
        <ele>17.200000762939</ele>
        <time>2019-06-13T10:01:49.000Z</time>
      </trkpt>
      <trkpt lat="47.28959" lon="-2.33257">
        <ele>17.200000762939</ele>
        <time>2019-06-13T10:01:50.000Z</time>
      </trkpt>
      <trkpt lat="47.28948" lon="-2.33282">
        <ele>17.200000762939</ele>
        <time>2019-06-13T10:01:54.000Z</time>
      </trkpt>
      <trkpt lat="47.28935" lon="-2.3331">
        <ele>17.200000762939</ele>
        <time>2019-06-13T10:01:59.000Z</time>
      </trkpt>
      <trkpt lat="47.2893" lon="-2.33323">
        <ele>17.200000762939</ele>
        <time>2019-06-13T10:02:01.000Z</time>
      </trkpt>
      <trkpt lat="47.28926" lon="-2.33337">
        <ele>17.200000762939</ele>
        <time>2019-06-13T10:02:03.000Z</time>
      </trkpt>
      <trkpt lat="47.28924" lon="-2.33344">
        <ele>17.200000762939</ele>
        <time>2019-06-13T10:02:04.000Z</time>
      </trkpt>
      <trkpt lat="47.28911" lon="-2.33405">
        <ele>17.200000762939</ele>
        <time>2019-06-13T10:02:12.000Z</time>
      </trkpt>
      <trkpt lat="47.28909" lon="-2.33412">
        <ele>17.200000762939</ele>
        <time>2019-06-13T10:02:13.000Z</time>
      </trkpt>
      <trkpt lat="47.28901" lon="-2.3343">
        <ele>17.200000762939</ele>
        <time>2019-06-13T10:02:16.000Z</time>
      </trkpt>
      <trkpt lat="47.28898" lon="-2.33436">
        <ele>17.200000762939</ele>
        <time>2019-06-13T10:02:17.000Z</time>
      </trkpt>
      <trkpt lat="47.28888" lon="-2.33451">
        <ele>17.200000762939</ele>
        <time>2019-06-13T10:02:20.000Z</time>
      </trkpt>
      <trkpt lat="47.28873" lon="-2.33464">
        <ele>17.200000762939</ele>
        <time>2019-06-13T10:02:23.000Z</time>
      </trkpt>
      <trkpt lat="47.28851" lon="-2.33472">
        <ele>17.200000762939</ele>
        <time>2019-06-13T10:02:27.000Z</time>
      </trkpt>
      <trkpt lat="47.2884" lon="-2.33474">
        <ele>17.200000762939</ele>
        <time>2019-06-13T10:02:29.000Z</time>
      </trkpt>
      <trkpt lat="47.28796" lon="-2.33483">
        <ele>17.200000762939</ele>
        <time>2019-06-13T10:02:37.000Z</time>
      </trkpt>
      <trkpt lat="47.28751" lon="-2.33491">
        <ele>17.200000762939</ele>
        <time>2019-06-13T10:02:45.000Z</time>
      </trkpt>
      <trkpt lat="47.28726" lon="-2.33497">
        <ele>17.200000762939</ele>
        <time>2019-06-13T10:02:50.000Z</time>
      </trkpt>
      <trkpt lat="47.28721" lon="-2.33498">
        <ele>17.200000762939</ele>
        <time>2019-06-13T10:02:51.000Z</time>
      </trkpt>
      <trkpt lat="47.28707" lon="-2.33493">
        <ele>17.200000762939</ele>
        <time>2019-06-13T10:02:54.000Z</time>
      </trkpt>
      <trkpt lat="47.28702" lon="-2.33491">
        <ele>17.200000762939</ele>
        <time>2019-06-13T10:02:55.000Z</time>
      </trkpt>
      <trkpt lat="47.28698" lon="-2.33488">
        <ele>17.200000762939</ele>
        <time>2019-06-13T10:02:56.000Z</time>
      </trkpt>
      <trkpt lat="47.28689" lon="-2.33478">
        <ele>17.200000762939</ele>
        <time>2019-06-13T10:02:58.000Z</time>
      </trkpt>
      <trkpt lat="47.28664" lon="-2.33443">
        <ele>17.200000762939</ele>
        <time>2019-06-13T10:03:04.000Z</time>
      </trkpt>
      <trkpt lat="47.2864" lon="-2.33407">
        <ele>17.200000762939</ele>
        <time>2019-06-13T10:03:10.000Z</time>
      </trkpt>
      <trkpt lat="47.28622" lon="-2.33365">
        <ele>17.200000762939</ele>
        <time>2019-06-13T10:03:16.000Z</time>
      </trkpt>
      <trkpt lat="47.28611" lon="-2.33336">
        <ele>16.799999237061</ele>
        <time>2019-06-13T10:03:20.000Z</time>
      </trkpt>
      <trkpt lat="47.28608" lon="-2.33328">
        <ele>16.39999961853</ele>
        <time>2019-06-13T10:03:21.000Z</time>
      </trkpt>
      <trkpt lat="47.28605" lon="-2.3332">
        <ele>16</ele>
        <time>2019-06-13T10:03:22.000Z</time>
      </trkpt>
      <trkpt lat="47.28603" lon="-2.33312">
        <ele>15.60000038147</ele>
        <time>2019-06-13T10:03:23.000Z</time>
      </trkpt>
      <trkpt lat="47.286" lon="-2.33303">
        <ele>15.199999809265</ele>
        <time>2019-06-13T10:03:24.000Z</time>
      </trkpt>
      <trkpt lat="47.28583" lon="-2.33248">
        <ele>15.199999809265</ele>
        <time>2019-06-13T10:03:30.000Z</time>
      </trkpt>
      <trkpt lat="47.28563" lon="-2.33187">
        <ele>15.199999809265</ele>
        <time>2019-06-13T10:03:36.000Z</time>
      </trkpt>
      <trkpt lat="47.28547" lon="-2.33127">
        <ele>14.800000190735</ele>
        <time>2019-06-13T10:03:42.000Z</time>
      </trkpt>
      <trkpt lat="47.28544" lon="-2.33117">
        <ele>14.39999961853</ele>
        <time>2019-06-13T10:03:43.000Z</time>
      </trkpt>
      <trkpt lat="47.28542" lon="-2.33107">
        <ele>14</ele>
        <time>2019-06-13T10:03:44.000Z</time>
      </trkpt>
      <trkpt lat="47.28539" lon="-2.33097">
        <ele>13.60000038147</ele>
        <time>2019-06-13T10:03:45.000Z</time>
      </trkpt>
      <trkpt lat="47.28537" lon="-2.33087">
        <ele>13</ele>
        <time>2019-06-13T10:03:46.000Z</time>
      </trkpt>
      <trkpt lat="47.28534" lon="-2.33077">
        <ele>12.60000038147</ele>
        <time>2019-06-13T10:03:47.000Z</time>
      </trkpt>
      <trkpt lat="47.28532" lon="-2.33067">
        <ele>12</ele>
        <time>2019-06-13T10:03:48.000Z</time>
      </trkpt>
      <trkpt lat="47.2853" lon="-2.33057">
        <ele>11.60000038147</ele>
        <time>2019-06-13T10:03:49.000Z</time>
      </trkpt>
      <trkpt lat="47.28527" lon="-2.33047">
        <ele>11</ele>
        <time>2019-06-13T10:03:50.000Z</time>
      </trkpt>
      <trkpt lat="47.28519" lon="-2.33006">
        <ele>11</ele>
        <time>2019-06-13T10:03:54.000Z</time>
      </trkpt>
      <trkpt lat="47.2851" lon="-2.32967">
        <ele>10.60000038147</ele>
        <time>2019-06-13T10:03:58.000Z</time>
      </trkpt>
      <trkpt lat="47.28508" lon="-2.32957">
        <ele>10.199999809265</ele>
        <time>2019-06-13T10:03:59.000Z</time>
      </trkpt>
      <trkpt lat="47.28505" lon="-2.32947">
        <ele>9.8000001907349</ele>
        <time>2019-06-13T10:04:00.000Z</time>
      </trkpt>
      <trkpt lat="47.28503" lon="-2.32938">
        <ele>9.3999996185303</ele>
        <time>2019-06-13T10:04:01.000Z</time>
      </trkpt>
      <trkpt lat="47.28501" lon="-2.32928">
        <ele>9</ele>
        <time>2019-06-13T10:04:02.000Z</time>
      </trkpt>
      <trkpt lat="47.28484" lon="-2.32854">
        <ele>9</ele>
        <time>2019-06-13T10:04:10.000Z</time>
      </trkpt>
      <trkpt lat="47.28462" lon="-2.32774">
        <ele>9</ele>
        <time>2019-06-13T10:04:19.000Z</time>
      </trkpt>
      <trkpt lat="47.28448" lon="-2.32719">
        <ele>9</ele>
        <time>2019-06-13T10:04:25.000Z</time>
      </trkpt>
      <trkpt lat="47.28433" lon="-2.32666">
        <ele>9</ele>
        <time>2019-06-13T10:04:31.000Z</time>
      </trkpt>
      <trkpt lat="47.2841" lon="-2.3259">
        <ele>9</ele>
        <time>2019-06-13T10:04:40.000Z</time>
      </trkpt>
      <trkpt lat="47.28396" lon="-2.32541">
        <ele>9</ele>
        <time>2019-06-13T10:04:46.000Z</time>
      </trkpt>
      <trkpt lat="47.28391" lon="-2.32524">
        <ele>9</ele>
        <time>2019-06-13T10:04:48.000Z</time>
      </trkpt>
      <trkpt lat="47.28386" lon="-2.32498">
        <ele>9</ele>
        <time>2019-06-13T10:04:51.000Z</time>
      </trkpt>
      <trkpt lat="47.28374" lon="-2.32447">
        <ele>9</ele>
        <time>2019-06-13T10:04:57.000Z</time>
      </trkpt>
      <trkpt lat="47.28361" lon="-2.3239">
        <ele>9</ele>
        <time>2019-06-13T10:05:04.000Z</time>
      </trkpt>
      <trkpt lat="47.2835" lon="-2.32336">
        <ele>9</ele>
        <time>2019-06-13T10:05:11.000Z</time>
      </trkpt>
      <trkpt lat="47.28346" lon="-2.3232">
        <ele>9.3999996185303</ele>
        <time>2019-06-13T10:05:13.000Z</time>
      </trkpt>
      <trkpt lat="47.28345" lon="-2.32312">
        <ele>9.8000001907349</ele>
        <time>2019-06-13T10:05:14.000Z</time>
      </trkpt>
      <trkpt lat="47.28343" lon="-2.32305">
        <ele>10.199999809265</ele>
        <time>2019-06-13T10:05:15.000Z</time>
      </trkpt>
      <trkpt lat="47.28341" lon="-2.32297">
        <ele>10.60000038147</ele>
        <time>2019-06-13T10:05:16.000Z</time>
      </trkpt>
      <trkpt lat="47.28339" lon="-2.3229">
        <ele>11</ele>
        <time>2019-06-13T10:05:17.000Z</time>
      </trkpt>
      <trkpt lat="47.28334" lon="-2.32268">
        <ele>11</ele>
        <time>2019-06-13T10:05:20.000Z</time>
      </trkpt>
      <trkpt lat="47.28325" lon="-2.32219">
        <ele>11.60000038147</ele>
        <time>2019-06-13T10:05:27.000Z</time>
      </trkpt>
      <trkpt lat="47.28324" lon="-2.32211">
        <ele>12</ele>
        <time>2019-06-13T10:05:28.000Z</time>
      </trkpt>
      <trkpt lat="47.28323" lon="-2.32204">
        <ele>12.39999961853</ele>
        <time>2019-06-13T10:05:29.000Z</time>
      </trkpt>
      <trkpt lat="47.28322" lon="-2.32197">
        <ele>12.800000190735</ele>
        <time>2019-06-13T10:05:30.000Z</time>
      </trkpt>
      <trkpt lat="47.28321" lon="-2.32191">
        <ele>13.199999809265</ele>
        <time>2019-06-13T10:05:31.000Z</time>
      </trkpt>
      <trkpt lat="47.28316" lon="-2.32157">
        <ele>13.199999809265</ele>
        <time>2019-06-13T10:05:36.000Z</time>
      </trkpt>
      <trkpt lat="47.28315" lon="-2.3215">
        <ele>13.199999809265</ele>
        <time>2019-06-13T10:05:37.000Z</time>
      </trkpt>
      <trkpt lat="47.28314" lon="-2.32144">
        <ele>13.60000038147</ele>
        <time>2019-06-13T10:05:38.000Z</time>
      </trkpt>
      <trkpt lat="47.28313" lon="-2.32138">
        <ele>14</ele>
        <time>2019-06-13T10:05:39.000Z</time>
      </trkpt>
      <trkpt lat="47.28312" lon="-2.32131">
        <ele>14.39999961853</ele>
        <time>2019-06-13T10:05:40.000Z</time>
      </trkpt>
      <trkpt lat="47.28311" lon="-2.32125">
        <ele>14.800000190735</ele>
        <time>2019-06-13T10:05:41.000Z</time>
      </trkpt>
      <trkpt lat="47.2831" lon="-2.32118">
        <ele>15.199999809265</ele>
        <time>2019-06-13T10:05:42.000Z</time>
      </trkpt>
      <trkpt lat="47.28306" lon="-2.32076">
        <ele>15.199999809265</ele>
        <time>2019-06-13T10:05:49.000Z</time>
      </trkpt>
      <trkpt lat="47.28303" lon="-2.32058">
        <ele>15.60000038147</ele>
        <time>2019-06-13T10:05:52.000Z</time>
      </trkpt>
      <trkpt lat="47.28303" lon="-2.32054">
        <ele>16</ele>
        <time>2019-06-13T10:05:53.000Z</time>
      </trkpt>
      <trkpt lat="47.283" lon="-2.32053">
        <ele>16.39999961853</ele>
        <time>2019-06-13T10:05:54.000Z</time>
      </trkpt>
      <trkpt lat="47.28296" lon="-2.32054">
        <ele>16.799999237061</ele>
        <time>2019-06-13T10:05:55.000Z</time>
      </trkpt>
      <trkpt lat="47.28291" lon="-2.32055">
        <ele>17.39999961853</ele>
        <time>2019-06-13T10:05:56.000Z</time>
      </trkpt>
      <trkpt lat="47.28285" lon="-2.32056">
        <ele>17.39999961853</ele>
        <time>2019-06-13T10:05:57.000Z</time>
      </trkpt>
      <trkpt lat="47.2825" lon="-2.32061">
        <ele>17.39999961853</ele>
        <time>2019-06-13T10:06:04.000Z</time>
      </trkpt>
      <trkpt lat="47.28215" lon="-2.32065">
        <ele>17.39999961853</ele>
        <time>2019-06-13T10:06:11.000Z</time>
      </trkpt>
      <trkpt lat="47.28174" lon="-2.3207">
        <ele>17.39999961853</ele>
        <time>2019-06-13T10:06:19.000Z</time>
      </trkpt>
      <trkpt lat="47.28142" lon="-2.32083">
        <ele>17.39999961853</ele>
        <time>2019-06-13T10:06:25.000Z</time>
      </trkpt>
      <trkpt lat="47.28109" lon="-2.32105">
        <ele>17.39999961853</ele>
        <time>2019-06-13T10:06:32.000Z</time>
      </trkpt>
      <trkpt lat="47.28099" lon="-2.32119">
        <ele>16.799999237061</ele>
        <time>2019-06-13T10:06:35.000Z</time>
      </trkpt>
      <trkpt lat="47.28094" lon="-2.32121">
        <ele>16.39999961853</ele>
        <time>2019-06-13T10:06:36.000Z</time>
      </trkpt>
      <trkpt lat="47.28089" lon="-2.32122">
        <ele>16</ele>
        <time>2019-06-13T10:06:37.000Z</time>
      </trkpt>
      <trkpt lat="47.28083" lon="-2.32123">
        <ele>15.60000038147</ele>
        <time>2019-06-13T10:06:38.000Z</time>
      </trkpt>
      <trkpt lat="47.28078" lon="-2.32122">
        <ele>15.199999809265</ele>
        <time>2019-06-13T10:06:39.000Z</time>
      </trkpt>
      <trkpt lat="47.28073" lon="-2.32118">
        <ele>14.60000038147</ele>
        <time>2019-06-13T10:06:40.000Z</time>
      </trkpt>
      <trkpt lat="47.28068" lon="-2.32113">
        <ele>14.199999809265</ele>
        <time>2019-06-13T10:06:41.000Z</time>
      </trkpt>
      <trkpt lat="47.28064" lon="-2.32106">
        <ele>13.60000038147</ele>
        <time>2019-06-13T10:06:42.000Z</time>
      </trkpt>
      <trkpt lat="47.2806" lon="-2.321">
        <ele>13.199999809265</ele>
        <time>2019-06-13T10:06:43.000Z</time>
      </trkpt>
      <trkpt lat="47.28057" lon="-2.32094">
        <ele>13.199999809265</ele>
        <time>2019-06-13T10:06:44.000Z</time>
      </trkpt>
      <trkpt lat="47.28038" lon="-2.32051">
        <ele>13.199999809265</ele>
        <time>2019-06-13T10:06:51.000Z</time>
      </trkpt>
      <trkpt lat="47.28035" lon="-2.32045">
        <ele>13.199999809265</ele>
        <time>2019-06-13T10:06:52.000Z</time>
      </trkpt>
      <trkpt lat="47.28031" lon="-2.32033">
        <ele>13.60000038147</ele>
        <time>2019-06-13T10:06:54.000Z</time>
      </trkpt>
      <trkpt lat="47.28029" lon="-2.32027">
        <ele>14</ele>
        <time>2019-06-13T10:06:55.000Z</time>
      </trkpt>
      <trkpt lat="47.28027" lon="-2.32021">
        <ele>14.39999961853</ele>
        <time>2019-06-13T10:06:56.000Z</time>
      </trkpt>
      <trkpt lat="47.28025" lon="-2.32016">
        <ele>14.800000190735</ele>
        <time>2019-06-13T10:06:57.000Z</time>
      </trkpt>
      <trkpt lat="47.28022" lon="-2.32009">
        <ele>15.199999809265</ele>
        <time>2019-06-13T10:06:58.000Z</time>
      </trkpt>
      <trkpt lat="47.28019" lon="-2.32004">
        <ele>15.199999809265</ele>
        <time>2019-06-13T10:06:59.000Z</time>
      </trkpt>
      <trkpt lat="47.28008" lon="-2.31988">
        <ele>15.199999809265</ele>
        <time>2019-06-13T10:07:02.000Z</time>
      </trkpt>
      <trkpt lat="47.27984" lon="-2.3196">
        <ele>15.199999809265</ele>
        <time>2019-06-13T10:07:09.000Z</time>
      </trkpt>
      <trkpt lat="47.27956" lon="-2.31928">
        <ele>15.199999809265</ele>
        <time>2019-06-13T10:07:16.000Z</time>
      </trkpt>
      <trkpt lat="47.27952" lon="-2.31924">
        <ele>15.199999809265</ele>
        <time>2019-06-13T10:07:17.000Z</time>
      </trkpt>
      <trkpt lat="47.27935" lon="-2.31911">
        <ele>15.199999809265</ele>
        <time>2019-06-13T10:07:21.000Z</time>
      </trkpt>
      <trkpt lat="47.27912" lon="-2.31896">
        <ele>15.199999809265</ele>
        <time>2019-06-13T10:07:26.000Z</time>
      </trkpt>
      <trkpt lat="47.27903" lon="-2.31889">
        <ele>15.199999809265</ele>
        <time>2019-06-13T10:07:28.000Z</time>
      </trkpt>
      <trkpt lat="47.27893" lon="-2.31883">
        <ele>15.199999809265</ele>
        <time>2019-06-13T10:07:30.000Z</time>
      </trkpt>
      <trkpt lat="47.27883" lon="-2.31888">
        <ele>15.199999809265</ele>
        <time>2019-06-13T10:07:32.000Z</time>
      </trkpt>
      <trkpt lat="47.27878" lon="-2.3191">
        <ele>15.199999809265</ele>
        <time>2019-06-13T10:07:35.000Z</time>
      </trkpt>
      <trkpt lat="47.27877" lon="-2.31917">
        <ele>15.60000038147</ele>
        <time>2019-06-13T10:07:36.000Z</time>
      </trkpt>
      <trkpt lat="47.27875" lon="-2.31924">
        <ele>16</ele>
        <time>2019-06-13T10:07:37.000Z</time>
      </trkpt>
      <trkpt lat="47.27872" lon="-2.31931">
        <ele>16.39999961853</ele>
        <time>2019-06-13T10:07:38.000Z</time>
      </trkpt>
      <trkpt lat="47.2787" lon="-2.31938">
        <ele>16.799999237061</ele>
        <time>2019-06-13T10:07:39.000Z</time>
      </trkpt>
      <trkpt lat="47.27867" lon="-2.31944">
        <ele>17.39999961853</ele>
        <time>2019-06-13T10:07:40.000Z</time>
      </trkpt>
      <trkpt lat="47.27864" lon="-2.3195">
        <ele>17.39999961853</ele>
        <time>2019-06-13T10:07:41.000Z</time>
      </trkpt>
      <trkpt lat="47.27847" lon="-2.31963">
        <ele>17.39999961853</ele>
        <time>2019-06-13T10:07:45.000Z</time>
      </trkpt>
      <trkpt lat="47.27832" lon="-2.31971">
        <ele>17.39999961853</ele>
        <time>2019-06-13T10:07:48.000Z</time>
      </trkpt>
      <trkpt lat="47.27824" lon="-2.31982">
        <ele>17.39999961853</ele>
        <time>2019-06-13T10:07:50.000Z</time>
      </trkpt>
      <trkpt lat="47.27816" lon="-2.31995">
        <ele>17.39999961853</ele>
        <time>2019-06-13T10:07:52.000Z</time>
      </trkpt>
      <trkpt lat="47.27806" lon="-2.32017">
        <ele>17.39999961853</ele>
        <time>2019-06-13T10:07:55.000Z</time>
      </trkpt>
      <trkpt lat="47.27795" lon="-2.3204">
        <ele>17</ele>
        <time>2019-06-13T10:07:58.000Z</time>
      </trkpt>
      <trkpt lat="47.27791" lon="-2.32048">
        <ele>16.39999961853</ele>
        <time>2019-06-13T10:07:59.000Z</time>
      </trkpt>
      <trkpt lat="47.27787" lon="-2.32056">
        <ele>16</ele>
        <time>2019-06-13T10:08:00.000Z</time>
      </trkpt>
      <trkpt lat="47.27782" lon="-2.32063">
        <ele>15.60000038147</ele>
        <time>2019-06-13T10:08:01.000Z</time>
      </trkpt>
      <trkpt lat="47.27777" lon="-2.32068">
        <ele>15.199999809265</ele>
        <time>2019-06-13T10:08:02.000Z</time>
      </trkpt>
      <trkpt lat="47.27765" lon="-2.32075">
        <ele>15.199999809265</ele>
        <time>2019-06-13T10:08:04.000Z</time>
      </trkpt>
      <trkpt lat="47.27758" lon="-2.32076">
        <ele>14.800000190735</ele>
        <time>2019-06-13T10:08:05.000Z</time>
      </trkpt>
      <trkpt lat="47.27752" lon="-2.32076">
        <ele>14.39999961853</ele>
        <time>2019-06-13T10:08:06.000Z</time>
      </trkpt>
      <trkpt lat="47.27744" lon="-2.32076">
        <ele>14</ele>
        <time>2019-06-13T10:08:07.000Z</time>
      </trkpt>
      <trkpt lat="47.27737" lon="-2.32076">
        <ele>13.60000038147</ele>
        <time>2019-06-13T10:08:08.000Z</time>
      </trkpt>
      <trkpt lat="47.2773" lon="-2.32075">
        <ele>13.199999809265</ele>
        <time>2019-06-13T10:08:09.000Z</time>
      </trkpt>
      <trkpt lat="47.27703" lon="-2.32073">
        <ele>12.800000190735</ele>
        <time>2019-06-13T10:08:13.000Z</time>
      </trkpt>
      <trkpt lat="47.27696" lon="-2.32074">
        <ele>12</ele>
        <time>2019-06-13T10:08:14.000Z</time>
      </trkpt>
      <trkpt lat="47.27689" lon="-2.32078">
        <ele>11.39999961853</ele>
        <time>2019-06-13T10:08:15.000Z</time>
      </trkpt>
      <trkpt lat="47.27684" lon="-2.32083">
        <ele>11</ele>
        <time>2019-06-13T10:08:16.000Z</time>
      </trkpt>
      <trkpt lat="47.27675" lon="-2.32097">
        <ele>11</ele>
        <time>2019-06-13T10:08:18.000Z</time>
      </trkpt>
      <trkpt lat="47.27666" lon="-2.32122">
        <ele>11</ele>
        <time>2019-06-13T10:08:21.000Z</time>
      </trkpt>
      <trkpt lat="47.27664" lon="-2.3213">
        <ele>11</ele>
        <time>2019-06-13T10:08:22.000Z</time>
      </trkpt>
      <trkpt lat="47.27648" lon="-2.32188">
        <ele>11</ele>
        <time>2019-06-13T10:08:30.000Z</time>
      </trkpt>
      <trkpt lat="47.27637" lon="-2.32226">
        <ele>11.60000038147</ele>
        <time>2019-06-13T10:08:36.000Z</time>
      </trkpt>
      <trkpt lat="47.27635" lon="-2.32233">
        <ele>12</ele>
        <time>2019-06-13T10:08:37.000Z</time>
      </trkpt>
      <trkpt lat="47.27633" lon="-2.3224">
        <ele>13</ele>
        <time>2019-06-13T10:08:38.000Z</time>
      </trkpt>
      <trkpt lat="47.27631" lon="-2.32246">
        <ele>13.39999961853</ele>
        <time>2019-06-13T10:08:39.000Z</time>
      </trkpt>
      <trkpt lat="47.27619" lon="-2.32275">
        <ele>13.39999961853</ele>
        <time>2019-06-13T10:08:44.000Z</time>
      </trkpt>
      <trkpt lat="47.27616" lon="-2.32279">
        <ele>13.39999961853</ele>
        <time>2019-06-13T10:08:45.000Z</time>
      </trkpt>
      <trkpt lat="47.276" lon="-2.32278">
        <ele>13.39999961853</ele>
        <time>2019-06-13T10:08:48.000Z</time>
      </trkpt>
      <trkpt lat="47.27583" lon="-2.32266">
        <ele>13.39999961853</ele>
        <time>2019-06-13T10:08:51.000Z</time>
      </trkpt>
      <trkpt lat="47.27578" lon="-2.32261">
        <ele>13.39999961853</ele>
        <time>2019-06-13T10:08:52.000Z</time>
      </trkpt>
      <trkpt lat="47.27555" lon="-2.32241">
        <ele>12.800000190735</ele>
        <time>2019-06-13T10:08:56.000Z</time>
      </trkpt>
      <trkpt lat="47.27549" lon="-2.32235">
        <ele>12.39999961853</ele>
        <time>2019-06-13T10:08:57.000Z</time>
      </trkpt>
      <trkpt lat="47.27543" lon="-2.32229">
        <ele>12</ele>
        <time>2019-06-13T10:08:58.000Z</time>
      </trkpt>
      <trkpt lat="47.27537" lon="-2.32224">
        <ele>11.60000038147</ele>
        <time>2019-06-13T10:08:59.000Z</time>
      </trkpt>
      <trkpt lat="47.27531" lon="-2.32219">
        <ele>11</ele>
        <time>2019-06-13T10:09:00.000Z</time>
      </trkpt>
      <trkpt lat="47.27525" lon="-2.32212">
        <ele>10.60000038147</ele>
        <time>2019-06-13T10:09:01.000Z</time>
      </trkpt>
      <trkpt lat="47.27519" lon="-2.32205">
        <ele>10.199999809265</ele>
        <time>2019-06-13T10:09:02.000Z</time>
      </trkpt>
      <trkpt lat="47.27514" lon="-2.32198">
        <ele>9.3999996185303</ele>
        <time>2019-06-13T10:09:03.000Z</time>
      </trkpt>
      <trkpt lat="47.27508" lon="-2.32191">
        <ele>9</ele>
        <time>2019-06-13T10:09:04.000Z</time>
      </trkpt>
      <trkpt lat="47.27503" lon="-2.32184">
        <ele>9</ele>
        <time>2019-06-13T10:09:05.000Z</time>
      </trkpt>
      <trkpt lat="47.27481" lon="-2.32156">
        <ele>9</ele>
        <time>2019-06-13T10:09:09.000Z</time>
      </trkpt>
      <trkpt lat="47.27476" lon="-2.3215">
        <ele>8.3999996185303</ele>
        <time>2019-06-13T10:09:10.000Z</time>
      </trkpt>
      <trkpt lat="47.27472" lon="-2.32144">
        <ele>7.5999999046326</ele>
        <time>2019-06-13T10:09:11.000Z</time>
      </trkpt>
      <trkpt lat="47.27467" lon="-2.32137">
        <ele>7</ele>
        <time>2019-06-13T10:09:12.000Z</time>
      </trkpt>
      <trkpt lat="47.27462" lon="-2.32131">
        <ele>6.4000000953674</ele>
        <time>2019-06-13T10:09:13.000Z</time>
      </trkpt>
      <trkpt lat="47.27458" lon="-2.32124">
        <ele>5.8000001907349</ele>
        <time>2019-06-13T10:09:14.000Z</time>
      </trkpt>
      <trkpt lat="47.27453" lon="-2.32118">
        <ele>5.4000000953674</ele>
        <time>2019-06-13T10:09:15.000Z</time>
      </trkpt>
      <trkpt lat="47.27448" lon="-2.32111">
        <ele>4.8000001907349</ele>
        <time>2019-06-13T10:09:16.000Z</time>
      </trkpt>
      <trkpt lat="47.27443" lon="-2.32105">
        <ele>4.1999998092651</ele>
        <time>2019-06-13T10:09:17.000Z</time>
      </trkpt>
      <trkpt lat="47.27439" lon="-2.32099">
        <ele>3.7999999523163</ele>
        <time>2019-06-13T10:09:18.000Z</time>
      </trkpt>
      <trkpt lat="47.27409" lon="-2.32063">
        <ele>3.7999999523163</ele>
        <time>2019-06-13T10:09:24.000Z</time>
      </trkpt>
      <trkpt lat="47.27367" lon="-2.32016">
        <ele>3.2000000476837</ele>
        <time>2019-06-13T10:09:31.000Z</time>
      </trkpt>
      <trkpt lat="47.2736" lon="-2.3201">
        <ele>2.7999999523163</ele>
        <time>2019-06-13T10:09:32.000Z</time>
      </trkpt>
      <trkpt lat="47.27354" lon="-2.32003">
        <ele>2.4000000953674</ele>
        <time>2019-06-13T10:09:33.000Z</time>
      </trkpt>
      <trkpt lat="47.27347" lon="-2.31996">
        <ele>2</ele>
        <time>2019-06-13T10:09:34.000Z</time>
      </trkpt>
      <trkpt lat="47.2734" lon="-2.3199">
        <ele>1.6000000238419</ele>
        <time>2019-06-13T10:09:35.000Z</time>
      </trkpt>
      <trkpt lat="47.27328" lon="-2.31977">
        <ele>1.6000000238419</ele>
        <time>2019-06-13T10:09:37.000Z</time>
      </trkpt>
      <trkpt lat="47.27322" lon="-2.31971">
        <ele>1</ele>
        <time>2019-06-13T10:09:38.000Z</time>
      </trkpt>
      <trkpt lat="47.27316" lon="-2.31964">
        <ele>0.60000002384186</ele>
        <time>2019-06-13T10:09:39.000Z</time>
      </trkpt>
      <trkpt lat="47.2731" lon="-2.3196">
        <ele>0.20000000298023</ele>
        <time>2019-06-13T10:09:40.000Z</time>
      </trkpt>
      <trkpt lat="47.27305" lon="-2.31955">
        <ele>-0.20000000298023</ele>
        <time>2019-06-13T10:09:41.000Z</time>
      </trkpt>
      <trkpt lat="47.27299" lon="-2.31951">
        <ele>-0.60000002384186</ele>
        <time>2019-06-13T10:09:42.000Z</time>
      </trkpt>
      <trkpt lat="47.27294" lon="-2.31949">
        <ele>-0.60000002384186</ele>
        <time>2019-06-13T10:09:43.000Z</time>
      </trkpt>
      <trkpt lat="47.27279" lon="-2.31941">
        <ele>-0.60000002384186</ele>
        <time>2019-06-13T10:09:46.000Z</time>
      </trkpt>
      <trkpt lat="47.27268" lon="-2.31937">
        <ele>-0.60000002384186</ele>
        <time>2019-06-13T10:09:48.000Z</time>
      </trkpt>
      <trkpt lat="47.27247" lon="-2.3193">
        <ele>-0.60000002384186</ele>
        <time>2019-06-13T10:09:52.000Z</time>
      </trkpt>
      <trkpt lat="47.27222" lon="-2.31921">
        <ele>-0.60000002384186</ele>
        <time>2019-06-13T10:09:57.000Z</time>
      </trkpt>
      <trkpt lat="47.27211" lon="-2.31925">
        <ele>-0.60000002384186</ele>
        <time>2019-06-13T10:10:00.000Z</time>
      </trkpt>
      <trkpt lat="47.27201" lon="-2.31944">
        <ele>-0.60000002384186</ele>
        <time>2019-06-13T10:10:05.000Z</time>
      </trkpt>
      <trkpt lat="47.27192" lon="-2.31963">
        <ele>-0.60000002384186</ele>
        <time>2019-06-13T10:10:09.000Z</time>
      </trkpt>
      <trkpt lat="47.2719" lon="-2.31969">
        <ele>-0.60000002384186</ele>
        <time>2019-06-13T10:10:10.000Z</time>
      </trkpt>
      <trkpt lat="47.27185" lon="-2.31985">
        <ele>-0.60000002384186</ele>
        <time>2019-06-13T10:10:13.000Z</time>
      </trkpt>
      <trkpt lat="47.27182" lon="-2.31988">
        <ele>-0.60000002384186</ele>
        <time>2019-06-13T10:10:14.000Z</time>
      </trkpt>
      <trkpt lat="47.27176" lon="-2.31991">
        <ele>-1.2000000476837</ele>
        <time>2019-06-13T10:10:16.000Z</time>
      </trkpt>
      <trkpt lat="47.27174" lon="-2.31991">
        <ele>-1.6000000238419</ele>
        <time>2019-06-13T10:10:17.000Z</time>
      </trkpt>
      <trkpt lat="47.27172" lon="-2.31991">
        <ele>-2</ele>
        <time>2019-06-13T10:10:18.000Z</time>
      </trkpt>
      <trkpt lat="47.27171" lon="-2.31992">
        <ele>-2.4000000953674</ele>
        <time>2019-06-13T10:10:19.000Z</time>
      </trkpt>
      <trkpt lat="47.2717" lon="-2.31992">
        <ele>-3</ele>
        <time>2019-06-13T10:10:20.000Z</time>
      </trkpt>
      <trkpt lat="47.2717" lon="-2.31992">
        <ele>-3</ele>
        <time>2019-06-13T10:10:21.000Z</time>
      </trkpt>
      <trkpt lat="47.27166" lon="-2.31988">
        <ele>-3</ele>
        <time>2019-06-13T10:10:50.000Z</time>
      </trkpt>
      <trkpt lat="47.27162" lon="-2.31985">
        <ele>-3</ele>
        <time>2019-06-13T10:10:52.000Z</time>
      </trkpt>
      <trkpt lat="47.2715" lon="-2.31973">
        <ele>-3</ele>
        <time>2019-06-13T10:10:57.000Z</time>
      </trkpt>
      <trkpt lat="47.27138" lon="-2.31966">
        <ele>-3</ele>
        <time>2019-06-13T10:11:01.000Z</time>
      </trkpt>
      <trkpt lat="47.27135" lon="-2.31964">
        <ele>-3</ele>
        <time>2019-06-13T10:11:02.000Z</time>
      </trkpt>
      <trkpt lat="47.27113" lon="-2.31956">
        <ele>-3</ele>
        <time>2019-06-13T10:11:07.000Z</time>
      </trkpt>
      <trkpt lat="47.27091" lon="-2.31957">
        <ele>-2.4000000953674</ele>
        <time>2019-06-13T10:11:12.000Z</time>
      </trkpt>
      <trkpt lat="47.27086" lon="-2.31957">
        <ele>-2</ele>
        <time>2019-06-13T10:11:13.000Z</time>
      </trkpt>
      <trkpt lat="47.27082" lon="-2.31957">
        <ele>-1.6000000238419</ele>
        <time>2019-06-13T10:11:14.000Z</time>
      </trkpt>
      <trkpt lat="47.27077" lon="-2.31959">
        <ele>-1.2000000476837</ele>
        <time>2019-06-13T10:11:15.000Z</time>
      </trkpt>
      <trkpt lat="47.27073" lon="-2.3196">
        <ele>-0.80000001192093</ele>
        <time>2019-06-13T10:11:16.000Z</time>
      </trkpt>
      <trkpt lat="47.27064" lon="-2.31961">
        <ele>-0.80000001192093</ele>
        <time>2019-06-13T10:11:18.000Z</time>
      </trkpt>
      <trkpt lat="47.27045" lon="-2.31969">
        <ele>-0.40000000596046</ele>
        <time>2019-06-13T10:11:23.000Z</time>
      </trkpt>
      <trkpt lat="47.27041" lon="-2.3197">
        <ele>9.2</ele>
        <time>2019-06-13T10:11:24.000Z</time>
      </trkpt>
      <trkpt lat="47.27036" lon="-2.31972">
        <ele>0.40000000596046</ele>
        <time>2019-06-13T10:11:25.000Z</time>
      </trkpt>
      <trkpt lat="47.27029" lon="-2.31975">
        <ele>0.80000001192093</ele>
        <time>2019-06-13T10:11:26.000Z</time>
      </trkpt>
      <trkpt lat="47.27021" lon="-2.31978">
        <ele>1.2000000476837</ele>
        <time>2019-06-13T10:11:27.000Z</time>
      </trkpt>
      <trkpt lat="47.27006" lon="-2.31989">
        <ele>1.2000000476837</ele>
        <time>2019-06-13T10:11:30.000Z</time>
      </trkpt>
      <trkpt lat="47.26997" lon="-2.31992">
        <ele>1.2000000476837</ele>
        <time>2019-06-13T10:11:32.000Z</time>
      </trkpt>
      <trkpt lat="47.26986" lon="-2.31995">
        <ele>1.2000000476837</ele>
        <time>2019-06-13T10:11:35.000Z</time>
      </trkpt>
      <trkpt lat="47.26964" lon="-2.32001">
        <ele>1.2000000476837</ele>
        <time>2019-06-13T10:11:41.000Z</time>
      </trkpt>
      <trkpt lat="47.26956" lon="-2.31997">
        <ele>1.2000000476837</ele>
        <time>2019-06-13T10:11:43.000Z</time>
      </trkpt>
      <trkpt lat="47.26952" lon="-2.31993">
        <ele>1.2000000476837</ele>
        <time>2019-06-13T10:11:44.000Z</time>
      </trkpt>
      <trkpt lat="47.26937" lon="-2.31976">
        <ele>1.2000000476837</ele>
        <time>2019-06-13T10:11:49.000Z</time>
      </trkpt>
      <trkpt lat="47.26928" lon="-2.31959">
        <ele>1.7999999523163</ele>
        <time>2019-06-13T10:11:53.000Z</time>
      </trkpt>
      <trkpt lat="47.26925" lon="-2.31955">
        <ele>2.2000000476837</ele>
        <time>2019-06-13T10:11:54.000Z</time>
      </trkpt>
      <trkpt lat="47.26922" lon="-2.31951">
        <ele>3</ele>
        <time>2019-06-13T10:11:55.000Z</time>
      </trkpt>
      <trkpt lat="47.2692" lon="-2.31949">
        <ele>3.4000000953674</ele>
        <time>2019-06-13T10:11:56.000Z</time>
      </trkpt>
      <trkpt lat="47.26912" lon="-2.3194">
        <ele>3.4000000953674</ele>
        <time>2019-06-13T10:11:58.000Z</time>
      </trkpt>
      <trkpt lat="47.26893" lon="-2.31915">
        <ele>3.7999999523163</ele>
        <time>2019-06-13T10:12:04.000Z</time>
      </trkpt>
      <trkpt lat="47.2689" lon="-2.31912">
        <ele>4.4000000953674</ele>
        <time>2019-06-13T10:12:05.000Z</time>
      </trkpt>
      <trkpt lat="47.26888" lon="-2.31908">
        <ele>4.8000001907349</ele>
        <time>2019-06-13T10:12:06.000Z</time>
      </trkpt>
      <trkpt lat="47.26885" lon="-2.31904">
        <ele>5.1999998092651</ele>
        <time>2019-06-13T10:12:07.000Z</time>
      </trkpt>
      <trkpt lat="47.26884" lon="-2.31901">
        <ele>5.8000001907349</ele>
        <time>2019-06-13T10:12:08.000Z</time>
      </trkpt>
      <trkpt lat="47.26882" lon="-2.31898">
        <ele>5.8000001907349</ele>
        <time>2019-06-13T10:12:09.000Z</time>
      </trkpt>
      <trkpt lat="47.2688" lon="-2.31896">
        <ele>5.8000001907349</ele>
        <time>2019-06-13T10:12:10.000Z</time>
      </trkpt>
      <trkpt lat="47.26867" lon="-2.31891">
        <ele>5.8000001907349</ele>
        <time>2019-06-13T10:12:13.000Z</time>
      </trkpt>
      <trkpt lat="47.26863" lon="-2.31891">
        <ele>6.1999998092651</ele>
        <time>2019-06-13T10:12:14.000Z</time>
      </trkpt>
      <trkpt lat="47.26859" lon="-2.3189">
        <ele>6.5999999046326</ele>
        <time>2019-06-13T10:12:15.000Z</time>
      </trkpt>
      <trkpt lat="47.26855" lon="-2.31889">
        <ele>7</ele>
        <time>2019-06-13T10:12:16.000Z</time>
      </trkpt>
      <trkpt lat="47.26852" lon="-2.31887">
        <ele>7.4000000953674</ele>
        <time>2019-06-13T10:12:17.000Z</time>
      </trkpt>
      <trkpt lat="47.26848" lon="-2.31884">
        <ele>7.8000001907349</ele>
        <time>2019-06-13T10:12:18.000Z</time>
      </trkpt>
      <trkpt lat="47.26845" lon="-2.3188">
        <ele>7.8000001907349</ele>
        <time>2019-06-13T10:12:19.000Z</time>
      </trkpt>
      <trkpt lat="47.26836" lon="-2.31868">
        <ele>7.8000001907349</ele>
        <time>2019-06-13T10:12:22.000Z</time>
      </trkpt>
      <trkpt lat="47.26834" lon="-2.31864">
        <ele>7.8000001907349</ele>
        <time>2019-06-13T10:12:23.000Z</time>
      </trkpt>
      <trkpt lat="47.26829" lon="-2.31851">
        <ele>8.1999998092651</ele>
        <time>2019-06-13T10:12:26.000Z</time>
      </trkpt>
      <trkpt lat="47.26827" lon="-2.31846">
        <ele>8.6000003814697</ele>
        <time>2019-06-13T10:12:27.000Z</time>
      </trkpt>
      <trkpt lat="47.26825" lon="-2.31841">
        <ele>9</ele>
        <time>2019-06-13T10:12:28.000Z</time>
      </trkpt>
      <trkpt lat="47.26824" lon="-2.31837">
        <ele>9.6000003814697</ele>
        <time>2019-06-13T10:12:29.000Z</time>
      </trkpt>
      <trkpt lat="47.26823" lon="-2.31833">
        <ele>10</ele>
        <time>2019-06-13T10:12:30.000Z</time>
      </trkpt>
      <trkpt lat="47.26821" lon="-2.31829">
        <ele>10</ele>
        <time>2019-06-13T10:12:31.000Z</time>
      </trkpt>
      <trkpt lat="47.26817" lon="-2.31821">
        <ele>10</ele>
        <time>2019-06-13T10:12:33.000Z</time>
      </trkpt>
      <trkpt lat="47.26815" lon="-2.31812">
        <ele>10.39999961853</ele>
        <time>2019-06-13T10:12:36.000Z</time>
      </trkpt>
      <trkpt lat="47.26815" lon="-2.31808">
        <ele>10.800000190735</ele>
        <time>2019-06-13T10:12:37.000Z</time>
      </trkpt>
      <trkpt lat="47.26814" lon="-2.31807">
        <ele>11.199999809265</ele>
        <time>2019-06-13T10:12:38.000Z</time>
      </trkpt>
      <trkpt lat="47.26813" lon="-2.31807">
        <ele>11.60000038147</ele>
        <time>2019-06-13T10:12:39.000Z</time>
      </trkpt>
      <trkpt lat="47.2681" lon="-2.3181">
        <ele>12</ele>
        <time>2019-06-13T10:12:40.000Z</time>
      </trkpt>
      <trkpt lat="47.26807" lon="-2.31813">
        <ele>12</ele>
        <time>2019-06-13T10:12:41.000Z</time>
      </trkpt>
      <trkpt lat="47.268" lon="-2.31817">
        <ele>12</ele>
        <time>2019-06-13T10:12:43.000Z</time>
      </trkpt>
      <trkpt lat="47.26788" lon="-2.31824">
        <ele>12</ele>
        <time>2019-06-13T10:12:46.000Z</time>
      </trkpt>
      <trkpt lat="47.26759" lon="-2.31841">
        <ele>12</ele>
        <time>2019-06-13T10:12:53.000Z</time>
      </trkpt>
      <trkpt lat="47.26748" lon="-2.3185">
        <ele>12.39999961853</ele>
        <time>2019-06-13T10:12:56.000Z</time>
      </trkpt>
      <trkpt lat="47.26745" lon="-2.31853">
        <ele>12.800000190735</ele>
        <time>2019-06-13T10:12:57.000Z</time>
      </trkpt>
      <trkpt lat="47.26741" lon="-2.31856">
        <ele>13.199999809265</ele>
        <time>2019-06-13T10:12:58.000Z</time>
      </trkpt>
      <trkpt lat="47.26737" lon="-2.31857">
        <ele>13.60000038147</ele>
        <time>2019-06-13T10:12:59.000Z</time>
      </trkpt>
      <trkpt lat="47.26733" lon="-2.31854">
        <ele>14</ele>
        <time>2019-06-13T10:13:00.000Z</time>
      </trkpt>
      <trkpt lat="47.26728" lon="-2.31846">
        <ele>14</ele>
        <time>2019-06-13T10:13:02.000Z</time>
      </trkpt>
      <trkpt lat="47.26722" lon="-2.31823">
        <ele>14</ele>
        <time>2019-06-13T10:13:06.000Z</time>
      </trkpt>
      <trkpt lat="47.2672" lon="-2.31817">
        <ele>14</ele>
        <time>2019-06-13T10:13:07.000Z</time>
      </trkpt>
      <trkpt lat="47.26708" lon="-2.31773">
        <ele>14</ele>
        <time>2019-06-13T10:13:14.000Z</time>
      </trkpt>
      <trkpt lat="47.26702" lon="-2.31749">
        <ele>14</ele>
        <time>2019-06-13T10:13:18.000Z</time>
      </trkpt>
      <trkpt lat="47.26697" lon="-2.31731">
        <ele>14</ele>
        <time>2019-06-13T10:13:21.000Z</time>
      </trkpt>
      <trkpt lat="47.26685" lon="-2.31675">
        <ele>14</ele>
        <time>2019-06-13T10:13:29.000Z</time>
      </trkpt>
      <trkpt lat="47.26681" lon="-2.31661">
        <ele>14</ele>
        <time>2019-06-13T10:13:31.000Z</time>
      </trkpt>
      <trkpt lat="47.2667" lon="-2.31634">
        <ele>14</ele>
        <time>2019-06-13T10:13:35.000Z</time>
      </trkpt>
      <trkpt lat="47.26646" lon="-2.3158">
        <ele>14</ele>
        <time>2019-06-13T10:13:44.000Z</time>
      </trkpt>
      <trkpt lat="47.26635" lon="-2.3156">
        <ele>14</ele>
        <time>2019-06-13T10:13:48.000Z</time>
      </trkpt>
      <trkpt lat="47.26631" lon="-2.3156">
        <ele>14</ele>
        <time>2019-06-13T10:13:49.000Z</time>
      </trkpt>
      <trkpt lat="47.26617" lon="-2.31569">
        <ele>14</ele>
        <time>2019-06-13T10:13:52.000Z</time>
      </trkpt>
      <trkpt lat="47.26588" lon="-2.31589">
        <ele>14</ele>
        <time>2019-06-13T10:13:57.000Z</time>
      </trkpt>
      <trkpt lat="47.26582" lon="-2.31593">
        <ele>13.60000038147</ele>
        <time>2019-06-13T10:13:58.000Z</time>
      </trkpt>
      <trkpt lat="47.26575" lon="-2.31598">
        <ele>13.199999809265</ele>
        <time>2019-06-13T10:13:59.000Z</time>
      </trkpt>
      <trkpt lat="47.26569" lon="-2.31603">
        <ele>12.800000190735</ele>
        <time>2019-06-13T10:14:00.000Z</time>
      </trkpt>
      <trkpt lat="47.26561" lon="-2.31608">
        <ele>12.39999961853</ele>
        <time>2019-06-13T10:14:01.000Z</time>
      </trkpt>
      <trkpt lat="47.26554" lon="-2.31613">
        <ele>12</ele>
        <time>2019-06-13T10:14:02.000Z</time>
      </trkpt>
      <trkpt lat="47.26533" lon="-2.31627">
        <ele>11.39999961853</ele>
        <time>2019-06-13T10:14:05.000Z</time>
      </trkpt>
      <trkpt lat="47.26526" lon="-2.31631">
        <ele>10.800000190735</ele>
        <time>2019-06-13T10:14:06.000Z</time>
      </trkpt>
      <trkpt lat="47.26518" lon="-2.31636">
        <ele>10.39999961853</ele>
        <time>2019-06-13T10:14:07.000Z</time>
      </trkpt>
      <trkpt lat="47.26512" lon="-2.31639">
        <ele>9.8000001907349</ele>
        <time>2019-06-13T10:14:08.000Z</time>
      </trkpt>
      <trkpt lat="47.26503" lon="-2.31642">
        <ele>9.1999998092651</ele>
        <time>2019-06-13T10:14:09.000Z</time>
      </trkpt>
      <trkpt lat="47.26473" lon="-2.31649">
        <ele>8.8000001907349</ele>
        <time>2019-06-13T10:14:13.000Z</time>
      </trkpt>
      <trkpt lat="47.26466" lon="-2.31651">
        <ele>8.1999998092651</ele>
        <time>2019-06-13T10:14:14.000Z</time>
      </trkpt>
      <trkpt lat="47.26458" lon="-2.31652">
        <ele>7.5999999046326</ele>
        <time>2019-06-13T10:14:15.000Z</time>
      </trkpt>
      <trkpt lat="47.26451" lon="-2.31653">
        <ele>7.1999998092651</ele>
        <time>2019-06-13T10:14:16.000Z</time>
      </trkpt>
      <trkpt lat="47.26443" lon="-2.31654">
        <ele>6.5999999046326</ele>
        <time>2019-06-13T10:14:17.000Z</time>
      </trkpt>
      <trkpt lat="47.26436" lon="-2.31655">
        <ele>6</ele>
        <time>2019-06-13T10:14:18.000Z</time>
      </trkpt>
      <trkpt lat="47.26429" lon="-2.31656">
        <ele>5.1999998092651</ele>
        <time>2019-06-13T10:14:19.000Z</time>
      </trkpt>
      <trkpt lat="47.26422" lon="-2.31658">
        <ele>4.5999999046326</ele>
        <time>2019-06-13T10:14:20.000Z</time>
      </trkpt>
      <trkpt lat="47.26416" lon="-2.31658">
        <ele>4</ele>
        <time>2019-06-13T10:14:21.000Z</time>
      </trkpt>
      <trkpt lat="47.2641" lon="-2.31654">
        <ele>2.5999999046326</ele>
        <time>2019-06-13T10:14:22.000Z</time>
      </trkpt>
      <trkpt lat="47.26406" lon="-2.31648">
        <ele>2</ele>
        <time>2019-06-13T10:14:23.000Z</time>
      </trkpt>
      <trkpt lat="47.26402" lon="-2.31642">
        <ele>2</ele>
        <time>2019-06-13T10:14:24.000Z</time>
      </trkpt>
      <trkpt lat="47.26402" lon="-2.31628">
        <ele>2</ele>
        <time>2019-06-13T10:14:26.000Z</time>
      </trkpt>
      <trkpt lat="47.26402" lon="-2.31622">
        <ele>2</ele>
        <time>2019-06-13T10:14:27.000Z</time>
      </trkpt>
      <trkpt lat="47.26401" lon="-2.31596">
        <ele>2</ele>
        <time>2019-06-13T10:14:31.000Z</time>
      </trkpt>
      <trkpt lat="47.26402" lon="-2.31591">
        <ele>2</ele>
        <time>2019-06-13T10:14:32.000Z</time>
      </trkpt>
      <trkpt lat="47.26403" lon="-2.31557">
        <ele>2</ele>
        <time>2019-06-13T10:14:38.000Z</time>
      </trkpt>
      <trkpt lat="47.26407" lon="-2.31552">
        <ele>2</ele>
        <time>2019-06-13T10:14:40.000Z</time>
      </trkpt>
      <trkpt lat="47.2641" lon="-2.31552">
        <ele>2</ele>
        <time>2019-06-13T10:14:41.000Z</time>
      </trkpt>
      <trkpt lat="47.26417" lon="-2.31553">
        <ele>2</ele>
        <time>2019-06-13T10:14:45.000Z</time>
      </trkpt>
    </trkseg>
  </trk>
</gpx>